# Wetter Temperatur Luftdruck Luftfeuchtigkeit Sichtweite Windgeschwindigkeit Windrichtung Zeit
1 Rain 14 1010 93 10000 3.6 140 20:19 17.10.2019
2 Rain 14 1010 93 10000 3.6 140 19:59 17.10.2019
3 Rain 14 1010 93 10000 4.6 140 19:39 17.10.2019
4 Rain 14 1010 93 10000 4.1 140 19:19 17.10.2019
5 Rain 15 1011 93 10000 4.1 140 18:58 17.10.2019
6 Rain 15 1011 93 10000 4.1 140 18:38 17.10.2019
7 Rain 15 1011 93 10000 3.6 150 18:20 17.10.2019
8 Rain 15 1011 87 10000 4.1 170 17:42 17.10.2019
9 Rain 15 1011 77 10000 4.6 180 17:23 17.10.2019
10 Clouds 15 1010 87 10000 3.1 120 16:58 17.10.2019
11 Clouds 15 1010 77 10000 3.6 180 16:39 17.10.2019
12 Clouds 15 1011 82 10000 3.6 150 16:18 17.10.2019
13 Clouds 15 1011 82 10000 3.6 150 15:56 17.10.2019
14 Clouds 15 1011 87 10000 3.1 120 15:38 17.10.2019
15 Clouds 15 1011 87 10000 2.1 110 15:20 17.10.2019
16 Clouds 15 1011 87 10000 1.5 70 14:56 17.10.2019
17 Clouds 15 1011 87 10000 1.5 70 14:37 17.10.2019
18 Clouds 15 1011 93 9000 2.1 60 14:19 17.10.2019
19 Drizzle 15 1011 82 6000 0.5 70 13:39 17.10.2019
20 Clouds 15 1012 77 10000 3.6 240 13:20 17.10.2019
21 Clouds 15 1012 67 10000 4.6 210 12:57 17.10.2019
22 Clouds 15 1012 67 10000 4.6 210 12:37 17.10.2019
23 Clouds 15 1012 67 10000 4.6 210 12:37 17.10.2019
24 Clouds 15 1012 63 10000 6.7 220 12:18 17.10.2019
25 Clouds 15 1012 63 10000 6.7 220 12:18 17.10.2019
26 Clouds 15 1012 67 10000 6.2 230 11:42 17.10.2019
27 Clouds 15 1012 67 10000 6.2 230 11:42 17.10.2019
28 Clouds 15 1011 77 10000 5.1 200 11:22 17.10.2019
29 Clouds 15 1011 77 10000 5.1 200 10:59 17.10.2019
30 Clouds 15 1011 77 10000 5.1 190 10:41 17.10.2019
31 Clouds 15 1011 77 10000 5.1 190 10:41 17.10.2019
32 Clouds 14 1011 77 10000 3.6 170 10:19 17.10.2019
33 -273 0 0 0 0 0 09:56 17.10.2019
34 Clouds 14 1011 82 10000 3.1 180 09:38 17.10.2019
35 Clouds 14 1011 87 10000 4.1 170 09:19 17.10.2019
36 Clouds 14 1010 82 10000 3.6 160 08:49 17.10.2019
37 Clouds 14 1010 87 10000 3.6 170 08:27 17.10.2019
38 Clouds 14 1009 82 10000 4.6 170 07:59 17.10.2019
39 Clouds 14 1009 82 10000 4.6 170 07:41 17.10.2019
40 Clouds 14 1009 87 10000 4.6 170 07:21 17.10.2019
41 Clouds 14 1009 87 10000 4.6 170 06:55 17.10.2019
42 Clouds 14 1009 87 10000 4.6 170 06:37 17.10.2019
43 Clouds 14 1009 93 10000 3.6 160 06:18 17.10.2019
44 Clouds 14 1009 82 10000 3.6 150 05:41 17.10.2019
45 Rain 14 1009 87 10000 3.6 150 05:20 17.10.2019
46 Rain 14 1009 87 10000 3.6 150 04:48 17.10.2019
47 Clouds 14 1009 87 10000 3.1 140 03:49 17.10.2019
48 Clouds 14 1009 87 10000 3.1 140 03:49 17.10.2019
49 Rain 13 1010 87 10000 4.1 130 02:32 17.10.2019
50 Rain 13 1010 93 10000 4.1 140 00:43 17.10.2019
51 Rain 14 1010 93 10000 4.1 140 00:21 17.10.2019
52 Rain 13 1010 93 10000 4.1 140 23:59 16.10.2019
53 Rain 14 1010 93 10000 4.6 170 23:41 16.10.2019
54 Rain 14 1010 87 10000 5.1 170 23:19 16.10.2019
55 Rain 14 1010 87 10000 5.1 170 23:19 16.10.2019
56 Clouds 14 1010 87 10000 4.1 170 22:55 16.10.2019
57 Clouds 14 1010 87 10000 4.1 170 22:55 16.10.2019
58 Clouds 14 1010 87 10000 4.1 170 22:36 16.10.2019
59 Clouds 14 1010 87 10000 4.1 170 22:36 16.10.2019
60 Clouds 14 1010 87 10000 4.1 170 22:18 16.10.2019
61 Clouds 14 1010 87 10000 4.6 170 21:55 16.10.2019
62 Clouds 14 1010 87 10000 4.6 170 21:37 16.10.2019
63 Clouds 14 1010 87 10000 4.6 170 21:18 16.10.2019
64 Clouds 14 1010 87 10000 4.6 170 21:18 16.10.2019
65 Rain 14 1010 87 10000 4.1 160 20:56 16.10.2019
66 Rain 14 1010 87 10000 4.1 160 20:38 16.10.2019
67 Rain 14 1010 93 9000 3.1 130 20:20 16.10.2019
68 Rain 14 1010 93 9000 3.6 160 19:56 16.10.2019
69 Rain 14 1010 93 9000 3.6 160 19:38 16.10.2019
70 Rain 14 1010 87 10000 4.1 160 19:19 16.10.2019
71 Rain 14 1010 93 10000 3.6 140 18:39 16.10.2019
72 Rain 14 1010 87 10000 3.6 160 18:19 16.10.2019
73 Rain 14 1010 87 10000 3.6 170 17:56 16.10.2019
74 Rain 14 1010 87 10000 3.6 170 17:38 16.10.2019
75 Rain 14 1010 87 10000 4.1 170 17:20 16.10.2019
76 Clouds 14 1010 87 10000 4.6 160 16:58 16.10.2019
77 Clouds 14 1010 87 10000 4.6 160 16:40 16.10.2019
78 Rain 14 1010 87 10000 5.1 160 16:20 16.10.2019
79 Rain 14 1010 87 10000 5.1 160 15:56 16.10.2019
80 -273 0 0 0 0 0 15:55 16.10.2019
81 Rain 14 1010 87 10000 5.1 160 15:36 16.10.2019
82 Rain 14 1010 87 10000 4.1 170 15:18 16.10.2019
83 Rain 14 1010 87 10000 4.1 170 15:18 16.10.2019
84 Rain 14 1010 87 10000 4.1 170 14:55 16.10.2019
85 Rain 13 1010 87 10000 4.1 170 14:37 16.10.2019
86 Rain 13 1010 93 10000 4.6 160 14:18 16.10.2019
87 Rain 13 1010 93 10000 4.6 160 13:55 16.10.2019
88 -273 0 0 0 0 0 13:55 16.10.2019
89 Rain 14 1010 82 10000 5.1 200 13:36 16.10.2019
90 Clouds 14 1011 72 10000 5.7 170 13:18 16.10.2019
91 Clouds 14 1011 72 10000 6.2 190 12:40 16.10.2019
92 Clouds 14 1011 76 10000 6.2 180 12:18 16.10.2019
93 Clouds 14 1011 76 10000 5.1 180 11:42 16.10.2019
94 Clouds 13 1011 82 10000 4.1 170 11:18 16.10.2019
95 Clouds 13 1012 81 10000 4.1 170 10:39 16.10.2019
96 Clouds 12 1011 81 10000 4.6 170 10:20 16.10.2019
97 Clouds 12 1011 81 10000 4.6 170 09:56 16.10.2019
98 Clouds 12 1011 87 10000 3.6 160 09:38 16.10.2019
99 Clouds 11 1011 87 10000 3.6 170 09:19 16.10.2019
100 Clouds 11 1011 93 10000 3.1 170 08:43 16.10.2019
101 Clouds 11 1011 93 10000 3.1 160 08:24 16.10.2019
102 Clouds 11 1011 93 10000 3.1 160 07:55 16.10.2019
103 Clouds 11 1011 93 10000 3.6 180 07:37 16.10.2019
104 Clouds 11 1011 93 10000 2.6 170 07:18 16.10.2019
105 Clouds 11 1011 87 10000 2.6 180 06:39 16.10.2019
106 Clouds 11 1011 87 10000 2.6 180 06:39 16.10.2019
107 Clouds 11 1011 87 10000 3.1 180 05:54 16.10.2019
108 Rain 12 1010 93 10000 3.1 180 03:27 16.10.2019
109 Rain 12 1010 93 10000 3.1 170 02:49 16.10.2019
110 Rain 12 1010 93 10000 1.5 220 01:19 16.10.2019
111 Rain 12 1010 93 10000 1.5 220 00:52 16.10.2019
112 Rain 12 1010 93 10000 3.1 230 00:32 16.10.2019
113 Rain 13 1009 100 10000 4.1 260 23:41 15.10.2019
114 Rain 13 1009 100 10000 4.1 260 23:41 15.10.2019
115 Rain 13 1009 100 10000 4.1 260 23:41 15.10.2019
116 Rain 13 1009 93 6000 7.7 280 23:22 15.10.2019
117 Rain 13 1009 93 6000 7.7 280 22:57 15.10.2019
118 Rain 13 1009 100 10000 2.1 210 22:38 15.10.2019
119 Rain 13 1008 100 10000 1.5 240 22:20 15.10.2019
120 Rain 13 1008 100 10000 1.5 240 21:57 15.10.2019
121 Rain 13 1008 93 10000 2.1 240 21:38 15.10.2019
122 Rain 13 1008 93 8000 2.1 230 21:20 15.10.2019
123 Rain 13 1008 93 8000 2.1 230 20:58 15.10.2019
124 Rain 13 1008 93 10000 2.1 310 20:40 15.10.2019
125 Rain 13 1008 93 10000 2.1 310 20:40 15.10.2019
126 Rain 13 1008 93 10000 3.6 300 20:21 15.10.2019
127 Rain 13 1008 93 10000 3.6 300 19:59 15.10.2019
128 Rain 14 1007 93 10000 2.1 310 19:41 15.10.2019
129 Rain 14 1007 93 9000 3.6 290 19:20 15.10.2019
130 -273 0 0 0 0 0 18:55 15.10.2019
131 Rain 14 1007 93 10000 1.5 360 18:37 15.10.2019
132 Rain 15 1007 93 6000 3.6 280 18:19 15.10.2019
133 Rain 15 1007 87 10000 2.1 280 17:42 15.10.2019
134 Rain 15 1007 87 10000 2.1 280 17:41 15.10.2019
135 Rain 15 1007 87 10000 2.1 280 17:41 15.10.2019
136 Rain 15 1006 82 10000 2.1 340 17:21 15.10.2019
137 Rain 16 1006 77 10000 1.5 340 16:59 15.10.2019
138 Rain 16 1006 77 10000 1.5 340 16:40 15.10.2019
139 Rain 16 1006 72 10000 2.1 310 16:21 15.10.2019
140 Rain 16 1006 72 10000 2.1 310 15:55 15.10.2019
141 Rain 17 1006 72 10000 2.6 330 15:37 15.10.2019
142 Rain 17 1007 82 7000 1.5 320 15:19 15.10.2019
143 -273 0 0 0 0 0 14:54 15.10.2019
144 Clouds 17 1007 72 10000 1.5 300 14:36 15.10.2019
145 Clouds 17 1007 72 10000 1.5 260 14:18 15.10.2019
146 Clouds 17 1007 72 10000 2.1 250 13:43 15.10.2019
147 Clouds 17 1007 68 10000 1.5 290 13:20 15.10.2019
148 Clouds 17 1007 72 10000 2.6 310 12:46 15.10.2019
149 Rain 17 1007 72 10000 2.1 290 12:23 15.10.2019
150 Rain 17 1007 72 10000 1.5 320 11:59 15.10.2019
151 Rain 17 1007 72 10000 1.5 320 11:41 15.10.2019
152 Rain 16 1007 82 10000 1 0 11:20 15.10.2019
153 Rain 16 1006 77 10000 1 80 10:46 15.10.2019
154 Rain 16 1006 82 10000 2.1 60 10:24 15.10.2019
155 Rain 15 1007 87 10000 1.5 260 09:59 15.10.2019
156 Rain 15 1007 87 10000 1.5 260 09:40 15.10.2019
157 Rain 15 1006 87 10000 1 0 09:21 15.10.2019
158 Clear 14 1005 82 10000 2.6 110 08:58 15.10.2019
159 Clear 14 1005 82 10000 2.6 110 08:58 15.10.2019
160 Clear 14 1005 82 10000 2.6 110 08:40 15.10.2019
161 Clear 14 1005 82 10000 2.1 90 08:20 15.10.2019
162 Clear 14 1005 82 10000 2.1 90 08:19 15.10.2019
163 Clear 14 1005 87 10000 1.5 50 07:43 15.10.2019
164 Clear 14 1006 82 10000 1 0 07:23 15.10.2019
165 Clear 14 1006 77 10000 2.6 110 06:57 15.10.2019
166 Clear 14 1006 77 10000 2.6 110 06:39 15.10.2019
167 Clear 15 1006 77 10000 3.1 130 05:56 15.10.2019
168 Clear 15 1006 77 10000 3.1 130 05:37 15.10.2019
169 Clear 15 1007 87 10000 2.6 160 04:49 15.10.2019
170 Clear 16 1007 72 10000 2.1 140 04:19 15.10.2019
171 Clear 17 1007 72 10000 3.1 140 03:35 15.10.2019
172 Clear 18 1007 68 10000 3.1 130 01:59 15.10.2019
173 Clear 18 1007 68 10000 3.1 130 01:40 15.10.2019
174 Clear 18 1007 63 10000 3.6 120 00:59 15.10.2019
175 Clear 18 1007 63 10000 3.6 120 00:59 15.10.2019
176 Clear 19 1007 60 10000 3.1 100 00:26 15.10.2019
177 Clear 19 1007 60 10000 3.1 100 23:59 14.10.2019
178 Clear 19 1007 60 10000 3.6 120 23:37 14.10.2019
179 Rain 19 1007 64 10000 4.1 120 23:19 14.10.2019
180 Rain 19 1007 64 10000 4.1 120 23:19 14.10.2019
181 Rain 19 1008 68 10000 3.1 110 22:40 14.10.2019
182 Clear 19 1008 64 10000 3.1 110 22:21 14.10.2019
183 Clear 19 1008 64 10000 3.1 110 21:59 14.10.2019
184 Clear 19 1008 64 10000 4.1 110 21:40 14.10.2019
185 Clear 19 1008 64 10000 4.1 110 21:40 14.10.2019
186 Clear 19 1008 64 10000 3.6 120 21:21 14.10.2019
187 Clear 19 1008 64 10000 3.6 120 20:58 14.10.2019
188 Clear 19 1008 64 10000 3.1 110 20:38 14.10.2019
189 Clear 19 1008 64 10000 3.1 120 20:19 14.10.2019
190 Clear 19 1008 64 10000 3.1 120 19:58 14.10.2019
191 Clouds 20 1008 60 10000 2.6 120 19:39 14.10.2019
192 Clouds 20 1008 60 10000 2.6 120 19:39 14.10.2019
193 Clear 20 1008 60 10000 2.6 110 19:21 14.10.2019
194 Clear 20 1008 60 10000 2.6 110 18:57 14.10.2019
195 Clear 21 1008 64 10000 3.6 140 18:38 14.10.2019
196 Clear 22 1008 60 10000 4.1 140 18:18 14.10.2019
197 Clear 23 1009 53 10000 4.1 150 17:44 14.10.2019
198 Clear 23 1009 56 10000 6.2 150 17:25 14.10.2019
199 Clouds 23 1009 50 10000 4.1 180 16:58 14.10.2019
200 Clouds 23 1009 50 10000 4.1 180 16:40 14.10.2019
201 Clear 23 1009 56 10000 6.7 160 16:19 14.10.2019
202 Clear 23 1009 56 10000 6.2 130 15:41 14.10.2019
203 Clear 23 1010 60 10000 6.2 130 15:22 14.10.2019
204 Clear 22 1011 56 10000 6.2 130 14:46 14.10.2019
205 Clear 22 1011 60 10000 5.1 130 14:26 14.10.2019
206 Clear 22 1011 60 10000 5.1 130 13:59 14.10.2019
207 Clear 21 1011 60 10000 5.7 140 13:41 14.10.2019
208 Clear 21 1012 68 10000 3.6 120 13:21 14.10.2019
209 Clear 20 1012 64 10000 3.6 120 12:54 14.10.2019
210 Clear 20 1012 64 10000 3.6 120 12:36 14.10.2019
211 Clear 19 1013 68 10000 4.6 140 12:18 14.10.2019
212 Clear 18 1013 68 10000 4.6 140 11:43 14.10.2019
213 Clear 18 1013 77 10000 3.1 130 11:24 14.10.2019
214 Clear 17 1013 77 10000 3.1 130 10:55 14.10.2019
215 Clear 16 1013 77 10000 3.1 130 10:37 14.10.2019
216 Clear 16 1013 82 10000 2.1 140 10:18 14.10.2019
217 -273 0 0 0 0 0 09:41 14.10.2019
218 Clouds 14 1013 93 10000 1 0 09:21 14.10.2019
219 Clouds 14 1013 93 10000 3.1 130 08:50 14.10.2019
220 Clouds 14 1013 93 10000 2.1 110 08:23 14.10.2019
221 Clouds 14 1013 93 10000 2.1 50 07:47 14.10.2019
222 Clouds 14 1013 87 10000 2.1 150 07:25 14.10.2019
223 Clouds 14 1014 93 10000 0.5 0 06:59 14.10.2019
224 Clouds 14 1014 100 10000 1 0 06:28 14.10.2019
225 Clouds 14 1014 93 10000 0.5 0 05:57 14.10.2019
226 Rain 14 1014 93 10000 1 0 05:27 14.10.2019
227 Rain 15 1014 87 10000 1 0 04:34 14.10.2019
228 Clouds 16 1014 87 10000 3.6 310 03:26 14.10.2019
229 Clouds 16 1013 88 10000 4.1 320 02:34 14.10.2019
230 Rain 17 1012 93 10000 3.1 250 01:22 14.10.2019
231 Clouds 18 1012 77 10000 3.6 240 00:45 14.10.2019
232 Clouds 18 1011 88 10000 3.6 270 00:19 14.10.2019
233 Rain 19 1012 64 10000 4.1 210 23:44 13.10.2019
234 Rain 19 1012 64 10000 3.6 200 23:20 13.10.2019
235 Rain 19 1011 64 10000 3.6 210 22:58 13.10.2019
236 Rain 20 1011 64 10000 3.6 210 22:40 13.10.2019
237 Rain 20 1011 64 10000 6.2 190 22:21 13.10.2019
238 Clear 20 1010 64 10000 6.2 180 21:58 13.10.2019
239 Clear 20 1010 64 10000 6.2 180 21:37 13.10.2019
240 Clear 20 1010 64 10000 6.2 180 21:37 13.10.2019
241 Rain 21 1010 64 10000 6.2 180 21:18 13.10.2019
242 Rain 21 1010 64 10000 6.2 180 21:18 13.10.2019
243 Rain 21 1010 64 10000 6.2 180 20:57 13.10.2019
244 Clear 21 1010 64 10000 6.7 170 20:57 13.10.2019
245 Rain 21 1010 64 10000 6.2 180 20:57 13.10.2019
246 Clear 21 1010 64 10000 6.7 170 20:38 13.10.2019
247 Clear 21 1010 68 10000 5.7 180 20:20 13.10.2019
248 Clear 21 1010 64 10000 4.6 180 19:58 13.10.2019
249 Clear 21 1010 64 10000 4.6 180 19:57 13.10.2019
250 Clear 21 1010 64 10000 4.6 180 19:39 13.10.2019
251 Clear 22 1009 64 10000 5.1 180 19:20 13.10.2019
252 -273 0 0 0 0 0 18:56 13.10.2019
253 Clear 22 1009 60 10000 5.7 180 18:56 13.10.2019
254 Clear 22 1009 60 10000 5.7 180 18:36 13.10.2019
255 Clear 23 1009 56 10000 7.2 190 18:18 13.10.2019
256 Clear 23 1009 53 10000 7.7 190 17:44 13.10.2019
257 Clear 24 1009 57 10000 6.7 170 17:26 13.10.2019
258 -273 0 0 0 0 0 17:25 13.10.2019
259 Clear 24 1009 57 10000 6.7 170 17:25 13.10.2019
260 -273 0 0 0 0 0 16:56 13.10.2019
261 Clear 24 1009 57 10000 7.2 180 16:36 13.10.2019
262 Clear 24 1009 57 10000 7.7 170 16:18 13.10.2019
263 Clear 24 1009 57 10000 7.2 170 15:55 13.10.2019
264 Clear 24 1009 57 10000 7.2 170 15:55 13.10.2019
265 Clear 24 1009 57 10000 7.2 170 15:36 13.10.2019
266 Clear 24 1009 57 10000 7.2 160 15:18 13.10.2019
267 Clear 24 1009 60 10000 6.7 170 14:56 13.10.2019
268 Clear 24 1009 60 10000 6.7 170 14:37 13.10.2019
269 Clear 23 1009 64 10000 4.6 150 14:18 13.10.2019
270 Clear 22 1010 73 10000 4.1 150 13:39 13.10.2019
271 Clear 22 1010 73 10000 4.1 150 13:39 13.10.2019
272 Clear 21 1010 72 10000 4.6 140 13:21 13.10.2019
273 Clear 21 1010 72 10000 4.6 140 12:57 13.10.2019
274 Clear 20 1010 77 10000 4.1 130 12:39 13.10.2019
275 Clear 19 1010 82 10000 4.1 130 12:20 13.10.2019
276 Rain 19 1010 82 10000 2.6 110 11:58 13.10.2019
277 Rain 18 1010 82 10000 2.6 110 11:39 13.10.2019
278 Clear 18 1011 88 10000 2.1 110 11:20 13.10.2019
279 Clouds 18 1011 88 10000 2.1 110 10:56 13.10.2019
280 Clouds 17 1011 88 10000 2.1 110 10:38 13.10.2019
281 Rain 17 1011 82 10000 5.1 130 10:19 13.10.2019
282 -273 0 0 0 0 0 09:39 13.10.2019
283 Clouds 17 1011 87 10000 2.6 130 09:21 13.10.2019
284 Rain 16 1011 87 10000 2.6 90 08:43 13.10.2019
285 Rain 16 1011 87 10000 3.6 120 08:25 13.10.2019
286 Clear 16 1010 87 10000 3.1 120 07:52 13.10.2019
287 Clear 16 1010 93 10000 3.1 120 07:33 13.10.2019
288 Clear 16 1010 93 10000 2.6 120 06:53 13.10.2019
289 Clear 16 1010 87 10000 2.1 110 06:24 13.10.2019
290 Clear 16 1010 87 10000 2.1 110 06:24 13.10.2019
291 Clouds 16 1011 87 10000 3.6 130 05:21 13.10.2019
292 Clouds 16 1011 87 10000 5.1 140 04:34 13.10.2019
293 Clouds 16 1011 87 10000 5.1 140 04:34 13.10.2019
294 Clouds 16 1011 87 10000 5.1 140 03:24 13.10.2019
295 Clouds 15 1012 87 10000 4.6 160 02:30 13.10.2019
296 Clouds 16 1012 87 10000 3.6 150 01:37 13.10.2019
297 Clouds 16 1012 77 10000 3.1 150 00:56 13.10.2019
298 Clouds 16 1012 77 10000 3.1 150 00:38 13.10.2019
299 Clouds 16 1012 77 10000 3.6 150 00:19 13.10.2019
300 Clouds 16 1012 77 10000 2.6 170 23:42 12.10.2019
301 Clouds 16 1012 82 10000 2.6 150 23:23 12.10.2019
302 Clouds 16 1012 82 10000 2.6 150 22:59 12.10.2019
303 Clear 16 1011 77 10000 2.6 140 22:40 12.10.2019
304 Clear 17 1011 77 10000 2.1 130 22:22 12.10.2019
305 Clear 17 1011 77 10000 2.1 130 21:58 12.10.2019
306 Clear 17 1011 77 10000 1.5 130 21:40 12.10.2019
307 Clear 17 1011 77 10000 2.6 160 21:22 12.10.2019
308 Clear 17 1011 72 10000 2.6 160 20:56 12.10.2019
309 Clear 17 1011 72 10000 2.6 160 20:37 12.10.2019
310 Clear 17 1011 72 10000 3.1 170 20:19 12.10.2019
311 Clear 17 1011 77 10000 1.5 180 19:36 12.10.2019
312 Rain 17 1011 72 10000 3.1 150 19:18 12.10.2019
313 Rain 18 1011 68 10000 2.6 200 18:44 12.10.2019
314 Rain 18 1011 68 10000 2.6 200 18:26 12.10.2019
315 Clouds 18 1011 68 10000 4.1 200 18:26 12.10.2019
316 Rain 18 1011 68 10000 4.1 200 17:56 12.10.2019
317 Rain 18 1011 68 10000 4.1 200 17:55 12.10.2019
318 Rain 18 1011 68 10000 4.1 200 17:37 12.10.2019
319 Clouds 18 1011 72 10000 1.5 190 17:18 12.10.2019
320 Clouds 19 1012 68 10000 1.5 210 16:41 12.10.2019
321 Rain 19 1012 72 10000 1 0 16:21 12.10.2019
322 Rain 19 1012 63 10000 2.6 190 15:58 12.10.2019
323 Rain 19 1012 63 10000 2.6 190 15:39 12.10.2019
324 Clouds 19 1012 63 10000 2.6 190 15:21 12.10.2019
325 Clouds 19 1012 63 10000 3.1 190 14:41 12.10.2019
326 Clouds 19 1012 63 10000 4.6 210 14:21 12.10.2019
327 Clouds 19 1012 63 10000 4.6 210 13:53 12.10.2019
328 Clouds 19 1012 63 10000 4.6 210 13:33 12.10.2019
329 -273 0 0 0 0 0 12:59 12.10.2019
330 Clouds 18 1012 63 10000 6.2 210 12:38 12.10.2019
331 Clouds 17 1012 63 10000 6.2 220 12:20 12.10.2019
332 Clouds 17 1012 67 10000 6.7 210 11:56 12.10.2019
333 Clouds 17 1012 67 10000 6.7 210 11:38 12.10.2019
334 Clouds 17 1012 67 10000 6.7 210 11:38 12.10.2019
335 Clouds 17 1012 67 10000 5.7 210 11:18 12.10.2019
336 Clouds 16 1012 72 10000 4.6 190 10:41 12.10.2019
337 Clouds 16 1011 72 10000 5.1 190 10:23 12.10.2019
338 Clouds 15 1011 77 10000 4.1 180 09:57 12.10.2019
339 Clouds 15 1011 77 10000 4.1 180 09:57 12.10.2019
340 Clouds 15 1011 77 10000 4.1 180 09:38 12.10.2019
341 Clouds 14 1011 76 10000 4.1 180 09:19 12.10.2019
342 Clouds 14 1011 87 10000 3.6 160 08:44 12.10.2019
343 Clouds 14 1010 82 10000 4.1 160 08:25 12.10.2019
344 Clear 13 1010 87 10000 5.1 160 07:59 12.10.2019
345 Clear 14 1010 81 10000 4.6 160 07:31 12.10.2019
346 Clear 13 1010 87 10000 4.6 160 06:37 12.10.2019
347 Clear 14 1010 87 10000 4.6 160 05:44 12.10.2019
348 Clear 14 1011 87 10000 4.6 160 04:43 12.10.2019
349 Clear 14 1011 82 10000 5.1 170 03:56 12.10.2019
350 Clear 15 1011 77 10000 5.7 180 02:54 12.10.2019
351 Clear 15 1011 72 10000 5.7 180 01:35 12.10.2019
352 Clear 16 1012 72 10000 5.7 180 00:58 12.10.2019
353 Clear 16 1012 77 10000 5.1 180 00:39 12.10.2019
354 Clouds 16 1012 82 10000 4.6 170 23:57 11.10.2019
355 Clouds 16 1012 82 10000 4.6 170 23:38 11.10.2019
356 Clouds 16 1012 82 10000 3.1 170 23:19 11.10.2019
357 Clouds 16 1012 82 10000 3.6 170 22:39 11.10.2019
358 Clear 16 1012 77 10000 4.1 170 22:21 11.10.2019
359 Clear 16 1012 77 10000 4.1 170 21:56 11.10.2019
360 Clear 16 1012 77 10000 4.1 180 21:38 11.10.2019
361 Clear 16 1012 77 10000 4.1 180 21:19 11.10.2019
362 Clouds 16 1012 77 10000 3.6 170 20:43 11.10.2019
363 Clouds 16 1012 77 10000 3.1 170 20:25 11.10.2019
364 Clouds 16 1013 77 10000 3.1 190 19:56 11.10.2019
365 Clouds 16 1013 77 10000 3.1 190 19:38 11.10.2019
366 Clouds 16 1012 72 10000 3.6 190 19:18 11.10.2019
367 Clouds 16 1012 72 10000 4.6 200 18:58 11.10.2019
368 Clouds 16 1012 72 10000 3.6 190 18:58 11.10.2019
369 Clouds 16 1012 72 10000 4.6 200 18:38 11.10.2019
370 Clouds 16 1013 67 10000 6.2 210 18:19 11.10.2019
371 Clouds 16 1013 67 10000 6.2 210 17:58 11.10.2019
372 Clouds 16 1013 63 10000 6.2 210 17:38 11.10.2019
373 Clouds 16 1013 67 10000 6.7 210 17:19 11.10.2019
374 Clouds 17 1013 67 10000 5.1 190 16:56 11.10.2019
375 Clouds 17 1013 67 10000 5.1 190 16:37 11.10.2019
376 Clouds 17 1013 67 10000 4.1 190 16:19 11.10.2019
377 Clouds 16 1014 72 10000 4.6 190 15:41 11.10.2019
378 Clouds 16 1014 72 10000 4.6 190 15:41 11.10.2019
379 Clouds 16 1014 67 10000 4.6 200 15:20 11.10.2019
380 Clouds 16 1014 67 10000 6.2 210 14:58 11.10.2019
381 Clouds 16 1014 67 10000 6.2 210 14:38 11.10.2019
382 Clouds 16 1015 67 10000 6.2 220 14:19 11.10.2019
383 Clouds 16 1015 67 10000 6.2 220 14:19 11.10.2019
384 Rain 16 1015 72 10000 3.6 210 13:45 11.10.2019
385 Rain 16 1015 72 10000 5.1 190 13:25 11.10.2019
386 Rain 15 1015 72 10000 4.6 200 12:57 11.10.2019
387 Rain 15 1015 72 10000 4.6 200 12:38 11.10.2019
388 Clouds 15 1015 72 10000 6.2 190 12:20 11.10.2019
389 Clouds 15 1015 72 10000 6.2 150 11:58 11.10.2019
390 Clouds 15 1015 72 10000 6.2 150 11:38 11.10.2019
391 Clouds 15 1015 72 10000 6.2 150 11:38 11.10.2019
392 Clouds 14 1015 76 10000 6.2 150 11:20 11.10.2019
393 Rain 14 1015 82 10000 6.2 160 10:55 11.10.2019
394 Rain 14 1015 82 10000 6.2 160 10:55 11.10.2019
395 Rain 14 1015 82 10000 6.2 160 10:36 11.10.2019
396 Clouds 13 1016 76 10000 5.7 160 10:18 11.10.2019
397 Rain 13 1015 81 10000 5.7 160 09:42 11.10.2019
398 Rain 13 1015 81 10000 5.7 160 09:21 11.10.2019
399 Rain 12 1015 81 10000 4.6 150 08:57 11.10.2019
400 Rain 12 1015 81 10000 4.6 150 08:38 11.10.2019
401 Rain 12 1015 76 10000 5.1 150 08:20 11.10.2019
402 Clear 12 1015 81 10000 5.1 140 07:53 11.10.2019
403 Clear 12 1015 81 10000 5.1 140 07:34 11.10.2019
404 Clear 12 1016 81 10000 4.6 160 06:50 11.10.2019
405 Clear 12 1016 81 10000 4.6 160 06:25 11.10.2019
406 Clouds 12 1016 81 10000 5.7 160 05:47 11.10.2019
407 Clouds 12 1016 81 10000 5.7 160 05:47 11.10.2019
408 Clouds 11 1016 81 10000 5.7 160 05:29 11.10.2019
409 Clouds 11 1016 81 10000 4.6 170 04:58 11.10.2019
410 Clear 11 1017 81 10000 5.1 180 03:40 11.10.2019
411 Clouds 12 1017 87 10000 4.1 170 01:26 11.10.2019
412 Clouds 12 1017 87 10000 3.6 150 00:41 11.10.2019
413 Clouds 12 1017 87 10000 3.6 160 00:20 11.10.2019
414 Clouds 11 1017 87 10000 4.6 150 23:41 10.10.2019
415 Clouds 12 1017 87 10000 4.1 160 23:20 10.10.2019
416 Clear 11 1017 87 10000 4.6 150 22:56 10.10.2019
417 Clear 11 1017 87 10000 4.6 150 22:36 10.10.2019
418 Clear 11 1017 87 10000 4.1 160 22:18 10.10.2019
419 Clear 11 1017 87 10000 4.1 160 22:18 10.10.2019
420 Clouds 11 1017 87 10000 3.6 180 21:42 10.10.2019
421 Clouds 11 1017 87 10000 3.6 180 21:42 10.10.2019
422 Clouds 11 1017 87 10000 3.6 170 21:22 10.10.2019
423 Clouds 11 1017 87 10000 3.6 170 20:59 10.10.2019
424 Clouds 12 1017 81 10000 3.1 180 20:40 10.10.2019
425 Clouds 12 1016 81 10000 3.6 200 20:20 10.10.2019
426 Clouds 12 1016 81 10000 3.6 200 20:20 10.10.2019
427 Clouds 12 1016 81 10000 3.1 190 19:57 10.10.2019
428 Clouds 12 1016 81 10000 3.1 190 19:39 10.10.2019
429 Clouds 13 1016 71 10000 3.6 210 19:19 10.10.2019
430 Clouds 13 1016 67 10000 4.6 230 18:54 10.10.2019
431 Clouds 14 1016 67 10000 4.6 230 18:36 10.10.2019
432 Clouds 14 1016 67 10000 4.6 230 18:36 10.10.2019
433 Clouds 14 1015 67 10000 5.7 230 18:18 10.10.2019
434 Clouds 15 1015 62 10000 7.2 250 17:41 10.10.2019
435 Rain 15 1015 58 10000 7.7 250 17:20 10.10.2019
436 Rain 15 1015 58 10000 7.7 250 16:58 10.10.2019
437 Clouds 15 1015 54 10000 8.7 270 16:40 10.10.2019
438 Clouds 15 1015 54 10000 6.7 280 16:21 10.10.2019
439 Clouds 15 1015 54 10000 8.7 260 15:44 10.10.2019
440 Clouds 15 1015 54 10000 8.7 270 15:25 10.10.2019
441 Clouds 15 1015 54 10000 8.7 270 14:59 10.10.2019
442 Clouds 15 1014 58 10000 7.2 250 14:38 10.10.2019
443 Clouds 15 1014 58 10000 7.2 250 14:38 10.10.2019
444 Clouds 15 1014 58 10000 7.2 250 14:38 10.10.2019
445 Clouds 15 1015 62 10000 9.8 250 14:19 10.10.2019
446 Clouds 14 1015 62 10000 9.8 250 13:59 10.10.2019
447 Clouds 14 1014 58 10000 8.7 250 13:41 10.10.2019
448 Clouds 14 1014 62 10000 8.7 260 13:19 10.10.2019
449 Clouds 14 1014 66 10000 7.7 260 12:56 10.10.2019
450 Clouds 14 1014 66 10000 7.7 260 12:56 10.10.2019
451 Clouds 14 1014 66 10000 7.7 260 12:38 10.10.2019
452 Clouds 13 1014 67 10000 7.7 250 12:19 10.10.2019
453 Clouds 13 1014 66 0 8.7 250 11:55 10.10.2019
454 Clouds 12 1014 66 0 8.7 250 11:37 10.10.2019
455 Clouds 12 1013 76 10000 8.2 260 11:18 10.10.2019
456 Clouds 12 1013 76 10000 6.2 240 10:44 10.10.2019
457 Clouds 11 1013 81 10000 6.7 240 10:25 10.10.2019
458 Clouds 11 1012 81 10000 5.7 240 09:56 10.10.2019
459 Clouds 11 1012 81 10000 5.7 240 09:37 10.10.2019
460 Clouds 10 1011 81 10000 5.7 240 09:19 10.10.2019
461 Clouds 10 1011 87 10000 4.1 240 08:41 10.10.2019
462 Clouds 10 1010 87 10000 4.1 240 08:23 10.10.2019
463 Clouds 10 1010 87 10000 3.6 250 07:59 10.10.2019
464 Clouds 10 1010 87 10000 3.6 250 07:40 10.10.2019
465 Clouds 10 1009 87 10000 3.1 240 07:20 10.10.2019
466 Clouds 10 1009 87 10000 2.6 230 06:45 10.10.2019
467 Clouds 10 1009 87 10000 2.6 210 06:24 10.10.2019
468 Rain 10 1009 87 10000 2.6 220 05:25 10.10.2019
469 Rain 10 1008 87 10000 4.1 210 04:37 10.10.2019
470 Rain 10 1008 87 10000 3.6 170 03:42 10.10.2019
471 Clouds 10 1009 81 10000 3.1 190 01:43 10.10.2019
472 Clouds 10 1009 81 10000 3.1 190 01:43 10.10.2019
473 Clouds 10 1009 81 10000 3.6 190 01:24 10.10.2019
474 Clouds 10 1009 81 10000 2.6 180 00:53 10.10.2019
475 Clouds 10 1009 81 10000 3.6 220 00:22 10.10.2019
476 Clouds 10 1008 76 10000 4.1 220 23:40 09.10.2019
477 Clouds 11 1008 76 10000 3.6 220 23:20 09.10.2019
478 Clouds 11 1008 76 10000 3.6 220 22:56 09.10.2019
479 Clouds 11 1008 76 10000 3.6 220 22:37 09.10.2019
480 Clouds 11 1008 76 10000 4.6 220 22:19 09.10.2019
481 Clouds 11 1008 76 10000 5.7 220 21:40 09.10.2019
482 Rain 11 1008 76 10000 4.1 220 21:21 09.10.2019
483 Clouds 11 1008 76 10000 3.6 210 20:56 09.10.2019
484 Clouds 11 1008 76 10000 3.6 210 20:38 09.10.2019
485 Clouds 11 1007 76 10000 6.2 240 20:19 09.10.2019
486 Clouds 11 1007 76 10000 5.7 250 19:58 09.10.2019
487 Clouds 11 1007 76 10000 5.7 250 19:40 09.10.2019
488 Clouds 11 1007 76 10000 6.2 250 19:21 09.10.2019
489 Rain 12 1007 81 10000 4.1 240 18:38 09.10.2019
490 Rain 12 1006 71 10000 6.7 220 18:20 09.10.2019
491 Rain 12 1006 71 10000 5.7 230 17:57 09.10.2019
492 Rain 12 1006 71 10000 5.7 230 17:37 09.10.2019
493 Rain 12 1006 71 10000 4.6 210 17:19 09.10.2019
494 Rain 12 1006 71 10000 4.1 210 16:56 09.10.2019
495 Rain 12 1006 71 10000 4.1 210 16:37 09.10.2019
496 Rain 13 1006 71 10000 4.6 210 16:18 09.10.2019
497 Rain 13 1006 76 10000 4.6 200 15:55 09.10.2019
498 Rain 13 1006 76 10000 4.6 200 15:37 09.10.2019
499 Rain 13 1007 71 10000 7.7 230 15:18 09.10.2019
500 Rain 13 1007 76 10000 4.1 210 14:44 09.10.2019
501 Rain 13 1007 76 10000 4.1 210 14:44 09.10.2019
502 Rain 14 1007 71 10000 5.1 210 14:19 09.10.2019
503 Clouds 14 1007 76 10000 4.6 180 13:59 09.10.2019
504 Clouds 14 1007 76 10000 4.6 180 13:38 09.10.2019
505 Clouds 14 1007 76 10000 4.1 170 13:18 09.10.2019
506 Rain 13 1008 82 10000 4.1 180 12:44 09.10.2019
507 Clouds 13 1008 82 10000 5.1 190 12:23 09.10.2019
508 Clouds 13 1008 82 10000 3.6 190 11:58 09.10.2019
509 Clouds 13 1008 82 10000 3.6 190 11:40 09.10.2019
510 Clouds 13 1009 82 10000 2.6 190 11:20 09.10.2019
511 Clouds 12 1009 82 10000 2.6 190 10:59 09.10.2019
512 Clear 12 1009 76 10000 3.1 170 10:40 09.10.2019
513 Clear 12 1009 81 10000 4.1 190 10:19 09.10.2019
514 Clear 12 1009 81 10000 4.1 190 10:19 09.10.2019
515 Clear 12 1009 81 10000 3.1 160 09:43 09.10.2019
516 Clear 11 1009 87 10000 4.6 190 09:21 09.10.2019
517 Clouds 11 1009 93 10000 3.6 180 08:58 09.10.2019
518 Clouds 11 1009 93 10000 3.6 180 08:39 09.10.2019
519 Clouds 11 1009 93 10000 3.1 170 08:20 09.10.2019
520 Clouds 11 1009 93 10000 3.1 170 08:20 09.10.2019
521 Clear 11 1009 87 10000 3.6 190 07:47 09.10.2019
522 Clear 11 1009 87 10000 3.6 190 07:47 09.10.2019
523 Clear 11 1009 87 10000 4.1 180 07:25 09.10.2019
524 Clear 11 1009 87 10000 4.1 180 07:25 09.10.2019
525 Clouds 11 1010 87 10000 3.6 180 06:58 09.10.2019
526 Clouds 11 1010 87 10000 3.6 180 06:40 09.10.2019
527 Clouds 11 1010 93 10000 4.6 170 05:53 09.10.2019
528 Clouds 11 1010 93 10000 4.6 170 05:18 09.10.2019
529 Clouds 11 1009 93 10000 3.1 180 03:49 09.10.2019
530 Clouds 12 1009 87 10000 3.1 200 02:35 09.10.2019
531 Clouds 12 1009 87 10000 3.6 160 01:39 09.10.2019
532 Clouds 12 1009 93 10000 2.6 170 01:19 09.10.2019
533 Clouds 12 1009 93 10000 2.6 170 00:55 09.10.2019
534 Clear 12 1009 87 10000 2.6 220 00:37 09.10.2019
535 Clear 12 1009 93 10000 3.6 230 00:19 09.10.2019
536 Clear 12 1009 93 10000 4.6 240 23:39 08.10.2019
537 Clear 12 1009 93 10000 4.6 240 23:39 08.10.2019
538 Clear 12 1008 93 10000 3.6 240 23:18 08.10.2019
539 Clouds 12 1008 87 10000 4.6 240 22:56 08.10.2019
540 Clouds 12 1008 87 10000 4.6 240 22:37 08.10.2019
541 Rain 12 1008 93 10000 2.6 220 22:18 08.10.2019
542 Clouds 13 1008 93 10000 3.1 210 21:56 08.10.2019
543 Clouds 12 1008 93 10000 3.1 210 21:38 08.10.2019
544 Clouds 13 1007 93 10000 3.1 190 21:18 08.10.2019
545 Clouds 13 1007 100 10000 3.6 180 20:55 08.10.2019
546 Clouds 13 1007 100 10000 3.6 180 20:55 08.10.2019
547 Clouds 13 1007 100 10000 3.6 180 20:37 08.10.2019
548 Clouds 13 1007 100 10000 3.6 180 20:37 08.10.2019
549 Clouds 13 1007 100 10000 3.6 160 20:19 08.10.2019
550 Clouds 13 1007 100 10000 2.1 160 19:56 08.10.2019
551 Clouds 13 1007 100 10000 2.1 160 19:37 08.10.2019
552 Clouds 13 1007 100 10000 3.1 200 19:18 08.10.2019
553 Rain 14 1007 93 10000 4.1 190 18:46 08.10.2019
554 Rain 14 1007 93 10000 3.6 200 18:25 08.10.2019
555 Drizzle 14 1007 93 10000 1.5 240 17:58 08.10.2019
556 Drizzle 14 1007 93 10000 1.5 240 17:39 08.10.2019
557 Drizzle 14 1007 93 10000 2.6 250 17:20 08.10.2019
558 Drizzle 14 1007 93 6000 3.6 240 16:56 08.10.2019
559 Drizzle 14 1007 93 6000 3.6 240 16:37 08.10.2019
560 Drizzle 14 1007 87 7000 4.6 250 16:19 08.10.2019
561 Drizzle 14 1007 93 10000 3.1 300 15:40 08.10.2019
562 Drizzle 14 1007 93 5000 2.1 200 15:21 08.10.2019
563 Rain 14 1008 93 5000 3.1 220 14:57 08.10.2019
564 Rain 14 1008 93 5000 3.1 220 14:39 08.10.2019
565 Drizzle 14 1008 93 5000 2.1 190 14:20 08.10.2019
566 Rain 14 1008 93 5000 2.6 180 13:56 08.10.2019
567 Rain 14 1008 93 5000 2.6 180 13:38 08.10.2019
568 Rain 14 1008 100 5000 2.6 190 13:18 08.10.2019
569 Rain 14 1009 100 3400 2.6 190 12:56 08.10.2019
570 Rain 14 1009 100 3400 2.6 190 12:37 08.10.2019
571 Rain 13 1008 93 4000 4.6 250 12:18 08.10.2019
572 Rain 13 1009 93 3000 2.6 150 11:41 08.10.2019
573 Rain 13 1009 93 3000 2.6 150 11:41 08.10.2019
574 Rain 12 1009 100 6000 2.6 150 11:23 08.10.2019
575 Rain 13 1009 100 6000 2.6 150 10:56 08.10.2019
576 Rain 12 1009 100 6000 3.1 150 10:37 08.10.2019
577 Rain 12 1009 93 2900 2.6 160 10:19 08.10.2019
578 Rain 12 1009 93 6000 2.1 180 09:55 08.10.2019
579 Drizzle 12 1009 93 10000 2.6 150 09:37 08.10.2019
580 Rain 12 1009 93 10000 3.6 160 09:19 08.10.2019
581 Rain 11 1009 100 5000 3.6 170 08:42 08.10.2019
582 Rain 11 1010 100 10000 3.6 170 08:23 08.10.2019
583 Rain 11 1010 100 10000 3.6 170 08:23 08.10.2019
584 Rain 11 1009 93 8000 2.6 210 07:44 08.10.2019
585 Rain 11 1010 100 10000 4.6 150 07:21 08.10.2019
586 Rain 12 1010 100 10000 4.1 150 06:53 08.10.2019
587 Rain 11 1010 100 10000 4.1 150 06:29 08.10.2019
588 Rain 11 1011 100 8000 3.1 170 05:55 08.10.2019
589 Rain 11 1011 100 8000 3.1 170 05:36 08.10.2019
590 Rain 11 1011 93 10000 4.1 150 04:33 08.10.2019
591 Rain 12 1012 93 10000 4.1 150 03:29 08.10.2019
592 Rain 12 1014 87 10000 4.1 170 02:39 08.10.2019
593 Rain 12 1014 81 10000 3.6 160 01:49 08.10.2019
594 Rain 12 1014 81 10000 3.6 160 01:31 08.10.2019
595 Clouds 12 1015 87 10000 4.1 170 00:50 08.10.2019
596 Clouds 11 1015 87 10000 4.1 170 00:21 08.10.2019
597 Clouds 11 1016 87 10000 3.6 170 23:41 07.10.2019
598 Clouds 11 1016 87 10000 3.1 160 23:21 07.10.2019
599 Clouds 11 1016 87 10000 3.6 150 22:58 07.10.2019
600 Clouds 11 1016 87 10000 3.6 150 22:40 07.10.2019
601 Clouds 11 1016 87 10000 3.1 150 22:21 07.10.2019
602 Clouds 12 1016 87 10000 4.1 150 21:58 07.10.2019
603 Clouds 12 1016 87 10000 4.1 150 21:39 07.10.2019
604 Clouds 11 1016 87 10000 4.1 140 21:20 07.10.2019
605 Clouds 11 1016 87 10000 4.1 140 21:20 07.10.2019
606 Clouds 12 1016 87 10000 4.6 140 20:58 07.10.2019
607 Clouds 12 1016 87 10000 4.6 140 20:39 07.10.2019
608 Rain 12 1016 87 10000 4.6 140 20:20 07.10.2019
609 Drizzle 11 1016 81 10000 4.6 140 19:58 07.10.2019
610 Drizzle 11 1016 81 10000 4.6 140 19:40 07.10.2019
611 Clouds 12 1017 81 10000 3.1 140 19:20 07.10.2019
612 Clouds 12 1017 81 10000 3.1 140 19:20 07.10.2019
613 Clouds 12 1017 81 10000 3.1 140 18:58 07.10.2019
614 Drizzle 12 1017 81 10000 3.1 140 18:38 07.10.2019
615 Drizzle 12 1017 81 10000 3.6 140 18:19 07.10.2019
616 Clouds 12 1017 81 10000 4.1 130 17:43 07.10.2019
617 Clouds 12 1017 76 10000 4.1 140 17:23 07.10.2019
618 Clouds 13 1018 76 10000 3.6 130 16:59 07.10.2019
619 Clouds 13 1018 76 10000 3.6 130 16:41 07.10.2019
620 Clouds 13 1018 76 10000 5.1 130 16:22 07.10.2019
621 Clouds 13 1018 81 10000 4.6 140 15:46 07.10.2019
622 Clouds 13 1018 76 10000 4.6 140 15:26 07.10.2019
623 Clouds 13 1018 81 10000 3.6 170 14:58 07.10.2019
624 Clouds 13 1018 81 10000 3.6 170 14:58 07.10.2019
625 Clouds 13 1018 81 10000 3.6 170 14:40 07.10.2019
626 Clouds 13 1018 81 10000 4.1 160 14:22 07.10.2019
627 Clouds 13 1018 81 10000 4.6 170 13:44 07.10.2019
628 Clouds 12 1019 76 10000 5.1 170 13:21 07.10.2019
629 Clouds 12 1019 81 10000 5.1 140 12:57 07.10.2019
630 Clouds 12 1019 81 10000 5.1 140 12:39 07.10.2019
631 Clouds 11 1019 87 10000 4.6 150 12:19 07.10.2019
632 Clouds 11 1019 87 10000 4.6 150 11:58 07.10.2019
633 Clouds 11 1019 87 10000 4.6 150 11:39 07.10.2019
634 Clouds 10 1019 87 10000 4.6 150 11:20 07.10.2019
635 Clouds 10 1018 87 10000 3.6 140 10:42 07.10.2019
636 Clouds 9 1018 87 10000 3.6 140 10:21 07.10.2019
637 Clouds 9 1018 87 10000 2.6 140 09:57 07.10.2019
638 Clouds 9 1018 87 10000 2.6 140 09:38 07.10.2019
639 Clouds 9 1017 87 10000 2.1 110 09:20 07.10.2019
640 Clouds 8 1017 93 10000 2.6 100 08:43 07.10.2019
641 Clouds 8 1017 93 10000 2.6 100 08:20 07.10.2019
642 Clouds 8 1017 93 10000 3.1 90 07:49 07.10.2019
643 Clouds 8 1016 87 10000 3.6 110 07:28 07.10.2019
644 Clouds 8 1016 93 10000 1.5 110 06:58 07.10.2019
645 Drizzle 8 1016 93 10000 1.5 110 06:39 07.10.2019
646 Drizzle 8 1015 93 10000 2.6 90 06:20 07.10.2019
647 Rain 8 1015 93 10000 3.1 110 05:26 07.10.2019
648 Rain 8 1015 93 10000 2.6 100 04:54 07.10.2019
649 Drizzle 8 1015 93 10000 3.1 90 03:48 07.10.2019
650 Rain 8 1014 93 10000 2.1 90 03:30 07.10.2019
651 Rain 8 1014 93 10000 2.6 90 02:53 07.10.2019
652 Rain 8 1014 93 10000 2.6 90 02:19 07.10.2019
653 Drizzle 8 1013 93 10000 3.1 110 01:24 07.10.2019
654 Clouds 8 1013 93 10000 3.1 100 00:53 07.10.2019
655 Clouds 8 1012 93 10000 3.1 110 00:27 07.10.2019
656 Clouds 8 1012 93 10000 3.1 110 23:59 06.10.2019
657 Rain 9 1012 93 10000 3.1 110 23:40 06.10.2019
658 Rain 9 1011 93 10000 2.6 100 23:21 06.10.2019
659 Rain 9 1011 93 10000 3.1 100 22:58 06.10.2019
660 Rain 9 1011 93 10000 3.1 100 22:39 06.10.2019
661 Rain 9 1011 93 10000 3.1 100 22:21 06.10.2019
662 Rain 9 1011 93 10000 3.1 100 21:56 06.10.2019
663 Rain 9 1011 100 10000 3.1 110 21:37 06.10.2019
664 Rain 9 1011 100 10000 1 0 21:19 06.10.2019
665 Rain 9 1011 87 10000 3.6 130 20:57 06.10.2019
666 Rain 9 1011 87 10000 3.6 130 20:38 06.10.2019
667 Rain 9 1010 87 10000 4.6 110 20:20 06.10.2019
668 Rain 9 1010 87 10000 4.6 110 19:57 06.10.2019
669 Rain 9 1010 87 10000 5.1 120 19:37 06.10.2019
670 Rain 9 1010 87 10000 4.6 110 19:19 06.10.2019
671 Rain 9 1010 93 10000 4.1 110 18:56 06.10.2019
672 Rain 9 1010 93 10000 4.1 110 18:38 06.10.2019
673 Drizzle 9 1010 93 4500 3.6 110 18:19 06.10.2019
674 Drizzle 9 1010 93 4500 3.6 110 18:19 06.10.2019
675 Rain 9 1010 93 6000 4.1 120 17:43 06.10.2019
676 Rain 9 1010 93 6000 4.1 120 17:43 06.10.2019
677 Rain 9 1010 93 9000 5.1 120 17:21 06.10.2019
678 Rain 9 1010 93 9000 5.1 120 16:59 06.10.2019
679 Rain 9 1010 93 6000 4.6 120 16:41 06.10.2019
680 Rain 9 1011 93 8000 4.1 120 16:23 06.10.2019
681 Rain 9 1011 100 6000 4.6 120 15:45 06.10.2019
682 Rain 9 1011 100 6000 4.6 120 15:45 06.10.2019
683 Rain 9 1012 93 4000 4.6 110 15:23 06.10.2019
684 Rain 9 1012 93 4000 4.6 110 14:59 06.10.2019
685 Rain 9 1012 93 7000 4.1 110 14:41 06.10.2019
686 Rain 9 1012 93 4500 4.1 110 14:23 06.10.2019
687 Rain 8 1013 100 4000 3.6 120 13:56 06.10.2019
688 Rain 8 1013 100 4000 3.6 120 13:56 06.10.2019
689 Rain 9 1013 100 4000 3.6 120 13:37 06.10.2019
690 Rain 9 1012 93 5000 4.1 110 13:19 06.10.2019
691 Rain 8 1013 93 10000 4.6 130 12:56 06.10.2019
692 Rain 9 1013 93 10000 5.1 130 12:37 06.10.2019
693 Rain 8 1013 93 10000 4.6 120 12:19 06.10.2019
694 Rain 8 1014 93 10000 4.6 130 11:55 06.10.2019
695 Rain 8 1014 93 10000 4.6 130 11:36 06.10.2019
696 Rain 8 1014 87 10000 3.6 130 11:18 06.10.2019
697 Rain 8 1014 81 10000 3.6 120 10:42 06.10.2019
698 Rain 9 1014 76 10000 4.1 120 10:24 06.10.2019
699 Rain 9 1014 76 10000 4.1 120 09:56 06.10.2019
700 Rain 9 1014 76 10000 4.6 120 09:38 06.10.2019
701 Clouds 9 1015 76 10000 3.6 120 09:18 06.10.2019
702 Rain 9 1015 70 10000 3.6 110 08:40 06.10.2019
703 Clouds 9 1015 76 10000 3.6 120 08:20 06.10.2019
704 Clear 9 1015 76 10000 3.6 120 07:44 06.10.2019
705 Clear 8 1015 81 10000 4.1 110 07:19 06.10.2019
706 Clear 8 1016 81 10000 4.1 110 06:20 06.10.2019
707 Clear 8 1017 81 10000 2.6 110 05:33 06.10.2019
708 Clear 8 1018 81 10000 2.1 120 03:41 06.10.2019
709 Clear 8 1018 81 10000 3.1 100 02:42 06.10.2019
710 Clear 8 1018 81 10000 3.1 100 02:21 06.10.2019
711 Clear 8 1018 81 10000 3.1 90 01:44 06.10.2019
712 Clear 8 1018 87 10000 2.1 90 01:26 06.10.2019
713 Clear 8 1019 81 10000 2.1 90 00:52 06.10.2019
714 Clear 8 1019 81 10000 2.1 100 00:26 06.10.2019
715 Clear 8 1019 81 10000 1.5 100 23:45 05.10.2019
716 Clear 9 1019 81 10000 1.5 100 23:22 05.10.2019
717 Clear 9 1019 87 10000 2.1 80 22:58 05.10.2019
718 Clear 9 1019 87 10000 2.1 80 22:40 05.10.2019
719 Clear 9 1019 87 10000 2.1 80 22:40 05.10.2019
720 Clear 9 1019 81 10000 2.6 90 22:20 05.10.2019
721 Clear 9 1019 81 10000 2.1 90 21:57 05.10.2019
722 Clear 9 1019 81 10000 2.1 90 21:39 05.10.2019
723 Clouds 9 1019 76 10000 1.5 110 21:20 05.10.2019
724 Clouds 9 1018 76 10000 1.5 110 20:56 05.10.2019
725 Clouds 10 1018 76 10000 1.5 110 20:37 05.10.2019
726 Clouds 10 1018 71 10000 2.1 100 20:19 05.10.2019
727 Clouds 10 1018 71 10000 2.1 100 20:19 05.10.2019
728 Clouds 11 1018 71 10000 2.6 80 19:38 05.10.2019
729 Clouds 11 1018 81 10000 1 0 19:20 05.10.2019
730 Clouds 11 1018 71 10000 1.5 90 18:56 05.10.2019
731 Clouds 12 1018 71 10000 1.5 90 18:38 05.10.2019
732 Clouds 12 1017 66 10000 1.5 90 18:20 05.10.2019
733 Clouds 12 1017 58 10000 2.1 80 17:46 05.10.2019
734 Clouds 12 1017 66 10000 1.5 110 17:27 05.10.2019
735 Clouds 12 1017 66 10000 1.5 110 16:59 05.10.2019
736 Clouds 12 1017 62 10000 2.6 100 16:41 05.10.2019
737 Clouds 12 1017 62 10000 2.6 120 16:21 05.10.2019
738 Clouds 12 1017 62 10000 2.1 130 15:57 05.10.2019
739 Clouds 12 1017 62 10000 2.1 130 15:39 05.10.2019
740 Clouds 12 1017 66 10000 3.1 60 15:21 05.10.2019
741 Clouds 12 1016 71 10000 2.1 110 14:56 05.10.2019
742 Clouds 12 1016 71 10000 2.1 110 14:56 05.10.2019
743 Clouds 12 1016 71 10000 2.1 110 14:56 05.10.2019
744 Clouds 12 1016 71 10000 2.1 110 14:38 05.10.2019
745 Clouds 11 1016 66 10000 3.1 60 14:20 05.10.2019
746 Clouds 12 1016 66 10000 3.1 70 13:41 05.10.2019
747 Clouds 11 1016 71 10000 3.1 60 13:22 05.10.2019
748 Clouds 11 1016 71 10000 2.6 50 12:46 05.10.2019
749 Clouds 11 1015 76 10000 3.1 20 12:21 05.10.2019
750 Clouds 10 1015 76 10000 3.1 20 11:59 05.10.2019
751 Clouds 10 1015 76 10000 2.1 40 11:37 05.10.2019
752 Clouds 10 1015 81 10000 2.1 360 11:18 05.10.2019
753 Clouds 10 1014 87 10000 2.1 10 10:45 05.10.2019
754 Clouds 9 1014 87 10000 2.6 10 10:26 05.10.2019
755 Clouds 9 1014 87 10000 2.6 10 09:59 05.10.2019
756 Clouds 9 1013 93 10000 2.6 10 09:39 05.10.2019
757 Clouds 9 1013 93 10000 2.1 350 09:20 05.10.2019
758 Clouds 8 1012 93 10000 2.1 330 08:40 05.10.2019
759 Clouds 8 1012 93 10000 2.6 340 08:20 05.10.2019
760 Clouds 8 1011 93 10000 2.1 340 07:58 05.10.2019
761 Clouds 9 1011 93 10000 2.6 330 07:37 05.10.2019
762 Clouds 9 1011 93 10000 2.6 330 07:19 05.10.2019
763 Clouds 9 1011 93 10000 2.1 320 06:28 05.10.2019
764 Clouds 9 1010 100 9000 2.6 340 05:51 05.10.2019
765 Clouds 9 1009 100 10000 2.6 340 04:33 05.10.2019
766 Drizzle 10 1008 93 10000 3.6 340 03:29 05.10.2019
767 Drizzle 10 1007 93 8000 6.2 320 01:52 05.10.2019
768 Rain 11 1006 93 8000 5.7 280 01:23 05.10.2019
769 Rain 11 1006 87 10000 6.7 270 00:45 05.10.2019
770 Rain 11 1006 87 10000 6.7 250 00:26 05.10.2019
771 Drizzle 12 1006 87 10000 6.2 260 23:45 04.10.2019
772 Drizzle 12 1006 87 10000 6.2 260 23:26 04.10.2019
773 Drizzle 12 1006 87 10000 6.2 260 22:59 04.10.2019
774 Drizzle 12 1006 87 10000 5.7 260 22:41 04.10.2019
775 Rain 12 1006 87 10000 5.1 260 22:22 04.10.2019
776 Clouds 12 1005 87 10000 6.2 250 21:58 04.10.2019
777 Clouds 12 1005 87 10000 6.2 250 21:39 04.10.2019
778 Clouds 12 1005 87 10000 6.2 240 21:21 04.10.2019
779 Clouds 12 1005 87 10000 5.7 240 20:57 04.10.2019
780 Clouds 12 1005 87 10000 5.7 240 20:39 04.10.2019
781 Clouds 12 1005 87 10000 4.6 250 20:21 04.10.2019
782 -273 0 0 0 0 0 19:54 04.10.2019
783 Rain 12 1005 87 10000 4.6 270 19:36 04.10.2019
784 Rain 12 1004 87 10000 6.7 260 19:18 04.10.2019
785 Rain 13 1004 87 10000 6.2 250 18:39 04.10.2019
786 Rain 13 1004 93 10000 5.1 260 18:19 04.10.2019
787 Rain 13 1004 93 10000 6.2 260 17:58 04.10.2019
788 Rain 13 1004 93 10000 6.2 260 17:39 04.10.2019
789 Rain 13 1004 87 10000 5.1 250 17:20 04.10.2019
790 Rain 13 1004 87 10000 3.6 250 16:55 04.10.2019
791 Rain 13 1004 87 10000 3.6 250 16:55 04.10.2019
792 Rain 13 1004 87 10000 3.6 250 16:37 04.10.2019
793 Rain 13 1004 87 10000 5.1 250 16:18 04.10.2019
794 Rain 13 1004 87 10000 3.1 200 15:55 04.10.2019
795 Rain 13 1004 87 10000 3.1 200 15:37 04.10.2019
796 Rain 13 1004 87 10000 3.1 200 15:37 04.10.2019
797 Rain 13 1004 87 10000 3.1 200 15:37 04.10.2019
798 Rain 13 1004 87 10000 3.1 200 15:37 04.10.2019
799 Rain 13 1004 93 10000 2.6 0 15:18 04.10.2019
800 Clouds 13 1004 87 10000 4.1 170 14:54 04.10.2019
801 Clouds 12 1004 87 10000 4.1 170 14:36 04.10.2019
802 Clouds 12 1004 93 10000 4.1 170 14:18 04.10.2019
803 Drizzle 11 1004 87 10000 5.7 170 13:42 04.10.2019
804 Drizzle 11 1004 93 10000 5.1 160 13:19 04.10.2019
805 Drizzle 10 1004 100 10000 5.1 150 12:46 04.10.2019
806 Drizzle 9 1005 93 3500 5.1 140 12:28 04.10.2019
807 Rain 9 1005 93 8000 4.6 140 11:59 04.10.2019
808 Drizzle 9 1005 93 8000 4.6 140 11:40 04.10.2019
809 Rain 9 1004 93 4000 3.1 140 11:20 04.10.2019
810 Rain 9 1006 93 10000 6.2 130 10:40 04.10.2019
811 Rain 9 1006 93 3500 7.2 140 10:20 04.10.2019
812 Rain 9 1007 87 10000 6.2 150 09:47 04.10.2019
813 Rain 9 1008 87 10000 4.1 150 09:28 04.10.2019
814 Rain 9 1008 87 10000 4.1 150 08:56 04.10.2019
815 Rain 9 1008 81 10000 4.1 140 08:38 04.10.2019
816 Rain 9 1008 81 10000 3.1 120 08:20 04.10.2019
817 Clear 9 1009 81 10000 4.6 140 07:45 04.10.2019
818 Rain 9 1009 81 10000 3.6 120 07:22 04.10.2019
819 Clear 9 1010 81 10000 3.1 120 06:47 04.10.2019
820 Clear 9 1010 81 10000 3.6 110 06:27 04.10.2019
821 Clear 9 1010 81 10000 3.1 120 05:52 04.10.2019
822 Clear 9 1011 81 10000 3.6 140 05:19 04.10.2019
823 Clear 9 1013 87 10000 3.6 130 03:50 04.10.2019
824 Clear 9 1013 87 10000 2.6 130 02:54 04.10.2019
825 Clear 9 1013 87 10000 2.6 130 02:54 04.10.2019
826 Clear 9 1014 87 10000 2.6 130 02:21 04.10.2019
827 Clear 9 1014 87 10000 3.1 140 01:43 04.10.2019
828 Clear 9 1014 87 10000 2.1 130 01:24 04.10.2019
829 Clear 9 1015 93 10000 2.6 140 00:18 04.10.2019
830 Clear 10 1015 93 10000 2.6 130 23:37 03.10.2019
831 Clear 10 1016 93 10000 2.1 150 23:18 03.10.2019
832 Clouds 10 1016 93 10000 1 0 22:57 03.10.2019
833 Clouds 10 1016 93 10000 1 0 22:39 03.10.2019
834 Clouds 10 1016 87 10000 2.1 60 22:21 03.10.2019
835 Clouds 10 1017 87 10000 1.5 20 21:56 03.10.2019
836 Clouds 10 1017 87 10000 1.5 20 21:37 03.10.2019
837 Clouds 11 1017 81 10000 1.5 360 21:19 03.10.2019
838 Clouds 11 1017 81 10000 3.1 340 20:57 03.10.2019
839 Clouds 11 1017 81 10000 3.1 340 20:37 03.10.2019
840 Clouds 11 1017 76 10000 3.6 270 20:19 03.10.2019
841 Clouds 11 1017 76 10000 3.6 280 19:55 03.10.2019
842 Clouds 11 1017 76 10000 3.6 280 19:36 03.10.2019
843 Clouds 11 1017 76 10000 3.6 290 19:18 03.10.2019
844 Clouds 12 1017 76 10000 2.6 300 18:54 03.10.2019
845 Clouds 12 1017 76 10000 2.6 300 18:36 03.10.2019
846 Clouds 12 1017 76 10000 4.1 290 18:18 03.10.2019
847 Rain 12 1017 87 10000 1 0 17:42 03.10.2019
848 Rain 13 1017 87 10000 1.5 350 17:21 03.10.2019
849 Rain 13 1017 81 10000 1 0 16:55 03.10.2019
850 Rain 13 1017 81 10000 2.6 340 16:37 03.10.2019
851 Rain 13 1017 81 10000 2.6 340 16:19 03.10.2019
852 Rain 13 1017 76 10000 3.6 300 15:43 03.10.2019
853 Rain 13 1018 81 10000 2.6 290 15:23 03.10.2019
854 Rain 13 1018 81 10000 2.6 290 14:57 03.10.2019
855 Rain 13 1018 87 10000 2.6 290 14:36 03.10.2019
856 Rain 13 1018 87 10000 2.6 290 14:36 03.10.2019
857 Rain 13 1018 87 10000 2.6 290 14:36 03.10.2019
858 Rain 12 1018 93 10000 4.1 300 14:18 03.10.2019
859 Rain 12 1018 87 10000 3.1 320 13:43 03.10.2019
860 Rain 13 1018 76 10000 4.6 280 13:22 03.10.2019
861 Rain 13 1018 76 10000 4.6 280 13:22 03.10.2019
862 Clouds 12 1018 76 10000 4.6 270 12:58 03.10.2019
863 Clouds 13 1018 76 10000 4.6 270 12:39 03.10.2019
864 Clouds 13 1018 76 10000 4.6 270 12:39 03.10.2019
865 Clouds 12 1019 76 10000 5.1 270 12:20 03.10.2019
866 Clouds 12 1019 81 10000 4.6 260 11:58 03.10.2019
867 Clouds 11 1019 81 10000 4.6 260 11:39 03.10.2019
868 Clouds 11 1019 81 10000 4.1 260 11:21 03.10.2019
869 Clouds 11 1019 87 10000 4.1 280 10:57 03.10.2019
870 Clouds 10 1019 87 10000 4.1 280 10:38 03.10.2019
871 Clouds 10 1019 81 10000 2.6 270 10:18 03.10.2019
872 Clouds 10 1019 81 10000 3.1 270 09:56 03.10.2019
873 Clouds 10 1019 81 10000 3.1 270 09:37 03.10.2019
874 Clouds 9 1018 87 10000 2.1 250 09:19 03.10.2019
875 Clouds 8 1018 87 10000 2.1 250 08:42 03.10.2019
876 Clouds 8 1018 93 10000 0.5 0 08:23 03.10.2019
877 Clouds 8 1018 93 10000 0.5 0 07:42 03.10.2019
878 Clouds 8 1018 93 10000 1 0 07:20 03.10.2019
879 Clouds 8 1018 93 10000 0.5 0 06:53 03.10.2019
880 Clouds 8 1018 93 10000 2.1 280 06:27 03.10.2019
881 Clouds 8 1018 93 10000 2.1 260 05:49 03.10.2019
882 Clouds 8 1018 93 10000 1.5 230 05:29 03.10.2019
883 Clouds 8 1018 87 10000 3.6 270 04:45 03.10.2019
884 Clouds 8 1018 87 10000 3.1 290 03:55 03.10.2019
885 Clouds 8 1018 87 10000 4.1 280 03:19 03.10.2019
886 Clouds 9 1018 87 10000 3.1 290 02:27 03.10.2019
887 Clouds 9 1018 87 10000 4.6 280 01:41 03.10.2019
888 Clouds 9 1018 87 10000 5.1 290 00:53 03.10.2019
889 Clouds 9 1018 87 10000 5.1 280 00:32 03.10.2019
890 Clouds 9 1018 87 10000 5.1 280 00:32 03.10.2019
891 Clouds 9 1017 81 10000 5.1 270 23:58 02.10.2019
892 Clouds 9 1017 81 10000 5.1 270 23:38 02.10.2019
893 Clouds 8 1017 81 10000 5.1 270 23:19 02.10.2019
894 Clouds 8 1017 81 10000 4.1 270 22:42 02.10.2019
895 Clouds 8 1016 81 10000 4.6 270 22:20 02.10.2019
896 Clear 8 1016 81 10000 4.6 270 21:55 02.10.2019
897 Clear 8 1016 81 10000 4.6 270 21:37 02.10.2019
898 Clouds 8 1016 81 10000 4.6 270 21:19 02.10.2019
899 Clouds 9 1015 87 10000 2.1 290 20:55 02.10.2019
900 Clouds 9 1015 87 10000 2.1 290 20:37 02.10.2019
901 Rain 9 1015 81 10000 1.5 310 20:19 02.10.2019
902 Rain 10 1014 76 10000 2.1 360 19:46 02.10.2019
903 Clouds 10 1014 76 10000 2.6 330 19:23 02.10.2019
904 Clouds 10 1014 76 10000 2.6 330 19:23 02.10.2019
905 Rain 11 1014 71 10000 7.7 320 18:59 02.10.2019
906 Rain 10 1014 71 10000 7.7 320 18:59 02.10.2019
907 Rain 10 1014 71 10000 7.7 320 18:40 02.10.2019
908 Rain 11 1014 58 10000 8.2 310 18:21 02.10.2019
909 Rain 11 1014 58 10000 8.2 310 17:59 02.10.2019
910 Rain 11 1013 62 10000 5.1 310 17:40 02.10.2019
911 Rain 12 1013 62 10000 4.6 330 17:21 02.10.2019
912 Rain 12 1013 62 10000 5.1 350 16:58 02.10.2019
913 Rain 12 1013 62 10000 5.1 350 16:38 02.10.2019
914 Rain 12 1012 58 10000 6.7 320 16:20 02.10.2019
915 Rain 13 1012 58 10000 6.7 320 15:56 02.10.2019
916 Rain 13 1012 58 10000 4.6 290 15:37 02.10.2019
917 Rain 13 1012 50 10000 5.7 330 15:18 02.10.2019
918 Rain 13 1011 54 10000 5.1 310 14:45 02.10.2019
919 Clouds 13 1011 58 10000 5.7 320 14:27 02.10.2019
920 Clouds 13 1011 62 10000 6.2 320 13:58 02.10.2019
921 Clouds 13 1011 66 10000 4.1 320 13:40 02.10.2019
922 Clouds 13 1011 66 10000 4.1 320 13:21 02.10.2019
923 Clouds 13 1011 66 10000 4.6 330 12:54 02.10.2019
924 Clouds 12 1010 71 10000 4.1 340 12:36 02.10.2019
925 Clouds 12 1010 81 10000 3.6 320 12:18 02.10.2019
926 Clouds 12 1010 71 10000 4.1 320 11:41 02.10.2019
927 Clouds 12 1009 81 10000 2.6 340 11:21 02.10.2019
928 Clouds 11 1009 93 10000 3.1 340 10:40 02.10.2019
929 Clouds 11 1008 87 10000 3.6 320 10:19 02.10.2019
930 Clouds 10 1009 87 10000 3.1 300 09:42 02.10.2019
931 Clouds 9 1008 93 10000 3.6 320 09:21 02.10.2019
932 Rain 10 1007 93 10000 3.1 320 08:59 02.10.2019
933 Rain 9 1007 93 10000 2.6 290 08:41 02.10.2019
934 Rain 10 1006 93 10000 3.6 330 08:22 02.10.2019
935 Rain 9 1005 93 10000 3.6 320 07:55 02.10.2019
936 Rain 10 1004 93 10000 4.6 350 07:37 02.10.2019
937 Rain 9 1004 93 10000 4.6 350 07:18 02.10.2019
938 Rain 10 1003 93 10000 4.6 330 06:28 02.10.2019
939 Rain 10 1002 100 10000 5.1 340 05:51 02.10.2019
940 Rain 11 1001 100 9000 7.2 320 05:22 02.10.2019
941 Rain 12 1001 93 10000 4.1 260 04:18 02.10.2019
942 Rain 12 1000 93 10000 5.1 240 03:50 02.10.2019
943 Rain 14 1000 93 10000 2.6 190 02:39 02.10.2019
944 Rain 14 1000 93 10000 2.6 190 02:20 02.10.2019
945 Rain 14 1000 87 10000 2.1 220 01:18 02.10.2019
946 Rain 14 1000 93 9000 3.1 210 00:42 02.10.2019
947 Rain 15 1000 93 9000 3.1 210 00:23 02.10.2019
948 Rain 15 1000 87 10000 2.6 220 23:42 01.10.2019
949 Rain 15 1000 93 10000 2.6 190 23:24 01.10.2019
950 Clouds 15 1000 93 10000 3.6 170 22:58 01.10.2019
951 Rain 15 1000 93 10000 3.6 170 22:39 01.10.2019
952 Rain 15 1000 93 10000 3.6 170 22:19 01.10.2019
953 Rain 15 1000 93 10000 4.1 170 21:55 01.10.2019
954 Rain 15 1000 93 10000 2.6 190 21:37 01.10.2019
955 Rain 15 1000 93 10000 2.6 190 21:18 01.10.2019
956 Rain 15 1000 93 10000 3.1 190 20:54 01.10.2019
957 Rain 15 1000 93 10000 3.1 180 20:36 01.10.2019
958 Rain 15 1000 93 10000 3.1 180 20:18 01.10.2019
959 Rain 15 1000 87 10000 3.1 0 19:44 01.10.2019
960 Rain 16 1000 87 10000 3.1 190 19:26 01.10.2019
961 Rain 16 1000 93 10000 3.6 190 18:59 01.10.2019
962 Clouds 16 1000 88 10000 2.6 170 18:39 01.10.2019
963 Clouds 16 1000 88 10000 2.6 170 18:39 01.10.2019
964 Clouds 16 1000 88 10000 2.6 170 18:39 01.10.2019
965 Clouds 16 1000 88 10000 2.6 170 18:21 01.10.2019
966 Clouds 17 1001 88 10000 3.1 180 17:57 01.10.2019
967 Clouds 16 1001 93 10000 1 0 17:38 01.10.2019
968 Clouds 17 1001 93 10000 1 0 17:19 01.10.2019
969 Clouds 16 1001 87 10000 1.5 140 16:57 01.10.2019
970 Rain 16 1002 87 10000 1.5 160 16:39 01.10.2019
971 Rain 16 1002 87 10000 1.5 160 16:20 01.10.2019
972 Rain 16 1001 93 10000 2.6 190 15:42 01.10.2019
973 Rain 16 1002 93 10000 3.6 210 15:22 01.10.2019
974 Rain 16 1002 82 8000 5.1 240 14:41 01.10.2019
975 Rain 16 1002 82 10000 4.6 210 14:20 01.10.2019
976 Rain 16 1002 82 10000 4.6 210 14:20 01.10.2019
977 Rain 16 1002 72 5000 6.7 250 13:58 01.10.2019
978 Rain 17 1002 72 5000 6.7 250 13:58 01.10.2019
979 Rain 17 1002 72 5000 6.7 250 13:39 01.10.2019
980 Rain 16 1002 87 10000 4.1 160 13:39 01.10.2019
981 Rain 17 1002 72 5000 6.7 250 13:39 01.10.2019
982 Rain 16 1002 87 10000 4.1 160 13:39 01.10.2019
983 Rain 16 1002 87 10000 4.1 160 13:20 01.10.2019
984 Rain 16 1003 87 10000 2.6 180 12:58 01.10.2019
985 Rain 16 1003 87 10000 3.6 250 12:39 01.10.2019
986 Rain 15 1004 87 10000 7.7 270 12:19 01.10.2019
987 Rain 15 1004 87 10000 7.7 270 11:58 01.10.2019
988 Rain 15 1003 93 6000 5.7 270 11:38 01.10.2019
989 Rain 15 1003 93 6000 5.7 270 11:18 01.10.2019
990 Rain 15 1003 87 4000 5.1 200 10:49 01.10.2019
991 Rain 16 1003 87 7000 5.7 220 10:29 01.10.2019
992 Rain 16 1002 82 10000 6.2 190 09:57 01.10.2019
993 Rain 16 1003 82 10000 5.1 190 09:39 01.10.2019
994 Rain 16 1003 82 10000 5.1 190 09:21 01.10.2019
995 Clouds 15 1003 82 10000 5.1 170 08:42 01.10.2019
996 Clouds 15 1003 82 10000 5.7 180 08:24 01.10.2019
997 Clouds 15 1004 82 10000 4.6 190 07:48 01.10.2019
998 Drizzle 14 1004 87 10000 4.6 170 07:25 01.10.2019
999 Drizzle 14 1004 82 10000 5.1 160 06:48 01.10.2019
1000 Drizzle 14 1004 82 10000 5.1 160 06:20 01.10.2019
1001 Clouds 14 1004 77 10000 2.6 180 05:46 01.10.2019
1002 Clouds 14 1004 77 10000 3.1 190 05:18 01.10.2019
1003 Rain 13 1006 93 10000 5.7 150 04:30 01.10.2019
1004 Rain 14 1009 82 10000 3.6 170 02:29 01.10.2019
1005 Rain 14 1010 82 10000 3.6 180 01:59 01.10.2019
1006 Rain 14 1010 82 10000 3.6 170 01:25 01.10.2019
1007 Clouds 14 1011 82 10000 3.1 170 00:40 01.10.2019
1008 Clouds 14 1010 72 10000 2.1 180 00:40 01.10.2019
1009 Clouds 14 1011 82 10000 3.1 170 00:22 01.10.2019
1010 Drizzle 14 1011 82 10000 2.6 180 23:41 30.09.2019
1011 Drizzle 14 1011 82 10000 2.6 180 23:41 30.09.2019
1012 Drizzle 14 1011 82 10000 2.6 180 23:41 30.09.2019
1013 Drizzle 14 1011 82 10000 2.6 180 23:21 30.09.2019
1014 Rain 14 1012 72 10000 3.6 180 22:45 30.09.2019
1015 Clouds 15 1012 72 10000 3.1 180 22:26 30.09.2019
1016 Clear 15 1012 76 10000 2.6 170 21:58 30.09.2019
1017 Clouds 15 1012 67 10000 2.1 200 21:39 30.09.2019
1018 Clouds 14 1012 76 10000 2.6 170 21:20 30.09.2019
1019 Clouds 14 1012 67 10000 2.1 190 20:58 30.09.2019
1020 Clouds 15 1012 63 10000 1.5 180 20:39 30.09.2019
1021 Clouds 15 1012 67 10000 2.6 210 20:21 30.09.2019
1022 Clouds 15 1012 63 10000 3.1 250 19:58 30.09.2019
1023 Clouds 15 1012 63 10000 2.1 230 19:40 30.09.2019
1024 Clouds 16 1012 59 10000 3.6 280 19:20 30.09.2019
1025 Clouds 16 1012 59 10000 4.6 280 18:58 30.09.2019
1026 Clouds 16 1012 59 10000 5.7 280 18:40 30.09.2019
1027 Clouds 17 1012 59 10000 5.7 280 18:20 30.09.2019
1028 Clouds 17 1012 59 10000 5.7 260 17:55 30.09.2019
1029 Clouds 17 1012 59 10000 6.2 260 17:37 30.09.2019
1030 Clouds 17 1012 59 10000 6.2 260 17:18 30.09.2019
1031 Clouds 17 1012 59 10000 6.7 260 16:42 30.09.2019
1032 Clouds 17 1012 59 10000 8.2 260 16:20 30.09.2019
1033 Clouds 17 1012 59 10000 8.2 260 16:20 30.09.2019
1034 Clouds 17 1012 59 10000 8.2 260 15:59 30.09.2019
1035 Clouds 17 1012 59 10000 7.2 280 15:39 30.09.2019
1036 Clouds 16 1012 59 10000 8.2 270 15:19 30.09.2019
1037 Clouds 16 1012 59 10000 8.2 270 14:58 30.09.2019
1038 Clouds 16 1012 59 10000 9.8 260 14:38 30.09.2019
1039 Clouds 16 1012 59 10000 9.3 280 14:19 30.09.2019
1040 Clouds 16 1012 59 10000 9.8 270 13:59 30.09.2019
1041 Clouds 16 1012 63 10000 8.7 270 13:41 30.09.2019
1042 Clouds 16 1012 63 10000 11.3 270 13:22 30.09.2019
1043 Clouds 16 1011 63 10000 9.8 270 12:55 30.09.2019
1044 Clouds 16 1011 63 10000 9.8 270 12:54 30.09.2019
1045 Clouds 15 1011 67 10000 7.7 280 12:36 30.09.2019
1046 Clouds 15 1011 67 10000 8.7 280 12:18 30.09.2019
1047 Clouds 15 1011 67 10000 12.3 260 11:43 30.09.2019
1048 Clouds 14 1010 72 10000 9.3 270 11:21 30.09.2019
1049 Clouds 14 1010 76 10000 9.8 270 10:57 30.09.2019
1050 Rain 14 1010 76 10000 8.7 270 10:38 30.09.2019
1051 Rain 14 1010 76 10000 8.7 270 10:18 30.09.2019
1052 Rain 14 1010 76 10000 8.7 270 10:18 30.09.2019
1053 Rain 14 1009 76 10000 9.3 270 09:57 30.09.2019
1054 Rain 13 1009 76 10000 9.3 260 09:38 30.09.2019
1055 Rain 13 1009 76 10000 9.3 260 09:18 30.09.2019
1056 Rain 13 1008 71 10000 10.3 260 08:46 30.09.2019
1057 Rain 13 1007 76 10000 9.3 270 08:27 30.09.2019
1058 Rain 13 1007 82 10000 11.3 260 07:40 30.09.2019
1059 Rain 13 1006 76 10000 9.8 260 07:20 30.09.2019
1060 Rain 13 1006 76 10000 10.3 260 06:50 30.09.2019
1061 Rain 13 1006 76 10000 9.8 270 06:31 30.09.2019
1062 Clouds 13 1005 82 10000 9.3 270 05:45 30.09.2019
1063 Drizzle 14 1001 77 10000 12.3 270 03:33 30.09.2019
1064 Rain 15 1000 82 10000 13.9 270 02:45 30.09.2019
1065 Drizzle 15 999 77 10000 11.3 250 01:33 30.09.2019
1066 Rain 15 998 77 10000 12.3 250 00:42 30.09.2019
1067 Rain 15 998 77 10000 13.4 250 00:21 30.09.2019
1068 Rain 15 998 72 9000 10.3 250 23:45 29.09.2019
1069 Rain 16 998 82 10000 9.3 250 23:23 29.09.2019
1070 Rain 16 997 87 10000 10.8 240 22:55 29.09.2019
1071 Rain 16 997 77 9000 10.8 260 22:37 29.09.2019
1072 Rain 16 996 72 10000 7.7 240 22:19 29.09.2019
1073 Rain 16 997 77 10000 4.1 170 21:57 29.09.2019
1074 Rain 17 997 77 10000 4.1 170 21:37 29.09.2019
1075 Rain 17 997 77 10000 4.1 170 21:19 29.09.2019
1076 Rain 17 997 77 10000 4.6 170 20:44 29.09.2019
1077 Clouds 17 998 72 10000 5.1 180 20:20 29.09.2019
1078 Rain 17 998 72 10000 6.2 180 19:59 29.09.2019
1079 Clouds 17 997 72 10000 6.2 220 19:38 29.09.2019
1080 Clouds 17 999 77 10000 6.2 190 19:19 29.09.2019
1081 Clouds 17 999 77 10000 6.2 190 18:56 29.09.2019
1082 Rain 17 1000 77 10000 6.2 200 18:38 29.09.2019
1083 Rain 17 1000 77 10000 6.2 200 18:38 29.09.2019
1084 Rain 17 1000 77 10000 6.2 200 18:19 29.09.2019
1085 Rain 17 1000 77 10000 6.2 200 18:19 29.09.2019
1086 Rain 17 1000 72 10000 7.2 200 17:58 29.09.2019
1087 Rain 17 1000 72 10000 6.7 200 17:40 29.09.2019
1088 Rain 17 1000 72 10000 6.7 200 17:20 29.09.2019
1089 Clouds 17 1001 77 10000 6.2 210 16:59 29.09.2019
1090 Rain 17 1000 68 10000 6.7 220 16:40 29.09.2019
1091 Rain 17 1002 72 10000 6.7 200 16:19 29.09.2019
1092 Clouds 17 1002 72 10000 10.3 210 15:57 29.09.2019
1093 Clouds 17 1002 72 10000 10.3 210 15:57 29.09.2019
1094 Rain 17 1002 68 10000 7.7 210 15:37 29.09.2019
1095 Rain 17 1002 68 10000 7.7 210 15:18 29.09.2019
1096 Rain 16 1002 72 10000 7.2 210 14:55 29.09.2019
1097 Drizzle 16 1002 72 10000 6.7 180 14:37 29.09.2019
1098 Drizzle 16 1002 72 10000 6.7 180 14:18 29.09.2019
1099 Rain 16 1003 77 10000 5.7 180 13:54 29.09.2019
1100 Clouds 16 1004 82 10000 5.7 180 13:36 29.09.2019
1101 Rain 16 1004 87 10000 3.1 180 13:18 29.09.2019
1102 Rain 15 1004 87 10000 3.1 180 12:55 29.09.2019
1103 Rain 16 1003 72 10000 4.1 220 12:37 29.09.2019
1104 Rain 15 1005 72 10000 6.2 180 12:18 29.09.2019
1105 Rain 16 1004 55 10000 4.6 210 11:41 29.09.2019
1106 Rain 16 1004 67 10000 3.6 170 11:19 29.09.2019
1107 Rain 16 1005 67 10000 4.1 210 10:58 29.09.2019
1108 Rain 16 1005 67 10000 4.1 210 10:58 29.09.2019
1109 Clouds 16 1006 67 10000 5.7 200 10:38 29.09.2019
1110 Clouds 16 1006 67 10000 5.7 200 10:20 29.09.2019
1111 Clouds 16 1006 67 10000 4.6 170 09:56 29.09.2019
1112 Clouds 16 1005 63 10000 6.2 220 09:38 29.09.2019
1113 Clouds 15 1006 72 10000 5.7 180 09:18 29.09.2019
1114 Clouds 15 1007 72 10000 6.2 170 08:42 29.09.2019
1115 Clouds 14 1007 72 10000 6.2 170 08:22 29.09.2019
1116 Clear 14 1007 82 10000 4.1 150 07:44 29.09.2019
1117 Clear 14 1007 82 10000 4.1 150 07:26 29.09.2019
1118 Rain 14 1007 72 10000 2.1 170 06:49 29.09.2019
1119 Clear 14 1009 77 10000 5.1 170 05:59 29.09.2019
1120 Rain 14 1010 77 10000 4.6 180 04:46 29.09.2019
1121 Rain 14 1011 77 10000 4.6 180 04:23 29.09.2019
1122 Clouds 14 1012 76 10000 3.6 180 02:59 29.09.2019
1123 Clouds 14 1012 76 10000 3.6 190 02:19 29.09.2019
1124 Clouds 14 1012 72 10000 4.1 210 01:45 29.09.2019
1125 Clear 14 1013 72 10000 3.6 200 01:19 29.09.2019
1126 Clouds 14 1013 72 10000 4.6 220 00:40 29.09.2019
1127 Clear 14 1013 72 10000 4.1 210 00:19 29.09.2019
1128 Clear 14 1013 72 10000 4.6 210 23:39 28.09.2019
1129 Clear 14 1013 72 10000 4.6 210 23:20 28.09.2019
1130 Rain 14 1013 67 10000 5.7 220 22:41 28.09.2019
1131 Rain 14 1013 67 10000 5.7 220 22:41 28.09.2019
1132 Rain 14 1013 72 10000 5.1 210 22:23 28.09.2019
1133 Rain 14 1013 77 10000 3.6 210 21:59 28.09.2019
1134 Rain 14 1013 72 10000 5.1 220 21:40 28.09.2019
1135 Rain 14 1013 72 10000 5.1 220 21:40 28.09.2019
1136 Rain 14 1013 77 10000 3.1 210 21:21 28.09.2019
1137 Clear 14 1013 87 10000 2.6 230 20:59 28.09.2019
1138 Rain 14 1013 77 10000 3.6 220 20:40 28.09.2019
1139 Rain 14 1013 82 10000 6.2 240 20:20 28.09.2019
1140 Rain 14 1013 72 10000 9.3 240 19:58 28.09.2019
1141 Rain 14 1013 72 10000 6.2 230 19:39 28.09.2019
1142 Rain 14 1013 72 10000 6.2 230 19:21 28.09.2019
1143 Rain 15 1013 67 10000 8.2 230 18:58 28.09.2019
1144 Rain 15 1013 67 10000 8.2 230 18:58 28.09.2019
1145 Rain 15 1013 67 10000 7.7 230 18:39 28.09.2019
1146 Rain 16 1013 67 10000 7.2 230 18:21 28.09.2019
1147 Rain 16 1013 67 10000 7.2 230 17:57 28.09.2019
1148 Rain 17 1013 67 10000 7.2 230 17:38 28.09.2019
1149 Rain 17 1013 67 10000 7.2 230 17:20 28.09.2019
1150 Rain 17 1013 67 10000 8.2 230 16:45 28.09.2019
1151 Rain 17 1013 63 10000 8.2 230 16:27 28.09.2019
1152 Rain 17 1013 59 10000 8.2 230 15:57 28.09.2019
1153 Clouds 17 1013 59 10000 9.3 230 15:38 28.09.2019
1154 Rain 17 1013 63 10000 7.2 230 15:20 28.09.2019
1155 Rain 17 1013 63 10000 7.2 230 14:54 28.09.2019
1156 Rain 17 1013 67 10000 8.2 230 14:36 28.09.2019
1157 Rain 17 1013 67 10000 8.2 230 14:18 28.09.2019
1158 Rain 16 1013 63 10000 7.7 240 13:42 28.09.2019
1159 Rain 17 1013 67 10000 9.3 230 13:20 28.09.2019
1160 Rain 17 1013 67 10000 7.2 230 12:55 28.09.2019
1161 Rain 16 1013 72 10000 7.7 230 12:36 28.09.2019
1162 Rain 16 1013 72 10000 7.7 230 12:18 28.09.2019
1163 Clouds 15 1013 67 10000 8.2 230 11:40 28.09.2019
1164 Clouds 15 1013 72 10000 7.2 220 11:20 28.09.2019
1165 Clouds 15 1013 77 10000 4.6 210 10:44 28.09.2019
1166 Rain 15 1012 77 10000 4.6 200 10:21 28.09.2019
1167 Clouds 15 1012 77 10000 4.1 200 09:59 28.09.2019
1168 Rain 14 1012 82 10000 3.6 200 09:41 28.09.2019
1169 Rain 14 1012 82 10000 3.6 200 09:19 28.09.2019
1170 Clouds 14 1012 82 10000 3.1 190 08:48 28.09.2019
1171 Rain 14 1012 82 10000 4.1 170 08:29 28.09.2019
1172 Clouds 14 1011 87 10000 3.6 170 07:57 28.09.2019
1173 Rain 14 1011 87 10000 3.6 160 07:38 28.09.2019
1174 Rain 14 1011 87 10000 3.6 160 07:19 28.09.2019
1175 Rain 14 1011 72 10000 4.1 220 06:40 28.09.2019
1176 Clouds 14 1011 82 10000 3.6 180 06:21 28.09.2019
1177 Clouds 14 1011 72 10000 4.1 220 05:37 28.09.2019
1178 Clouds 14 1011 87 10000 3.1 180 05:18 28.09.2019
1179 Clouds 14 1011 87 10000 3.1 170 04:31 28.09.2019
1180 Clear 14 1011 77 10000 3.1 190 03:42 28.09.2019
1181 Clear 14 1011 82 10000 3.6 190 03:18 28.09.2019
1182 Clouds 14 1011 77 10000 3.6 220 02:41 28.09.2019
1183 Clear 14 1011 82 10000 3.1 190 02:23 28.09.2019
1184 Clear 14 1010 87 10000 3.6 170 01:43 28.09.2019
1185 Clear 14 1010 87 10000 4.1 170 01:23 28.09.2019
1186 Clear 14 1010 82 10000 4.1 180 00:48 28.09.2019
1187 Clear 14 1010 82 10000 4.1 180 00:29 28.09.2019
1188 Clouds 15 1010 82 10000 5.1 180 23:39 27.09.2019
1189 Clouds 14 1010 82 10000 5.1 180 23:21 27.09.2019
1190 Clear 15 1010 82 10000 4.6 180 22:58 27.09.2019
1191 Rain 15 1010 77 10000 3.1 200 22:40 27.09.2019
1192 Rain 15 1010 77 10000 4.1 180 22:18 27.09.2019
1193 Rain 15 1010 77 10000 4.1 180 21:54 27.09.2019
1194 Clear 15 1010 77 10000 3.1 200 21:36 27.09.2019
1195 Rain 15 1010 77 10000 3.1 200 21:18 27.09.2019
1196 Rain 16 1010 67 10000 4.6 220 20:41 27.09.2019
1197 Rain 16 1010 67 10000 4.6 220 20:20 27.09.2019
1198 Rain 16 1010 63 10000 2.6 210 19:59 27.09.2019
1199 Rain 17 1010 67 10000 4.1 220 19:41 27.09.2019
1200 Rain 17 1009 52 10000 4.6 220 19:23 27.09.2019
1201 Rain 18 1009 52 10000 4.6 220 18:55 27.09.2019
1202 Clouds 18 1009 49 10000 6.2 220 18:37 27.09.2019
1203 Clouds 19 1009 49 10000 6.2 230 18:19 27.09.2019
1204 Clouds 19 1009 52 10000 7.7 230 17:40 27.09.2019
1205 Clouds 19 1009 52 10000 5.7 230 17:22 27.09.2019
1206 Clouds 19 1009 52 10000 7.7 230 17:22 27.09.2019
1207 Clouds 19 1009 52 10000 5.7 230 16:59 27.09.2019
1208 Clouds 19 1009 49 10000 5.1 240 16:41 27.09.2019
1209 Clouds 19 1009 55 10000 5.7 260 16:20 27.09.2019
1210 Clouds 19 1009 55 10000 5.7 260 16:20 27.09.2019
1211 Clouds 20 1009 49 10000 6.2 240 15:58 27.09.2019
1212 Clouds 19 1009 52 10000 6.7 230 15:39 27.09.2019
1213 Clouds 19 1009 52 10000 6.7 230 15:19 27.09.2019
1214 Clouds 19 1009 52 10000 5.7 250 14:56 27.09.2019
1215 Clouds 19 1009 59 10000 5.7 260 14:37 27.09.2019
1216 Clouds 19 1009 59 10000 5.7 260 14:37 27.09.2019
1217 Clouds 19 1009 63 10000 5.7 240 14:18 27.09.2019
1218 Clouds 18 1009 63 10000 5.7 240 13:55 27.09.2019
1219 Clouds 18 1009 68 10000 6.2 230 13:37 27.09.2019
1220 Clouds 18 1009 68 10000 6.2 230 13:18 27.09.2019
1221 Clouds 18 1009 72 10000 4.1 220 12:42 27.09.2019
1222 Clouds 17 1009 72 10000 4.1 220 12:21 27.09.2019
1223 Clouds 17 1009 72 10000 4.1 220 12:21 27.09.2019
1224 Clouds 16 1010 82 10000 2.6 190 11:40 27.09.2019
1225 Clouds 16 1010 82 10000 2.6 190 11:22 27.09.2019
1226 Clouds 15 1010 87 10000 2.6 190 10:59 27.09.2019
1227 Clouds 15 1010 77 10000 3.1 230 10:40 27.09.2019
1228 Clouds 14 1010 93 10000 2.1 160 10:21 27.09.2019
1229 Clouds 14 1010 93 10000 2.6 240 09:44 27.09.2019
1230 Clear 13 1010 93 10000 3.6 170 09:23 27.09.2019
1231 Clear 13 1010 100 10000 2.6 150 08:59 27.09.2019
1232 Clouds 13 1009 87 10000 3.1 210 08:40 27.09.2019
1233 Clouds 13 1009 93 10000 3.6 160 08:20 27.09.2019
1234 Rain 13 1010 100 10000 3.6 160 07:49 27.09.2019
1235 Rain 13 1010 100 10000 3.6 160 07:24 27.09.2019
1236 Rain 13 1009 93 10000 1.5 0 06:46 27.09.2019
1237 Rain 13 1009 93 10000 1.5 0 06:46 27.09.2019
1238 Rain 13 1010 100 10000 2.1 180 06:27 27.09.2019
1239 Rain 14 1010 87 8000 2.1 190 05:52 27.09.2019
1240 Rain 14 1010 93 10000 1.5 180 05:33 27.09.2019
1241 Rain 14 1010 93 10000 1.5 220 04:24 27.09.2019
1242 Rain 14 1010 87 10000 3.1 230 03:38 27.09.2019
1243 Rain 15 1010 87 5000 4.6 270 01:55 27.09.2019
1244 Rain 15 1010 82 10000 4.1 200 01:30 27.09.2019
1245 Rain 15 1010 82 10000 4.1 200 01:30 27.09.2019
1246 Rain 16 1010 77 10000 4.6 180 00:40 27.09.2019
1247 Rain 17 1010 77 10000 4.6 180 23:57 26.09.2019
1248 Clouds 17 1010 88 10000 4.6 180 23:39 26.09.2019
1249 Clouds 17 1010 88 10000 4.6 180 23:19 26.09.2019
1250 Clouds 17 1010 88 10000 4.6 180 23:19 26.09.2019
1251 Rain 17 1010 88 10000 4.6 160 22:58 26.09.2019
1252 Rain 17 1010 88 10000 4.1 170 22:39 26.09.2019
1253 Rain 17 1010 88 10000 4.1 170 22:18 26.09.2019
1254 Rain 17 1010 88 10000 4.1 170 22:18 26.09.2019
1255 Rain 17 1010 88 10000 4.1 180 21:58 26.09.2019
1256 Clouds 17 1010 88 10000 4.1 180 21:38 26.09.2019
1257 Clouds 17 1010 88 10000 4.1 180 21:19 26.09.2019
1258 Rain 17 1009 93 10000 3.1 160 20:58 26.09.2019
1259 Rain 17 1009 93 10000 3.1 140 20:40 26.09.2019
1260 Rain 18 1009 93 10000 3.1 140 20:21 26.09.2019
1261 Rain 18 1009 93 10000 3.1 160 19:59 26.09.2019
1262 Rain 18 1009 77 10000 3.1 220 19:39 26.09.2019
1263 Rain 18 1009 93 10000 3.1 140 19:18 26.09.2019
1264 Rain 18 1009 93 10000 3.1 140 18:56 26.09.2019
1265 Clouds 17 1009 82 10000 1.5 0 18:37 26.09.2019
1266 Clouds 18 1010 93 10000 3.1 150 18:18 26.09.2019
1267 Clouds 18 1010 93 10000 3.1 140 17:38 26.09.2019
1268 Clouds 18 1010 93 10000 3.1 140 17:38 26.09.2019
1269 Clouds 18 1009 77 10000 2.6 200 17:38 26.09.2019
1270 Clouds 17 1010 93 10000 3.1 140 17:19 26.09.2019
1271 Clouds 17 1010 93 10000 3.1 150 16:57 26.09.2019
1272 Drizzle 17 1010 93 6000 3.1 150 16:39 26.09.2019
1273 Drizzle 18 1010 93 6000 3.1 150 16:20 26.09.2019
1274 Rain 17 1010 93 10000 3.6 140 15:56 26.09.2019
1275 Rain 17 1009 93 10000 4.1 150 15:37 26.09.2019
1276 Rain 17 1009 93 10000 4.1 150 15:18 26.09.2019
1277 Rain 17 1010 88 10000 4.1 160 14:41 26.09.2019
1278 Rain 17 1009 88 8000 1.5 200 14:23 26.09.2019
1279 Rain 17 1010 77 6000 3.1 220 13:58 26.09.2019
1280 Rain 17 1010 88 10000 4.1 160 13:40 26.09.2019
1281 Rain 17 1010 88 10000 4.1 160 13:19 26.09.2019
1282 Rain 16 1010 88 10000 4.6 160 12:56 26.09.2019
1283 Rain 17 1010 82 10000 2.1 200 12:38 26.09.2019
1284 Drizzle 16 1010 93 10000 3.6 140 12:19 26.09.2019
1285 Rain 16 1010 93 10000 4.1 150 11:42 26.09.2019
1286 Rain 16 1010 93 10000 4.1 150 11:21 26.09.2019
1287 Rain 15 1010 93 8000 3.6 160 10:56 26.09.2019
1288 Rain 15 1010 93 8000 3.6 160 10:56 26.09.2019
1289 Rain 15 1010 93 8000 3.6 160 10:56 26.09.2019
1290 Rain 15 1010 93 10000 2.6 140 10:38 26.09.2019
1291 Rain 15 1010 93 10000 2.6 140 10:38 26.09.2019
1292 Rain 15 1010 93 10000 2.6 140 10:19 26.09.2019
1293 Rain 15 1009 93 8000 1.5 0 09:43 26.09.2019
1294 Rain 15 1009 93 2200 3.1 160 09:25 26.09.2019
1295 Rain 15 1009 93 10000 1.5 150 08:57 26.09.2019
1296 Rain 14 1009 93 10000 1.5 150 08:39 26.09.2019
1297 Rain 14 1009 93 10000 2.6 150 08:21 26.09.2019
1298 Rain 14 1009 93 4000 1.5 0 07:42 26.09.2019
1299 Clouds 14 1009 87 10000 3.1 170 07:21 26.09.2019
1300 Clouds 14 1009 87 10000 3.6 160 06:44 26.09.2019
1301 Clouds 14 1009 93 10000 3.6 150 06:25 26.09.2019
1302 Clouds 15 1008 82 10000 1.5 180 05:44 26.09.2019
1303 Clouds 15 1008 87 10000 4.1 170 05:25 26.09.2019
1304 Rain 15 1008 93 10000 2.6 160 02:53 26.09.2019
1305 Clouds 15 1008 93 10000 3.1 150 01:54 26.09.2019
1306 Rain 15 1008 87 10000 3.6 160 01:29 26.09.2019
1307 Clouds 15 1008 93 10000 3.1 150 00:56 26.09.2019
1308 Rain 15 1008 93 10000 3.6 150 00:37 26.09.2019
1309 Rain 15 1008 93 10000 3.6 150 00:19 26.09.2019
1310 Clouds 15 1007 87 10000 2.6 200 23:42 25.09.2019
1311 Clouds 15 1008 93 10000 2.6 150 23:19 25.09.2019
1312 Rain 15 1008 87 10000 3.1 160 22:42 25.09.2019
1313 Rain 15 1008 87 10000 3.1 160 22:21 25.09.2019
1314 Rain 15 1008 87 10000 3.1 160 22:21 25.09.2019
1315 Rain 15 1007 77 10000 3.6 180 21:58 25.09.2019
1316 Rain 15 1007 77 10000 4.1 190 21:40 25.09.2019
1317 Rain 16 1007 77 10000 4.1 190 21:19 25.09.2019
1318 Rain 16 1007 77 10000 3.1 170 20:59 25.09.2019
1319 Clouds 16 1007 82 10000 3.1 150 20:40 25.09.2019
1320 Rain 16 1007 77 10000 2.1 170 20:22 25.09.2019
1321 Rain 16 1007 77 10000 2.1 170 19:59 25.09.2019
1322 Rain 16 1007 77 10000 4.1 210 19:38 25.09.2019
1323 Rain 16 1007 77 10000 4.1 210 19:19 25.09.2019
1324 Rain 17 1006 68 10000 2.1 200 18:56 25.09.2019
1325 Rain 17 1006 67 10000 4.1 210 18:37 25.09.2019
1326 Clouds 17 1006 63 10000 2.6 230 18:18 25.09.2019
1327 Clouds 17 1006 63 10000 2.6 230 18:18 25.09.2019
1328 Rain 17 1006 63 10000 2.6 220 17:40 25.09.2019
1329 Rain 17 1006 63 10000 2.6 220 17:21 25.09.2019
1330 Rain 18 1006 67 10000 5.1 210 16:57 25.09.2019
1331 Rain 18 1006 67 10000 5.1 210 16:57 25.09.2019
1332 Clouds 18 1006 63 10000 5.7 220 16:37 25.09.2019
1333 Clouds 18 1006 56 10000 6.7 230 16:19 25.09.2019
1334 Clouds 18 1006 56 10000 6.2 220 15:42 25.09.2019
1335 Clouds 18 1006 56 10000 6.2 220 15:23 25.09.2019
1336 Clouds 18 1006 59 10000 6.2 220 15:00 25.09.2019
1337 Clouds 18 1006 59 10000 4.6 230 14:41 25.09.2019
1338 Clouds 18 1007 59 10000 6.7 240 14:22 25.09.2019
1339 Clouds 18 1007 59 10000 6.2 220 13:57 25.09.2019
1340 Clouds 18 1007 59 10000 6.2 220 13:57 25.09.2019
1341 Clouds 18 1007 59 10000 7.2 220 13:39 25.09.2019
1342 Clouds 17 1007 67 10000 6.2 220 13:20 25.09.2019
1343 Clouds 17 1007 67 10000 6.2 220 12:54 25.09.2019
1344 Clouds 17 1007 72 10000 4.1 210 12:36 25.09.2019
1345 Clouds 17 1007 72 10000 4.1 210 12:18 25.09.2019
1346 Clouds 16 1007 82 10000 3.1 170 11:40 25.09.2019
1347 Clouds 16 1007 82 10000 3.1 170 11:40 25.09.2019
1348 Clouds 15 1007 82 10000 3.1 170 11:20 25.09.2019
1349 Clouds 16 1007 82 10000 3.1 180 10:47 25.09.2019
1350 Clouds 15 1007 87 10000 2.1 180 10:27 25.09.2019
1351 Clouds 15 1006 87 10000 3.1 170 09:59 25.09.2019
1352 Clouds 15 1006 87 10000 3.1 170 09:59 25.09.2019
1353 Clouds 14 1006 93 10000 3.1 160 09:41 25.09.2019
1354 Clouds 14 1006 93 10000 3.1 160 09:23 25.09.2019
1355 Rain 14 1006 93 10000 3.1 160 08:57 25.09.2019
1356 Rain 14 1006 82 10000 2.1 200 08:39 25.09.2019
1357 Rain 13 1006 93 10000 2.6 160 08:19 25.09.2019
1358 Clouds 13 1006 87 10000 3.1 200 07:40 25.09.2019
1359 Clouds 14 1006 87 10000 3.1 200 07:22 25.09.2019
1360 Rain 13 1006 93 10000 3.1 180 06:55 25.09.2019
1361 Rain 13 1006 100 10000 2.6 210 06:34 25.09.2019
1362 Clouds 14 1006 87 10000 2.6 220 05:43 25.09.2019
1363 Clear 14 1006 93 10000 1.5 250 05:19 25.09.2019
1364 Drizzle 14 1005 93 10000 2.6 200 03:21 25.09.2019
1365 Drizzle 14 1005 100 10000 2.1 140 01:39 25.09.2019
1366 Drizzle 14 1005 100 7000 1.5 140 00:41 25.09.2019
1367 Rain 14 1006 87 10000 3.1 140 00:23 25.09.2019
1368 Drizzle 14 1006 93 10000 1.5 130 23:44 24.09.2019
1369 Drizzle 14 1006 93 10000 3.1 130 23:22 24.09.2019
1370 Drizzle 13 1006 93 10000 3.1 130 22:59 24.09.2019
1371 Drizzle 14 1007 93 9000 3.1 130 22:38 24.09.2019
1372 Drizzle 14 1007 93 9000 3.1 130 22:20 24.09.2019
1373 Rain 14 1007 93 10000 3.1 150 21:56 24.09.2019
1374 Rain 14 1007 87 10000 3.6 130 21:37 24.09.2019
1375 Rain 14 1007 87 10000 3.6 130 21:37 24.09.2019
1376 Rain 14 1007 87 10000 3.6 130 21:18 24.09.2019
1377 Rain 14 1007 82 10000 3.1 130 20:57 24.09.2019
1378 Rain 14 1007 87 10000 2.1 130 20:38 24.09.2019
1379 Rain 14 1008 87 10000 2.1 130 20:19 24.09.2019
1380 Rain 15 1008 82 10000 2.6 140 19:43 24.09.2019
1381 Rain 15 1008 82 10000 3.6 140 19:21 24.09.2019
1382 Rain 15 1007 77 10000 3.6 150 18:59 24.09.2019
1383 Rain 16 1007 82 10000 3.6 150 18:40 24.09.2019
1384 Rain 16 1008 67 10000 4.6 160 18:21 24.09.2019
1385 Rain 16 1008 63 10000 4.6 170 17:57 24.09.2019
1386 Rain 17 1008 63 10000 3.6 170 17:38 24.09.2019
1387 Rain 17 1008 63 10000 3.6 170 17:20 24.09.2019
1388 Rain 17 1008 59 10000 4.6 160 16:57 24.09.2019
1389 Rain 17 1009 59 10000 5.7 170 16:38 24.09.2019
1390 Rain 18 1009 59 10000 5.7 170 16:18 24.09.2019
1391 Rain 18 1009 72 10000 4.1 160 15:41 24.09.2019
1392 Rain 18 1009 72 10000 4.1 160 15:41 24.09.2019
1393 Rain 19 1010 59 10000 5.1 170 15:23 24.09.2019
1394 Rain 19 1010 59 10000 5.1 170 14:44 24.09.2019
1395 Clouds 19 1010 59 10000 6.7 170 14:20 24.09.2019
1396 Clouds 19 1010 59 10000 5.1 170 13:57 24.09.2019
1397 Clear 19 1010 59 10000 5.7 170 13:38 24.09.2019
1398 Clear 19 1010 59 10000 5.7 170 13:20 24.09.2019
1399 Clouds 19 1010 59 10000 4.6 170 12:40 24.09.2019
1400 Clear 18 1011 68 10000 4.6 140 12:21 24.09.2019
1401 -273 0 0 0 0 0 11:56 24.09.2019
1402 -273 0 0 0 0 0 11:55 24.09.2019
1403 Clear 17 1012 77 10000 5.1 140 11:37 24.09.2019
1404 Clear 17 1012 77 10000 5.1 140 11:18 24.09.2019
1405 Clear 16 1012 77 10000 4.6 140 10:39 24.09.2019
1406 Clear 15 1012 77 10000 4.6 140 10:21 24.09.2019
1407 Clear 15 1012 82 10000 4.6 130 09:56 24.09.2019
1408 Clouds 15 1012 77 10000 3.6 150 09:37 24.09.2019
1409 Clear 14 1013 82 10000 3.1 130 09:18 24.09.2019
1410 Clear 13 1013 87 10000 2.6 120 08:41 24.09.2019
1411 Clear 13 1013 87 10000 2.6 120 08:41 24.09.2019
1412 Clear 13 1013 87 10000 2.6 120 08:41 24.09.2019
1413 Clear 13 1014 87 10000 2.6 110 08:23 24.09.2019
1414 Clear 12 1014 87 10000 1 0 07:59 24.09.2019
1415 Clear 12 1014 93 10000 2.1 90 07:41 24.09.2019
1416 Clear 12 1014 87 10000 1.5 140 07:22 24.09.2019
1417 Clouds 12 1013 87 10000 1.5 160 06:46 24.09.2019
1418 Clear 12 1014 87 10000 1.5 110 06:26 24.09.2019
1419 Clear 12 1014 87 10000 1.5 80 05:25 24.09.2019
1420 Clear 13 1015 93 10000 0.5 0 04:19 24.09.2019
1421 Clear 13 1015 87 10000 1 0 03:34 24.09.2019
1422 Clear 13 1016 87 10000 1 0 02:45 24.09.2019
1423 Clear 14 1016 87 10000 0.5 0 01:44 24.09.2019
1424 Clouds 14 1016 77 10000 2.6 220 00:42 24.09.2019
1425 Clear 14 1016 82 10000 0.5 0 00:23 24.09.2019
1426 Clouds 14 1016 82 10000 2.1 200 23:44 23.09.2019
1427 Clear 15 1016 87 10000 1 0 23:24 23.09.2019
1428 Clear 14 1016 87 10000 1 0 22:59 23.09.2019
1429 Clear 15 1016 87 10000 0.5 0 22:39 23.09.2019
1430 Clear 15 1016 87 10000 0.5 0 22:20 23.09.2019
1431 Clear 15 1016 87 10000 0.5 0 21:56 23.09.2019
1432 Clouds 15 1016 77 10000 1.5 180 21:37 23.09.2019
1433 Clear 15 1016 82 10000 0.5 0 21:19 23.09.2019
1434 Clear 15 1016 82 10000 0.5 0 21:19 23.09.2019
1435 Clouds 16 1016 72 10000 1.5 200 20:41 23.09.2019
1436 Clear 16 1016 82 10000 1.5 220 20:20 23.09.2019
1437 Clear 16 1016 82 10000 1.5 220 20:20 23.09.2019
1438 Clear 17 1016 67 10000 2.6 230 19:58 23.09.2019
1439 Clear 17 1016 67 10000 3.1 270 19:39 23.09.2019
1440 Clear 17 1016 67 10000 3.1 270 19:21 23.09.2019
1441 Clear 18 1015 63 10000 3.1 270 18:55 23.09.2019
1442 Clear 18 1015 63 10000 3.1 270 18:55 23.09.2019
1443 Clouds 18 1015 59 10000 4.6 260 18:36 23.09.2019
1444 Clouds 18 1015 59 10000 4.6 260 18:18 23.09.2019
1445 Clouds 19 1015 59 10000 4.1 290 17:55 23.09.2019
1446 Clouds 19 1015 59 10000 4.6 260 17:36 23.09.2019
1447 Clouds 19 1015 59 10000 4.6 260 17:18 23.09.2019
1448 Clouds 19 1015 60 10000 3.6 310 16:40 23.09.2019
1449 Clouds 19 1015 60 10000 3.6 310 16:22 23.09.2019
1450 Clouds 19 1015 56 10000 4.1 270 15:59 23.09.2019
1451 Clouds 19 1015 68 10000 2.1 260 15:41 23.09.2019
1452 Clouds 19 1015 72 10000 1 0 15:20 23.09.2019
1453 Clouds 19 1015 72 10000 1 0 14:59 23.09.2019
1454 Rain 18 1015 56 10000 5.7 280 14:39 23.09.2019
1455 Rain 18 1015 77 10000 1 0 14:19 23.09.2019
1456 Clouds 19 1015 77 10000 1.5 200 13:58 23.09.2019
1457 Clouds 19 1015 77 10000 1 0 13:37 23.09.2019
1458 Clouds 18 1015 82 10000 1.5 0 13:18 23.09.2019
1459 Clouds 18 1015 63 10000 5.7 250 12:41 23.09.2019
1460 Clouds 17 1015 82 10000 2.1 170 12:22 23.09.2019
1461 Clouds 17 1015 87 10000 2.1 130 11:55 23.09.2019
1462 Clouds 16 1015 93 10000 2.1 130 11:37 23.09.2019
1463 Clouds 16 1015 93 10000 2.1 130 11:19 23.09.2019
1464 Clouds 16 1015 87 10000 2.1 120 10:49 23.09.2019
1465 Clouds 15 1014 93 10000 2.6 130 10:21 23.09.2019
1466 Clouds 15 1014 93 10000 2.6 130 10:21 23.09.2019
1467 Clouds 15 1014 93 10000 2.6 130 09:56 23.09.2019
1468 Clouds 15 1014 93 10000 1.5 130 09:37 23.09.2019
1469 Clouds 14 1014 93 10000 1.5 130 09:19 23.09.2019
1470 Clouds 14 1014 93 10000 2.1 110 08:44 23.09.2019
1471 Rain 14 1014 93 10000 1 130 08:25 23.09.2019
1472 Rain 14 1013 87 10000 1 0 07:47 23.09.2019
1473 Rain 14 1013 93 10000 1.5 180 07:27 23.09.2019
1474 Rain 15 1013 93 10000 1.5 200 06:24 23.09.2019
1475 Rain 15 1013 93 8000 2.1 220 05:47 23.09.2019
1476 Rain 15 1013 93 10000 1 0 05:20 23.09.2019
1477 Rain 15 1013 93 10000 0.5 0 04:54 23.09.2019
1478 Rain 16 1011 93 10000 4.1 300 02:36 23.09.2019
1479 Rain 17 1010 88 10000 4.6 260 00:43 23.09.2019
1480 Rain 17 1010 88 10000 4.6 260 00:22 23.09.2019
1481 Rain 18 1010 88 10000 3.6 270 23:51 22.09.2019
1482 Rain 19 1009 72 10000 3.6 250 23:32 22.09.2019
1483 Rain 19 1009 60 10000 2.6 200 22:57 22.09.2019
1484 Rain 20 1008 52 10000 2.1 110 22:39 22.09.2019
1485 Rain 20 1008 52 10000 2.1 110 22:21 22.09.2019
1486 Clear 20 1008 52 10000 2.6 120 21:43 22.09.2019
1487 Clear 21 1008 52 10000 2.6 120 21:22 22.09.2019
1488 Clear 21 1008 49 10000 2.1 120 20:58 22.09.2019
1489 Clear 22 1008 49 10000 2.6 110 20:40 22.09.2019
1490 Clear 22 1008 49 10000 2.6 110 20:22 22.09.2019
1491 Clouds 23 1007 49 10000 3.1 110 19:41 22.09.2019
1492 Clear 23 1008 49 10000 2.6 130 19:23 22.09.2019
1493 Clear 24 1008 53 10000 2.6 140 18:59 22.09.2019
1494 Clear 24 1008 50 10000 2.1 140 18:39 22.09.2019
1495 Clear 25 1008 50 10000 2.1 140 18:20 22.09.2019
1496 Rain 25 1008 47 10000 3.1 130 17:58 22.09.2019
1497 Clouds 25 1008 44 10000 4.6 160 17:40 22.09.2019
1498 Clear 26 1008 47 10000 3.1 140 17:19 22.09.2019
1499 Clouds 26 1008 41 10000 4.6 180 16:45 22.09.2019
1500 Clear 26 1008 44 10000 4.1 150 16:26 22.09.2019
1501 Clear 27 1008 44 10000 4.6 160 15:57 22.09.2019
1502 Clouds 26 1008 39 10000 5.1 170 15:38 22.09.2019
1503 Clear 26 1009 41 10000 4.1 180 15:19 22.09.2019
1504 Clouds 26 1008 41 10000 3.1 190 14:43 22.09.2019
1505 Clear 26 1009 41 10000 4.6 140 14:25 22.09.2019
1506 Clear 26 1009 41 10000 3.6 140 13:58 22.09.2019
1507 Clouds 25 1008 41 10000 4.1 180 13:40 22.09.2019
1508 Clear 24 1010 41 10000 5.1 150 13:21 22.09.2019
1509 Clear 24 1010 40 10000 4.6 130 12:54 22.09.2019
1510 Clear 23 1010 46 10000 4.6 130 12:36 22.09.2019
1511 Clear 22 1011 49 10000 5.1 140 12:18 22.09.2019
1512 Clouds 21 1010 43 10000 3.1 110 11:41 22.09.2019
1513 Clear 21 1011 45 10000 5.7 140 11:23 22.09.2019
1514 Clear 21 1011 45 10000 5.7 140 11:23 22.09.2019
1515 Clear 20 1011 48 10000 5.7 130 10:54 22.09.2019
1516 Clear 18 1011 48 10000 4.6 130 10:36 22.09.2019
1517 Clear 18 1011 48 10000 4.6 130 10:18 22.09.2019
1518 Clear 17 1011 55 10000 3.6 120 09:41 22.09.2019
1519 Clear 16 1011 58 10000 3.1 100 09:20 22.09.2019
1520 Clouds 15 1010 62 10000 1.5 100 08:47 22.09.2019
1521 Clear 14 1011 58 10000 3.1 90 08:26 22.09.2019
1522 Clear 14 1011 58 10000 2.1 90 07:57 22.09.2019
1523 Clouds 14 1010 62 10000 1.5 110 07:39 22.09.2019
1524 Clear 14 1011 58 10000 2.6 110 07:20 22.09.2019
1525 Clear 14 1011 58 10000 3.1 110 06:55 22.09.2019
1526 Clear 14 1012 58 10000 3.1 110 05:36 22.09.2019
1527 Clear 13 1012 50 10000 2.1 150 03:50 22.09.2019
1528 Clear 14 1012 50 10000 2.1 140 02:41 22.09.2019
1529 Clear 13 1013 58 10000 2.6 110 02:23 22.09.2019
1530 Clear 14 1013 54 10000 1.5 110 01:23 22.09.2019
1531 Clear 15 1013 50 10000 1.5 0 00:39 22.09.2019
1532 Clear 15 1014 62 10000 2.1 130 00:20 22.09.2019
1533 Clear 16 1014 41 10000 1.5 160 23:41 21.09.2019
1534 Clear 16 1014 62 10000 1.5 150 23:22 21.09.2019
1535 Clear 17 1015 42 0 2.1 90 22:40 21.09.2019
1536 Clear 17 1015 42 0 2.1 90 22:21 21.09.2019
1537 Clear 17 1015 42 10000 2.6 80 21:57 21.09.2019
1538 Clear 17 1015 42 10000 2.6 100 21:38 21.09.2019
1539 Clear 18 1015 42 10000 2.6 100 21:18 21.09.2019
1540 Clear 18 1015 32 10000 1.5 0 20:41 21.09.2019
1541 Clear 19 1015 37 10000 2.6 90 20:22 21.09.2019
1542 Clear 20 1015 35 10000 2.6 100 19:57 21.09.2019
1543 Clear 22 1015 33 10000 3.1 100 19:39 21.09.2019
1544 Clear 22 1015 28 10000 3.6 130 19:18 21.09.2019
1545 Clear 25 1015 49 10000 4.1 110 18:39 21.09.2019
1546 Clear 24 1016 27 10000 4.1 130 18:20 21.09.2019
1547 Clear 24 1016 27 10000 4.1 130 18:20 21.09.2019
1548 Clear 24 1016 27 10000 4.6 120 17:42 21.09.2019
1549 Clear 24 1016 27 10000 4.6 120 17:23 21.09.2019
1550 Clear 24 1016 27 10000 5.7 140 16:56 21.09.2019
1551 Clear 24 1017 25 10000 6.2 140 16:37 21.09.2019
1552 Clear 24 1017 25 10000 6.2 140 16:18 21.09.2019
1553 Clear 24 1018 28 10000 5.1 120 15:42 21.09.2019
1554 Clear 23 1018 28 10000 5.1 120 15:20 21.09.2019
1555 Clear 23 1017 28 10000 6.2 100 14:47 21.09.2019
1556 Clear 23 1019 30 10000 5.7 120 14:28 21.09.2019
1557 Clear 22 1019 32 10000 7.7 140 13:46 21.09.2019
1558 Clear 21 1019 32 10000 7.2 150 13:26 21.09.2019
1559 Clear 21 1020 32 10000 6.7 150 12:59 21.09.2019
1560 Clear 20 1020 34 10000 6.7 150 12:41 21.09.2019
1561 Clear 19 1021 37 10000 6.2 140 12:21 21.09.2019
1562 Clear 19 1021 37 10000 6.2 140 11:59 21.09.2019
1563 Clear 18 1020 36 10000 5.7 110 11:41 21.09.2019
1564 Clear 17 1021 44 10000 5.7 130 11:21 21.09.2019
1565 Clear 16 1020 41 10000 4.1 120 10:41 21.09.2019
1566 Clear 15 1021 47 10000 4.1 120 10:23 21.09.2019
1567 Clear 14 1021 50 10000 3.6 100 09:57 21.09.2019
1568 Clear 14 1020 54 10000 3.6 100 09:38 21.09.2019
1569 Clear 13 1021 54 10000 3.6 100 09:20 21.09.2019
1570 Clear 11 1021 57 10000 3.1 100 08:51 21.09.2019
1571 Clear 10 1021 61 10000 2.6 90 08:27 21.09.2019
1572 Clear 9 1021 70 10000 2.1 110 07:41 21.09.2019
1573 Clear 9 1021 65 10000 1.5 110 07:23 21.09.2019
1574 Clear 9 1022 70 10000 2.1 120 06:51 21.09.2019
1575 Clear 9 1022 61 10000 2.1 80 06:31 21.09.2019
1576 Clear 10 1022 61 10000 1.5 110 04:53 21.09.2019
1577 Clear 10 1022 61 10000 1.5 110 04:53 21.09.2019
1578 Clear 10 1022 57 10000 2.1 110 04:34 21.09.2019
1579 Clear 10 1023 65 10000 1.5 120 02:38 21.09.2019
1580 Clear 10 1023 70 10000 1.5 120 02:20 21.09.2019
1581 Clear 10 1023 61 10000 1 0 01:45 21.09.2019
1582 Clear 11 1024 54 10000 2.6 90 00:43 21.09.2019
1583 Clear 11 1024 54 10000 2.6 90 00:20 21.09.2019
1584 Clear 11 1024 54 10000 2.6 90 23:46 20.09.2019
1585 Clear 11 1024 58 10000 2.6 100 23:28 20.09.2019
1586 Clear 12 1024 58 10000 2.1 90 22:42 20.09.2019
1587 Clear 12 1024 58 10000 2.1 90 22:24 20.09.2019
1588 Clear 12 1025 66 10000 1.5 130 21:57 20.09.2019
1589 Clear 13 1025 50 10000 1 0 21:38 20.09.2019
1590 Clear 13 1025 50 10000 1 0 21:20 20.09.2019
1591 Clear 14 1025 47 10000 2.1 130 20:57 20.09.2019
1592 Clear 15 1025 44 10000 2.1 130 20:38 20.09.2019
1593 Clear 15 1025 44 10000 2.1 130 20:19 20.09.2019
1594 Clouds 17 1025 39 10000 1.5 90 19:45 20.09.2019
1595 Clear 18 1025 34 10000 1 120 19:26 20.09.2019
1596 Clear 19 1025 32 10000 1.5 110 18:58 20.09.2019
1597 Clear 19 1025 32 10000 2.1 80 18:38 20.09.2019
1598 Clear 20 1025 32 10000 2.1 80 18:18 20.09.2019
1599 Clouds 20 1025 34 10000 4.1 90 17:47 20.09.2019
1600 Clear 20 1026 32 10000 2.1 0 17:27 20.09.2019
1601 Clear 20 1026 32 10000 2.1 120 16:57 20.09.2019
1602 Clear 20 1027 32 10000 2.6 0 16:37 20.09.2019
1603 Clear 19 1027 34 10000 1.5 0 16:18 20.09.2019
1604 Clouds 19 1027 32 10000 4.1 90 15:41 20.09.2019
1605 Clouds 19 1027 32 10000 4.1 90 15:41 20.09.2019
1606 Clear 19 1027 37 10000 2.6 0 15:22 20.09.2019
1607 Clear 19 1027 37 10000 2.6 0 14:55 20.09.2019
1608 Clear 18 1028 37 10000 2.1 70 14:36 20.09.2019
1609 Clear 18 1028 39 10000 2.6 90 14:18 20.09.2019
1610 Clear 17 1029 48 10000 4.1 150 13:41 20.09.2019
1611 Clear 17 1029 48 10000 4.1 150 13:22 20.09.2019
1612 Clear 16 1029 54 10000 2.6 180 12:42 20.09.2019
1613 Clear 15 1029 51 10000 2.6 140 12:23 20.09.2019
1614 Clear 15 1029 51 10000 2.6 140 11:57 20.09.2019
1615 Clouds 15 1029 47 10000 2.6 90 11:39 20.09.2019
1616 Clear 13 1030 62 10000 1.5 110 11:19 20.09.2019
1617 Clouds 13 1030 62 10000 2.1 100 10:42 20.09.2019
1618 Clear 12 1030 76 10000 0.5 0 10:22 20.09.2019
1619 Clear 8 1030 86 10000 1.5 170 09:38 20.09.2019
1620 Clear 7 1030 93 10000 1 60 09:19 20.09.2019
1621 Clear 6 1030 93 10000 1 60 08:59 20.09.2019
1622 Clear 6 1030 93 10000 1 60 08:59 20.09.2019
1623 Clouds 6 1029 93 10000 1 140 08:40 20.09.2019
1624 Clear 5 1029 93 10000 0.5 0 08:21 20.09.2019
1625 Clouds 5 1029 93 10000 0.5 140 07:43 20.09.2019
1626 Clear 5 1029 93 10000 0.5 100 07:24 20.09.2019
1627 Clouds 5 1029 93 10000 1 0 06:44 20.09.2019
1628 Clouds 5 1029 93 10000 1 0 06:44 20.09.2019
1629 Clear 5 1029 93 10000 0.5 0 06:20 20.09.2019
1630 Clouds 5 1029 86 10000 1.5 160 05:42 20.09.2019
1631 Clear 6 1030 93 10000 2.1 150 03:30 20.09.2019
1632 Clear 6 1030 86 10000 1 0 02:51 20.09.2019
1633 Clear 6 1030 86 10000 1 0 02:51 20.09.2019
1634 Clear 7 1030 93 10000 1.5 180 01:44 20.09.2019
1635 Clouds 8 1030 75 10000 0.5 0 00:48 20.09.2019
1636 Clear 8 1030 81 10000 1 0 00:21 20.09.2019
1637 Clouds 9 1030 66 10000 2.46 51.515 23:42 19.09.2019
1638 Clear 9 1030 75 10000 3.1 70 23:19 19.09.2019
1639 Clear 10 1030 81 10000 3.1 60 22:55 19.09.2019
1640 Clear 10 1030 76 10000 2.6 60 22:36 19.09.2019
1641 Clear 10 1030 76 10000 2.6 60 22:18 19.09.2019
1642 Clear 11 1030 71 10000 3.1 50 21:55 19.09.2019
1643 Clear 11 1029 66 10000 2.6 60 21:36 19.09.2019
1644 Clear 11 1029 66 10000 2.6 60 21:18 19.09.2019
1645 Clouds 12 1030 54 10000 1.5 360 20:43 19.09.2019
1646 Clear 13 1029 58 10000 2.1 40 20:21 19.09.2019
1647 Clear 14 1029 44 10000 2.6 20 19:55 19.09.2019
1648 Clouds 14 1029 41 10000 2.6 10 19:37 19.09.2019
1649 Clear 15 1029 41 10000 2.6 30 19:19 19.09.2019
1650 Clouds 16 1029 38 10000 3.1 10 18:42 19.09.2019
1651 Clear 16 1029 39 10000 2.6 350 18:24 19.09.2019
1652 Clear 17 1029 39 10000 2.6 330 17:54 19.09.2019
1653 Clear 17 1029 39 10000 2.6 10 17:36 19.09.2019
1654 Clear 17 1029 39 10000 2.6 10 17:18 19.09.2019
1655 Clear 17 1029 39 10000 3.1 40 16:56 19.09.2019
1656 Clouds 17 1030 39 10000 3.1 360 16:37 19.09.2019
1657 Clear 17 1030 39 10000 1.5 50 16:18 19.09.2019
1658 Clear 17 1030 39 10000 2.1 0 15:38 19.09.2019
1659 Clear 16 1030 39 10000 1.5 0 15:18 19.09.2019
1660 -273 0 0 0 0 0 14:41 19.09.2019
1661 Clouds 16 1030 44 10000 3.6 350 14:23 19.09.2019
1662 Clouds 16 1030 44 10000 1.5 0 13:58 19.09.2019
1663 Clouds 16 1031 44 10000 2.1 10 13:38 19.09.2019
1664 Clouds 15 1030 48 10000 1.5 0 13:19 19.09.2019
1665 Clouds 15 1031 58 10000 2.1 0 12:39 19.09.2019
1666 Clouds 14 1031 58 10000 2.1 0 12:19 19.09.2019
1667 Clouds 14 1031 62 10000 1 0 11:56 19.09.2019
1668 Clouds 14 1031 66 10000 0.5 0 11:38 19.09.2019
1669 Clouds 13 1031 66 10000 0.5 0 11:19 19.09.2019
1670 Clouds 12 1031 71 10000 1 50 10:40 19.09.2019
1671 Clouds 11 1031 76 10000 1.5 150 10:22 19.09.2019
1672 Clear 10 1031 87 10000 1 0 09:58 19.09.2019
1673 Clouds 10 1031 87 10000 1 310 09:40 19.09.2019
1674 Fog 8 1030 100 10000 0.5 0 09:21 19.09.2019
1675 Fog 7 1030 100 10000 0.5 0 08:55 19.09.2019
1676 Fog 6 1030 100 10000 0.5 0 08:28 19.09.2019
1677 Clear 5 1029 93 10000 1 0 07:56 19.09.2019
1678 Clouds 5 1029 93 10000 1 240 07:38 19.09.2019
1679 Clear 5 1029 100 10000 1.59 358.342 07:19 19.09.2019
1680 Clouds 6 1029 93 10000 1.5 250 06:43 19.09.2019
1681 Clouds 6 1029 93 10000 1.5 250 06:43 19.09.2019
1682 Clear 6 1029 93 10000 0.5 0 06:25 19.09.2019
1683 Clear 6 1029 93 10000 1 50 05:50 19.09.2019
1684 Clear 6 1029 93 10000 1 50 05:50 19.09.2019
1685 Clear 7 1029 93 10000 1.5 60 04:27 19.09.2019
1686 Clear 7 1029 93 10000 1.5 60 03:22 19.09.2019
1687 Clear 9 1028 93 10000 1 70 01:53 19.09.2019
1688 Clear 9 1028 93 10000 1.5 60 01:21 19.09.2019
1689 Clouds 9 1028 81 10000 1.5 320 00:49 19.09.2019
1690 Clear 9 1028 87 10000 0.5 0 00:25 19.09.2019
1691 Clear 10 1028 81 10000 1.5 60 23:39 18.09.2019
1692 Clear 10 1028 81 10000 1.5 60 23:21 18.09.2019
1693 Clouds 11 1027 66 10000 2.6 20 22:44 18.09.2019
1694 Clear 11 1027 76 10000 1 50 22:20 18.09.2019
1695 Clear 12 1027 71 10000 1 40 21:59 18.09.2019
1696 Clouds 12 1027 58 10000 2.6 10 21:40 18.09.2019
1697 Clear 13 1027 66 10000 2.1 10 21:19 18.09.2019
1698 Clear 13 1027 66 10000 2.1 10 20:58 18.09.2019
1699 Clouds 14 1027 51 10000 3.6 20 20:40 18.09.2019
1700 Clear 14 1026 62 10000 2.1 10 20:22 18.09.2019
1701 Clear 14 1026 58 10000 2.6 340 19:59 18.09.2019
1702 Clear 14 1026 54 10000 3.6 350 19:41 18.09.2019
1703 Clear 15 1026 51 10000 4.6 10 19:20 18.09.2019
1704 Clear 16 1026 51 10000 4.6 10 18:56 18.09.2019
1705 Clear 16 1025 45 10000 4.6 360 18:38 18.09.2019
1706 Clear 16 1025 45 10000 4.6 360 18:38 18.09.2019
1707 Clear 16 1025 45 10000 4.6 360 18:19 18.09.2019
1708 Clouds 17 1026 39 10000 4.6 330 17:59 18.09.2019
1709 Clear 17 1025 39 10000 4.6 320 17:40 18.09.2019
1710 Clear 17 1026 42 10000 5.7 320 17:19 18.09.2019
1711 Clear 17 1026 42 10000 5.7 320 16:56 18.09.2019
1712 Clear 17 1026 42 10000 4.6 330 16:38 18.09.2019
1713 Clear 17 1026 42 10000 4.6 330 16:19 18.09.2019
1714 Clear 17 1026 42 10000 4.6 340 15:56 18.09.2019
1715 Clear 17 1026 42 10000 3.6 320 15:37 18.09.2019
1716 Clouds 16 1026 44 10000 1.5 0 15:19 18.09.2019
1717 Clouds 16 1026 44 10000 1.5 0 14:57 18.09.2019
1718 Clouds 16 1026 44 10000 1.5 0 14:57 18.09.2019
1719 Clouds 17 1027 44 10000 2.1 320 14:39 18.09.2019
1720 Clouds 16 1027 48 10000 2.6 320 14:21 18.09.2019
1721 Clouds 16 1027 54 10000 3.6 330 13:54 18.09.2019
1722 Clouds 16 1027 58 10000 2.6 330 13:36 18.09.2019
1723 Clouds 15 1027 58 10000 2.1 360 13:18 18.09.2019
1724 Clouds 16 1027 62 10000 1.5 0 12:37 18.09.2019
1725 Clouds 15 1027 62 10000 1.5 0 12:19 18.09.2019
1726 Clouds 14 1028 62 10000 1.5 350 11:40 18.09.2019
1727 Clear 14 1028 71 10000 1 0 11:20 18.09.2019
1728 Clear 13 1027 71 10000 1 0 10:56 18.09.2019
1729 Clear 12 1027 81 10000 0.5 0 10:37 18.09.2019
1730 Clear 12 1027 81 10000 0.5 0 10:18 18.09.2019
1731 Clear 10 1027 87 10000 1 0 09:42 18.09.2019
1732 Clear 9 1027 87 10000 1 0 09:22 18.09.2019
1733 Clear 9 1027 87 10000 1 0 09:22 18.09.2019
1734 Clear 9 1027 87 10000 1 0 09:22 18.09.2019
1735 Clear 9 1027 87 10000 1 0 09:22 18.09.2019
1736 Clear 8 1027 93 10000 1.5 60 08:59 18.09.2019
1737 Clouds 6 1027 87 10000 1.5 260 08:41 18.09.2019
1738 Clear 6 1026 93 10000 1 60 08:21 18.09.2019
1739 Clear 5 1026 93 10000 1.5 110 07:44 18.09.2019
1740 Clear 5 1026 93 10000 0.5 0 07:23 18.09.2019
1741 Clear 6 1026 93 10000 0.5 0 06:54 18.09.2019
1742 Clear 6 1025 93 10000 1.5 50 06:26 18.09.2019
1743 Clear 6 1025 93 10000 2.6 60 05:39 18.09.2019
1744 Clear 7 1025 93 10000 0.5 0 03:49 18.09.2019
1745 Clear 8 1025 81 10000 2.1 240 02:41 18.09.2019
1746 Clear 8 1025 87 10000 0.5 0 01:50 18.09.2019
1747 Clear 9 1025 81 10000 1.5 330 00:58 18.09.2019
1748 Clear 9 1024 76 10000 2.1 340 00:34 18.09.2019
1749 Clear 10 1024 76 10000 2.1 360 23:59 17.09.2019
1750 Clouds 10 1025 62 10000 2.6 310 23:40 17.09.2019
1751 Clear 10 1024 71 10000 1.5 360 23:21 17.09.2019
1752 Clouds 11 1024 62 10000 3.1 320 22:42 17.09.2019
1753 Clouds 11 1024 62 10000 3.1 320 22:42 17.09.2019
1754 Clear 12 1024 66 10000 3.1 350 22:24 17.09.2019
1755 Clouds 12 1023 62 10000 3.6 360 21:55 17.09.2019
1756 Clouds 12 1024 71 10000 3.6 330 21:37 17.09.2019
1757 Clouds 13 1022 71 10000 4.6 350 21:18 17.09.2019
1758 Clouds 13 1022 71 10000 4.6 350 21:18 17.09.2019
1759 Clouds 13 1022 71 10000 4.6 350 20:57 17.09.2019
1760 Clouds 14 1023 67 10000 7.2 360 20:39 17.09.2019
1761 Clouds 14 1021 62 10000 6.2 340 20:21 17.09.2019
1762 Clouds 14 1021 62 10000 6.2 340 20:21 17.09.2019
1763 Clear 14 1021 51 10000 7.2 330 19:58 17.09.2019
1764 Clouds 16 1022 51 10000 6.2 330 19:39 17.09.2019
1765 Clouds 16 1021 48 10000 7.7 310 19:19 17.09.2019
1766 Clouds 16 1020 55 10000 7.2 310 19:19 17.09.2019
1767 Clouds 16 1020 55 10000 7.2 310 18:56 17.09.2019
1768 Clouds 16 1021 55 10000 6.7 320 18:38 17.09.2019
1769 Clouds 17 1021 55 10000 6.7 320 18:19 17.09.2019
1770 Clouds 18 1021 52 10000 5.1 290 17:45 17.09.2019
1771 Clouds 18 1021 52 10000 6.2 310 17:20 17.09.2019
1772 Clouds 18 1021 52 10000 6.2 310 17:20 17.09.2019
1773 Clouds 18 1020 52 10000 7.7 300 16:57 17.09.2019
1774 Clouds 18 1021 52 10000 5.7 310 16:37 17.09.2019
1775 Clouds 18 1021 52 10000 5.7 310 16:19 17.09.2019
1776 Clouds 17 1021 48 10000 5.7 290 15:40 17.09.2019
1777 Clouds 18 1021 51 10000 7.2 320 15:20 17.09.2019
1778 Clouds 17 1021 51 10000 5.7 310 14:57 17.09.2019
1779 Clouds 17 1021 51 10000 6.2 300 14:38 17.09.2019
1780 Clouds 17 1021 51 10000 6.2 300 14:19 17.09.2019
1781 Clouds 17 1021 55 10000 4.6 320 13:57 17.09.2019
1782 Clouds 17 1022 48 10000 5.1 300 13:38 17.09.2019
1783 Clouds 17 1022 62 10000 5.1 290 13:20 17.09.2019
1784 Clouds 17 1022 55 10000 5.1 320 12:42 17.09.2019
1785 Clouds 16 1022 62 10000 4.6 300 12:20 17.09.2019
1786 Clouds 15 1022 62 10000 6.2 310 11:57 17.09.2019
1787 Clouds 16 1022 62 10000 5.1 310 11:38 17.09.2019
1788 Clouds 14 1022 71 10000 5.7 320 11:18 17.09.2019
1789 Clouds 15 1022 76 10000 5.1 300 10:41 17.09.2019
1790 Clouds 14 1021 76 10000 5.1 300 10:21 17.09.2019
1791 Clouds 14 1021 82 10000 3.6 290 09:56 17.09.2019
1792 Clouds 13 1021 93 7000 1.5 0 09:37 17.09.2019
1793 Clouds 13 1021 93 7000 1.5 0 09:19 17.09.2019
1794 Clouds 13 1021 93 7000 1.5 0 09:19 17.09.2019
1795 Mist 12 1021 93 7000 2.6 280 08:44 17.09.2019
1796 Mist 12 1021 93 5000 1 0 08:25 17.09.2019
1797 Mist 12 1021 93 5000 1 0 08:25 17.09.2019
1798 Fog 12 1020 93 6000 1.5 0 07:46 17.09.2019
1799 Clouds 12 1020 93 6000 2.6 340 07:28 17.09.2019
1800 Clouds 12 1020 100 7000 2.6 340 06:59 17.09.2019
1801 Clouds 12 1021 87 10000 2.1 300 06:40 17.09.2019
1802 Clouds 13 1020 93 10000 1.5 300 05:56 17.09.2019
1803 Clouds 13 1020 93 10000 2.6 290 05:33 17.09.2019
1804 Clouds 13 1020 93 10000 1.5 330 04:19 17.09.2019
1805 Clouds 13 1021 93 10000 2.1 360 02:41 17.09.2019
1806 Clouds 13 1021 93 10000 2.1 330 01:53 17.09.2019
1807 Clouds 13 1021 93 10000 1.5 360 00:59 17.09.2019
1808 Clouds 14 1021 100 10000 1.5 340 00:22 17.09.2019
1809 Clouds 14 1021 93 10000 2.6 320 23:36 16.09.2019
1810 Clouds 14 1021 93 10000 2.6 320 23:18 16.09.2019
1811 Clouds 14 1021 93 10000 2.1 310 22:42 16.09.2019
1812 Clouds 14 1020 93 10000 3.1 350 22:42 16.09.2019
1813 Clouds 14 1020 93 10000 3.1 350 22:24 16.09.2019
1814 Clouds 14 1021 93 10000 2.6 330 21:59 16.09.2019
1815 Clouds 14 1021 93 10000 2.6 330 21:59 16.09.2019
1816 Clouds 14 1021 93 10000 2.6 330 21:39 16.09.2019
1817 Rain 14 1020 100 10000 2.6 320 21:20 16.09.2019
1818 Drizzle 14 1020 100 8000 2.6 320 20:58 16.09.2019
1819 Rain 14 1020 93 10000 3.6 330 20:39 16.09.2019
1820 Rain 14 1020 93 10000 3.6 330 20:19 16.09.2019
1821 Rain 15 1020 93 2500 2.6 330 19:56 16.09.2019
1822 Rain 15 1019 100 2800 1.5 330 19:37 16.09.2019
1823 Rain 15 1019 100 2800 1.5 330 19:18 16.09.2019
1824 Rain 15 1020 87 4000 4.6 350 18:43 16.09.2019
1825 Rain 16 1020 87 4000 4.6 350 18:25 16.09.2019
1826 Drizzle 17 1019 77 10000 5.1 350 17:55 16.09.2019
1827 Drizzle 17 1019 68 10000 5.1 340 17:37 16.09.2019
1828 Drizzle 18 1019 68 10000 5.1 340 17:19 16.09.2019
1829 Drizzle 19 1019 52 10000 5.1 290 16:43 16.09.2019
1830 Drizzle 19 1019 52 10000 5.1 290 16:21 16.09.2019
1831 Drizzle 19 1019 60 10000 4.1 300 15:57 16.09.2019
1832 Drizzle 20 1019 60 10000 3.6 310 15:39 16.09.2019
1833 Drizzle 20 1019 60 10000 3.6 310 15:20 16.09.2019
1834 Clouds 20 1019 60 10000 4.1 300 14:58 16.09.2019
1835 Clouds 20 1019 60 10000 2.6 290 14:40 16.09.2019
1836 Clouds 20 1019 60 10000 2.6 290 14:20 16.09.2019
1837 Clouds 20 1020 68 10000 1 0 13:43 16.09.2019
1838 Clouds 19 1020 68 10000 1 0 13:22 16.09.2019
1839 Clear 19 1020 68 10000 1 0 12:59 16.09.2019
1840 Clear 19 1020 68 10000 1 0 12:59 16.09.2019
1841 Clouds 18 1020 59 10000 0.5 250 12:39 16.09.2019
1842 Clear 18 1020 72 10000 1.5 160 12:21 16.09.2019
1843 Rain 17 1020 72 10000 1 300 11:46 16.09.2019
1844 Rain 17 1020 77 10000 2.6 140 11:23 16.09.2019
1845 Rain 16 1020 82 10000 2.1 150 10:58 16.09.2019
1846 Rain 16 1020 77 10000 1 0 10:38 16.09.2019
1847 Clear 16 1020 82 10000 0.5 0 10:19 16.09.2019
1848 Clear 15 1020 82 10000 0.5 0 09:57 16.09.2019
1849 Clear 15 1020 82 10000 2.1 60 09:38 16.09.2019
1850 Clear 14 1020 87 10000 2.6 60 09:18 16.09.2019
1851 Clear 14 1020 82 10000 1.5 120 08:42 16.09.2019
1852 Clear 14 1020 82 10000 1.5 120 08:24 16.09.2019
1853 Clear 13 1020 82 10000 1.5 0 07:44 16.09.2019
1854 Clear 13 1020 82 10000 1.5 0 07:25 16.09.2019
1855 Clouds 13 1020 93 10000 0.5 0 06:59 16.09.2019
1856 Clouds 13 1021 93 10000 1 140 06:40 16.09.2019
1857 Clouds 13 1021 93 10000 1 140 06:22 16.09.2019
1858 Clouds 13 1021 87 10000 1 150 05:43 16.09.2019
1859 Clear 13 1021 87 10000 1.5 60 05:25 16.09.2019
1860 Clear 14 1021 82 10000 1.5 60 03:52 16.09.2019
1861 Clear 15 1022 76 10000 0.5 0 01:57 16.09.2019
1862 Clouds 15 1022 72 10000 2.6 280 00:40 16.09.2019
1863 Clear 15 1022 71 10000 0.5 0 00:22 16.09.2019
1864 Clear 16 1022 67 10000 0.5 60 23:41 15.09.2019
1865 Clear 16 1022 67 10000 0.5 60 23:21 15.09.2019
1866 Clouds 17 1022 59 10000 3.1 250 22:43 15.09.2019
1867 Clear 17 1022 55 10000 0.5 0 22:23 15.09.2019
1868 Clear 17 1022 55 10000 0.5 0 21:58 15.09.2019
1869 Clouds 17 1022 48 10000 1.5 250 21:40 15.09.2019
1870 Clear 18 1022 52 10000 0.5 0 21:22 15.09.2019
1871 Clear 18 1021 55 10000 1 0 20:59 15.09.2019
1872 Clear 19 1021 55 10000 1 0 20:59 15.09.2019
1873 Clouds 19 1022 48 10000 2.1 260 20:41 15.09.2019
1874 Clear 19 1021 45 10000 3.1 280 20:23 15.09.2019
1875 Clear 21 1021 37 10000 3.6 290 19:45 15.09.2019
1876 Clear 22 1021 35 10000 4.1 260 19:25 15.09.2019
1877 Clear 23 1021 31 10000 5.1 280 18:55 15.09.2019
1878 Clear 23 1021 31 10000 4.6 280 18:36 15.09.2019
1879 Clear 24 1021 31 10000 4.6 280 18:18 15.09.2019
1880 Clear 24 1022 29 10000 3.6 280 17:41 15.09.2019
1881 Clear 24 1022 29 10000 3.6 280 17:21 15.09.2019
1882 Clear 24 1022 29 10000 3.6 280 17:21 15.09.2019
1883 Clear 25 1022 27 10000 3.6 250 16:55 15.09.2019
1884 Clouds 25 1022 31 10000 5.1 270 16:36 15.09.2019
1885 Clear 25 1023 36 10000 3.1 300 16:18 15.09.2019
1886 Clear 25 1023 36 10000 3.1 300 16:18 15.09.2019
1887 Clouds 24 1023 31 10000 3.6 280 15:41 15.09.2019
1888 Clear 24 1023 35 10000 3.1 0 15:21 15.09.2019
1889 Clear 24 1023 35 10000 3.1 0 15:21 15.09.2019
1890 Clear 24 1023 38 10000 3.1 280 14:59 15.09.2019
1891 Clouds 24 1023 35 10000 4.1 310 14:40 15.09.2019
1892 Clear 24 1024 35 10000 4.1 300 14:22 15.09.2019
1893 Clouds 23 1024 35 10000 4.6 300 13:47 15.09.2019
1894 Clear 23 1024 49 10000 2.6 290 13:25 15.09.2019
1895 Clear 22 1024 49 10000 2.6 300 12:58 15.09.2019
1896 Clear 22 1024 52 10000 1.5 260 12:40 15.09.2019
1897 Clear 21 1024 55 10000 1 0 12:20 15.09.2019
1898 Clear 21 1024 52 10000 1.5 260 12:20 15.09.2019
1899 Clear 20 1025 59 10000 1 0 11:43 15.09.2019
1900 Clear 19 1025 59 10000 1 0 11:23 15.09.2019
1901 Clear 18 1025 63 10000 1 0 10:59 15.09.2019
1902 Clouds 18 1024 55 10000 3.1 270 10:40 15.09.2019
1903 Clear 17 1025 72 10000 1.5 130 10:21 15.09.2019
1904 Clear 16 1025 71 10000 1.5 150 09:57 15.09.2019
1905 Clear 14 1025 87 10000 2.1 150 09:36 15.09.2019
1906 Clouds 13 1025 87 10000 0.5 150 09:18 15.09.2019
1907 Clouds 12 1025 87 10000 0.5 150 08:41 15.09.2019
1908 Clear 11 1025 93 10000 2.1 60 08:20 15.09.2019
1909 Clear 10 1025 93 10000 0.5 0 07:48 15.09.2019
1910 Clear 10 1025 100 10000 2.1 130 06:59 15.09.2019
1911 Clear 10 1025 93 10000 1.34 229.116 06:33 15.09.2019
1912 Clear 10 1026 93 10000 1 0 03:25 15.09.2019
1913 Clear 11 1026 87 10000 1 0 02:30 15.09.2019
1914 Clear 12 1027 93 10000 0.5 0 01:38 15.09.2019
1915 Clear 12 1027 81 10000 1.5 90 00:58 15.09.2019
1916 Clear 12 1028 87 10000 2.6 160 00:39 15.09.2019
1917 Clear 12 1028 87 10000 0.5 0 00:20 15.09.2019
1918 Clear 12 1028 87 10000 0.5 0 23:57 14.09.2019
1919 Clear 12 1028 87 10000 0.5 0 23:39 14.09.2019
1920 Clear 13 1028 87 10000 0.5 0 23:21 14.09.2019
1921 Clear 13 1028 87 10000 0.5 0 22:59 14.09.2019
1922 Clouds 13 1028 58 10000 1.5 250 22:40 14.09.2019
1923 Clear 14 1028 82 10000 2.6 50 22:19 14.09.2019
1924 Clear 14 1028 82 10000 2.6 50 22:19 14.09.2019
1925 Clouds 14 1028 58 10000 0.5 0 21:41 14.09.2019
1926 Clear 15 1029 67 10000 0.5 70 21:22 14.09.2019
1927 Clear 15 1029 67 10000 0.5 0 20:59 14.09.2019
1928 Clear 17 1029 63 10000 0.5 170 20:40 14.09.2019
1929 Clear 17 1029 63 10000 0.5 170 20:22 14.09.2019
1930 Clear 18 1029 52 10000 0.5 290 19:57 14.09.2019
1931 Clear 20 1029 46 10000 1.5 240 19:37 14.09.2019
1932 Clear 20 1029 32 10000 2.6 10 19:19 14.09.2019
1933 Clouds 21 1029 37 10000 1.5 60 18:41 14.09.2019
1934 Clear 22 1029 38 10000 1 0 18:21 14.09.2019
1935 Clear 22 1029 40 10000 1 0 17:59 14.09.2019
1936 Clear 22 1029 40 10000 2.1 330 17:39 14.09.2019
1937 Clear 22 1029 40 10000 2.1 330 17:21 14.09.2019
1938 Clear 22 1029 40 10000 2.1 330 17:21 14.09.2019
1939 Clear 22 1029 40 10000 2.1 330 17:21 14.09.2019
1940 Clear 22 1029 40 10000 2.1 330 17:21 14.09.2019
1941 Clouds 22 1030 37 10000 2.6 10 16:44 14.09.2019
1942 Clear 22 1030 43 10000 1.5 0 16:24 14.09.2019
1943 Clear 22 1031 43 10000 2.1 0 15:56 14.09.2019
1944 Clear 22 1031 46 10000 2.1 0 15:38 14.09.2019
1945 Clear 22 1031 46 10000 1 0 15:18 14.09.2019
1946 Clouds 22 1032 43 10000 2.6 10 14:43 14.09.2019
1947 Clouds 21 1032 45 10000 1.5 0 14:19 14.09.2019
1948 Clouds 21 1032 45 10000 1.5 0 13:48 14.09.2019
1949 Clouds 21 1032 52 10000 1 0 13:23 14.09.2019
1950 Clouds 20 1033 55 10000 1.5 0 12:58 14.09.2019
1951 Clear 19 1033 55 10000 1 0 12:37 14.09.2019
1952 Clear 19 1033 55 10000 1 0 12:18 14.09.2019
1953 Clouds 18 1033 67 10000 1.5 60 11:40 14.09.2019
1954 Clear 17 1034 63 10000 1 0 11:19 14.09.2019
1955 Clear 16 1034 67 10000 1 0 10:38 14.09.2019
1956 Clear 15 1034 67 10000 1 0 10:20 14.09.2019
1957 Clear 15 1034 71 10000 0.5 0 09:57 14.09.2019
1958 Clear 13 1034 87 10000 0.5 0 09:39 14.09.2019
1959 Clear 12 1034 87 10000 0.5 0 09:19 14.09.2019
1960 Clear 11 1034 93 10000 1.5 50 08:46 14.09.2019
1961 Clear 10 1034 100 10000 1 0 08:24 14.09.2019
1962 Clear 9 1033 93 10000 0.5 0 07:48 14.09.2019
1963 Clear 9 1034 93 10000 0.5 0 07:28 14.09.2019
1964 Clouds 9 1034 100 10000 0.5 0 06:52 14.09.2019
1965 Clouds 10 1034 93 10000 0.5 0 06:29 14.09.2019
1966 Clouds 10 1034 93 10000 1 170 05:27 14.09.2019
1967 Clouds 12 1034 87 10000 1 170 03:46 14.09.2019
1968 Clear 12 1034 87 10000 1 0 02:55 14.09.2019
1969 Clear 13 1033 82 10000 4.6 60 01:59 14.09.2019
1970 Clear 13 1034 77 10000 4.1 60 01:39 14.09.2019
1971 Clear 14 1034 77 10000 4.1 60 01:18 14.09.2019
1972 Clear 14 1034 77 10000 4.1 50 00:39 14.09.2019
1973 Clear 14 1034 82 10000 4.1 60 00:21 14.09.2019
1974 Clear 14 1034 77 10000 4.1 50 00:21 14.09.2019
1975 Clear 14 1034 77 10000 4.1 50 00:21 14.09.2019
1976 Clouds 14 1034 93 10000 2.6 60 23:38 13.09.2019
1977 Clouds 14 1034 93 10000 2.6 60 23:38 13.09.2019
1978 Clouds 15 1034 93 10000 2.6 60 23:19 13.09.2019
1979 Clouds 15 1033 82 10000 2.1 50 22:59 13.09.2019
1980 Clouds 16 1033 82 10000 1.5 60 22:39 13.09.2019
1981 Clouds 16 1033 82 10000 1.5 50 22:20 13.09.2019
1982 Clouds 16 1033 82 10000 1.5 50 21:56 13.09.2019
1983 Clouds 16 1033 82 10000 1 0 21:38 13.09.2019
1984 Clouds 17 1033 82 10000 1 0 21:19 13.09.2019
1985 Clouds 17 1033 82 10000 1.5 40 20:55 13.09.2019
1986 Clouds 18 1033 72 10000 1.5 360 20:36 13.09.2019
1987 Clouds 18 1032 68 10000 1.5 10 20:18 13.09.2019
1988 Clouds 19 1033 68 10000 2.1 10 19:43 13.09.2019
1989 Clouds 19 1032 68 10000 1.5 360 19:22 13.09.2019
1990 Clouds 20 1032 72 10000 1.5 350 18:58 13.09.2019
1991 Clouds 20 1032 64 10000 2.1 20 18:38 13.09.2019
1992 Clouds 20 1032 64 10000 2.1 20 18:19 13.09.2019
1993 Clouds 21 1032 68 10000 3.6 30 17:44 13.09.2019
1994 Clouds 20 1032 68 10000 3.6 30 17:21 13.09.2019
1995 Rain 20 1032 72 10000 3.1 360 16:59 13.09.2019
1996 Rain 20 1032 68 10000 2.1 270 16:39 13.09.2019
1997 Rain 20 1032 68 10000 2.1 270 16:19 13.09.2019
1998 Clouds 20 1032 77 10000 3.6 250 15:42 13.09.2019
1999 Clouds 19 1032 77 10000 3.6 290 15:24 13.09.2019
2000 Clouds 19 1032 77 10000 4.1 280 14:56 13.09.2019
2001 Rain 19 1033 93 7000 3.1 290 14:37 13.09.2019
2002 Rain 19 1033 88 10000 3.6 270 14:37 13.09.2019
2003 Rain 19 1033 93 7000 3.1 290 14:19 13.09.2019
2004 Drizzle 19 1033 88 6000 3.6 290 13:41 13.09.2019
2005 Drizzle 19 1032 77 10000 4.1 290 13:22 13.09.2019
2006 Drizzle 18 1032 93 3000 4.6 260 12:46 13.09.2019
2007 Drizzle 18 1032 82 10000 3.6 280 12:25 13.09.2019
2008 Drizzle 18 1032 82 10000 4.1 280 11:57 13.09.2019
2009 Drizzle 18 1032 88 10000 3.1 280 11:21 13.09.2019
2010 Drizzle 18 1032 88 10000 3.1 280 10:59 13.09.2019
2011 Drizzle 18 1032 88 10000 4.1 270 10:37 13.09.2019
2012 Drizzle 17 1031 82 10000 4.1 290 10:18 13.09.2019
2013 Drizzle 17 1031 88 8000 3.6 270 09:43 13.09.2019
2014 Drizzle 17 1031 88 8000 3.6 270 09:43 13.09.2019
2015 Drizzle 17 1031 88 3000 4.1 280 09:23 13.09.2019
2016 Drizzle 17 1031 88 10000 3.6 270 08:58 13.09.2019
2017 Drizzle 17 1031 88 10000 5.1 250 08:39 13.09.2019
2018 Drizzle 17 1030 88 10000 4.1 270 08:20 13.09.2019
2019 Drizzle 17 1030 88 10000 4.1 270 08:20 13.09.2019
2020 Drizzle 16 1030 82 10000 4.6 270 07:44 13.09.2019
2021 Drizzle 17 1030 82 10000 4.1 260 07:26 13.09.2019
2022 Rain 17 1030 82 10000 4.1 250 06:41 13.09.2019
2023 Drizzle 18 1030 82 10000 5.1 270 05:43 13.09.2019
2024 Clouds 18 1029 82 10000 3.6 260 04:51 13.09.2019
2025 Clouds 17 1029 82 10000 4.6 280 03:38 13.09.2019
2026 Clouds 17 1030 82 10000 1.5 180 02:20 13.09.2019
2027 Clouds 17 1030 87 10000 1 230 01:42 13.09.2019
2028 Clouds 17 1030 82 10000 1.5 210 01:22 13.09.2019
2029 Clouds 17 1029 82 10000 1.5 200 00:38 13.09.2019
2030 Clear 17 1029 77 10000 1 0 23:58 12.09.2019
2031 Clear 17 1029 77 10000 1 0 23:36 12.09.2019
2032 Clouds 18 1029 77 10000 1.5 0 22:59 12.09.2019
2033 Clouds 19 1029 68 10000 3.1 230 22:41 12.09.2019
2034 Clouds 19 1029 68 10000 3.1 230 22:41 12.09.2019
2035 Clouds 19 1029 68 10000 1.5 220 22:23 12.09.2019
2036 Clouds 19 1029 64 10000 2.1 210 21:57 12.09.2019
2037 Clouds 19 1029 64 10000 2.1 230 21:38 12.09.2019
2038 Clouds 19 1029 64 10000 2.1 230 21:38 12.09.2019
2039 Clouds 20 1029 64 10000 2.1 230 21:19 12.09.2019
2040 Clouds 20 1029 64 10000 2.6 260 20:56 12.09.2019
2041 Clouds 20 1029 60 10000 2.6 250 20:37 12.09.2019
2042 Clouds 21 1029 60 10000 3.6 280 20:19 12.09.2019
2043 Clouds 21 1029 53 10000 4.1 270 20:19 12.09.2019
2044 Clouds 21 1029 53 10000 4.1 270 19:54 12.09.2019
2045 Clouds 21 1029 53 10000 5.1 270 19:36 12.09.2019
2046 Clouds 21 1029 53 10000 5.1 270 19:36 12.09.2019
2047 Clouds 22 1028 53 10000 5.1 280 19:18 12.09.2019
2048 Clouds 23 1028 53 10000 5.1 260 18:37 12.09.2019
2049 Clouds 23 1028 50 10000 5.7 270 18:19 12.09.2019
2050 Clouds 24 1028 50 10000 5.7 270 17:56 12.09.2019
2051 Clouds 23 1028 49 10000 6.2 270 17:38 12.09.2019
2052 Clouds 23 1028 56 10000 5.7 260 17:19 12.09.2019
2053 Clouds 23 1029 60 10000 4.6 270 16:42 12.09.2019
2054 Clouds 23 1029 60 10000 4.6 270 16:22 12.09.2019
2055 Clouds 23 1029 64 10000 4.6 240 15:55 12.09.2019
2056 Clouds 23 1029 64 10000 5.7 250 15:36 12.09.2019
2057 Clouds 22 1029 68 10000 4.1 250 15:18 12.09.2019
2058 Clouds 21 1029 68 10000 6.7 250 14:41 12.09.2019
2059 Clouds 21 1029 68 10000 6.7 250 14:21 12.09.2019
2060 Clouds 21 1029 77 10000 4.1 240 13:40 12.09.2019
2061 Clouds 21 1029 72 10000 3.6 280 13:22 12.09.2019
2062 Rain 20 1029 82 10000 6.2 260 12:57 12.09.2019
2063 Clouds 20 1029 77 10000 4.1 250 12:38 12.09.2019
2064 Rain 19 1028 82 10000 3.1 210 12:18 12.09.2019
2065 Rain 19 1028 82 10000 3.1 210 11:54 12.09.2019
2066 Drizzle 19 1028 72 7000 5.7 250 11:36 12.09.2019
2067 Drizzle 19 1028 72 7000 5.7 250 11:18 12.09.2019
2068 Drizzle 18 1028 82 10000 4.6 250 10:42 12.09.2019
2069 Drizzle 18 1028 82 10000 4.6 250 10:42 12.09.2019
2070 Drizzle 18 1028 88 10000 3.1 190 10:23 12.09.2019
2071 Clouds 17 1027 93 10000 2.1 210 09:44 12.09.2019
2072 Clouds 17 1027 93 10000 2.6 160 09:20 12.09.2019
2073 Rain 16 1027 93 10000 3.1 160 08:57 12.09.2019
2074 Clouds 16 1027 93 10000 2.6 160 08:39 12.09.2019
2075 Rain 16 1026 93 10000 3.1 200 08:21 12.09.2019
2076 Rain 16 1026 87 10000 2.1 190 07:39 12.09.2019
2077 Clouds 16 1026 87 10000 2.1 200 07:19 12.09.2019
2078 Clouds 16 1026 87 10000 2.1 200 06:50 12.09.2019
2079 Clouds 16 1026 100 10000 2.1 190 06:19 12.09.2019
2080 Drizzle 16 1026 93 10000 3.6 210 05:48 12.09.2019
2081 Drizzle 16 1026 87 10000 2.6 200 05:27 12.09.2019
2082 Drizzle 16 1026 87 10000 4.1 250 04:35 12.09.2019
2083 Rain 16 1025 82 10000 2.6 230 01:48 12.09.2019
2084 Drizzle 16 1025 77 10000 2.6 160 01:30 12.09.2019
2085 Rain 16 1024 82 10000 3.6 160 00:59 12.09.2019
2086 Rain 16 1024 82 10000 3.1 150 00:41 12.09.2019
2087 Rain 16 1024 82 10000 3.1 150 00:23 12.09.2019
2088 Clouds 16 1024 87 10000 3.1 140 23:41 11.09.2019
2089 Clouds 16 1024 67 10000 2.1 230 23:41 11.09.2019
2090 Clouds 16 1024 87 10000 3.1 140 23:21 11.09.2019
2091 Clouds 16 1024 82 10000 2.6 140 22:56 11.09.2019
2092 Rain 16 1024 67 10000 2.1 200 22:37 11.09.2019
2093 Rain 16 1024 87 10000 1 0 22:19 11.09.2019
2094 Rain 16 1024 87 10000 1 0 22:19 11.09.2019
2095 Rain 16 1024 93 10000 1.5 80 21:42 11.09.2019
2096 Rain 16 1024 93 10000 1.5 80 21:42 11.09.2019
2097 Rain 15 1024 87 10000 1.5 40 21:24 11.09.2019
2098 Rain 16 1024 77 10000 3.6 250 20:58 11.09.2019
2099 Rain 16 1023 63 10000 3.6 230 20:39 11.09.2019
2100 Rain 16 1023 63 10000 3.6 230 20:39 11.09.2019
2101 Rain 16 1023 77 10000 2.6 160 20:19 11.09.2019
2102 Rain 16 1023 77 10000 2.6 160 19:58 11.09.2019
2103 Rain 16 1023 67 10000 3.6 150 19:39 11.09.2019
2104 Rain 16 1023 77 10000 3.1 150 19:21 11.09.2019
2105 Rain 16 1023 77 10000 3.1 150 18:58 11.09.2019
2106 Rain 16 1023 63 10000 2.1 200 18:38 11.09.2019
2107 Rain 17 1023 82 10000 2.6 180 18:19 11.09.2019
2108 Rain 17 1023 82 10000 2.6 180 17:56 11.09.2019
2109 Rain 17 1023 77 10000 4.6 280 17:37 11.09.2019
2110 Rain 17 1023 77 10000 4.6 280 17:19 11.09.2019
2111 Rain 17 1023 67 10000 2.6 190 16:48 11.09.2019
2112 Rain 17 1023 63 10000 4.6 270 16:25 11.09.2019
2113 Rain 17 1023 59 10000 6.2 290 15:59 11.09.2019
2114 Rain 17 1023 52 10000 6.7 270 15:40 11.09.2019
2115 Rain 18 1023 52 10000 6.7 270 15:19 11.09.2019
2116 Rain 18 1023 46 10000 8.2 250 14:55 11.09.2019
2117 Rain 18 1023 59 10000 6.2 270 14:37 11.09.2019
2118 Rain 18 1022 46 10000 6.2 240 14:18 11.09.2019
2119 Rain 19 1022 48 10000 8.2 260 13:39 11.09.2019
2120 Rain 19 1022 52 10000 2.1 0 13:21 11.09.2019
2121 Clear 19 1022 52 10000 2.6 0 12:59 11.09.2019
2122 Clouds 19 1023 52 10000 2.1 140 12:38 11.09.2019
2123 Clouds 19 1023 52 10000 2.1 140 12:20 11.09.2019
2124 Clouds 19 1023 52 10000 2.1 140 12:20 11.09.2019
2125 Clouds 18 1022 42 10000 3.1 200 11:40 11.09.2019
2126 Clear 17 1023 67 10000 3.6 130 11:21 11.09.2019
2127 Clear 17 1023 71 10000 2.6 140 10:59 11.09.2019
2128 Clouds 17 1022 51 10000 2.1 190 10:40 11.09.2019
2129 Clear 15 1023 76 10000 2.6 140 10:20 11.09.2019
2130 Clouds 15 1022 71 10000 1 120 09:40 11.09.2019
2131 Clear 13 1022 81 10000 1.5 130 09:20 11.09.2019
2132 Clear 12 1022 87 10000 2.1 120 08:59 11.09.2019
2133 Clouds 12 1022 76 10000 2.6 150 08:39 11.09.2019
2134 Clear 12 1022 87 10000 1.5 120 08:20 11.09.2019
2135 Clouds 11 1022 81 10000 1.5 120 07:43 11.09.2019
2136 Clear 11 1022 81 10000 1 0 07:23 11.09.2019
2137 Clear 11 1022 93 10000 0.5 0 06:52 11.09.2019
2138 Clear 11 1021 81 10000 1 0 06:33 11.09.2019
2139 Clouds 11 1021 81 10000 0.5 0 05:46 11.09.2019
2140 Clear 11 1021 93 10000 1 0 05:28 11.09.2019
2141 Clear 11 1021 93 10000 1 0 04:46 11.09.2019
2142 Clear 10 1021 93 10000 1.49 229.662 03:36 11.09.2019
2143 Clear 10 1021 100 10000 0.5 0 02:49 11.09.2019
2144 Clear 10 1021 93 10000 1.5 70 02:26 11.09.2019
2145 Clear 11 1021 93 10000 1 70 00:53 11.09.2019
2146 Clear 11 1021 93 10000 1 70 00:29 11.09.2019
2147 Clear 11 1021 93 10000 0.5 0 23:57 10.09.2019
2148 Clouds 12 1021 71 10000 1.5 210 23:39 10.09.2019
2149 Clear 12 1021 93 10000 1 0 23:20 10.09.2019
2150 Clouds 12 1020 76 10000 1.53 222.057 22:41 10.09.2019
2151 Clear 13 1020 81 10000 0.5 0 22:20 10.09.2019
2152 Clear 13 1020 81 10000 0.5 0 21:57 10.09.2019
2153 Clear 13 1020 71 10000 0.5 20 21:38 10.09.2019
2154 Clear 14 1020 71 10000 0.5 20 21:20 10.09.2019
2155 Clear 15 1019 71 10000 1.5 60 20:58 10.09.2019
2156 Clear 16 1019 63 10000 1 0 20:40 10.09.2019
2157 Clear 16 1019 63 10000 1 0 20:22 10.09.2019
2158 Clear 17 1019 45 10000 2.1 300 19:57 10.09.2019
2159 Clear 18 1018 42 10000 4.1 290 19:38 10.09.2019
2160 Clear 19 1018 40 10000 2.6 290 19:20 10.09.2019
2161 Clear 19 1018 40 10000 2.6 290 18:58 10.09.2019
2162 Clear 19 1018 37 10000 2.6 280 18:39 10.09.2019
2163 Clear 19 1018 37 10000 2.6 280 18:21 10.09.2019
2164 Clear 20 1018 45 10000 2.6 320 17:55 10.09.2019
2165 Clear 20 1018 40 10000 2.1 300 17:37 10.09.2019
2166 Clear 20 1018 40 10000 2.1 300 17:18 10.09.2019
2167 Clear 20 1018 42 10000 2.6 270 16:55 10.09.2019
2168 Clear 20 1018 42 10000 2.6 270 16:55 10.09.2019
2169 Clear 20 1018 42 10000 2.6 270 16:55 10.09.2019
2170 Clear 20 1018 42 10000 2.6 270 16:55 10.09.2019
2171 Clear 20 1018 40 10000 3.1 270 16:37 10.09.2019
2172 Clouds 20 1018 45 10000 2.1 300 16:18 10.09.2019
2173 Clouds 20 1018 37 10000 2.1 300 15:43 10.09.2019
2174 Clouds 20 1018 48 10000 2.6 290 15:21 10.09.2019
2175 Clouds 19 1018 40 10000 2.6 290 14:55 10.09.2019
2176 Clouds 19 1018 48 10000 2.1 250 14:37 10.09.2019
2177 Clouds 19 1018 55 10000 2.1 0 14:19 10.09.2019
2178 Clouds 19 1018 55 10000 2.1 0 14:19 10.09.2019
2179 Clouds 19 1018 52 10000 1.5 0 13:44 10.09.2019
2180 Clouds 19 1018 52 10000 1.5 0 13:22 10.09.2019
2181 Clear 18 1018 59 10000 1.5 0 12:52 10.09.2019
2182 Clear 17 1018 63 10000 1.5 0 12:28 10.09.2019
2183 Clear 17 1018 63 10000 1 0 11:59 10.09.2019
2184 Clear 17 1018 63 10000 1 0 11:59 10.09.2019
2185 Clear 16 1018 72 10000 1.5 0 11:40 10.09.2019
2186 Clear 15 1018 76 10000 1 0 11:22 10.09.2019
2187 Clouds 14 1018 58 10000 0.5 10 10:54 10.09.2019
2188 Clear 14 1018 81 10000 1.5 170 10:36 10.09.2019
2189 Clear 13 1017 87 10000 2.1 150 10:18 10.09.2019
2190 Clear 13 1017 93 10000 3.1 150 09:41 10.09.2019
2191 Clear 10 1017 93 10000 1.5 150 09:20 10.09.2019
2192 Fog 9 1016 100 10000 0.5 0 08:47 10.09.2019
2193 Fog 8 1016 100 10000 0.5 0 08:29 10.09.2019
2194 Fog 8 1016 93 10000 0.5 0 07:59 10.09.2019
2195 Clear 8 1016 100 10000 1.5 120 07:41 10.09.2019
2196 Clear 8 1016 100 10000 1.5 120 07:23 10.09.2019
2197 Clear 8 1016 100 10000 0.5 0 06:40 10.09.2019
2198 Clear 8 1016 100 10000 0.5 0 06:20 10.09.2019
2199 Clear 8 1015 100 10000 1.5 80 04:24 10.09.2019
2200 Clear 9 1015 93 10000 1 0 02:40 10.09.2019
2201 Clear 9 1015 93 10000 1 0 02:21 10.09.2019
2202 Clouds 10 1015 87 10000 2.1 150 01:50 10.09.2019
2203 Clear 10 1015 93 10000 1.5 70 01:23 10.09.2019
2204 Clear 11 1015 93 10000 1 0 00:42 10.09.2019
2205 Clear 11 1015 87 10000 1.5 60 00:22 10.09.2019
2206 Clear 12 1015 87 10000 1 60 23:40 09.09.2019
2207 Clear 12 1015 93 10000 1 50 23:19 09.09.2019
2208 Clear 12 1015 93 10000 1 50 22:55 09.09.2019
2209 Clear 12 1015 87 10000 1 0 22:37 09.09.2019
2210 Clear 12 1015 87 10000 1 0 22:19 09.09.2019
2211 Clear 12 1015 87 10000 1 0 21:55 09.09.2019
2212 Clear 13 1015 87 10000 2.1 140 21:37 09.09.2019
2213 Clear 13 1015 87 10000 2.1 140 21:19 09.09.2019
2214 Clear 13 1014 82 10000 2.1 150 20:55 09.09.2019
2215 Clear 14 1014 76 10000 2.6 150 20:36 09.09.2019
2216 Clouds 15 1014 72 10000 2.6 140 20:18 09.09.2019
2217 Clouds 15 1014 72 10000 2.6 140 19:56 09.09.2019
2218 Clouds 15 1014 72 10000 2.6 140 19:38 09.09.2019
2219 Clouds 16 1014 67 10000 1.5 140 19:19 09.09.2019
2220 Clouds 16 1014 67 10000 1.5 140 18:56 09.09.2019
2221 Clouds 16 1014 63 10000 3.1 160 18:38 09.09.2019
2222 Clouds 17 1014 67 10000 3.1 160 18:19 09.09.2019
2223 Clouds 17 1014 45 10000 0.5 30 17:56 09.09.2019
2224 Clouds 17 1014 67 10000 2.6 150 17:38 09.09.2019
2225 Clouds 17 1014 67 10000 2.6 150 17:38 09.09.2019
2226 Clouds 17 1014 67 10000 3.6 160 17:20 09.09.2019
2227 Clouds 17 1014 67 10000 3.6 160 16:55 09.09.2019
2228 Clouds 17 1014 67 10000 3.1 200 16:37 09.09.2019
2229 Clouds 17 1014 55 10000 1.5 220 16:18 09.09.2019
2230 Clouds 17 1015 48 10000 1 280 15:44 09.09.2019
2231 Clouds 17 1015 63 10000 1.5 70 15:24 09.09.2019
2232 Clouds 17 1015 63 10000 1 0 14:59 09.09.2019
2233 Clouds 16 1015 63 10000 1 0 14:40 09.09.2019
2234 Clouds 16 1015 63 10000 1 0 14:22 09.09.2019
2235 Clouds 17 1015 67 10000 2.1 30 13:58 09.09.2019
2236 Clouds 16 1015 72 10000 1.5 0 13:40 09.09.2019
2237 Clouds 16 1016 72 10000 1.5 30 13:19 09.09.2019
2238 Clouds 16 1016 67 10000 3.6 290 12:57 09.09.2019
2239 Clouds 16 1016 76 10000 1.5 40 12:37 09.09.2019
2240 Clouds 14 1016 76 10000 1.5 40 12:18 09.09.2019
2241 Clouds 13 1016 82 10000 2.1 260 11:43 09.09.2019
2242 Clouds 13 1016 87 10000 3.1 270 11:20 09.09.2019
2243 Clouds 13 1016 87 10000 3.1 270 10:57 09.09.2019
2244 Clouds 13 1016 87 10000 3.1 270 10:39 09.09.2019
2245 Clouds 12 1016 87 10000 3.1 270 10:19 09.09.2019
2246 Rain 12 1016 93 10000 2.1 290 09:49 09.09.2019
2247 Rain 11 1016 93 10000 1 0 09:30 09.09.2019
2248 Clouds 10 1017 93 10000 1.5 290 08:57 09.09.2019
2249 Rain 10 1017 93 10000 3.1 270 08:38 09.09.2019
2250 Rain 10 1016 93 10000 2.6 270 08:19 09.09.2019
2251 Clouds 10 1017 87 10000 4.1 270 07:44 09.09.2019
2252 Clouds 10 1017 93 10000 2.6 250 07:22 09.09.2019
2253 Clouds 10 1017 93 10000 2.6 250 06:56 09.09.2019
2254 Clouds 10 1017 93 10000 2.6 250 06:56 09.09.2019
2255 Clouds 10 1017 93 10000 2.1 250 06:31 09.09.2019
2256 Clear 11 1017 100 10000 0.5 0 04:45 09.09.2019
2257 Clouds 11 1017 100 10000 1 0 02:43 09.09.2019
2258 Clouds 12 1018 87 10000 2.6 270 01:50 09.09.2019
2259 Clear 12 1018 100 10000 0.5 0 00:39 09.09.2019
2260 Clear 12 1018 100 10000 0.5 0 00:21 09.09.2019
2261 Clouds 12 1018 93 10000 2.1 250 23:44 08.09.2019
2262 Clear 12 1018 100 10000 1 0 23:23 08.09.2019
2263 Clear 12 1018 100 10000 1 0 22:56 08.09.2019
2264 Clear 12 1018 93 10000 1.5 60 22:37 08.09.2019
2265 Clear 12 1018 93 10000 1.5 60 22:19 08.09.2019
2266 Clear 12 1018 93 10000 0.5 0 21:42 08.09.2019
2267 Clear 13 1018 93 10000 0.5 0 21:22 08.09.2019
2268 Clear 13 1018 93 10000 1.5 190 20:58 08.09.2019
2269 Clouds 13 1018 93 10000 1 0 20:39 08.09.2019
2270 Clouds 13 1018 93 10000 1 0 20:20 08.09.2019
2271 Clouds 14 1018 93 10000 1.5 210 19:58 08.09.2019
2272 Clouds 14 1018 87 10000 2.1 220 19:38 08.09.2019
2273 Rain 14 1018 93 10000 2.6 220 19:19 08.09.2019
2274 Rain 14 1018 93 10000 2.6 220 19:19 08.09.2019
2275 Rain 14 1018 87 4700 2.6 270 18:57 08.09.2019
2276 Rain 14 1018 87 10000 2.1 220 18:38 08.09.2019
2277 Rain 15 1018 87 10000 2.6 70 18:18 08.09.2019
2278 Rain 15 1018 87 10000 2.6 70 17:56 08.09.2019
2279 Rain 15 1018 93 10000 2.6 30 17:36 08.09.2019
2280 Rain 15 1018 87 10000 4.1 50 17:18 08.09.2019
2281 Rain 14 1018 82 7000 4.6 270 16:43 08.09.2019
2282 Rain 14 1018 77 10000 3.6 340 16:22 08.09.2019
2283 Rain 15 1018 77 10000 3.6 340 15:58 08.09.2019
2284 Rain 15 1018 63 10000 2.6 330 15:40 08.09.2019
2285 Rain 15 1018 63 10000 2.6 330 15:21 08.09.2019
2286 Rain 15 1018 59 10000 1.5 0 14:57 08.09.2019
2287 Rain 16 1018 59 10000 2.1 40 14:38 08.09.2019
2288 Rain 15 1018 67 10000 1 0 14:20 08.09.2019
2289 Rain 15 1018 67 10000 1 0 13:56 08.09.2019
2290 Rain 15 1018 77 10000 2.6 20 13:37 08.09.2019
2291 Rain 15 1019 82 10000 2.1 10 13:19 08.09.2019
2292 Rain 14 1019 82 10000 2.1 350 12:42 08.09.2019
2293 Rain 14 1019 82 10000 2.1 350 12:42 08.09.2019
2294 Rain 13 1019 82 10000 2.1 350 12:23 08.09.2019
2295 Rain 14 1019 87 10000 3.1 350 11:58 08.09.2019
2296 Clouds 13 1019 87 10000 3.1 350 11:40 08.09.2019
2297 Clouds 13 1019 87 10000 3.6 340 11:20 08.09.2019
2298 Clouds 13 1019 87 10000 3.6 340 10:58 08.09.2019
2299 Clouds 13 1019 87 10000 3.1 340 10:39 08.09.2019
2300 Rain 13 1018 93 8000 2.1 360 10:21 08.09.2019
2301 Rain 12 1018 93 8000 3.1 350 09:39 08.09.2019
2302 Rain 12 1019 93 7000 1 0 09:21 08.09.2019
2303 Rain 12 1019 93 7000 1 0 08:57 08.09.2019
2304 Rain 12 1019 100 8000 0.5 0 08:38 08.09.2019
2305 Clouds 12 1019 93 8000 0.5 0 08:18 08.09.2019
2306 Clouds 12 1019 93 9000 0.5 0 07:40 08.09.2019
2307 Clouds 12 1018 93 10000 1 0 07:21 08.09.2019
2308 Rain 12 1019 93 5000 2.6 290 06:53 08.09.2019
2309 Rain 12 1019 93 5000 2.6 290 06:53 08.09.2019
2310 Clouds 12 1019 87 10000 2.6 10 06:33 08.09.2019
2311 Clouds 12 1019 93 10000 1 60 05:38 08.09.2019
2312 Clouds 12 1019 93 10000 0.5 40 04:18 08.09.2019
2313 Fog 12 1019 93 10000 2.1 60 02:59 08.09.2019
2314 Fog 12 1019 93 10000 0.5 0 02:29 08.09.2019
2315 Clouds 12 1019 100 10000 1.5 60 01:52 08.09.2019
2316 Clouds 12 1019 100 10000 1 0 01:23 08.09.2019
2317 Rain 12 1019 82 6000 2.6 270 00:46 08.09.2019
2318 Clouds 12 1019 100 10000 0.5 0 00:27 08.09.2019
2319 Clouds 12 1019 93 10000 1 60 23:39 07.09.2019
2320 Clouds 13 1019 100 10000 1 50 23:21 07.09.2019
2321 Clouds 13 1019 100 10000 1 50 22:59 07.09.2019
2322 Clouds 13 1019 93 10000 1 0 22:40 07.09.2019
2323 Clouds 13 1019 93 10000 1 0 22:22 07.09.2019
2324 Rain 13 1019 82 6000 1.5 0 21:54 07.09.2019
2325 Clouds 13 1019 87 10000 1.5 130 21:36 07.09.2019
2326 Clouds 14 1019 93 10000 1.5 110 21:18 07.09.2019
2327 Rain 14 1019 87 10000 1 0 20:39 07.09.2019
2328 Rain 14 1019 87 10000 1.5 190 20:20 07.09.2019
2329 Rain 14 1019 87 10000 1.5 190 20:20 07.09.2019
2330 Rain 14 1019 87 10000 1.5 190 19:56 07.09.2019
2331 Clouds 14 1019 82 10000 5.1 290 19:37 07.09.2019
2332 Clouds 15 1018 82 10000 3.1 170 19:19 07.09.2019
2333 Clouds 15 1018 82 10000 3.1 170 18:58 07.09.2019
2334 Clouds 15 1018 82 10000 3.1 170 18:58 07.09.2019
2335 Rain 15 1018 87 10000 4.1 180 18:38 07.09.2019
2336 Rain 16 1018 87 10000 4.1 180 18:20 07.09.2019
2337 Rain 16 1018 87 10000 4.1 180 18:20 07.09.2019
2338 Rain 16 1018 87 10000 4.1 180 17:58 07.09.2019
2339 Thunderstorm 16 1018 93 10000 3.6 150 17:39 07.09.2019
2340 Thunderstorm 16 1019 82 10000 3.6 350 17:18 07.09.2019
2341 Thunderstorm 16 1019 82 10000 3.6 350 16:56 07.09.2019
2342 Rain 17 1018 63 10000 4.1 150 16:37 07.09.2019
2343 Rain 17 1018 72 10000 3.6 150 16:18 07.09.2019
2344 Rain 17 1018 67 10000 3.6 170 15:44 07.09.2019
2345 Rain 17 1018 67 10000 3.6 170 15:25 07.09.2019
2346 Rain 18 1018 72 10000 2.1 120 14:56 07.09.2019
2347 Rain 17 1018 77 10000 2.6 140 14:36 07.09.2019
2348 Rain 17 1018 77 10000 2.6 140 14:36 07.09.2019
2349 Rain 17 1018 72 10000 2.1 140 14:18 07.09.2019
2350 Rain 18 1018 63 6000 1.5 240 13:55 07.09.2019
2351 Rain 18 1018 72 10000 2.1 140 13:55 07.09.2019
2352 Rain 17 1018 72 10000 1 0 13:37 07.09.2019
2353 Rain 17 1019 82 10000 1.5 70 13:18 07.09.2019
2354 Rain 17 1019 82 10000 1.5 70 13:18 07.09.2019
2355 Clouds 17 1019 82 10000 1 0 12:42 07.09.2019
2356 Clouds 15 1019 87 10000 0.5 0 12:23 07.09.2019
2357 Rain 15 1019 93 10000 1.5 200 11:41 07.09.2019
2358 Rain 14 1019 93 10000 2.1 170 11:22 07.09.2019
2359 Rain 14 1019 93 10000 2.1 170 10:58 07.09.2019
2360 Clouds 13 1019 93 10000 2.6 130 10:37 07.09.2019
2361 Clouds 13 1019 93 10000 2.6 130 10:19 07.09.2019
2362 Rain 13 1019 93 10000 2.1 130 09:43 07.09.2019
2363 Rain 13 1019 93 10000 2.1 130 09:23 07.09.2019
2364 Clouds 13 1018 93 10000 2.6 150 08:57 07.09.2019
2365 Clouds 12 1018 100 10000 2.6 140 08:37 07.09.2019
2366 Clouds 12 1018 100 10000 2.6 140 08:19 07.09.2019
2367 Rain 12 1018 93 6000 1.5 200 07:44 07.09.2019
2368 Rain 12 1018 87 5000 2.6 170 07:24 07.09.2019
2369 Rain 12 1019 87 10000 1.5 160 06:43 07.09.2019
2370 Rain 12 1019 87 10000 1.5 160 06:19 07.09.2019
2371 Rain 13 1019 82 10000 1.5 140 04:33 07.09.2019
2372 Rain 13 1019 82 10000 2.1 150 03:49 07.09.2019
2373 Rain 14 1019 71 10000 1 0 02:43 07.09.2019
2374 Rain 14 1019 67 10000 0.5 0 01:44 07.09.2019
2375 Clear 15 1019 62 10000 1 0 00:57 07.09.2019
2376 Clear 15 1020 62 10000 0.5 0 00:38 07.09.2019
2377 Clear 15 1020 58 10000 1 0 00:19 07.09.2019
2378 Clear 15 1020 54 10000 2.6 160 23:39 06.09.2019
2379 Clear 15 1020 54 10000 2.6 160 23:21 06.09.2019
2380 Clear 15 1020 62 10000 1.5 170 22:57 06.09.2019
2381 Clear 15 1020 58 10000 0.5 0 22:37 06.09.2019
2382 Clear 15 1020 58 10000 0.5 0 22:37 06.09.2019
2383 Clear 15 1020 54 10000 0.5 0 22:19 06.09.2019
2384 Clear 15 1020 54 10000 0.5 0 21:56 06.09.2019
2385 Clear 16 1020 58 10000 1 0 21:38 06.09.2019
2386 Clear 16 1020 51 10000 1.5 350 21:20 06.09.2019
2387 Clouds 17 1020 45 9000 3.6 280 20:57 06.09.2019
2388 Clear 17 1020 48 10000 2.1 0 20:38 06.09.2019
2389 Clear 17 1020 42 10000 5.1 300 20:18 06.09.2019
2390 Clear 18 1020 37 10000 2.1 240 19:42 06.09.2019
2391 Clear 19 1020 37 10000 2.1 240 19:24 06.09.2019
2392 Clear 19 1020 42 10000 2.6 240 18:59 06.09.2019
2393 Clear 19 1020 35 10000 2.6 230 18:40 06.09.2019
2394 Clear 19 1020 35 10000 2.6 230 18:40 06.09.2019
2395 Clear 20 1021 37 10000 3.1 210 18:22 06.09.2019
2396 Clear 20 1021 37 10000 3.1 210 17:57 06.09.2019
2397 Clear 20 1021 35 10000 2.1 220 17:37 06.09.2019
2398 Clear 20 1021 37 10000 2.1 200 17:19 06.09.2019
2399 Clear 20 1022 42 10000 2.1 0 16:39 06.09.2019
2400 Clear 20 1022 42 10000 2.6 230 16:19 06.09.2019
2401 Clouds 19 1023 42 10000 2.1 0 15:42 06.09.2019
2402 Clouds 19 1023 42 10000 2.1 0 15:42 06.09.2019
2403 Clouds 19 1023 42 10000 2.1 0 15:23 06.09.2019
2404 Clouds 19 1023 45 10000 2.6 0 14:55 06.09.2019
2405 Clouds 19 1023 45 10000 2.6 0 14:55 06.09.2019
2406 Clouds 19 1023 45 10000 2.1 200 14:37 06.09.2019
2407 Clouds 19 1023 45 10000 2.1 200 14:37 06.09.2019
2408 Clouds 19 1023 45 10000 2.1 200 14:18 06.09.2019
2409 Clouds 18 1024 51 10000 2.6 0 13:41 06.09.2019
2410 Clouds 17 1025 51 10000 2.1 0 13:20 06.09.2019
2411 Clouds 17 1025 59 10000 2.1 290 12:38 06.09.2019
2412 Clouds 17 1025 59 10000 2.1 290 12:20 06.09.2019
2413 Clouds 16 1026 62 10000 2.6 250 11:55 06.09.2019
2414 Clouds 15 1026 71 10000 1.5 0 11:36 06.09.2019
2415 Clouds 15 1026 71 10000 1.5 0 11:18 06.09.2019
2416 Clear 14 1026 76 10000 1 0 10:41 06.09.2019
2417 Clear 13 1026 76 10000 1 0 10:22 06.09.2019
2418 Clear 12 1026 81 10000 1.5 150 09:58 06.09.2019
2419 Clear 12 1026 87 10000 1.5 130 09:37 06.09.2019
2420 Clear 10 1026 93 10000 1 0 09:18 06.09.2019
2421 Clear 9 1026 93 10000 1.5 0 08:44 06.09.2019
2422 Clear 8 1026 93 10000 1 0 08:26 06.09.2019
2423 Clear 8 1026 93 10000 1 0 07:51 06.09.2019
2424 Clear 7 1026 100 10000 1 0 07:28 06.09.2019
2425 Clear 7 1026 100 10000 0.5 170 06:59 06.09.2019
2426 Clear 7 1026 100 10000 0.5 170 06:33 06.09.2019
2427 Clear 8 1026 93 10000 2.6 240 05:45 06.09.2019
2428 Clouds 8 1026 87 10000 2.6 250 04:54 06.09.2019
2429 Clear 8 1026 93 10000 1 0 04:25 06.09.2019
2430 Clouds 9 1026 87 10000 2.1 260 02:44 06.09.2019
2431 Clear 10 1026 87 10000 1.5 150 00:58 06.09.2019
2432 Clear 11 1026 87 10000 1 0 00:22 06.09.2019
2433 Clear 11 1025 81 10000 2.1 340 23:41 05.09.2019
2434 Clouds 12 1026 76 10000 2.6 280 23:22 05.09.2019
2435 Clouds 12 1026 76 10000 2.6 280 22:46 05.09.2019
2436 Clouds 12 1025 71 10000 3.1 330 22:27 05.09.2019
2437 Clouds 12 1024 67 10000 4.1 330 21:58 05.09.2019
2438 Clouds 13 1024 67 10000 3.1 330 21:39 05.09.2019
2439 Clouds 13 1024 67 10000 3.1 330 21:20 05.09.2019
2440 Clouds 14 1024 67 10000 5.1 320 20:58 05.09.2019
2441 Clouds 14 1023 58 10000 6.2 320 20:40 05.09.2019
2442 Rain 14 1023 59 10000 5.7 310 20:21 05.09.2019
2443 Rain 14 1023 59 10000 5.7 310 19:59 05.09.2019
2444 Rain 15 1023 59 10000 5.7 310 19:41 05.09.2019
2445 Rain 15 1023 67 10000 3.6 340 19:22 05.09.2019
2446 Rain 15 1023 67 10000 3.6 340 18:56 05.09.2019
2447 Rain 16 1022 63 10000 5.7 340 18:38 05.09.2019
2448 Clouds 16 1022 63 10000 3.1 350 18:18 05.09.2019
2449 Rain 16 1022 72 10000 5.7 260 17:41 05.09.2019
2450 Rain 17 1022 63 10000 6.7 280 17:22 05.09.2019
2451 Rain 16 1022 63 10000 6.7 280 16:58 05.09.2019
2452 Rain 16 1021 55 10000 7.2 300 16:40 05.09.2019
2453 Rain 17 1021 55 10000 7.2 300 16:20 05.09.2019
2454 Rain 16 1021 63 10000 4.6 310 15:55 05.09.2019
2455 Rain 17 1022 93 6000 6.2 300 15:37 05.09.2019
2456 Rain 17 1022 93 6000 6.2 300 15:37 05.09.2019
2457 Rain 17 1021 67 10000 9.3 250 15:18 05.09.2019
2458 Rain 17 1020 59 10000 5.7 290 15:18 05.09.2019
2459 Rain 17 1020 63 10000 5.1 290 14:42 05.09.2019
2460 Rain 16 1020 63 10000 5.1 290 14:21 05.09.2019
2461 Rain 17 1020 63 10000 6.7 310 13:44 05.09.2019
2462 Rain 17 1019 59 10000 6.7 280 13:23 05.09.2019
2463 Rain 17 1019 59 10000 6.7 280 12:58 05.09.2019
2464 Rain 17 1019 67 10000 6.7 300 12:40 05.09.2019
2465 Clouds 16 1019 67 10000 6.7 310 12:21 05.09.2019
2466 Clouds 16 1019 67 10000 6.7 310 12:21 05.09.2019
2467 Rain 16 1019 67 10000 7.7 270 11:43 05.09.2019
2468 Clouds 16 1019 67 10000 7.2 270 11:20 05.09.2019
2469 Clouds 16 1019 67 10000 7.2 270 10:55 05.09.2019
2470 Clouds 15 1018 77 10000 6.2 270 10:36 05.09.2019
2471 Clouds 15 1018 82 10000 5.7 270 10:18 05.09.2019
2472 Clouds 14 1018 82 10000 2.6 230 09:40 05.09.2019
2473 Clouds 13 1018 82 10000 2.6 230 09:20 05.09.2019
2474 Clouds 13 1017 82 10000 0.5 0 08:55 05.09.2019
2475 Clear 12 1017 87 10000 2.1 180 08:37 05.09.2019
2476 Clear 12 1017 87 10000 2.6 220 08:19 05.09.2019
2477 Clear 12 1017 87 10000 1 0 07:43 05.09.2019
2478 Clear 12 1017 87 10000 1 0 07:24 05.09.2019
2479 Clouds 11 1016 81 10000 4.6 250 06:46 05.09.2019
2480 Clear 12 1016 87 10000 2.1 230 06:26 05.09.2019
2481 Clouds 11 1016 81 10000 4.1 230 05:46 05.09.2019
2482 Clear 12 1016 87 10000 3.1 220 05:27 05.09.2019
2483 Clear 12 1016 87 10000 3.1 220 04:30 05.09.2019
2484 Clouds 12 1015 82 10000 4.1 240 03:52 05.09.2019
2485 Clouds 13 1015 87 10000 2.1 210 02:59 05.09.2019
2486 Clouds 13 1015 87 10000 2.1 210 02:59 05.09.2019
2487 Clouds 13 1015 93 10000 1 0 02:38 05.09.2019
2488 Clouds 13 1015 93 10000 2.6 220 02:18 05.09.2019
2489 Clouds 14 1015 87 10000 3.6 250 00:58 05.09.2019
2490 Clouds 14 1015 87 10000 3.6 250 00:40 05.09.2019
2491 Clouds 15 1015 87 10000 3.1 240 00:19 05.09.2019
2492 Rain 15 1015 87 10000 4.1 270 23:41 04.09.2019
2493 Rain 15 1015 87 10000 4.1 270 23:41 04.09.2019
2494 Rain 15 1015 87 10000 4.1 270 23:22 04.09.2019
2495 Clouds 15 1015 87 10000 4.6 240 22:49 04.09.2019
2496 Clouds 15 1015 87 10000 3.6 240 22:21 04.09.2019
2497 Clouds 15 1015 82 10000 4.6 240 21:58 04.09.2019
2498 Rain 15 1015 87 10000 3.1 290 21:39 04.09.2019
2499 Rain 16 1015 93 10000 1 0 21:20 04.09.2019
2500 Rain 16 1015 93 10000 1 0 20:55 04.09.2019
2501 Rain 16 1015 82 10000 1.5 290 20:37 04.09.2019
2502 Rain 16 1015 82 10000 1.5 290 20:18 04.09.2019
2503 Rain 17 1014 82 10000 4.1 290 19:44 04.09.2019
2504 Rain 17 1014 77 8000 5.1 260 19:24 04.09.2019
2505 Rain 18 1014 52 10000 8.7 310 18:55 04.09.2019
2506 Rain 19 1014 52 10000 8.7 310 18:37 04.09.2019
2507 Rain 20 1014 68 5000 8.2 280 18:19 04.09.2019
2508 Rain 22 1013 44 10000 5.1 240 17:41 04.09.2019
2509 Rain 22 1013 44 10000 5.1 240 17:23 04.09.2019
2510 Clear 23 1013 41 10000 4.6 230 16:57 04.09.2019
2511 Rain 24 1013 41 10000 3.6 240 16:39 04.09.2019
2512 Clear 24 1013 41 10000 4.6 230 16:20 04.09.2019
2513 Clear 24 1013 41 10000 4.6 230 15:55 04.09.2019
2514 Clear 24 1014 41 10000 4.1 220 15:37 04.09.2019
2515 Clouds 24 1014 47 10000 3.1 200 15:18 04.09.2019
2516 Clouds 24 1014 47 10000 3.1 200 14:54 04.09.2019
2517 Clouds 23 1015 46 10000 4.6 210 14:36 04.09.2019
2518 Clouds 23 1015 49 10000 2.1 0 14:18 04.09.2019
2519 Clouds 22 1016 52 10000 3.6 230 13:39 04.09.2019
2520 Clouds 22 1016 52 10000 3.6 210 13:21 04.09.2019
2521 Clouds 21 1016 49 10000 2.6 260 12:46 04.09.2019
2522 Clouds 20 1017 52 10000 4.1 240 12:27 04.09.2019
2523 Clouds 20 1017 56 10000 4.1 230 11:59 04.09.2019
2524 Clouds 19 1018 59 10000 4.6 220 11:40 04.09.2019
2525 Clouds 19 1018 59 10000 3.6 210 11:21 04.09.2019
2526 Clouds 18 1018 59 10000 3.6 210 10:58 04.09.2019
2527 Clouds 18 1018 72 10000 2.6 200 10:39 04.09.2019
2528 Clouds 17 1019 72 10000 2.1 190 10:21 04.09.2019
2529 Clouds 16 1018 63 10000 4.99 235.128 09:46 04.09.2019
2530 Clouds 15 1019 77 10000 2.1 0 09:22 04.09.2019
2531 Clouds 15 1019 77 10000 2.1 0 08:58 04.09.2019
2532 Clouds 15 1019 82 10000 2.1 0 08:39 04.09.2019
2533 Clouds 14 1019 82 10000 2.1 0 08:19 04.09.2019
2534 Clouds 14 1019 87 10000 2.1 160 07:46 04.09.2019
2535 Clouds 14 1019 87 10000 2.1 160 07:28 04.09.2019
2536 Clouds 14 1019 82 10000 3.1 140 06:39 04.09.2019
2537 Clouds 14 1020 82 10000 3.1 150 04:57 04.09.2019
2538 Clouds 15 1021 82 10000 3.1 150 04:25 04.09.2019
2539 Clouds 15 1021 72 0 1.5 190 03:45 04.09.2019
2540 Clouds 16 1022 77 10000 2.1 140 01:27 04.09.2019
2541 Clouds 16 1022 77 10000 2.1 150 00:50 04.09.2019
2542 Clouds 16 1022 77 10000 2.1 150 00:32 04.09.2019
2543 Clouds 16 1023 72 10000 1.5 150 23:54 03.09.2019
2544 Clouds 16 1023 77 10000 1 170 23:28 03.09.2019
2545 Clouds 16 1023 67 10000 1.5 210 22:59 03.09.2019
2546 Clouds 16 1023 67 10000 2.1 250 22:40 03.09.2019
2547 Clouds 16 1023 67 10000 2.1 250 22:21 03.09.2019
2548 Clouds 16 1023 67 10000 2.1 300 21:56 03.09.2019
2549 Clouds 17 1023 67 10000 3.1 330 21:37 03.09.2019
2550 Clear 17 1023 72 10000 3.6 230 21:19 03.09.2019
2551 Clouds 17 1023 63 10000 5.1 290 20:42 03.09.2019
2552 Clouds 18 1023 63 10000 3.6 290 20:24 03.09.2019
2553 Clouds 18 1023 63 10000 5.1 290 20:24 03.09.2019
2554 Clouds 18 1023 63 10000 5.1 290 20:24 03.09.2019
2555 Clouds 18 1023 63 10000 3.6 290 19:56 03.09.2019
2556 Clouds 18 1023 59 10000 4.6 300 19:38 03.09.2019
2557 Clouds 18 1023 59 10000 4.6 300 19:38 03.09.2019
2558 Clouds 18 1023 59 10000 3.1 290 19:19 03.09.2019
2559 Clouds 18 1023 59 10000 4.1 290 18:56 03.09.2019
2560 Clouds 19 1023 59 10000 4.1 290 18:38 03.09.2019
2561 Clouds 19 1023 59 10000 3.6 280 18:18 03.09.2019
2562 Clouds 20 1024 59 10000 3.6 270 17:41 03.09.2019
2563 Clouds 20 1024 59 10000 3.6 280 17:21 03.09.2019
2564 Clouds 19 1024 59 10000 3.6 280 16:59 03.09.2019
2565 Clouds 20 1024 59 10000 5.1 290 16:39 03.09.2019
2566 Clouds 20 1024 59 10000 5.7 280 16:21 03.09.2019
2567 Clouds 20 1024 59 10000 4.6 300 15:41 03.09.2019
2568 Clouds 20 1024 59 10000 4.6 300 15:22 03.09.2019
2569 Clouds 20 1024 59 10000 4.6 280 14:58 03.09.2019
2570 Clouds 19 1024 59 10000 5.1 290 14:40 03.09.2019
2571 Clouds 19 1024 59 10000 5.1 290 14:21 03.09.2019
2572 Clouds 20 1024 52 10000 5.7 280 13:58 03.09.2019
2573 Clouds 20 1024 55 10000 5.1 270 13:38 03.09.2019
2574 Clouds 20 1024 55 10000 5.1 270 13:19 03.09.2019
2575 Clouds 20 1024 55 10000 5.1 270 12:57 03.09.2019
2576 Clouds 20 1024 59 10000 3.1 300 12:38 03.09.2019
2577 Clouds 19 1024 59 10000 3.1 300 12:20 03.09.2019
2578 Clouds 19 1025 55 10000 5.7 260 11:42 03.09.2019
2579 Clouds 19 1025 55 10000 5.7 260 11:23 03.09.2019
2580 Clouds 18 1025 55 10000 3.6 230 10:57 03.09.2019
2581 Clear 17 1025 59 10000 3.1 200 10:39 03.09.2019
2582 Clear 17 1025 59 10000 3.1 200 10:20 03.09.2019
2583 Clear 16 1025 62 10000 2.6 180 09:48 03.09.2019
2584 Clear 15 1024 71 10000 2.6 150 09:30 03.09.2019
2585 Clear 14 1024 71 10000 2.1 140 08:56 03.09.2019
2586 Clear 13 1024 71 10000 0.5 0 08:37 03.09.2019
2587 Clear 12 1024 76 10000 1 0 08:19 03.09.2019
2588 Clouds 12 1024 66 10000 2.6 210 07:42 03.09.2019
2589 Clear 12 1024 76 10000 1 0 07:24 03.09.2019
2590 Clear 12 1024 76 10000 1 0 06:47 03.09.2019
2591 Clear 12 1024 76 10000 1 0 06:28 03.09.2019
2592 Clear 12 1024 87 10000 1.5 70 03:44 03.09.2019
2593 Clear 12 1024 81 10000 1.5 60 02:48 03.09.2019
2594 Clear 12 1024 81 10000 1.5 60 02:27 03.09.2019
2595 Clear 12 1024 71 10000 0.5 0 01:58 03.09.2019
2596 Clear 13 1024 71 10000 0.5 0 01:39 03.09.2019
2597 Clear 13 1024 71 10000 0.5 0 01:20 03.09.2019
2598 Clear 13 1024 71 10000 0.5 0 00:28 03.09.2019
2599 Clouds 13 1024 58 10000 1.5 240 23:56 02.09.2019
2600 Clear 14 1024 71 10000 0.5 0 23:36 02.09.2019
2601 Clear 14 1024 71 10000 0.5 0 23:36 02.09.2019
2602 Clear 14 1024 66 10000 1 0 23:18 02.09.2019
2603 Clear 14 1024 66 10000 1 0 23:18 02.09.2019
2604 Clouds 14 1024 54 10000 2.1 230 23:18 02.09.2019
2605 Clear 14 1024 66 10000 1.5 60 22:54 02.09.2019
2606 Clear 14 1024 66 10000 1 0 22:54 02.09.2019
2607 Clear 14 1024 66 10000 1.5 60 22:36 02.09.2019
2608 Clear 14 1024 62 10000 0.5 0 22:18 02.09.2019
2609 Clear 15 1024 62 10000 0.5 0 21:54 02.09.2019
2610 Clear 15 1023 58 10000 0.5 0 21:36 02.09.2019
2611 Clear 16 1023 48 10000 1 0 21:18 02.09.2019
2612 Clear 18 1023 39 10000 4.1 290 20:41 02.09.2019
2613 Clear 18 1023 39 10000 4.1 290 20:22 02.09.2019
2614 Clear 19 1023 39 10000 4.1 290 19:57 02.09.2019
2615 Clear 19 1023 39 10000 4.1 320 19:39 02.09.2019
2616 Clear 19 1023 39 10000 4.1 320 19:39 02.09.2019
2617 Clear 20 1023 39 10000 4.6 310 19:21 02.09.2019
2618 Clear 20 1023 35 10000 2.6 340 18:42 02.09.2019
2619 Clear 20 1023 35 10000 2.6 340 18:42 02.09.2019
2620 Clear 21 1023 40 10000 3.1 320 18:23 02.09.2019
2621 -273 0 0 0 0 0 17:59 02.09.2019
2622 Clear 21 1023 35 10000 5.1 290 17:40 02.09.2019
2623 Clear 21 1023 35 10000 5.1 290 17:21 02.09.2019
2624 Clear 21 1023 35 10000 4.6 320 16:59 02.09.2019
2625 Clear 21 1023 35 10000 3.1 330 16:39 02.09.2019
2626 Clear 21 1023 35 10000 4.6 270 16:20 02.09.2019
2627 Clear 20 1023 37 10000 3.1 300 15:46 02.09.2019
2628 Clear 20 1023 37 10000 3.1 300 15:27 02.09.2019
2629 Clear 20 1023 37 10000 3.6 320 14:58 02.09.2019
2630 Clear 20 1024 40 10000 4.6 290 14:40 02.09.2019
2631 Clear 20 1024 42 10000 3.6 330 14:22 02.09.2019
2632 Clouds 20 1024 42 10000 2.6 300 13:56 02.09.2019
2633 Clear 19 1024 48 10000 4.1 320 13:38 02.09.2019
2634 Clouds 19 1024 48 10000 2.6 300 13:20 02.09.2019
2635 Clouds 18 1024 51 10000 3.6 290 12:45 02.09.2019
2636 Clouds 18 1024 51 10000 3.6 290 12:26 02.09.2019
2637 Clouds 18 1024 55 10000 1.5 0 11:59 02.09.2019
2638 Clouds 18 1024 59 10000 1.5 0 11:39 02.09.2019
2639 Clouds 17 1024 59 10000 1.5 300 11:21 02.09.2019
2640 Clouds 17 1024 59 10000 1.5 300 10:58 02.09.2019
2641 Clear 16 1024 67 10000 1 0 10:38 02.09.2019
2642 Clear 15 1023 71 10000 1.5 140 10:20 02.09.2019
2643 Clear 15 1023 71 10000 1.5 140 09:57 02.09.2019
2644 Clear 14 1023 81 10000 1.5 140 09:37 02.09.2019
2645 Clear 13 1023 93 10000 0.5 0 09:18 02.09.2019
2646 Clear 11 1023 93 10000 0.5 0 08:39 02.09.2019
2647 Clear 11 1023 93 10000 0.5 0 08:39 02.09.2019
2648 Clear 11 1023 93 10000 0.5 0 08:39 02.09.2019
2649 Clear 11 1022 93 10000 2.6 60 08:18 02.09.2019
2650 Clear 10 1022 93 10000 1.5 60 07:41 02.09.2019
2651 Clear 10 1022 93 10000 1.5 60 07:21 02.09.2019
2652 Clear 10 1022 100 10000 1.5 60 06:48 02.09.2019
2653 Clear 10 1022 100 10000 1.5 60 06:30 02.09.2019
2654 Clear 10 1021 93 10000 1 140 05:49 02.09.2019
2655 Clear 10 1021 87 10000 1 130 05:19 02.09.2019
2656 Clear 10 1021 87 10000 0.5 0 04:45 02.09.2019
2657 Clear 13 1020 76 10000 1 0 01:50 02.09.2019
2658 Clear 14 1019 76 10000 1.5 150 00:55 02.09.2019
2659 Clear 14 1019 76 10000 1.5 150 00:32 02.09.2019
2660 Clear 14 1019 76 10000 0.5 0 23:59 01.09.2019
2661 Clear 14 1019 71 10000 1 0 23:38 01.09.2019
2662 Clear 15 1019 67 10000 0.5 0 23:18 01.09.2019
2663 Clear 14 1019 67 10000 0.5 0 22:54 01.09.2019
2664 Clear 15 1018 67 10000 1 0 22:36 01.09.2019
2665 Clear 15 1018 71 10000 1.5 360 22:18 01.09.2019
2666 Clear 16 1018 67 10000 0.5 0 21:41 01.09.2019
2667 Clear 17 1017 55 10000 1 0 21:23 01.09.2019
2668 Clear 17 1017 55 10000 1 0 21:23 01.09.2019
2669 Clear 17 1017 55 10000 1 0 20:57 01.09.2019
2670 Clear 18 1017 55 10000 1 0 20:39 01.09.2019
2671 Clear 18 1016 52 10000 3.1 330 20:19 01.09.2019
2672 Clear 18 1016 52 10000 3.1 330 19:58 01.09.2019
2673 Clouds 18 1016 48 10000 3.6 320 19:40 01.09.2019
2674 Clouds 19 1016 45 10000 5.7 320 19:21 01.09.2019
2675 Clouds 19 1016 49 10000 4.6 320 18:45 01.09.2019
2676 Clouds 20 1016 49 10000 4.6 320 18:27 01.09.2019
2677 Clouds 20 1016 52 8000 4.1 290 17:59 01.09.2019
2678 Clouds 21 1016 52 10000 4.1 330 17:39 01.09.2019
2679 Clouds 20 1016 55 10000 4.6 330 17:21 01.09.2019
2680 Rain 20 1016 59 10000 5.7 310 16:41 01.09.2019
2681 Rain 20 1016 59 10000 5.7 310 16:41 01.09.2019
2682 Rain 20 1016 59 10000 5.7 310 16:22 01.09.2019
2683 Rain 20 1016 59 10000 2.6 330 15:59 01.09.2019
2684 Rain 19 1016 68 10000 2.6 30 15:41 01.09.2019
2685 Rain 19 1016 68 10000 2.6 30 15:23 01.09.2019
2686 Rain 19 1016 68 8000 4.1 300 14:44 01.09.2019
2687 Clouds 19 1015 68 10000 1.5 0 14:26 01.09.2019
2688 Clouds 19 1015 68 10000 1.5 0 13:59 01.09.2019
2689 Clouds 18 1015 72 10000 3.1 300 13:41 01.09.2019
2690 Clouds 18 1015 72 10000 3.1 300 13:23 01.09.2019
2691 Clouds 18 1016 77 10000 2.6 320 12:44 01.09.2019
2692 Rain 17 1015 82 10000 2.6 350 12:26 01.09.2019
2693 Rain 18 1015 82 10000 2.6 350 11:58 01.09.2019
2694 Rain 17 1015 82 10000 5.1 320 11:38 01.09.2019
2695 Rain 17 1014 82 10000 5.1 270 11:19 01.09.2019
2696 Rain 17 1015 87 8000 3.1 280 10:45 01.09.2019
2697 Drizzle 17 1013 77 10000 4.6 270 10:23 01.09.2019
2698 Drizzle 17 1013 77 10000 4.6 270 09:56 01.09.2019
2699 Drizzle 17 1013 82 10000 5.1 270 09:38 01.09.2019
2700 Drizzle 17 1013 82 10000 5.1 270 09:19 01.09.2019
2701 Rain 17 1013 82 10000 4.1 260 08:42 01.09.2019
2702 Clouds 17 1012 77 10000 4.6 270 08:21 01.09.2019
2703 Clouds 17 1012 77 10000 4.6 280 07:42 01.09.2019
2704 Clouds 17 1011 82 10000 3.6 240 07:21 01.09.2019
2705 Clouds 17 1012 77 10000 4.1 270 06:39 01.09.2019
2706 Clouds 17 1012 77 10000 5.1 290 05:59 01.09.2019
2707 Clouds 17 1012 77 10000 5.1 290 05:59 01.09.2019
2708 Clouds 17 1012 77 10000 4.1 300 05:27 01.09.2019
2709 Clouds 17 1012 68 10000 2.6 330 04:19 01.09.2019
2710 Clear 17 1011 68 10000 5.1 320 03:37 01.09.2019
2711 Clear 18 1011 59 10000 5.1 320 02:40 01.09.2019
2712 Clear 19 1011 56 10000 6.7 280 02:22 01.09.2019
2713 Clear 19 1011 60 10000 6.2 290 01:40 01.09.2019
2714 Clear 20 1010 64 10000 6.7 300 01:21 01.09.2019
2715 Clear 20 1010 64 10000 6.7 300 00:42 01.09.2019
2716 Clear 21 1010 64 10000 6.7 300 00:21 01.09.2019
2717 Rain 22 1010 56 10000 5.1 290 23:47 31.08.2019
2718 Rain 22 1009 83 10000 4.6 160 23:21 31.08.2019
2719 Rain 23 1009 53 10000 6.7 260 22:56 31.08.2019
2720 Rain 23 1008 64 10000 4.6 150 22:37 31.08.2019
2721 Clouds 24 1008 42 10000 2.6 130 22:19 31.08.2019
2722 Thunderstorm 25 1008 47 10000 3.1 220 21:54 31.08.2019
2723 Thunderstorm 26 1008 39 10000 3.1 140 21:36 31.08.2019
2724 Clouds 27 1008 39 10000 3.1 150 21:18 31.08.2019
2725 Clouds 28 1008 39 10000 2.1 0 20:42 31.08.2019
2726 Clouds 29 1008 39 10000 2.1 0 20:23 31.08.2019
2727 Clear 30 1008 33 10000 2.1 190 19:47 31.08.2019
2728 Clear 31 1008 31 10000 3.6 190 19:23 31.08.2019
2729 Clear 31 1008 31 10000 4.1 190 18:58 31.08.2019
2730 Clear 31 1008 31 10000 4.1 190 18:39 31.08.2019
2731 Clear 32 1009 27 10000 5.7 180 18:19 31.08.2019
2732 Clear 32 1009 27 10000 5.7 180 17:55 31.08.2019
2733 Clear 32 1010 29 10000 4.6 210 17:37 31.08.2019
2734 Clear 32 1010 35 10000 5.1 180 17:18 31.08.2019
2735 Clear 32 1010 35 10000 5.1 180 16:55 31.08.2019
2736 Clear 32 1011 38 10000 4.6 180 16:37 31.08.2019
2737 Clear 31 1011 35 10000 5.1 160 16:19 31.08.2019
2738 Clear 32 1011 31 10000 4.6 200 15:42 31.08.2019
2739 Clear 31 1012 38 10000 3.6 160 15:19 31.08.2019
2740 Clear 31 1012 38 10000 3.6 160 14:57 31.08.2019
2741 Clear 31 1013 40 10000 3.6 200 14:39 31.08.2019
2742 Clear 30 1013 42 10000 5.1 180 14:19 31.08.2019
2743 Clear 30 1014 42 10000 5.1 200 13:41 31.08.2019
2744 Clear 30 1014 42 10000 5.1 200 13:23 31.08.2019
2745 Clear 30 1014 42 10000 2.6 150 13:23 31.08.2019
2746 Clear 29 1014 42 10000 2.6 150 12:58 31.08.2019
2747 Clear 29 1014 42 10000 4.1 160 12:39 31.08.2019
2748 Clear 28 1015 47 10000 4.6 140 12:20 31.08.2019
2749 Clear 27 1015 47 10000 4.6 140 11:55 31.08.2019
2750 Clear 26 1015 50 10000 4.1 150 11:36 31.08.2019
2751 Clear 25 1015 50 10000 4.1 150 11:18 31.08.2019
2752 Clear 24 1015 60 10000 3.6 140 10:41 31.08.2019
2753 Clear 22 1016 68 10000 3.1 150 10:19 31.08.2019
2754 Clear 22 1016 68 10000 3.1 150 09:57 31.08.2019
2755 Clear 21 1016 68 10000 2.1 130 09:38 31.08.2019
2756 Clear 19 1016 68 10000 2.1 130 09:19 31.08.2019
2757 Clear 17 1016 87 10000 1 0 08:43 31.08.2019
2758 Clear 16 1016 87 10000 1 0 08:23 31.08.2019
2759 Clear 15 1016 87 10000 1 0 07:41 31.08.2019
2760 Clear 15 1016 87 10000 1 0 07:22 31.08.2019
2761 Clear 14 1017 93 10000 0.5 0 06:44 31.08.2019
2762 Clear 14 1017 93 10000 0.5 0 06:20 31.08.2019
2763 Clear 15 1018 87 10000 0.5 0 05:34 31.08.2019
2764 Clear 14 1018 93 10000 0.5 0 04:36 31.08.2019
2765 Clear 14 1019 93 10000 0.5 0 03:50 31.08.2019
2766 Clear 15 1019 93 10000 1 0 02:50 31.08.2019
2767 Clear 16 1019 82 10000 1 0 01:56 31.08.2019
2768 Clear 16 1019 82 10000 1 0 01:36 31.08.2019
2769 Clear 16 1020 82 10000 0.5 0 01:18 31.08.2019
2770 Clear 17 1020 82 10000 0.5 0 00:41 31.08.2019
2771 Clear 17 1020 82 10000 0.5 0 00:41 31.08.2019
2772 Clear 17 1020 77 10000 1 0 00:23 31.08.2019
2773 Clear 17 1021 67 8000 1.5 270 23:47 30.08.2019
2774 Clear 18 1020 72 10000 1.5 60 23:18 30.08.2019
2775 -273 0 0 0 0 0 22:55 30.08.2019
2776 Clear 19 1020 60 10000 1.5 60 22:37 30.08.2019
2777 Clear 19 1020 64 10000 2.1 50 22:18 30.08.2019
2778 Clear 19 1020 64 10000 2.1 50 21:54 30.08.2019
2779 Clear 20 1020 64 10000 2.1 60 21:36 30.08.2019
2780 Clear 21 1020 56 10000 1.5 50 21:18 30.08.2019
2781 Clear 23 1020 56 10000 1 80 20:42 30.08.2019
2782 Clear 23 1020 41 10000 1.5 90 20:22 30.08.2019
2783 Clear 24 1020 41 10000 1.5 90 19:59 30.08.2019
2784 Clear 25 1020 41 10000 1.5 90 19:40 30.08.2019
2785 Clear 25 1020 36 10000 1.5 90 19:21 30.08.2019
2786 Clear 26 1020 34 10000 2.1 80 18:58 30.08.2019
2787 Clear 25 1020 34 10000 2.1 80 18:40 30.08.2019
2788 Clear 26 1021 36 10000 1.5 60 18:20 30.08.2019
2789 Clear 26 1021 36 10000 1.5 60 17:56 30.08.2019
2790 Clear 26 1021 39 10000 2.1 0 17:37 30.08.2019
2791 Clear 26 1021 39 10000 1 0 17:18 30.08.2019
2792 Clear 26 1022 39 10000 2.6 220 16:44 30.08.2019
2793 Clouds 26 1022 41 10000 1 0 16:25 30.08.2019
2794 Clouds 26 1022 41 10000 1 0 15:57 30.08.2019
2795 Clouds 26 1022 44 10000 2.1 0 15:37 30.08.2019
2796 Clouds 26 1023 47 10000 1.5 0 15:19 30.08.2019
2797 Clouds 25 1023 47 10000 2.1 0 14:42 30.08.2019
2798 Clouds 25 1023 47 10000 2.1 0 14:24 30.08.2019
2799 Clouds 25 1023 47 10000 1.5 0 13:56 30.08.2019
2800 Clouds 24 1023 53 10000 2.6 300 13:37 30.08.2019
2801 Clouds 24 1023 53 10000 2.6 280 13:19 30.08.2019
2802 Clouds 23 1023 53 10000 2.6 300 12:42 30.08.2019
2803 Clouds 23 1023 56 10000 1.5 0 12:22 30.08.2019
2804 Clouds 21 1023 64 10000 1.5 0 11:43 30.08.2019
2805 Clouds 21 1023 64 10000 1.5 0 11:25 30.08.2019
2806 Clear 20 1023 68 10000 1.5 0 10:59 30.08.2019
2807 Clouds 20 1024 77 10000 2.1 310 10:37 30.08.2019
2808 Clouds 19 1023 82 10000 2.1 320 10:18 30.08.2019
2809 Mist 17 1023 77 10000 1 0 09:42 30.08.2019
2810 Mist 17 1023 77 10000 1 0 09:20 30.08.2019
2811 Mist 16 1023 88 10000 0.5 0 08:59 30.08.2019
2812 Mist 15 1023 87 10000 0.5 330 08:41 30.08.2019
2813 Mist 15 1023 87 10000 0.5 330 08:22 30.08.2019
2814 Fog 15 1023 88 10000 0.5 0 07:45 30.08.2019
2815 Clouds 14 1023 87 10000 0.5 0 07:25 30.08.2019
2816 Clouds 15 1023 93 10000 1 250 06:49 30.08.2019
2817 Clouds 15 1022 82 10000 0.5 0 06:30 30.08.2019
2818 Clouds 15 1022 87 10000 0.5 0 05:59 30.08.2019
2819 Clouds 15 1022 87 10000 1 0 04:59 30.08.2019
2820 Clouds 15 1022 88 10000 1 30 03:56 30.08.2019
2821 Clouds 15 1022 88 10000 0.5 0 03:34 30.08.2019
2822 Clouds 16 1022 88 10000 2.1 298.465 02:35 30.08.2019
2823 Clouds 17 1022 77 10000 1.5 350 01:40 30.08.2019
2824 Clouds 18 1022 72 10000 1.5 340 00:47 30.08.2019
2825 Clouds 19 1022 72 10000 1.5 340 00:18 30.08.2019
2826 Clouds 19 1022 72 10000 2.1 300 23:46 29.08.2019
2827 Clouds 20 1022 68 10000 2.6 330 23:22 29.08.2019
2828 Clouds 20 1022 68 10000 2.6 330 23:22 29.08.2019
2829 Clouds 20 1022 72 10000 2.1 320 22:45 29.08.2019
2830 Clouds 20 1021 68 10000 3.1 350 22:27 29.08.2019
2831 Clouds 20 1021 68 10000 3.1 350 21:59 29.08.2019
2832 Clouds 21 1021 68 10000 2.6 320 21:41 29.08.2019
2833 Clear 21 1020 64 10000 1.5 360 21:21 29.08.2019
2834 Clear 22 1020 64 10000 1.5 360 20:58 29.08.2019
2835 Clear 22 1020 64 10000 1.5 360 20:39 29.08.2019
2836 Clear 23 1020 60 10000 1.5 10 20:19 29.08.2019
2837 Clear 23 1020 60 10000 2.1 360 19:47 29.08.2019
2838 Clear 24 1020 57 10000 2.1 10 19:27 29.08.2019
2839 Clear 24 1020 57 10000 3.1 340 18:59 29.08.2019
2840 Clear 24 1020 57 10000 3.1 340 18:41 29.08.2019
2841 Clear 25 1020 57 10000 3.1 330 18:20 29.08.2019
2842 Clouds 25 1020 57 10000 4.1 320 17:56 29.08.2019
2843 Clouds 25 1020 53 10000 4.1 320 17:36 29.08.2019
2844 Clouds 25 1020 53 10000 4.1 320 17:18 29.08.2019
2845 Clouds 26 1019 53 10000 5.1 320 16:43 29.08.2019
2846 Clouds 25 1019 50 10000 4.6 320 16:23 29.08.2019
2847 Clouds 26 1019 50 10000 4.6 320 15:58 29.08.2019
2848 Clouds 26 1019 54 10000 5.1 300 15:37 29.08.2019
2849 Clouds 25 1019 54 10000 5.1 300 15:19 29.08.2019
2850 Clouds 25 1019 57 10000 3.6 310 15:19 29.08.2019
2851 Clouds 25 1020 57 10000 2.6 0 14:45 29.08.2019
2852 Clouds 25 1019 64 10000 2.1 320 14:22 29.08.2019
2853 Clouds 24 1019 64 10000 2.1 320 13:58 29.08.2019
2854 Clouds 24 1019 60 10000 2.6 330 13:39 29.08.2019
2855 Clouds 24 1019 60 10000 2.6 330 13:20 29.08.2019
2856 Clouds 24 1019 64 10000 2.1 300 12:58 29.08.2019
2857 Clouds 24 1019 60 10000 2.1 330 12:39 29.08.2019
2858 Clouds 23 1019 60 10000 2.1 330 12:20 29.08.2019
2859 Clouds 23 1019 69 10000 1.5 0 11:58 29.08.2019
2860 Clouds 22 1019 69 10000 1.5 290 11:37 29.08.2019
2861 Clouds 22 1019 64 10000 2.6 290 11:18 29.08.2019
2862 Clouds 21 1019 77 10000 1 0 10:44 29.08.2019
2863 Clouds 21 1019 77 10000 1 0 10:24 29.08.2019
2864 Clear 20 1018 82 10000 1.5 320 09:42 29.08.2019
2865 Clear 20 1018 82 10000 1.5 320 09:22 29.08.2019
2866 Clouds 19 1018 88 10000 1.5 320 08:59 29.08.2019
2867 Clouds 19 1018 82 10000 1.5 320 08:40 29.08.2019
2868 Rain 18 1017 88 10000 2.1 320 08:22 29.08.2019
2869 Rain 18 1017 88 10000 2.1 320 07:50 29.08.2019
2870 Rain 19 1017 88 10000 2.6 320 07:27 29.08.2019
2871 Thunderstorm 19 1017 77 10000 2.1 290 06:48 29.08.2019
2872 Thunderstorm 19 1017 88 10000 3.6 290 06:30 29.08.2019
2873 Thunderstorm 19 1016 93 10000 1 0 05:43 29.08.2019
2874 Thunderstorm 20 1016 88 10000 1 0 04:51 29.08.2019
2875 Clear 20 1015 93 10000 1 0 04:30 29.08.2019
2876 Clear 20 1015 88 10000 2.1 60 03:35 29.08.2019
2877 Clear 21 1016 93 10000 1 70 01:52 29.08.2019
2878 Clear 21 1016 88 10000 0.5 90 01:32 29.08.2019
2879 Clear 21 1016 88 10000 1.5 60 00:45 29.08.2019
2880 Clear 22 1015 83 10000 1.5 90 00:21 29.08.2019
2881 Clear 22 1015 83 10000 1.5 90 00:21 29.08.2019
2882 Clear 22 1015 83 10000 1 0 23:44 28.08.2019
2883 Clear 23 1015 88 10000 1 100 23:26 28.08.2019
2884 Clear 23 1015 88 10000 1 100 22:59 28.08.2019
2885 Clear 23 1015 94 10000 1.5 0 22:39 28.08.2019
2886 Clouds 24 1015 88 10000 0.5 0 22:19 28.08.2019
2887 Clouds 24 1015 88 10000 0.5 0 21:59 28.08.2019
2888 Clouds 25 1014 83 10000 3.1 70 21:39 28.08.2019
2889 Clouds 25 1014 83 10000 3.1 70 21:39 28.08.2019
2890 Clouds 25 1014 83 10000 3.1 70 21:21 28.08.2019
2891 Rain 26 1014 78 10000 2.6 50 20:56 28.08.2019
2892 Rain 26 1014 88 10000 1 0 20:37 28.08.2019
2893 Rain 27 1014 78 10000 1.5 140 20:19 28.08.2019
2894 Rain 28 1014 78 10000 1.5 140 19:40 28.08.2019
2895 Rain 28 1014 47 10000 4.6 300 19:21 28.08.2019
2896 Rain 29 1014 47 10000 4.6 300 18:57 28.08.2019
2897 Rain 29 1014 39 10000 2.6 300 18:37 28.08.2019
2898 Clear 30 1014 35 10000 1.5 320 18:18 28.08.2019
2899 Clouds 30 1014 37 10000 4.6 300 17:38 28.08.2019
2900 Clear 30 1014 40 10000 3.1 290 17:19 28.08.2019
2901 Clear 30 1014 40 10000 3.6 290 16:44 28.08.2019
2902 Clear 30 1014 40 10000 3.6 290 16:23 28.08.2019
2903 Clear 30 1014 40 10000 4.6 290 15:59 28.08.2019
2904 Clear 30 1014 42 10000 4.1 260 15:38 28.08.2019
2905 Clear 30 1014 42 10000 4.1 260 15:19 28.08.2019
2906 Clear 29 1014 45 10000 4.1 290 14:57 28.08.2019
2907 Clear 29 1014 42 10000 3.6 280 14:38 28.08.2019
2908 Clear 29 1014 42 10000 2.1 0 14:20 28.08.2019
2909 Clear 29 1014 42 10000 2.1 0 13:58 28.08.2019
2910 Clear 28 1015 51 10000 2.1 210 13:38 28.08.2019
2911 Clear 28 1015 51 10000 3.1 140 13:19 28.08.2019
2912 Clouds 27 1015 54 10000 3.1 170 12:42 28.08.2019
2913 Clear 27 1015 65 10000 2.1 150 12:24 28.08.2019
2914 Clear 27 1015 65 10000 2.1 150 11:57 28.08.2019
2915 Clear 26 1015 61 10000 2.6 170 11:38 28.08.2019
2916 Clear 26 1015 61 10000 2.6 170 11:20 28.08.2019
2917 -273 0 0 0 0 0 10:55 28.08.2019
2918 Clear 25 1014 69 10000 2.6 140 10:37 28.08.2019
2919 Clear 24 1014 73 10000 2.1 160 10:18 28.08.2019
2920 Clear 23 1014 77 10000 1.5 110 09:41 28.08.2019
2921 Clear 23 1014 77 10000 1.5 110 09:41 28.08.2019
2922 Clear 21 1014 82 10000 1 0 09:20 28.08.2019
2923 Clear 21 1014 82 10000 1 0 08:40 28.08.2019
2924 Clear 20 1014 93 10000 1.5 150 08:21 28.08.2019
2925 Clouds 20 1014 72 10000 1 0 07:59 28.08.2019
2926 Clear 20 1014 82 10000 1 0 07:37 28.08.2019
2927 Clear 19 1014 82 10000 0.5 0 07:18 28.08.2019
2928 Clear 20 1014 82 10000 1 0 06:44 28.08.2019
2929 Clear 20 1014 82 10000 1 0 05:52 28.08.2019
2930 Clear 20 1014 82 10000 0.5 0 04:28 28.08.2019
2931 Clear 21 1014 88 10000 2.1 130 01:57 28.08.2019
2932 Clear 21 1014 82 10000 1.5 130 01:30 28.08.2019
2933 Clear 22 1014 82 10000 1.5 130 00:43 28.08.2019
2934 Clear 22 1014 77 10000 2.1 120 00:23 28.08.2019
2935 Clear 22 1014 82 10000 2.6 170 23:44 27.08.2019
2936 Clear 22 1014 82 10000 2.6 170 23:22 27.08.2019
2937 Rain 23 1014 57 10000 3.1 100 22:59 27.08.2019
2938 Thunderstorm 23 1015 57 10000 3.6 70 22:41 27.08.2019
2939 Thunderstorm 23 1015 53 10000 2.1 320 22:21 27.08.2019
2940 Rain 24 1015 53 10000 2.1 320 21:56 27.08.2019
2941 Rain 24 1014 64 10000 4.1 130 21:38 27.08.2019
2942 Rain 25 1014 64 10000 4.1 130 21:19 27.08.2019
2943 Rain 26 1014 50 10000 3.1 70 20:56 27.08.2019
2944 Thunderstorm 26 1014 57 10000 8.7 150 20:37 27.08.2019
2945 Thunderstorm 27 1014 57 10000 8.7 150 20:19 27.08.2019
2946 Clouds 28 1014 45 10000 3.1 250 19:43 27.08.2019
2947 Clouds 30 1013 54 10000 2.1 60 19:25 27.08.2019
2948 Thunderstorm 30 1013 54 10000 2.1 60 18:56 27.08.2019
2949 Thunderstorm 31 1013 48 10000 1.5 70 18:38 27.08.2019
2950 Rain 31 1013 42 10000 1.5 100 18:18 27.08.2019
2951 Clouds 32 1014 38 10000 1.5 70 17:43 27.08.2019
2952 Clouds 32 1014 38 10000 1.5 70 17:43 27.08.2019
2953 Clouds 32 1014 33 10000 2.1 70 17:25 27.08.2019
2954 Clouds 32 1014 31 10000 3.1 110 16:58 27.08.2019
2955 Clouds 32 1014 35 10000 3.1 150 16:40 27.08.2019
2956 Clouds 32 1014 35 10000 3.1 160 16:21 27.08.2019
2957 Clouds 32 1014 33 10000 3.1 320 15:54 27.08.2019
2958 Clouds 32 1015 45 10000 2.6 180 15:36 27.08.2019
2959 Clouds 32 1015 40 10000 2.1 150 15:18 27.08.2019
2960 Clouds 32 1015 40 10000 2.1 150 15:18 27.08.2019
2961 Clouds 32 1015 38 10000 2.1 0 14:42 27.08.2019
2962 Clouds 32 1015 38 10000 2.1 0 14:23 27.08.2019
2963 Clouds 32 1015 35 10000 1.5 140 13:43 27.08.2019
2964 Clouds 31 1016 45 10000 2.1 140 13:24 27.08.2019
2965 Clouds 31 1016 45 10000 2.1 140 12:58 27.08.2019
2966 Clouds 30 1016 51 10000 2.6 0 12:39 27.08.2019
2967 Clear 30 1017 54 10000 2.6 140 12:19 27.08.2019
2968 Clouds 29 1016 48 10000 1.5 130 11:46 27.08.2019
2969 Clear 28 1017 57 10000 3.1 140 11:26 27.08.2019
2970 Clouds 27 1016 61 10000 2.1 100 10:55 27.08.2019
2971 Clear 27 1016 64 10000 2.6 140 10:37 27.08.2019
2972 Clear 26 1016 69 10000 1.5 130 10:18 27.08.2019
2973 Clear 24 1016 77 10000 2.1 170 09:41 27.08.2019
2974 Clear 23 1016 77 10000 2.1 170 09:21 27.08.2019
2975 Clear 21 1016 88 10000 2.1 150 08:59 27.08.2019
2976 Clear 21 1016 88 10000 2.1 150 08:59 27.08.2019
2977 Clear 20 1016 93 10000 2.6 150 08:40 27.08.2019
2978 Clear 20 1016 88 10000 2.1 160 08:22 27.08.2019
2979 Clear 19 1016 93 10000 1.5 140 07:41 27.08.2019
2980 Clear 19 1016 93 10000 1.5 140 07:20 27.08.2019
2981 Clear 19 1016 93 10000 2.6 150 06:54 27.08.2019
2982 Clear 19 1016 93 10000 2.6 160 06:28 27.08.2019
2983 Clear 19 1016 93 10000 1 0 05:52 27.08.2019
2984 Clear 19 1016 93 10000 0.5 0 05:24 27.08.2019
2985 Clear 20 1016 82 10000 1 0 03:42 27.08.2019
2986 Clear 21 1016 77 10000 2.1 0 02:26 27.08.2019
2987 Clear 21 1017 77 10000 1.5 170 01:45 27.08.2019
2988 Clear 21 1017 77 10000 1 0 01:24 27.08.2019
2989 Clear 22 1017 77 10000 1 0 00:48 27.08.2019
2990 Clear 22 1017 77 10000 1 0 00:26 27.08.2019
2991 Clear 23 1016 78 10000 1.5 0 23:40 26.08.2019
2992 Clear 23 1016 78 10000 1.5 0 23:21 26.08.2019
2993 Clear 23 1016 78 10000 1 0 22:57 26.08.2019
2994 Clear 24 1016 78 10000 0.5 0 22:36 26.08.2019
2995 Clear 24 1016 78 10000 0.5 0 22:18 26.08.2019
2996 Clear 25 1016 69 10000 0.5 0 21:39 26.08.2019
2997 Clear 26 1016 69 10000 2.1 60 21:21 26.08.2019
2998 Clouds 27 1016 61 10000 1 0 20:58 26.08.2019
2999 Clouds 27 1016 61 10000 1 0 20:39 26.08.2019
3000 Clouds 28 1016 54 10000 1 120 20:19 26.08.2019
3001 Clouds 29 1016 48 10000 2.1 110 19:56 26.08.2019
3002 Clouds 29 1016 48 10000 2.1 110 19:38 26.08.2019
3003 Clouds 30 1016 45 10000 3.1 90 19:18 26.08.2019
3004 Clouds 30 1016 40 10000 3.6 70 18:39 26.08.2019
3005 Clouds 30 1016 40 10000 3.6 70 18:39 26.08.2019
3006 Rain 31 1016 38 10000 3.1 70 18:21 26.08.2019
3007 Rain 31 1016 40 10000 2.6 120 17:59 26.08.2019
3008 Rain 31 1016 40 10000 2.6 120 17:41 26.08.2019
3009 Rain 31 1016 38 10000 2.1 60 17:19 26.08.2019
3010 Thunderstorm 32 1016 38 10000 1.5 0 16:56 26.08.2019
3011 Thunderstorm 32 1016 38 10000 1.5 0 16:56 26.08.2019
3012 Thunderstorm 32 1016 38 10000 1.5 0 16:38 26.08.2019
3013 Clouds 32 1016 41 10000 2.1 0 16:18 26.08.2019
3014 Clouds 32 1016 40 10000 1 0 15:42 26.08.2019
3015 Clouds 32 1017 43 10000 2.1 30 15:22 26.08.2019
3016 Clouds 31 1017 43 10000 1.5 0 14:57 26.08.2019
3017 Clouds 31 1017 45 10000 1.5 0 14:38 26.08.2019
3018 Clouds 31 1017 45 10000 1.5 0 14:19 26.08.2019
3019 Clear 30 1018 48 10000 1 0 13:43 26.08.2019
3020 Clouds 30 1018 48 10000 1 0 13:22 26.08.2019
3021 Clear 30 1018 54 10000 1 0 12:54 26.08.2019
3022 Clear 29 1018 54 10000 1 0 12:36 26.08.2019
3023 Clear 29 1018 54 10000 1 0 12:18 26.08.2019
3024 Clear 28 1019 61 10000 1.5 0 11:38 26.08.2019
3025 Clear 26 1019 61 10000 1 0 11:19 26.08.2019
3026 Clear 26 1019 65 10000 1 0 10:57 26.08.2019
3027 Clear 26 1019 65 10000 1 0 10:39 26.08.2019
3028 Clear 24 1019 69 10000 1.5 150 10:18 26.08.2019
3029 Clear 23 1019 73 10000 2.1 160 09:42 26.08.2019
3030 Clear 21 1019 83 10000 1.5 150 09:23 26.08.2019
3031 Clear 21 1019 82 10000 0.5 0 08:56 26.08.2019
3032 Clear 20 1019 82 10000 0.5 0 08:38 26.08.2019
3033 Clear 20 1019 82 10000 0.5 0 08:38 26.08.2019
3034 Clear 19 1019 93 10000 1.5 150 08:19 26.08.2019
3035 Clear 18 1019 93 10000 1 0 07:44 26.08.2019
3036 Clear 18 1018 93 10000 0.5 60 07:25 26.08.2019
3037 Clear 18 1018 100 8000 0.5 0 06:57 26.08.2019
3038 Clear 18 1018 100 8000 0.5 0 06:38 26.08.2019
3039 Clear 18 1018 93 10000 0.5 0 06:18 26.08.2019
3040 Clear 19 1018 93 10000 0.5 0 05:33 26.08.2019
3041 Clear 19 1018 93 10000 1 50 04:22 26.08.2019
3042 Clear 20 1018 88 10000 0.5 0 02:39 26.08.2019
3043 Clear 21 1019 82 10000 1.5 50 01:23 26.08.2019
3044 Clear 22 1019 82 10000 0.5 110 00:45 26.08.2019
3045 Clear 22 1019 77 10000 2.6 150 00:26 26.08.2019
3046 Clear 23 1019 83 10000 0.5 0 23:45 25.08.2019
3047 Clear 23 1019 83 10000 0.5 180 23:21 25.08.2019
3048 Clear 23 1019 78 10000 2.76 8.406 22:59 25.08.2019
3049 Clear 24 1019 78 10000 2.76 8.406 22:40 25.08.2019
3050 Clear 25 1019 73 10000 1 70 22:21 25.08.2019
3051 Clear 25 1018 73 10000 1.5 70 21:59 25.08.2019
3052 Clear 25 1018 73 10000 1.5 70 21:41 25.08.2019
3053 Clouds 26 1018 69 10000 1.5 60 21:19 25.08.2019
3054 Clouds 27 1018 61 10000 1.5 50 20:57 25.08.2019
3055 Clouds 28 1018 61 10000 1.5 50 20:39 25.08.2019
3056 Clouds 29 1018 54 10000 2.6 30 20:19 25.08.2019
3057 Clouds 29 1018 51 10000 4.1 30 19:55 25.08.2019
3058 Clouds 29 1018 51 10000 4.1 30 19:36 25.08.2019
3059 Clouds 30 1018 45 10000 3.1 10 19:18 25.08.2019
3060 Clouds 30 1018 45 10000 3.6 30 18:55 25.08.2019
3061 Clouds 30 1018 45 10000 3.6 30 18:55 25.08.2019
3062 Rain 30 1018 35 10000 1 0 18:37 25.08.2019
3063 Rain 31 1018 35 10000 1 0 18:18 25.08.2019
3064 Rain 31 1018 35 10000 1.5 230 17:40 25.08.2019
3065 Rain 30 1018 35 10000 1.5 230 17:21 25.08.2019
3066 Clouds 30 1018 40 10000 1.5 0 16:43 25.08.2019
3067 Clouds 30 1018 40 10000 1.5 0 16:23 25.08.2019
3068 Clear 30 1018 45 10000 1 0 15:58 25.08.2019
3069 Clear 30 1018 45 10000 1.5 0 15:39 25.08.2019
3070 Clear 30 1018 45 10000 1.5 0 15:21 25.08.2019
3071 Clear 30 1018 48 10000 1.5 0 14:41 25.08.2019
3072 Clear 30 1018 51 10000 1 0 14:23 25.08.2019
3073 Clear 29 1019 48 10000 1.5 0 13:46 25.08.2019
3074 Clear 29 1019 51 10000 1 0 13:22 25.08.2019
3075 Clear 28 1019 48 10000 1.5 0 12:59 25.08.2019
3076 Clear 28 1019 48 10000 1.5 0 12:40 25.08.2019
3077 Clear 27 1019 54 10000 1 0 12:22 25.08.2019
3078 Clear 27 1019 61 10000 1.5 0 11:57 25.08.2019
3079 Clear 26 1019 61 10000 1.5 0 11:37 25.08.2019
3080 Clear 26 1019 60 10000 1 0 11:19 25.08.2019
3081 Clear 25 1019 60 10000 1 0 10:55 25.08.2019
3082 Clear 25 1019 60 10000 1 0 10:37 25.08.2019
3083 Clear 24 1019 64 10000 1.5 140 10:18 25.08.2019
3084 Clear 23 1019 68 10000 2.1 140 09:42 25.08.2019
3085 Clear 21 1019 68 10000 2.1 140 09:23 25.08.2019
3086 Clear 19 1019 88 10000 0.5 0 08:47 25.08.2019
3087 Clear 18 1019 87 10000 0.5 0 08:28 25.08.2019
3088 Clear 16 1019 87 10000 0.5 0 07:54 25.08.2019
3089 Clear 16 1019 87 10000 0.5 0 07:32 25.08.2019
3090 Clear 16 1019 87 10000 0.5 0 06:38 25.08.2019
3091 Clear 16 1018 82 10000 0.5 0 05:27 25.08.2019
3092 Clear 17 1019 82 10000 0.5 0 03:45 25.08.2019
3093 Clear 18 1019 82 10000 0.5 0 02:43 25.08.2019
3094 Clear 18 1019 72 10000 1 0 01:54 25.08.2019
3095 Clear 19 1019 77 10000 1 0 00:55 25.08.2019
3096 Clear 19 1019 63 10000 1.5 70 00:24 25.08.2019
3097 Clear 19 1019 72 10000 1.5 60 23:58 24.08.2019
3098 Clear 20 1019 64 10000 0.5 0 23:40 24.08.2019
3099 Clear 20 1019 64 10000 0.5 0 23:22 24.08.2019
3100 Clear 20 1019 64 10000 0.5 0 22:54 24.08.2019
3101 Clear 21 1019 64 10000 0.5 0 22:36 24.08.2019
3102 Clear 22 1019 56 10000 0.5 0 22:18 24.08.2019
3103 Clear 23 1019 49 10000 1.5 100 21:42 24.08.2019
3104 Clear 23 1019 49 10000 1.5 100 21:42 24.08.2019
3105 Clear 24 1019 41 10000 2.1 130 21:24 24.08.2019
3106 Clear 25 1018 39 10000 2.6 130 20:59 24.08.2019
3107 Clear 27 1018 34 10000 3.6 130 20:40 24.08.2019
3108 Clear 27 1018 34 10000 3.6 130 20:20 24.08.2019
3109 Clear 28 1018 28 10000 1 0 19:59 24.08.2019
3110 Clear 29 1018 28 10000 1 0 19:40 24.08.2019
3111 Clear 29 1018 27 10000 2.1 70 19:22 24.08.2019
3112 Clear 30 1018 25 10000 2.6 50 18:56 24.08.2019
3113 Clear 30 1019 25 10000 3.1 60 18:36 24.08.2019
3114 Clear 30 1019 25 10000 3.1 60 18:18 24.08.2019
3115 Clear 30 1019 27 10000 3.6 60 17:42 24.08.2019
3116 Clear 30 1019 27 10000 3.6 50 17:23 24.08.2019
3117 Clear 30 1019 28 10000 2.1 0 16:42 24.08.2019
3118 Clear 30 1019 28 10000 2.1 0 16:19 24.08.2019
3119 Clear 30 1020 30 10000 3.1 70 15:57 24.08.2019
3120 Clear 30 1020 30 10000 3.1 70 15:38 24.08.2019
3121 Clear 30 1020 32 10000 3.1 80 15:20 24.08.2019
3122 Clear 29 1020 30 10000 2.1 120 14:42 24.08.2019
3123 Clear 29 1020 32 10000 2.1 0 14:21 24.08.2019
3124 Clear 28 1021 37 10000 1.5 0 13:56 24.08.2019
3125 Clear 28 1021 39 10000 1.5 0 13:37 24.08.2019
3126 Clear 28 1021 39 10000 1.5 0 13:18 24.08.2019
3127 Clear 27 1021 39 10000 1.5 150 12:42 24.08.2019
3128 Clear 27 1021 41 10000 2.1 0 12:24 24.08.2019
3129 Clear 26 1022 44 10000 2.1 130 11:57 24.08.2019
3130 Clear 25 1022 44 10000 2.1 130 11:38 24.08.2019
3131 Clear 24 1022 47 10000 2.1 140 11:19 24.08.2019
3132 Clear 23 1022 49 10000 2.6 150 10:44 24.08.2019
3133 Clear 23 1022 56 10000 1.5 140 10:23 24.08.2019
3134 Clear 21 1022 60 10000 2.1 150 09:44 24.08.2019
3135 Clear 19 1022 77 10000 1.5 160 09:21 24.08.2019
3136 Clear 18 1022 82 10000 3.1 150 08:58 24.08.2019
3137 Clear 17 1022 82 10000 3.1 150 08:39 24.08.2019
3138 Clear 16 1022 87 10000 2.6 130 08:21 24.08.2019
3139 Clear 14 1022 87 10000 2.1 150 07:49 24.08.2019
3140 Clear 14 1022 82 10000 1 0 07:27 24.08.2019
3141 Clear 14 1022 87 10000 0.5 0 06:29 24.08.2019
3142 Clear 14 1022 93 10000 1.5 60 05:42 24.08.2019
3143 Clear 14 1022 82 10000 1 0 04:51 24.08.2019
3144 Clear 15 1022 87 10000 1 0 03:37 24.08.2019
3145 Clear 16 1022 82 10000 1.5 130 02:27 24.08.2019
3146 Clear 17 1022 82 10000 2.1 190 01:38 24.08.2019
3147 Clear 17 1022 77 10000 0.5 0 01:18 24.08.2019
3148 Clear 18 1022 77 10000 1 0 00:41 24.08.2019
3149 Clear 18 1022 72 10000 0.5 0 00:18 24.08.2019
3150 Clear 19 1022 63 10000 3.1 10 23:42 23.08.2019
3151 Clear 19 1022 72 10000 1 0 23:19 23.08.2019
3152 Clear 20 1022 68 10000 0.5 70 22:43 23.08.2019
3153 Clear 20 1023 60 10000 2.1 120 22:24 23.08.2019
3154 Clear 22 1023 64 10000 2.1 70 21:54 23.08.2019
3155 Clear 22 1023 64 10000 2.1 70 21:36 23.08.2019
3156 Clear 23 1023 53 10000 2.6 50 21:18 23.08.2019
3157 Clear 25 1022 64 10000 1.5 50 20:40 23.08.2019
3158 Clear 26 1022 47 10000 1 20 20:22 23.08.2019
3159 Clear 27 1022 37 10000 1 360 19:44 23.08.2019
3160 Clear 28 1022 30 10000 1.5 70 19:19 23.08.2019
3161 Clear 28 1023 30 10000 1.5 70 18:49 23.08.2019
3162 Clear 28 1023 30 10000 1.5 60 18:31 23.08.2019
3163 Clear 28 1023 32 10000 1.5 0 17:59 23.08.2019
3164 Clear 28 1023 32 10000 1.5 0 17:40 23.08.2019
3165 Clear 28 1023 30 10000 2.1 0 17:21 23.08.2019
3166 Clear 28 1023 26 10000 1 0 16:48 23.08.2019
3167 Clear 28 1024 30 10000 1 0 16:29 23.08.2019
3168 Clear 28 1024 30 10000 2.6 30 15:59 23.08.2019
3169 Clear 28 1024 30 10000 2.6 30 15:39 23.08.2019
3170 Clear 28 1024 32 10000 2.6 0 15:21 23.08.2019
3171 Clear 28 1024 32 10000 2.6 0 14:44 23.08.2019
3172 Clear 28 1025 34 10000 2.1 0 14:21 23.08.2019
3173 Clear 27 1025 34 10000 1.5 0 13:59 23.08.2019
3174 Clear 27 1025 39 10000 1.5 0 13:41 23.08.2019
3175 Clear 27 1025 39 10000 1.5 0 13:23 23.08.2019
3176 Clear 26 1026 44 10000 1 0 12:58 23.08.2019
3177 Clear 25 1026 44 10000 1 0 12:40 23.08.2019
3178 Clear 25 1026 47 10000 1 0 12:21 23.08.2019
3179 Clear 24 1026 46 10000 1.5 0 11:57 23.08.2019
3180 Clear 23 1026 60 10000 1.5 140 11:39 23.08.2019
3181 Clear 23 1026 60 10000 1.5 140 11:19 23.08.2019
3182 Clear 22 1026 63 10000 1.5 140 10:55 23.08.2019
3183 Clear 22 1026 63 10000 1.5 140 10:37 23.08.2019
3184 Clear 20 1026 63 10000 1.5 140 10:18 23.08.2019
3185 Clear 19 1026 67 10000 2.1 140 09:43 23.08.2019
3186 Clear 17 1026 77 10000 1 0 09:20 23.08.2019
3187 Mist 15 1026 82 10000 0.5 0 08:45 23.08.2019
3188 Mist 14 1026 93 10000 1.5 160 08:21 23.08.2019
3189 Fog 13 1026 87 10000 1 0 07:57 23.08.2019
3190 Fog 13 1026 87 10000 1 0 07:38 23.08.2019
3191 Fog 12 1026 93 10000 0.5 0 07:20 23.08.2019
3192 Fog 13 1026 93 10000 0.5 320 06:41 23.08.2019
3193 Fog 12 1026 93 10000 1 0 06:22 23.08.2019
3194 Clear 12 1026 100 10000 1.5 100 05:44 23.08.2019
3195 Clear 13 1026 93 10000 0.5 0 05:25 23.08.2019
3196 Clear 14 1026 93 10000 0.5 0 03:46 23.08.2019
3197 Clear 14 1026 93 10000 1 0 02:39 23.08.2019
3198 Clear 15 1026 87 10000 0.5 70 02:20 23.08.2019
3199 Clear 15 1026 87 10000 2.1 80 01:30 23.08.2019
3200 Clear 16 1026 77 10000 1 60 00:42 23.08.2019
3201 Clear 16 1025 82 10000 1 0 00:18 23.08.2019
3202 Clear 17 1025 82 10000 1 0 23:43 22.08.2019
3203 Clear 17 1025 77 10000 0.5 0 23:22 22.08.2019
3204 Clear 18 1025 77 10000 1 0 22:43 22.08.2019
3205 Clear 18 1025 77 10000 1 0 22:43 22.08.2019
3206 Clear 18 1025 63 10000 2.1 30 22:24 22.08.2019
3207 Clear 19 1025 59 10000 2.1 60 21:59 22.08.2019
3208 Clear 20 1025 59 10000 2.1 60 21:41 22.08.2019
3209 Clear 21 1024 56 10000 1 0 21:23 22.08.2019
3210 Clear 22 1024 56 10000 2.1 90 20:58 22.08.2019
3211 Clear 23 1024 56 10000 2.1 90 20:40 22.08.2019
3212 Clear 24 1024 38 10000 1.5 60 20:20 22.08.2019
3213 Clear 24 1024 36 10000 2.1 80 19:58 22.08.2019
3214 Clear 25 1024 36 10000 2.1 80 19:39 22.08.2019
3215 Clear 26 1024 34 10000 2.1 100 19:21 22.08.2019
3216 Clear 26 1024 32 10000 1.5 70 18:58 22.08.2019
3217 Clear 26 1024 32 10000 1.5 70 18:40 22.08.2019
3218 Clear 27 1024 34 10000 2.1 60 18:20 22.08.2019
3219 Clear 27 1024 34 10000 2.1 60 18:20 22.08.2019
3220 Clear 26 1024 31 10000 1.5 320 17:57 22.08.2019
3221 Clear 26 1024 31 10000 1.5 320 17:39 22.08.2019
3222 Clear 27 1024 31 10000 2.1 200 17:19 22.08.2019
3223 Clear 27 1024 31 10000 2.1 200 16:56 22.08.2019
3224 Clear 27 1025 29 10000 2.1 0 16:37 22.08.2019
3225 Clear 27 1025 29 10000 2.1 0 16:19 22.08.2019
3226 Clear 27 1025 29 10000 2.1 0 16:19 22.08.2019
3227 Clear 27 1025 34 10000 1 0 15:42 22.08.2019
3228 Clear 26 1025 34 10000 2.1 120 15:24 22.08.2019
3229 Clear 26 1025 34 10000 2.1 120 15:24 22.08.2019
3230 Clear 26 1025 33 10000 2.1 0 14:58 22.08.2019
3231 Clear 26 1025 33 10000 2.1 0 14:58 22.08.2019
3232 Clear 26 1025 33 10000 2.1 0 14:58 22.08.2019
3233 Clear 26 1025 33 10000 2.1 0 14:58 22.08.2019
3234 Clear 26 1025 33 10000 2.1 0 14:40 22.08.2019
3235 Clear 26 1025 36 10000 4.1 210 14:21 22.08.2019
3236 Clear 26 1025 36 10000 4.6 180 13:58 22.08.2019
3237 Clear 25 1026 38 10000 4.1 200 13:39 22.08.2019
3238 Clear 25 1026 38 10000 4.1 200 13:19 22.08.2019
3239 Clear 25 1026 38 10000 2.6 160 12:56 22.08.2019
3240 Clear 24 1026 38 10000 2.6 160 12:38 22.08.2019
3241 Clear 23 1026 40 10000 2.6 140 12:19 22.08.2019
3242 Clear 22 1026 43 10000 2.6 170 11:42 22.08.2019
3243 Clear 22 1027 49 10000 3.6 140 11:20 22.08.2019
3244 Clear 21 1027 52 10000 4.1 140 10:58 22.08.2019
3245 Clear 21 1027 52 10000 4.1 140 10:40 22.08.2019
3246 Clear 20 1027 55 10000 4.1 140 10:21 22.08.2019
3247 Clear 19 1026 63 10000 2.6 140 09:57 22.08.2019
3248 Clear 18 1026 63 10000 2.6 140 09:39 22.08.2019
3249 Clear 18 1026 63 10000 2.6 140 09:39 22.08.2019
3250 Clear 17 1026 67 10000 2.1 130 09:20 22.08.2019
3251 Clear 15 1026 67 10000 1 0 08:54 22.08.2019
3252 Clear 15 1026 67 10000 1 0 08:36 22.08.2019
3253 Clear 14 1026 87 10000 0.5 360 08:18 22.08.2019
3254 Clear 13 1025 71 10000 1 0 07:39 22.08.2019
3255 Clear 12 1025 71 10000 1 0 07:19 22.08.2019
3256 Clear 12 1025 71 10000 2.1 150 06:48 22.08.2019
3257 Clear 12 1026 93 10000 2.1 140 06:23 22.08.2019
3258 Clear 12 1026 87 10000 0.5 0 05:36 22.08.2019
3259 Clear 13 1026 67 10000 1.5 90 04:28 22.08.2019
3260 Clear 13 1026 81 10000 1.5 80 02:47 22.08.2019
3261 Clear 13 1026 87 10000 1 0 02:29 22.08.2019
3262 Clear 13 1026 81 10000 2.1 170 01:22 22.08.2019
3263 Clear 14 1027 81 10000 0.5 0 00:44 22.08.2019
3264 Clear 14 1026 71 10000 1 0 00:25 22.08.2019
3265 Clear 15 1027 71 10000 0.5 0 23:50 21.08.2019
3266 Clear 15 1026 63 10000 1 0 23:30 21.08.2019
3267 Clear 16 1027 63 10000 1 0 22:59 21.08.2019
3268 Clear 16 1027 63 10000 1 0 22:41 21.08.2019
3269 Clear 16 1026 67 10000 2.1 70 22:22 21.08.2019
3270 Clear 16 1026 67 10000 2.1 70 22:22 21.08.2019
3271 Clear 17 1026 55 10000 2.6 70 21:58 21.08.2019
3272 Clear 18 1026 55 10000 2.6 70 21:39 21.08.2019
3273 Clear 18 1026 63 10000 2.1 70 21:20 21.08.2019
3274 Clear 20 1026 56 10000 1.5 60 20:59 21.08.2019
3275 Clear 20 1026 56 10000 1.5 60 20:41 21.08.2019
3276 Clear 21 1026 49 10000 2.1 80 20:23 21.08.2019
3277 Clear 22 1026 43 10000 1.5 80 19:56 21.08.2019
3278 Clear 22 1026 43 10000 1.5 80 19:37 21.08.2019
3279 Clear 22 1026 43 10000 1.5 80 19:19 21.08.2019
3280 Clear 23 1026 38 10000 1.5 80 18:43 21.08.2019
3281 Clear 23 1026 38 10000 1.5 80 18:23 21.08.2019
3282 Clear 23 1026 38 10000 1.5 80 18:23 21.08.2019
3283 Clear 23 1026 38 10000 1.5 80 18:23 21.08.2019
3284 Clear 23 1027 35 10000 1 0 17:56 21.08.2019
3285 Clear 23 1027 35 10000 1 0 17:37 21.08.2019
3286 Clear 23 1027 35 10000 2.1 0 17:19 21.08.2019
3287 Clear 23 1027 35 10000 1.5 0 16:44 21.08.2019
3288 Clear 23 1027 35 10000 1.5 0 16:44 21.08.2019
3289 Clear 23 1027 36 10000 1.5 0 16:24 21.08.2019
3290 Clear 23 1027 38 10000 2.6 250 15:59 21.08.2019
3291 Clear 23 1027 38 10000 2.6 250 15:41 21.08.2019
3292 Clear 23 1027 35 10000 2.1 0 15:21 21.08.2019
3293 Clear 23 1028 40 10000 2.6 200 14:58 21.08.2019
3294 Clear 23 1028 40 10000 2.6 200 14:39 21.08.2019
3295 Clear 22 1028 40 10000 2.1 0 14:20 21.08.2019
3296 Clear 22 1028 43 10000 2.1 0 13:58 21.08.2019
3297 Clear 22 1028 43 10000 2.1 0 13:40 21.08.2019
3298 Clouds 21 1028 49 10000 1.5 150 13:19 21.08.2019
3299 Clouds 21 1029 49 10000 1.5 0 12:43 21.08.2019
3300 Clouds 20 1029 52 10000 1 0 12:25 21.08.2019
3301 Clouds 20 1029 56 10000 1 0 11:59 21.08.2019
3302 Clouds 19 1029 56 10000 1 0 11:41 21.08.2019
3303 Clouds 19 1029 59 10000 1 0 11:22 21.08.2019
3304 Clear 19 1029 63 10000 1 0 10:58 21.08.2019
3305 Clear 18 1029 63 10000 1 0 10:38 21.08.2019
3306 Clear 17 1029 72 10000 1 0 10:20 21.08.2019
3307 Clear 16 1029 77 10000 1.5 140 09:57 21.08.2019
3308 Clear 16 1029 77 10000 1.5 140 09:39 21.08.2019
3309 Clear 15 1029 82 10000 0.5 0 09:20 21.08.2019
3310 Clear 13 1029 87 10000 0.5 0 08:47 21.08.2019
3311 Clear 12 1029 87 10000 1 0 08:24 21.08.2019
3312 Fog 12 1029 93 10000 1 0 07:45 21.08.2019
3313 Fog 11 1028 93 10000 1 60 07:25 21.08.2019
3314 Clear 11 1028 100 10000 1 0 06:51 21.08.2019
3315 Clear 11 1028 93 10000 0.5 0 06:32 21.08.2019
3316 Clear 11 1028 93 10000 0.5 0 05:57 21.08.2019
3317 Clear 11 1028 93 10000 1 70 05:28 21.08.2019
3318 Clear 12 1028 93 10000 0.5 80 04:42 21.08.2019
3319 Clear 13 1027 87 10000 1.5 60 02:40 21.08.2019
3320 Clouds 13 1027 87 10000 1 0 01:34 21.08.2019
3321 Clear 13 1027 87 10000 1 70 00:42 21.08.2019
3322 Clear 13 1026 93 10000 1 40 00:21 21.08.2019
3323 Clear 14 1026 76 10000 0.5 90 23:45 20.08.2019
3324 Clear 14 1026 76 10000 0.5 0 23:20 20.08.2019
3325 Clear 15 1026 72 10000 1 30 22:59 20.08.2019
3326 Clear 15 1026 72 10000 1 30 22:40 20.08.2019
3327 Clear 16 1025 67 10000 2.6 10 22:22 20.08.2019
3328 Clear 16 1025 59 10000 3.6 350 21:58 20.08.2019
3329 Clear 17 1025 59 10000 3.6 350 21:39 20.08.2019
3330 Clear 17 1025 59 10000 3.6 350 21:39 20.08.2019
3331 Clear 18 1025 48 10000 4.1 280 21:20 20.08.2019
3332 Clear 18 1024 45 10000 3.6 270 20:59 20.08.2019
3333 Clear 18 1024 45 10000 3.6 270 20:41 20.08.2019
3334 Clear 19 1024 43 10000 4.1 280 20:23 20.08.2019
3335 Rain 20 1024 40 10000 4.1 250 19:40 20.08.2019
3336 Rain 21 1024 40 10000 4.6 260 19:22 20.08.2019
3337 Rain 21 1023 43 10000 3.6 260 18:58 20.08.2019
3338 Rain 21 1023 43 10000 3.6 260 18:40 20.08.2019
3339 Clear 21 1023 40 10000 3.6 270 18:19 20.08.2019
3340 Clouds 22 1023 43 10000 5.1 270 17:57 20.08.2019
3341 Clouds 22 1023 40 10000 5.1 260 17:39 20.08.2019
3342 Clouds 22 1023 40 10000 5.1 260 17:20 20.08.2019
3343 Clouds 22 1023 40 10000 5.1 260 17:20 20.08.2019
3344 Clouds 21 1023 49 10000 6.2 270 16:46 20.08.2019
3345 Clouds 21 1023 49 10000 6.2 270 16:26 20.08.2019
3346 Clouds 21 1023 49 10000 3.6 280 15:58 20.08.2019
3347 Clouds 21 1023 46 10000 3.6 240 15:40 20.08.2019
3348 Clouds 21 1023 46 10000 3.6 240 15:18 20.08.2019
3349 Clouds 20 1023 49 10000 1.5 0 14:44 20.08.2019
3350 Clouds 20 1023 52 10000 2.1 150 14:22 20.08.2019
3351 Clouds 20 1023 52 10000 2.1 150 14:22 20.08.2019
3352 Clouds 20 1023 52 10000 2.1 150 13:58 20.08.2019
3353 Clouds 20 1023 55 10000 2.6 240 13:39 20.08.2019
3354 Clouds 20 1023 55 10000 1.5 0 13:21 20.08.2019
3355 Clouds 19 1023 55 10000 1.5 0 12:54 20.08.2019
3356 Clouds 19 1023 59 10000 1.5 180 12:36 20.08.2019
3357 Clouds 19 1023 63 10000 1.5 200 12:18 20.08.2019
3358 Clouds 18 1023 67 10000 1.5 210 11:42 20.08.2019
3359 Clouds 18 1023 67 10000 1.5 210 11:22 20.08.2019
3360 Clouds 17 1023 67 10000 1 0 10:58 20.08.2019
3361 Clouds 17 1023 67 10000 2.1 180 10:39 20.08.2019
3362 Clouds 17 1023 67 10000 2.1 180 10:39 20.08.2019
3363 Clouds 16 1023 72 10000 2.6 190 10:21 20.08.2019
3364 Clouds 16 1023 72 10000 2.6 190 09:58 20.08.2019
3365 Clear 15 1022 82 10000 2.6 140 09:40 20.08.2019
3366 Clear 15 1022 82 10000 2.6 140 09:21 20.08.2019
3367 Clear 14 1022 87 10000 0.5 0 08:42 20.08.2019
3368 Clear 13 1022 93 10000 1 0 08:24 20.08.2019
3369 Clear 13 1022 93 10000 1 0 07:58 20.08.2019
3370 Clear 13 1022 100 10000 1 0 07:39 20.08.2019
3371 Clear 12 1021 100 10000 0.5 0 07:20 20.08.2019
3372 Clouds 12 1021 76 10000 2.42 216.566 06:46 20.08.2019
3373 Clouds 12 1021 76 10000 2.42 216.566 06:46 20.08.2019
3374 Clear 12 1021 87 10000 1 0 06:21 20.08.2019
3375 Clouds 12 1021 76 10000 2.1 250 05:47 20.08.2019
3376 Clear 12 1021 82 10000 1 0 04:30 20.08.2019
3377 Clouds 14 1021 82 10000 1.5 50 02:58 20.08.2019
3378 Clear 15 1020 77 10000 1.5 150 02:18 20.08.2019
3379 Clear 15 1020 82 10000 0.5 0 01:22 20.08.2019
3380 Clear 15 1020 76 10000 2.1 170 00:45 20.08.2019
3381 Clear 15 1020 76 10000 2.1 170 00:26 20.08.2019
3382 Clear 15 1019 76 10000 1.5 0 23:52 19.08.2019
3383 Clear 15 1019 76 10000 1.5 0 23:52 19.08.2019
3384 Clear 16 1019 72 10000 0.5 0 23:19 19.08.2019
3385 Clear 16 1019 72 10000 0.5 0 22:59 19.08.2019
3386 Rain 17 1019 67 10000 1 0 22:41 19.08.2019
3387 Clear 17 1018 67 10000 1.5 210 22:21 19.08.2019
3388 Clear 17 1018 67 10000 1.5 210 22:21 19.08.2019
3389 Clear 18 1018 67 10000 1.5 210 21:58 19.08.2019
3390 Clear 18 1018 52 10000 3.1 240 21:39 19.08.2019
3391 Clear 19 1018 49 10000 2.6 230 21:20 19.08.2019
3392 Clear 19 1018 49 10000 2.6 230 20:58 19.08.2019
3393 Clear 20 1018 46 10000 3.6 240 20:38 19.08.2019
3394 Clear 20 1018 43 10000 3.1 250 20:19 19.08.2019
3395 Clear 21 1018 43 10000 3.1 250 19:55 19.08.2019
3396 -273 0 0 0 0 0 19:55 19.08.2019
3397 Clear 21 1018 43 10000 3.1 250 19:37 19.08.2019
3398 Clear 22 1018 40 10000 4.1 250 19:18 19.08.2019
3399 Clear 22 1018 40 10000 4.1 250 19:18 19.08.2019
3400 Clear 22 1018 40 10000 4.1 250 19:18 19.08.2019
3401 Clear 22 1018 43 10000 4.6 250 18:44 19.08.2019
3402 Clear 22 1018 43 10000 4.6 250 18:26 19.08.2019
3403 Clear 22 1017 40 10000 5.1 270 17:58 19.08.2019
3404 Clouds 22 1018 49 10000 4.1 260 17:40 19.08.2019
3405 Clouds 22 1018 49 10000 4.1 260 17:19 19.08.2019
3406 Clear 22 1017 40 10000 5.7 260 16:58 19.08.2019
3407 Clear 22 1017 40 10000 5.7 260 16:37 19.08.2019
3408 Clear 22 1017 40 10000 5.7 280 16:18 19.08.2019
3409 Clear 22 1017 40 10000 5.1 260 15:55 19.08.2019
3410 Clear 22 1017 40 10000 5.1 270 15:36 19.08.2019
3411 Clear 22 1017 40 10000 5.1 270 15:18 19.08.2019
3412 Clear 21 1017 40 10000 5.7 260 14:40 19.08.2019
3413 Clouds 21 1017 49 10000 4.6 270 14:21 19.08.2019
3414 Clouds 22 1017 49 10000 3.1 250 13:57 19.08.2019
3415 Clouds 21 1017 49 10000 3.1 250 13:37 19.08.2019
3416 Clouds 21 1017 49 10000 5.7 240 13:19 19.08.2019
3417 Clouds 20 1017 52 10000 5.1 260 12:44 19.08.2019
3418 Clouds 20 1017 59 10000 5.1 260 12:24 19.08.2019
3419 Clouds 19 1016 63 10000 3.6 240 11:59 19.08.2019
3420 Clouds 19 1016 63 10000 3.6 240 11:39 19.08.2019
3421 Clouds 19 1016 63 10000 5.1 250 11:20 19.08.2019
3422 Clouds 18 1016 63 10000 5.7 240 10:55 19.08.2019
3423 Clouds 18 1016 63 10000 5.7 240 10:37 19.08.2019
3424 Clouds 17 1016 68 10000 4.6 240 10:18 19.08.2019
3425 Clear 16 1016 67 10000 4.1 230 09:43 19.08.2019
3426 Clear 16 1016 77 10000 2.6 190 09:23 19.08.2019
3427 Clear 15 1016 82 10000 3.1 190 08:56 19.08.2019
3428 Clear 14 1016 82 10000 3.1 190 08:38 19.08.2019
3429 Clear 14 1015 87 10000 3.1 160 08:19 19.08.2019
3430 Clear 13 1015 87 10000 2.1 150 07:48 19.08.2019
3431 Clear 13 1015 93 10000 0.5 0 07:30 19.08.2019
3432 Clear 13 1015 93 10000 1.5 60 06:48 19.08.2019
3433 Clear 13 1015 82 10000 2.6 190 06:27 19.08.2019
3434 Clear 13 1014 82 10000 3.1 230 04:57 19.08.2019
3435 Clear 14 1014 82 10000 2.6 270 04:27 19.08.2019
3436 Clear 14 1014 82 10000 2.6 270 04:27 19.08.2019
3437 Clear 14 1014 82 10000 2.6 270 04:27 19.08.2019
3438 Clear 14 1013 82 10000 3.6 230 03:23 19.08.2019
3439 Clear 15 1013 77 10000 3.6 240 02:29 19.08.2019
3440 Clouds 15 1012 82 10000 3.1 230 01:35 19.08.2019
3441 Clouds 16 1012 87 10000 2.1 220 00:44 19.08.2019
3442 Clouds 16 1012 87 10000 2.6 190 00:23 19.08.2019
3443 Clear 16 1011 93 10000 1.5 140 23:43 18.08.2019
3444 Clear 16 1011 93 10000 1.5 150 23:22 18.08.2019
3445 Clouds 16 1011 87 10000 1.5 160 22:57 18.08.2019
3446 Clouds 16 1011 87 10000 1.5 160 22:38 18.08.2019
3447 Clouds 17 1010 87 10000 0.5 0 22:20 18.08.2019
3448 Clouds 17 1010 82 10000 1 0 21:56 18.08.2019
3449 Clouds 18 1010 82 10000 1 0 21:37 18.08.2019
3450 Clouds 18 1010 82 10000 2.1 240 21:19 18.08.2019
3451 Clouds 19 1009 77 10000 2.6 260 20:45 18.08.2019
3452 Clouds 19 1009 77 10000 2.6 290 20:26 18.08.2019
3453 Clouds 19 1009 77 10000 3.1 290 19:59 18.08.2019
3454 Clouds 19 1009 77 10000 3.1 290 19:40 18.08.2019
3455 Clouds 19 1009 77 10000 3.1 290 19:40 18.08.2019
3456 Clouds 19 1009 82 10000 4.1 300 19:22 18.08.2019
3457 Clouds 19 1009 82 10000 5.1 290 18:56 18.08.2019
3458 Clouds 19 1009 82 10000 5.1 290 18:38 18.08.2019
3459 Clouds 20 1009 88 10000 5.1 290 18:19 18.08.2019
3460 Rain 19 1008 82 7000 6.2 290 17:43 18.08.2019
3461 Rain 19 1007 93 7000 1 0 17:19 18.08.2019
3462 Rain 19 1007 93 7000 1 0 17:19 18.08.2019
3463 Rain 19 1007 88 5000 3.1 360 16:59 18.08.2019
3464 Rain 19 1007 88 5000 3.1 360 16:41 18.08.2019
3465 Clouds 19 1006 82 10000 1.5 360 16:21 18.08.2019
3466 Rain 20 1006 82 10000 2.1 10 15:59 18.08.2019
3467 Rain 20 1006 82 10000 2.1 10 15:39 18.08.2019
3468 Rain 20 1006 82 10000 3.6 270 15:20 18.08.2019
3469 Rain 20 1006 82 10000 3.6 270 15:20 18.08.2019
3470 Rain 19 1006 82 10000 4.1 300 14:57 18.08.2019
3471 Rain 19 1006 82 10000 4.1 300 14:38 18.08.2019
3472 Rain 19 1005 82 9000 6.7 280 14:19 18.08.2019
3473 Rain 19 1005 78 10000 4.6 190 13:56 18.08.2019
3474 Drizzle 19 1005 78 10000 4.6 190 13:37 18.08.2019
3475 Drizzle 19 1005 78 10000 5.7 190 13:19 18.08.2019
3476 Rain 18 1004 78 10000 5.7 160 12:41 18.08.2019
3477 Rain 18 1004 88 10000 5.1 130 12:22 18.08.2019
3478 Rain 17 1005 88 10000 5.7 140 11:55 18.08.2019
3479 Rain 16 1005 88 10000 5.7 140 11:36 18.08.2019
3480 Rain 16 1005 88 10000 5.7 140 11:18 18.08.2019
3481 Rain 16 1005 88 10000 4.1 130 10:41 18.08.2019
3482 Rain 15 1005 93 10000 3.6 90 10:21 18.08.2019
3483 Rain 15 1006 93 9000 3.6 90 09:51 18.08.2019
3484 Rain 15 1007 93 10000 2.1 80 09:23 18.08.2019
3485 Rain 14 1007 93 10000 3.1 130 08:58 18.08.2019
3486 Rain 14 1007 93 10000 3.1 130 08:40 18.08.2019
3487 Rain 14 1007 93 10000 2.6 120 08:21 18.08.2019
3488 Rain 14 1007 93 10000 1.5 70 07:48 18.08.2019
3489 Rain 14 1007 93 10000 1.5 70 07:48 18.08.2019
3490 Rain 14 1007 93 10000 3.1 50 07:29 18.08.2019
3491 Rain 14 1008 93 10000 6.7 300 05:48 18.08.2019
3492 Rain 15 1007 93 10000 1.5 140 04:54 18.08.2019
3493 Rain 17 1007 93 10000 2.1 120 03:42 18.08.2019
3494 Rain 18 1008 93 10000 3.1 130 02:46 18.08.2019
3495 Rain 18 1008 93 10000 4.1 140 02:24 18.08.2019
3496 Rain 18 1008 93 10000 4.1 130 01:47 18.08.2019
3497 Rain 19 1009 93 10000 3.6 130 01:19 18.08.2019
3498 Rain 19 1009 93 10000 3.6 130 00:38 18.08.2019
3499 Rain 19 1009 93 10000 3.6 130 00:19 18.08.2019
3500 Rain 19 1009 93 10000 3.1 130 23:57 17.08.2019
3501 Rain 19 1009 93 10000 3.1 130 23:37 17.08.2019
3502 Rain 19 1009 93 10000 4.1 140 23:18 17.08.2019
3503 Rain 19 1009 93 10000 4.1 140 23:18 17.08.2019
3504 Clear 19 1009 93 10000 3.6 140 22:56 17.08.2019
3505 Clear 19 1009 93 10000 3.6 140 22:37 17.08.2019
3506 Rain 19 1009 93 10000 4.6 140 22:19 17.08.2019
3507 Rain 19 1009 93 10000 4.1 150 21:41 17.08.2019
3508 Rain 20 1009 88 10000 3.6 140 21:23 17.08.2019
3509 Rain 20 1009 88 10000 3.6 140 21:23 17.08.2019
3510 Rain 20 1009 88 10000 5.1 160 20:56 17.08.2019
3511 Rain 20 1009 88 10000 5.1 160 20:36 17.08.2019
3512 Clouds 20 1009 82 10000 5.1 160 20:18 17.08.2019
3513 Clouds 20 1010 82 10000 5.1 180 19:41 17.08.2019
3514 Clouds 20 1009 88 10000 4.6 170 19:22 17.08.2019
3515 Clouds 20 1009 88 10000 4.6 170 19:22 17.08.2019
3516 Rain 20 1009 82 10000 4.6 180 18:55 17.08.2019
3517 Rain 20 1009 82 10000 4.6 180 18:37 17.08.2019
3518 Rain 20 1009 82 10000 4.6 180 18:18 17.08.2019
3519 Rain 20 1009 68 10000 6.2 190 17:42 17.08.2019
3520 Drizzle 20 1009 68 10000 5.7 210 17:21 17.08.2019
3521 Clouds 20 1009 68 10000 6.7 190 16:56 17.08.2019
3522 Clouds 21 1009 68 10000 5.7 200 16:37 17.08.2019
3523 Clouds 21 1009 68 10000 5.7 200 16:19 17.08.2019
3524 Clouds 20 1009 68 10000 5.1 200 15:42 17.08.2019
3525 Clouds 21 1009 68 10000 4.6 220 15:22 17.08.2019
3526 Clouds 21 1009 68 10000 4.1 220 14:58 17.08.2019
3527 Clouds 21 1009 68 10000 4.1 220 14:39 17.08.2019
3528 Rain 21 1009 64 10000 3.1 180 14:21 17.08.2019
3529 Clouds 21 1010 60 10000 4.6 200 13:45 17.08.2019
3530 Clouds 21 1010 60 10000 4.6 200 13:45 17.08.2019
3531 Clouds 20 1010 60 10000 4.6 200 13:20 17.08.2019
3532 Rain 20 1010 64 10000 4.1 200 12:45 17.08.2019
3533 Clouds 20 1010 60 10000 4.6 210 12:20 17.08.2019
3534 Clouds 20 1010 68 10000 4.1 190 11:59 17.08.2019
3535 Clouds 20 1010 68 10000 4.1 190 11:39 17.08.2019
3536 Rain 20 1010 64 10000 5.1 190 11:20 17.08.2019
3537 Rain 19 1010 60 10000 5.7 180 10:42 17.08.2019
3538 Rain 19 1010 60 10000 5.7 180 10:42 17.08.2019
3539 Clear 19 1010 64 10000 4.6 170 10:22 17.08.2019
3540 Rain 19 1010 72 10000 4.1 150 09:59 17.08.2019
3541 Rain 19 1010 72 10000 4.1 150 09:41 17.08.2019
3542 Rain 19 1010 68 10000 4.1 150 09:23 17.08.2019
3543 Rain 18 1010 77 10000 3.6 160 08:52 17.08.2019
3544 Clear 18 1010 72 10000 4.6 160 08:23 17.08.2019
3545 Clouds 18 1009 72 10000 4.6 180 07:44 17.08.2019
3546 Clouds 18 1009 72 10000 4.1 150 07:20 17.08.2019
3547 Clouds 18 1009 72 10000 4.1 150 07:20 17.08.2019
3548 Clear 18 1009 77 10000 4.6 160 06:34 17.08.2019
3549 Clear 17 1010 77 10000 5.7 140 04:52 17.08.2019
3550 Clear 17 1010 77 10000 5.1 140 04:27 17.08.2019
3551 Rain 17 1011 77 10000 2.6 120 02:49 17.08.2019
3552 Rain 17 1012 68 10000 3.6 140 01:40 17.08.2019
3553 Rain 18 1012 68 10000 3.6 140 01:21 17.08.2019
3554 Rain 18 1012 68 10000 3.6 140 00:48 17.08.2019
3555 Clear 18 1013 63 10000 3.1 130 00:26 17.08.2019
3556 Clear 18 1013 68 10000 3.1 140 23:47 16.08.2019
3557 Clear 18 1013 68 10000 3.1 140 23:25 16.08.2019
3558 Clear 18 1013 63 10000 2.6 140 22:55 16.08.2019
3559 Clear 19 1013 63 10000 2.6 140 22:36 16.08.2019
3560 Clear 19 1013 59 10000 3.1 150 22:18 16.08.2019
3561 Clear 20 1013 63 10000 2.6 180 21:39 16.08.2019
3562 Clear 20 1013 60 10000 3.1 200 21:19 16.08.2019
3563 Clear 20 1013 56 10000 2.6 190 20:55 16.08.2019
3564 Clear 21 1013 56 10000 2.6 190 20:37 16.08.2019
3565 Clear 21 1013 52 10000 3.1 190 20:18 16.08.2019
3566 Clear 22 1014 49 10000 3.6 200 19:41 16.08.2019
3567 Clear 22 1014 46 10000 3.6 190 19:22 16.08.2019
3568 Clear 23 1014 46 10000 2.6 0 18:44 16.08.2019
3569 Clear 23 1014 46 10000 3.1 190 18:26 16.08.2019
3570 Clear 22 1015 46 10000 4.1 210 17:57 16.08.2019
3571 Clear 23 1015 46 10000 4.1 210 17:39 16.08.2019
3572 Clear 22 1015 46 10000 2.1 220 17:20 16.08.2019
3573 Clear 22 1015 46 10000 2.1 220 17:20 16.08.2019
3574 Clear 23 1015 43 10000 3.1 230 16:42 16.08.2019
3575 Clear 22 1016 43 10000 3.6 220 16:22 16.08.2019
3576 Clouds 22 1016 46 10000 4.1 230 15:59 16.08.2019
3577 Clouds 22 1016 46 10000 4.1 230 15:40 16.08.2019
3578 Clouds 22 1016 46 10000 5.1 240 15:21 16.08.2019
3579 Clouds 22 1016 46 10000 5.1 240 15:21 16.08.2019
3580 Clouds 22 1016 46 10000 5.7 230 14:58 16.08.2019
3581 Clouds 21 1016 46 10000 5.7 230 14:39 16.08.2019
3582 Clouds 21 1016 46 10000 5.7 230 14:39 16.08.2019
3583 Clouds 21 1017 53 10000 5.7 240 14:19 16.08.2019
3584 Clouds 21 1017 52 10000 3.6 200 13:57 16.08.2019
3585 Clouds 21 1017 52 10000 3.6 200 13:37 16.08.2019
3586 Clouds 21 1017 56 10000 3.6 200 13:18 16.08.2019
3587 Clouds 20 1017 64 10000 3.6 200 12:38 16.08.2019
3588 Clouds 20 1017 60 10000 4.1 190 12:20 16.08.2019
3589 Clouds 19 1018 64 10000 4.1 180 11:42 16.08.2019
3590 Clouds 19 1018 68 0 3.6 180 11:24 16.08.2019
3591 Clouds 18 1018 72 10000 3.6 180 10:45 16.08.2019
3592 Clouds 17 1018 72 10000 3.6 200 10:27 16.08.2019
3593 Clouds 17 1018 77 10000 3.1 190 09:58 16.08.2019
3594 Clouds 16 1018 77 10000 3.1 190 09:37 16.08.2019
3595 Clouds 16 1018 82 10000 2.6 170 09:18 16.08.2019
3596 Clouds 16 1018 87 10000 2.1 160 08:56 16.08.2019
3597 Clouds 15 1018 87 10000 2.1 160 08:37 16.08.2019
3598 Clouds 15 1018 87 10000 1.5 0 08:18 16.08.2019
3599 Clouds 14 1018 87 10000 1.5 0 07:42 16.08.2019
3600 Clouds 14 1018 87 10000 1.5 180 07:24 16.08.2019
3601 Clouds 14 1018 87 10000 1 0 06:34 16.08.2019
3602 Clouds 14 1017 93 10000 1 0 05:58 16.08.2019
3603 Clouds 14 1017 93 10000 0.5 0 05:32 16.08.2019
3604 Rain 14 1017 93 10000 1 0 03:19 16.08.2019
3605 Clear 15 1017 93 10000 1.5 170 01:45 16.08.2019
3606 Clouds 15 1017 93 10000 1 0 01:25 16.08.2019
3607 Clouds 15 1017 87 10000 1.5 250 00:48 16.08.2019
3608 Clouds 15 1017 87 10000 2.1 240 00:22 16.08.2019
3609 Clouds 16 1016 93 10000 2.1 230 23:55 15.08.2019
3610 Clouds 16 1016 93 10000 2.1 230 23:37 15.08.2019
3611 Clouds 16 1016 93 10000 1.5 270 23:18 15.08.2019
3612 Clouds 16 1016 87 10000 3.1 270 22:41 15.08.2019
3613 Clouds 16 1016 82 10000 3.1 260 22:22 15.08.2019
3614 Clouds 16 1015 87 10000 2.6 260 21:58 15.08.2019
3615 Clouds 16 1015 87 10000 2.6 260 21:39 15.08.2019
3616 Clouds 17 1015 87 10000 2.6 270 21:19 15.08.2019
3617 Rain 17 1014 87 10000 5.1 280 20:57 15.08.2019
3618 Rain 17 1014 87 10000 5.1 280 20:38 15.08.2019
3619 Rain 18 1013 88 10000 5.1 240 20:20 15.08.2019
3620 Rain 18 1013 82 10000 4.1 260 19:40 15.08.2019
3621 Rain 19 1013 77 10000 4.6 280 19:21 15.08.2019
3622 Rain 19 1013 88 10000 6.2 250 18:57 15.08.2019
3623 Rain 19 1013 88 9000 6.7 280 18:39 15.08.2019
3624 Rain 20 1012 53 10000 7.2 280 18:21 15.08.2019
3625 Rain 20 1012 88 10000 9.3 260 17:54 15.08.2019
3626 Rain 20 1012 56 10000 7.7 270 17:36 15.08.2019
3627 Rain 20 1011 56 10000 7.7 270 17:18 15.08.2019
3628 Rain 21 1011 53 10000 7.7 260 16:43 15.08.2019
3629 Rain 21 1011 56 10000 6.7 280 16:24 15.08.2019
3630 Clouds 22 1011 53 10000 6.7 260 15:56 15.08.2019
3631 Clouds 21 1011 53 10000 6.7 260 15:38 15.08.2019
3632 Clouds 21 1011 60 10000 7.2 250 15:18 15.08.2019
3633 Rain 20 1011 60 10000 6.7 250 14:42 15.08.2019
3634 Rain 19 1011 64 10000 7.7 250 14:23 15.08.2019
3635 Rain 19 1010 60 10000 7.7 250 13:57 15.08.2019
3636 Rain 20 1010 60 10000 7.7 250 13:39 15.08.2019
3637 Rain 20 1010 60 10000 6.7 250 13:20 15.08.2019
3638 Rain 20 1010 60 10000 6.7 250 13:20 15.08.2019
3639 Rain 20 1010 60 10000 6.2 260 12:56 15.08.2019
3640 Rain 20 1010 60 10000 6.2 260 12:38 15.08.2019
3641 Clouds 20 1010 64 10000 5.1 250 12:18 15.08.2019
3642 Clouds 19 1010 68 10000 6.2 240 11:57 15.08.2019
3643 Clouds 19 1010 77 10000 5.7 240 11:36 15.08.2019
3644 Clouds 19 1010 77 10000 5.7 240 11:18 15.08.2019
3645 Clouds 19 1010 88 10000 3.1 190 10:39 15.08.2019
3646 Clouds 18 1010 93 10000 3.6 160 10:20 15.08.2019
3647 Clouds 18 1011 93 10000 3.1 160 09:58 15.08.2019
3648 Clouds 17 1011 93 10000 3.1 160 09:39 15.08.2019
3649 Rain 17 1011 87 10000 4.1 160 09:21 15.08.2019
3650 Rain 16 1010 93 10000 4.1 150 08:38 15.08.2019
3651 Rain 16 1010 93 10000 4.1 150 08:19 15.08.2019
3652 Rain 16 1010 93 10000 4.6 150 07:46 15.08.2019
3653 Rain 16 1010 93 10000 4.6 150 07:46 15.08.2019
3654 Rain 16 1010 82 10000 2.6 220 07:28 15.08.2019
3655 Drizzle 16 1010 87 10000 4.1 140 06:57 15.08.2019
3656 Drizzle 16 1010 87 10000 4.1 140 06:39 15.08.2019
3657 Drizzle 16 1010 87 10000 4.6 140 06:21 15.08.2019
3658 Rain 16 1011 87 10000 4.1 130 05:29 15.08.2019
3659 Rain 16 1011 87 10000 4.1 120 04:50 15.08.2019
3660 Rain 16 1012 87 10000 4.6 130 03:49 15.08.2019
3661 Rain 16 1013 93 10000 4.1 150 02:52 15.08.2019
3662 Rain 16 1013 82 10000 4.1 140 02:18 15.08.2019
3663 Rain 17 1013 72 10000 4.1 120 01:38 15.08.2019
3664 Rain 17 1013 72 10000 2.6 120 00:54 15.08.2019
3665 Rain 17 1013 72 10000 2.6 120 00:36 15.08.2019
3666 Rain 18 1013 59 10000 3.6 130 00:18 15.08.2019
3667 Rain 18 1014 59 10000 4.6 140 23:41 14.08.2019
3668 Rain 19 1014 59 10000 4.1 130 23:20 14.08.2019
3669 Clear 19 1014 59 10000 3.1 140 22:59 14.08.2019
3670 Clear 19 1014 59 10000 3.1 140 22:40 14.08.2019
3671 Clear 19 1014 59 10000 3.1 150 22:22 14.08.2019
3672 Rain 19 1014 59 10000 2.6 170 21:57 14.08.2019
3673 Rain 19 1014 59 10000 2.6 170 21:38 14.08.2019
3674 Rain 20 1014 52 10000 3.1 180 21:20 14.08.2019
3675 Clear 20 1015 49 10000 3.1 190 20:56 14.08.2019
3676 Clear 20 1015 49 10000 3.1 190 20:37 14.08.2019
3677 Rain 21 1015 49 10000 3.6 210 20:18 14.08.2019
3678 Clear 22 1015 40 10000 2.6 190 19:40 14.08.2019
3679 Clear 22 1015 40 10000 2.6 190 19:22 14.08.2019
3680 Clear 22 1015 37 10000 3.6 210 18:59 14.08.2019
3681 Clear 22 1015 37 10000 3.6 210 18:39 14.08.2019
3682 Clear 23 1016 33 10000 5.1 200 18:21 14.08.2019
3683 Clear 23 1016 33 10000 5.1 250 17:59 14.08.2019
3684 Clear 23 1016 33 10000 5.1 250 17:40 14.08.2019
3685 Clear 22 1016 37 10000 4.1 210 17:21 14.08.2019
3686 Clear 22 1016 35 10000 4.1 200 16:56 14.08.2019
3687 Clear 22 1017 40 10000 2.6 200 16:38 14.08.2019
3688 Clear 22 1017 40 10000 2.6 200 16:19 14.08.2019
3689 Clear 22 1017 37 10000 2.1 0 15:43 14.08.2019
3690 Clear 22 1017 37 10000 2.1 0 15:43 14.08.2019
3691 Clear 22 1017 40 10000 3.1 0 15:19 14.08.2019
3692 Clear 22 1017 40 10000 3.1 0 15:19 14.08.2019
3693 Clear 22 1017 40 10000 3.1 0 15:19 14.08.2019
3694 Clear 22 1018 37 10000 4.1 200 14:57 14.08.2019
3695 Clear 21 1018 37 10000 4.1 200 14:39 14.08.2019
3696 Clouds 21 1018 43 10000 2.1 0 14:19 14.08.2019
3697 Clouds 20 1018 45 10000 3.1 150 13:44 14.08.2019
3698 Clouds 20 1018 49 10000 3.1 210 13:24 14.08.2019
3699 Clouds 19 1019 55 10000 3.6 180 12:59 14.08.2019
3700 Clouds 19 1019 55 10000 3.6 180 12:40 14.08.2019
3701 Clouds 19 1019 52 10000 3.6 190 12:22 14.08.2019
3702 Clouds 18 1019 59 10000 2.6 180 11:57 14.08.2019
3703 Clouds 18 1019 59 10000 2.6 180 11:39 14.08.2019
3704 Clouds 18 1019 63 10000 2.1 160 11:21 14.08.2019
3705 Clouds 16 1019 72 10000 2.1 160 10:45 14.08.2019
3706 Clear 16 1020 77 10000 2.1 140 10:25 14.08.2019
3707 Clear 15 1020 76 10000 2.6 160 09:59 14.08.2019
3708 Clear 14 1020 76 10000 2.6 160 09:41 14.08.2019
3709 Clear 14 1020 82 10000 2.6 120 09:20 14.08.2019
3710 Clear 12 1019 87 10000 2.1 130 08:41 14.08.2019
3711 Clear 12 1019 87 10000 1 0 08:23 14.08.2019
3712 Clear 10 1019 93 10000 1.5 20 07:54 14.08.2019
3713 Clear 10 1019 100 10000 0.5 0 07:34 14.08.2019
3714 Clear 10 1019 100 10000 1 0 06:49 14.08.2019
3715 Clear 11 1019 93 10000 1 0 06:18 14.08.2019
3716 Clear 10 1019 93 10000 1 0 05:28 14.08.2019
3717 Clear 10 1019 93 10000 1 0 05:28 14.08.2019
3718 Clear 11 1019 87 10000 1.5 130 03:40 14.08.2019
3719 Clear 11 1019 81 10000 2.1 140 02:36 14.08.2019
3720 Clear 12 1019 81 10000 2.1 210 01:55 14.08.2019
3721 Clear 12 1019 82 10000 2.1 210 01:23 14.08.2019
3722 Clear 13 1019 87 10000 1 0 00:23 14.08.2019
3723 Clouds 13 1019 93 10000 2.1 150 23:40 13.08.2019
3724 Clear 13 1019 87 10000 1 0 23:19 13.08.2019
3725 Rain 13 1019 87 10000 1 0 22:56 13.08.2019
3726 Rain 13 1019 87 10000 1 0 22:56 13.08.2019
3727 Rain 13 1019 87 10000 1 0 22:38 13.08.2019
3728 Rain 13 1019 82 10000 1.5 130 22:19 13.08.2019
3729 Thunderstorm 14 1019 82 10000 1.5 130 21:54 13.08.2019
3730 Thunderstorm 14 1019 82 10000 1.5 130 21:36 13.08.2019
3731 Thunderstorm 15 1019 77 10000 2.1 120 21:18 13.08.2019
3732 Rain 15 1018 77 10000 2.1 80 20:42 13.08.2019
3733 Rain 15 1018 77 10000 1.5 0 20:19 13.08.2019
3734 Rain 15 1019 72 10000 3.6 260 19:56 13.08.2019
3735 Rain 15 1019 72 10000 3.6 260 19:38 13.08.2019
3736 Rain 15 1018 67 10000 5.1 300 19:19 13.08.2019
3737 Rain 16 1018 63 10000 7.7 290 18:41 13.08.2019
3738 Rain 16 1018 63 10000 7.7 290 18:41 13.08.2019
3739 Rain 16 1018 59 10000 11.3 300 18:22 13.08.2019
3740 Rain 17 1017 45 10000 6.2 260 17:56 13.08.2019
3741 Rain 17 1017 45 10000 6.2 260 17:38 13.08.2019
3742 Rain 18 1017 42 10000 5.1 260 17:18 13.08.2019
3743 Rain 19 1017 40 10000 5.1 250 16:54 13.08.2019
3744 Rain 20 1017 37 10000 4.1 250 16:36 13.08.2019
3745 Rain 20 1017 37 10000 4.1 250 16:18 13.08.2019
3746 Clear 20 1018 42 10000 5.1 250 15:38 13.08.2019
3747 Clear 20 1018 40 10000 4.6 250 15:20 13.08.2019
3748 Clear 20 1018 40 10000 6.2 230 14:55 13.08.2019
3749 Clear 19 1018 40 10000 6.2 230 14:37 13.08.2019
3750 Clouds 19 1018 43 10000 5.7 260 14:18 13.08.2019
3751 Clouds 19 1018 49 10000 6.7 250 13:41 13.08.2019
3752 Clouds 19 1018 49 10000 6.7 250 13:21 13.08.2019
3753 Clouds 19 1018 52 10000 6.2 270 12:57 13.08.2019
3754 Clouds 19 1018 52 10000 6.2 270 12:39 13.08.2019
3755 Clouds 18 1019 55 10000 5.1 250 12:21 13.08.2019
3756 Clouds 17 1019 59 10000 5.7 250 11:56 13.08.2019
3757 Clouds 17 1019 59 10000 5.7 250 11:37 13.08.2019
3758 Clouds 17 1019 63 10000 4.6 270 11:18 13.08.2019
3759 Clouds 16 1018 67 10000 4.6 250 10:55 13.08.2019
3760 Clouds 16 1018 67 10000 4.6 250 10:36 13.08.2019
3761 Clouds 16 1018 72 10000 5.7 250 10:18 13.08.2019
3762 -273 0 0 0 0 0 09:41 13.08.2019
3763 Clouds 14 1018 77 10000 5.1 270 09:22 13.08.2019
3764 Clouds 14 1018 87 10000 3.6 260 08:42 13.08.2019
3765 Clouds 13 1017 87 10000 3.6 250 08:22 13.08.2019
3766 Clouds 13 1017 87 10000 4.1 250 07:56 13.08.2019
3767 Rain 13 1017 87 10000 4.1 240 07:32 13.08.2019
3768 Clouds 13 1017 87 10000 3.6 240 06:53 13.08.2019
3769 Clouds 13 1017 87 10000 3.6 240 06:34 13.08.2019
3770 Clouds 13 1016 87 10000 2.6 230 05:34 13.08.2019
3771 Clear 13 1016 93 10000 2.1 130 02:38 13.08.2019
3772 Clouds 13 1016 93 10000 1 0 01:59 13.08.2019
3773 Rain 13 1016 87 10000 1.5 120 00:56 13.08.2019
3774 Clouds 13 1016 87 10000 1.5 120 00:37 13.08.2019
3775 Clouds 13 1016 93 10000 2.1 130 23:56 12.08.2019
3776 Clouds 13 1016 93 10000 2.1 130 23:36 12.08.2019
3777 Clouds 13 1016 93 10000 2.1 150 23:18 12.08.2019
3778 Rain 14 1016 93 10000 2.1 140 22:40 12.08.2019
3779 Rain 14 1016 93 10000 2.1 140 22:19 12.08.2019
3780 Rain 14 1016 93 10000 3.1 190 21:55 12.08.2019
3781 Rain 14 1016 93 10000 3.1 190 21:37 12.08.2019
3782 Rain 14 1015 87 10000 2.6 140 21:18 12.08.2019
3783 Rain 15 1016 93 10000 2.6 210 20:57 12.08.2019
3784 Rain 15 1015 87 10000 2.6 240 20:38 12.08.2019
3785 Rain 15 1015 87 10000 2.6 240 20:20 12.08.2019
3786 Rain 15 1015 87 10000 2.6 240 20:20 12.08.2019
3787 Rain 15 1015 82 10000 4.6 260 19:55 12.08.2019
3788 Rain 15 1015 82 10000 4.6 260 19:37 12.08.2019
3789 Rain 15 1015 93 8000 5.1 240 19:18 12.08.2019
3790 Rain 16 1014 72 10000 1.5 0 18:55 12.08.2019
3791 Rain 16 1014 72 10000 1.5 0 18:55 12.08.2019
3792 Rain 17 1015 82 6000 7.2 230 18:37 12.08.2019
3793 Rain 17 1015 82 6000 7.2 230 18:18 12.08.2019
3794 Rain 17 1015 82 6000 7.2 230 18:18 12.08.2019
3795 Thunderstorm 17 1015 77 10000 2.1 140 17:46 12.08.2019
3796 Rain 18 1015 82 10000 2.1 180 17:28 12.08.2019
3797 Rain 18 1015 82 10000 1.5 70 16:57 12.08.2019
3798 Rain 18 1015 82 10000 1.5 70 16:39 12.08.2019
3799 -273 0 0 0 0 0 16:20 12.08.2019
3800 Rain 18 1015 82 10000 2.6 60 16:20 12.08.2019
3801 Thunderstorm 19 1015 93 10000 2.1 0 15:58 12.08.2019
3802 -273 0 0 0 0 0 15:39 12.08.2019
3803 -273 0 0 0 0 0 15:39 12.08.2019
3804 Thunderstorm 21 1015 68 10000 3.1 180 15:20 12.08.2019
3805 Rain 21 1015 63 10000 1.5 30 14:55 12.08.2019
3806 Rain 22 1015 63 10000 1.5 30 14:37 12.08.2019
3807 Rain 22 1015 63 10000 1.5 30 14:37 12.08.2019
3808 Thunderstorm 22 1015 77 8000 6.2 260 14:18 12.08.2019
3809 Clouds 22 1015 53 10000 3.1 120 13:42 12.08.2019
3810 Clouds 22 1015 52 10000 2.1 190 13:23 12.08.2019
3811 Clouds 22 1015 49 10000 1.5 0 12:44 12.08.2019
3812 Clouds 21 1016 56 10000 1.5 0 12:23 12.08.2019
3813 Clouds 21 1016 56 10000 2.6 250 11:58 12.08.2019
3814 Clouds 21 1016 56 10000 2.6 250 11:39 12.08.2019
3815 Clouds 20 1016 60 10000 1 0 11:21 12.08.2019
3816 Clouds 20 1016 56 10000 1.5 0 10:42 12.08.2019
3817 Clear 19 1016 63 10000 1.5 190 10:23 12.08.2019
3818 Clear 18 1016 67 10000 3.1 170 09:56 12.08.2019
3819 Clear 17 1016 67 10000 3.1 170 09:38 12.08.2019
3820 Clear 17 1016 67 10000 3.1 130 09:19 12.08.2019
3821 Clear 16 1016 72 10000 3.1 130 08:57 12.08.2019
3822 Clear 16 1016 72 10000 3.1 130 08:38 12.08.2019
3823 Clear 15 1016 77 10000 1.5 130 08:19 12.08.2019
3824 Clear 14 1016 76 10000 1.5 120 07:49 12.08.2019
3825 Clear 14 1016 82 10000 1.5 100 07:27 12.08.2019
3826 Clear 13 1016 82 10000 2.6 120 06:50 12.08.2019
3827 Clear 13 1016 76 10000 3.1 130 05:39 12.08.2019
3828 Clear 14 1016 76 10000 0.5 0 02:44 12.08.2019
3829 Clear 15 1016 82 10000 2.1 170 01:55 12.08.2019
3830 Clear 15 1016 77 10000 1.5 140 01:21 12.08.2019
3831 Clear 16 1016 72 10000 2.6 180 00:58 12.08.2019
3832 Clear 16 1016 72 10000 2.6 180 00:38 12.08.2019
3833 Clear 16 1016 72 10000 1.5 180 00:20 12.08.2019
3834 Clear 17 1015 72 10000 2.6 190 23:55 11.08.2019
3835 Clear 17 1015 72 10000 2.6 190 23:37 11.08.2019
3836 Clear 17 1015 67 10000 2.6 170 23:18 11.08.2019
3837 Clear 17 1015 63 10000 2.6 190 22:40 11.08.2019
3838 Clear 17 1015 63 10000 2.6 210 22:20 11.08.2019
3839 Clear 17 1015 63 10000 2.6 210 22:20 11.08.2019
3840 Clear 17 1015 63 10000 2.6 210 21:59 11.08.2019
3841 Clear 17 1015 63 10000 2.6 210 21:41 11.08.2019
3842 Clear 19 1015 55 10000 3.1 210 21:22 11.08.2019
3843 Clear 19 1015 52 10000 3.6 240 20:58 11.08.2019
3844 Clear 20 1015 52 10000 3.6 240 20:40 11.08.2019
3845 Clear 20 1014 49 10000 3.6 260 20:22 11.08.2019
3846 Clear 20 1014 49 10000 3.6 230 19:45 11.08.2019
3847 Clear 20 1014 49 10000 5.1 240 19:20 11.08.2019
3848 Rain 20 1014 46 10000 4.6 0 18:56 11.08.2019
3849 Rain 20 1014 46 10000 4.6 0 18:36 11.08.2019
3850 Rain 20 1014 46 10000 3.6 220 18:18 11.08.2019
3851 Rain 20 1014 49 10000 2.6 210 17:41 11.08.2019
3852 Clear 20 1014 46 10000 2.6 210 17:20 11.08.2019
3853 Clear 21 1015 46 10000 3.1 230 16:58 11.08.2019
3854 Clear 21 1015 46 10000 3.1 230 16:38 11.08.2019
3855 Clear 21 1015 43 10000 4.1 230 16:20 11.08.2019
3856 Clear 21 1015 43 10000 3.6 210 15:45 11.08.2019
3857 Clear 21 1014 43 10000 4.6 220 15:26 11.08.2019
3858 Clear 21 1014 43 10000 4.6 220 15:26 11.08.2019
3859 Clear 22 1014 40 10000 5.1 210 14:59 11.08.2019
3860 Clear 22 1014 40 10000 5.1 210 14:40 11.08.2019
3861 Clear 22 1015 36 10000 5.1 210 14:22 11.08.2019
3862 Clear 22 1015 40 10000 5.1 240 13:46 11.08.2019
3863 Clear 22 1015 38 10000 4.6 230 13:26 11.08.2019
3864 Clear 22 1016 40 10000 4.6 230 12:59 11.08.2019
3865 Clear 22 1016 40 10000 4.6 230 12:41 11.08.2019
3866 Clear 22 1016 43 10000 5.1 240 12:21 11.08.2019
3867 Clouds 22 1016 43 10000 5.1 250 11:40 11.08.2019
3868 Clouds 21 1016 52 10000 2.6 200 11:22 11.08.2019
3869 Clouds 21 1016 52 10000 3.1 210 10:57 11.08.2019
3870 Clouds 20 1016 52 10000 3.1 210 10:39 11.08.2019
3871 Clouds 20 1016 60 10000 2.6 230 10:20 11.08.2019
3872 Clear 20 1016 60 10000 2.6 220 09:55 11.08.2019
3873 Clear 19 1016 60 10000 2.6 220 09:37 11.08.2019
3874 Clear 18 1016 63 10000 2.1 200 09:18 11.08.2019
3875 Clear 17 1016 72 10000 2.6 160 08:41 11.08.2019
3876 Clear 16 1016 77 10000 1.5 140 08:22 11.08.2019
3877 Clear 16 1016 87 10000 1 0 07:47 11.08.2019
3878 Clear 15 1016 93 10000 0.5 0 07:20 11.08.2019
3879 Clear 15 1016 93 10000 2.6 50 06:38 11.08.2019
3880 Clear 15 1016 82 10000 1 0 05:34 11.08.2019
3881 Clear 17 1016 67 10000 3.1 200 02:54 11.08.2019
3882 Clear 17 1015 63 10000 4.1 200 02:26 11.08.2019
3883 Clear 17 1015 72 10000 3.6 180 01:35 11.08.2019
3884 Clear 18 1015 59 10000 4.1 190 00:59 11.08.2019
3885 Clear 18 1015 59 10000 4.1 190 00:40 11.08.2019
3886 Clear 19 1015 59 10000 3.6 190 00:22 11.08.2019
3887 Clear 19 1015 56 10000 4.1 190 23:39 10.08.2019
3888 Clear 20 1015 56 10000 4.1 190 23:20 10.08.2019
3889 Clear 20 1015 52 10000 4.1 200 22:43 10.08.2019
3890 Clear 20 1015 56 10000 3.6 200 22:24 10.08.2019
3891 Clear 21 1015 49 10000 3.6 200 21:57 10.08.2019
3892 Clear 21 1015 49 10000 3.6 200 21:38 10.08.2019
3893 Clear 22 1014 46 10000 4.1 210 21:18 10.08.2019
3894 Clear 22 1014 43 10000 5.1 210 20:56 10.08.2019
3895 Clear 23 1014 43 10000 5.1 210 20:37 10.08.2019
3896 Clear 23 1014 41 10000 5.7 220 20:18 10.08.2019
3897 Clear 24 1013 41 10000 7.2 240 19:39 10.08.2019
3898 Clear 24 1013 41 10000 7.2 240 19:20 10.08.2019
3899 Clear 24 1013 41 10000 6.7 230 18:40 10.08.2019
3900 Clear 24 1013 41 10000 6.7 230 18:40 10.08.2019
3901 Clear 24 1013 38 10000 8.7 230 18:22 10.08.2019
3902 Clear 24 1013 36 10000 10.3 240 17:45 10.08.2019
3903 Clear 24 1013 36 10000 10.3 240 17:25 10.08.2019
3904 Clear 24 1012 41 10000 8.2 240 16:47 10.08.2019
3905 Clear 24 1012 44 10000 9.3 230 16:28 10.08.2019
3906 Clear 24 1013 44 10000 9.3 230 15:58 10.08.2019
3907 Clear 24 1013 44 10000 9.3 230 15:40 10.08.2019
3908 Clear 24 1012 47 10000 8.2 230 15:21 10.08.2019
3909 Clear 24 1012 47 10000 7.7 220 14:43 10.08.2019
3910 Clouds 23 1012 53 10000 7.7 220 14:18 10.08.2019
3911 Clouds 23 1012 47 10000 9.3 220 13:39 10.08.2019
3912 Clouds 23 1012 50 10000 7.7 230 13:19 10.08.2019
3913 Clouds 22 1012 53 10000 8.2 220 12:43 10.08.2019
3914 Clouds 22 1012 53 10000 8.2 220 12:23 10.08.2019
3915 Rain 22 1012 60 10000 5.7 210 11:57 10.08.2019
3916 Rain 21 1012 60 10000 5.7 210 11:39 10.08.2019
3917 Rain 21 1012 64 10000 5.7 220 11:21 10.08.2019
3918 Clouds 21 1011 60 10000 8.2 220 10:55 10.08.2019
3919 Clouds 21 1011 60 10000 8.2 220 10:36 10.08.2019
3920 Clouds 21 1011 64 10000 7.7 230 10:18 10.08.2019
3921 Clouds 21 1011 64 10000 7.7 230 10:18 10.08.2019
3922 Clouds 20 1011 64 10000 8.2 220 09:40 10.08.2019
3923 Clouds 19 1011 72 10000 6.7 210 09:21 10.08.2019
3924 Clouds 19 1011 72 10000 5.7 210 08:41 10.08.2019
3925 Clouds 19 1011 77 10000 4.6 190 08:20 10.08.2019
3926 Clouds 18 1010 82 10000 4.1 170 07:54 10.08.2019
3927 Clouds 18 1010 82 10000 3.6 180 07:28 10.08.2019
3928 Clouds 18 1010 82 10000 4.1 180 06:49 10.08.2019
3929 Clear 18 1009 82 10000 3.1 170 06:26 10.08.2019
3930 Clear 18 1009 93 10000 4.1 170 05:25 10.08.2019
3931 Clear 19 1009 88 10000 3.6 180 04:31 10.08.2019
3932 Clear 19 1008 93 10000 4.1 160 02:54 10.08.2019
3933 Clear 19 1009 93 10000 4.6 150 02:26 10.08.2019
3934 Clear 19 1009 93 10000 3.6 170 01:42 10.08.2019
3935 Clear 19 1009 88 10000 5.1 170 01:22 10.08.2019
3936 Clear 19 1008 88 10000 4.6 160 00:49 10.08.2019
3937 Clear 19 1009 93 10000 4.6 160 00:25 10.08.2019
3938 Clouds 20 1009 94 10000 5.7 170 23:57 09.08.2019
3939 Clouds 20 1009 94 10000 5.7 170 23:36 09.08.2019
3940 Clouds 20 1008 94 10000 5.1 130 23:18 09.08.2019
3941 Rain 20 1008 94 10000 3.1 170 22:40 09.08.2019
3942 Rain 20 1008 94 10000 3.1 170 22:40 09.08.2019
3943 Rain 20 1008 94 10000 5.1 140 22:22 09.08.2019
3944 Rain 20 1008 94 10000 3.1 150 21:57 09.08.2019
3945 Rain 20 1008 94 10000 3.1 150 21:39 09.08.2019
3946 Rain 20 1008 100 10000 3.6 150 21:21 09.08.2019
3947 Rain 20 1008 100 10000 3.6 150 21:21 09.08.2019
3948 Rain 20 1008 94 10000 1.5 130 20:56 09.08.2019
3949 Rain 20 1008 94 10000 1.5 130 20:38 09.08.2019
3950 Rain 21 1008 94 10000 3.1 120 20:18 09.08.2019
3951 Rain 21 1008 94 10000 2.6 50 19:41 09.08.2019
3952 Rain 21 1008 94 6000 1.5 120 19:22 09.08.2019
3953 Rain 22 1009 94 5000 2.1 0 18:54 09.08.2019
3954 Rain 22 1009 94 5000 2.1 0 18:36 09.08.2019
3955 Rain 22 1007 88 10000 1.5 60 18:18 09.08.2019
3956 Rain 23 1008 83 10000 1 0 17:42 09.08.2019
3957 Rain 23 1007 88 10000 2.6 150 17:23 09.08.2019
3958 Rain 24 1008 78 10000 3.6 170 16:54 09.08.2019
3959 Rain 24 1008 78 10000 3.6 170 16:36 09.08.2019
3960 Rain 24 1008 69 10000 2.6 180 16:18 09.08.2019
3961 Rain 24 1008 69 10000 1.5 150 15:41 09.08.2019
3962 Rain 24 1008 69 10000 3.6 150 15:21 09.08.2019
3963 Rain 24 1008 64 10000 4.6 160 14:57 09.08.2019
3964 Rain 24 1008 64 10000 4.6 160 14:38 09.08.2019
3965 -273 0 0 0 0 0 14:20 09.08.2019
3966 Rain 25 1008 50 10000 6.2 150 13:45 09.08.2019
3967 Rain 25 1008 50 10000 5.1 140 13:21 09.08.2019
3968 Rain 25 1008 53 10000 4.1 120 12:56 09.08.2019
3969 Rain 24 1008 53 10000 4.1 120 12:37 09.08.2019
3970 Rain 24 1008 57 10000 4.1 130 12:18 09.08.2019
3971 Rain 24 1008 60 10000 5.1 130 11:41 09.08.2019
3972 Rain 23 1008 57 10000 5.7 130 11:21 09.08.2019
3973 Rain 22 1008 64 10000 5.7 140 10:54 09.08.2019
3974 Rain 22 1008 64 10000 5.7 140 10:36 09.08.2019
3975 Rain 21 1009 68 10000 3.6 120 10:18 09.08.2019
3976 Clear 20 1009 64 10000 4.6 120 09:41 09.08.2019
3977 Clear 20 1009 68 10000 3.6 120 09:19 09.08.2019
3978 Clear 19 1009 68 10000 2.6 110 08:45 09.08.2019
3979 Clear 19 1009 72 10000 2.6 110 08:25 09.08.2019
3980 Clear 19 1010 77 10000 2.6 110 07:58 09.08.2019
3981 Clear 18 1010 77 10000 2.6 110 07:40 09.08.2019
3982 Clear 18 1010 77 10000 2.6 110 07:40 09.08.2019
3983 Clear 18 1010 77 10000 3.1 110 07:20 09.08.2019
3984 Clear 17 1010 77 10000 2.6 100 06:44 09.08.2019
3985 Clear 17 1010 82 10000 3.1 100 06:21 09.08.2019
3986 Clear 17 1011 82 10000 2.6 100 05:37 09.08.2019
3987 Clear 18 1012 88 10000 1.5 80 02:29 09.08.2019
3988 Clear 18 1012 77 10000 1.5 80 01:30 09.08.2019
3989 Clear 18 1012 77 10000 2.6 90 00:43 09.08.2019
3990 Clear 19 1012 72 10000 2.6 80 00:24 09.08.2019
3991 Clear 19 1012 72 10000 2.1 80 23:57 08.08.2019
3992 Clear 19 1012 72 10000 2.1 80 23:37 08.08.2019
3993 Clear 20 1012 72 10000 2.1 80 23:19 08.08.2019
3994 Clear 20 1012 72 10000 2.1 70 22:56 08.08.2019
3995 Clear 20 1012 72 10000 1.5 90 22:36 08.08.2019
3996 Clear 20 1012 72 10000 1.5 90 22:18 08.08.2019
3997 Clear 21 1012 68 10000 2.1 70 21:43 08.08.2019
3998 Clear 22 1012 73 10000 2.1 70 21:24 08.08.2019
3999 Clear 22 1012 64 10000 1.5 60 20:59 08.08.2019
4000 Clear 23 1012 64 10000 1.5 60 20:41 08.08.2019
4001 Clear 23 1012 60 10000 1.5 50 20:20 08.08.2019
4002 Clear 23 1012 60 10000 1.5 70 19:56 08.08.2019
4003 Clear 23 1012 60 10000 1.5 70 19:37 08.08.2019
4004 Clear 23 1012 56 10000 1 0 19:19 08.08.2019
4005 Clear 24 1012 56 10000 1.5 60 18:41 08.08.2019
4006 Clear 24 1012 60 10000 1.5 0 18:21 08.08.2019
4007 Clear 24 1012 56 10000 1.5 10 17:55 08.08.2019
4008 Clear 23 1012 56 10000 1.5 10 17:36 08.08.2019
4009 Clear 23 1013 60 10000 2.1 60 17:18 08.08.2019
4010 Clear 22 1013 60 10000 1 0 16:42 08.08.2019
4011 Clear 22 1013 64 10000 2.1 300 16:24 08.08.2019
4012 Clear 22 1013 64 10000 1 0 15:58 08.08.2019
4013 Clear 22 1013 64 10000 1 0 15:39 08.08.2019
4014 Clouds 21 1013 68 10000 3.1 350 15:20 08.08.2019
4015 Rain 21 1013 68 10000 2.1 340 14:41 08.08.2019
4016 Rain 21 1013 72 10000 2.6 310 14:23 08.08.2019
4017 Rain 22 1013 68 10000 2.1 260 13:58 08.08.2019
4018 Rain 22 1013 68 10000 2.1 260 13:38 08.08.2019
4019 Rain 21 1013 68 10000 4.6 280 13:18 08.08.2019
4020 Clouds 22 1013 53 10000 4.6 280 12:39 08.08.2019
4021 Clouds 21 1013 53 10000 4.6 280 12:19 08.08.2019
4022 Clouds 21 1013 56 10000 5.1 270 11:55 08.08.2019
4023 Clouds 21 1013 56 10000 5.1 270 11:37 08.08.2019
4024 Clouds 21 1013 56 10000 3.6 270 11:18 08.08.2019
4025 Clouds 20 1012 60 10000 3.6 290 10:41 08.08.2019
4026 Clouds 20 1012 60 10000 3.6 290 10:41 08.08.2019
4027 Clouds 19 1012 63 10000 3.6 250 10:21 08.08.2019
4028 Clear 18 1012 63 10000 3.6 240 09:45 08.08.2019
4029 Clear 18 1012 72 10000 2.6 210 09:27 08.08.2019
4030 Clear 17 1012 77 10000 2.1 190 08:56 08.08.2019
4031 Clear 16 1012 77 10000 2.1 190 08:36 08.08.2019
4032 Clear 16 1012 82 10000 2.6 170 08:18 08.08.2019
4033 Clear 15 1012 82 10000 2.6 160 07:40 08.08.2019
4034 Clear 15 1012 87 10000 1.5 150 07:19 08.08.2019
4035 Clear 14 1011 87 10000 0.5 0 06:47 08.08.2019
4036 Clear 14 1011 87 10000 1 0 06:26 08.08.2019
4037 Clear 14 1011 93 10000 1 0 05:52 08.08.2019
4038 Clear 15 1011 93 10000 1.5 0 04:53 08.08.2019
4039 Clear 15 1011 87 10000 2.1 160 03:52 08.08.2019
4040 Clear 16 1011 87 10000 1.5 0 02:28 08.08.2019
4041 Clear 16 1011 87 10000 1.5 110 01:36 08.08.2019
4042 Clear 16 1010 87 10000 2.6 140 00:26 08.08.2019
4043 Clear 17 1010 82 10000 2.1 130 23:51 07.08.2019
4044 Clouds 17 1010 77 10000 2.6 210 23:20 07.08.2019
4045 Clear 17 1010 82 10000 2.1 130 22:57 07.08.2019
4046 Clear 17 1010 82 10000 2.1 130 22:39 07.08.2019
4047 Clear 18 1010 82 10000 2.1 140 22:20 07.08.2019
4048 Clear 18 1010 82 10000 2.1 140 22:20 07.08.2019
4049 Clouds 18 1009 72 10000 3.1 220 21:56 07.08.2019
4050 Rain 18 1009 87 10000 3.1 150 21:37 07.08.2019
4051 Rain 19 1009 93 10000 0.5 0 21:19 07.08.2019
4052 Clouds 20 1009 93 10000 1.5 0 20:43 07.08.2019
4053 Rain 20 1009 87 10000 3.1 70 20:24 07.08.2019
4054 Rain 20 1009 87 10000 6.7 350 19:59 07.08.2019
4055 Rain 20 1009 87 10000 6.7 350 19:39 07.08.2019
4056 Rain 21 1008 49 10000 3.6 210 19:21 07.08.2019
4057 Rain 21 1008 82 10000 3.6 310 18:55 07.08.2019
4058 Rain 23 1008 47 10000 4.6 240 18:37 07.08.2019
4059 Rain 23 1008 49 10000 3.6 250 18:19 07.08.2019
4060 Thunderstorm 23 1008 49 10000 4.1 280 17:54 07.08.2019
4061 Clouds 24 1008 49 10000 4.1 280 17:36 07.08.2019
4062 Clouds 24 1008 47 10000 4.1 260 17:18 07.08.2019
4063 Clear 24 1008 47 10000 3.6 280 16:54 07.08.2019
4064 Clear 24 1008 47 10000 3.6 280 16:36 07.08.2019
4065 Clear 24 1008 50 10000 5.7 240 16:18 07.08.2019
4066 Clouds 24 1008 47 10000 5.7 260 15:42 07.08.2019
4067 Clouds 23 1008 49 10000 5.7 250 15:20 07.08.2019
4068 Clouds 23 1008 53 10000 5.1 270 14:49 07.08.2019
4069 Clouds 23 1008 53 10000 5.7 260 14:30 07.08.2019
4070 Clouds 23 1008 50 10000 6.2 250 13:58 07.08.2019
4071 Clouds 23 1008 56 10000 6.7 280 13:39 07.08.2019
4072 Clouds 23 1008 56 10000 6.7 280 13:19 07.08.2019
4073 Clouds 23 1008 53 10000 6.7 250 12:56 07.08.2019
4074 Clouds 22 1008 53 10000 6.7 250 12:38 07.08.2019
4075 Clouds 22 1009 60 10000 4.6 250 12:19 07.08.2019
4076 Clouds 22 1009 60 10000 4.6 240 11:55 07.08.2019
4077 Clouds 22 1009 60 10000 4.6 240 11:36 07.08.2019
4078 Clouds 21 1009 60 10000 4.6 260 11:18 07.08.2019
4079 Clouds 20 1008 68 10000 3.6 240 10:40 07.08.2019
4080 Clouds 20 1008 72 10000 4.1 240 10:19 07.08.2019
4081 Clouds 19 1008 77 10000 3.1 240 09:46 07.08.2019
4082 Clouds 18 1008 88 10000 2.1 240 09:24 07.08.2019
4083 Clouds 18 1008 88 10000 2.6 260 08:59 07.08.2019
4084 Clouds 18 1008 88 10000 2.6 260 08:41 07.08.2019
4085 Clouds 17 1008 93 10000 2.1 200 08:23 07.08.2019
4086 Clouds 17 1008 93 10000 2.1 200 07:50 07.08.2019
4087 Rain 17 1008 93 10000 2.6 200 07:29 07.08.2019
4088 Clouds 17 1008 93 10000 2.1 190 06:44 07.08.2019
4089 Clouds 17 1008 93 10000 3.1 170 06:21 07.08.2019
4090 Clouds 17 1008 88 10000 3.1 160 05:42 07.08.2019
4091 Clouds 18 1008 88 10000 2.6 160 04:37 07.08.2019
4092 Clouds 18 1009 93 10000 3.6 150 02:55 07.08.2019
4093 Clouds 18 1009 93 10000 3.6 150 02:36 07.08.2019
4094 Clear 18 1009 93 10000 3.6 150 01:51 07.08.2019
4095 Clear 18 1009 88 10000 3.1 140 00:57 07.08.2019
4096 Clear 19 1009 93 10000 2.6 140 00:24 07.08.2019
4097 Clear 19 1009 93 10000 2.1 140 23:59 06.08.2019
4098 Clear 19 1009 93 10000 2.1 140 23:38 06.08.2019
4099 Clouds 19 1009 93 10000 2.1 180 23:20 06.08.2019
4100 Clear 19 1009 93 10000 2.6 130 22:41 06.08.2019
4101 Clear 19 1009 93 10000 2.6 140 22:22 06.08.2019
4102 Clear 19 1009 93 10000 2.1 140 21:57 06.08.2019
4103 Clear 19 1009 93 10000 2.1 140 21:39 06.08.2019
4104 Clouds 20 1009 93 10000 1.5 130 21:19 06.08.2019
4105 Clouds 20 1009 93 10000 1.5 130 21:19 06.08.2019
4106 Clouds 20 1009 93 10000 1.5 130 21:19 06.08.2019
4107 Clouds 21 1009 93 10000 2.6 140 20:46 06.08.2019
4108 Rain 21 1009 93 10000 3.6 140 20:28 06.08.2019
4109 Rain 21 1009 93 10000 1 60 19:58 06.08.2019
4110 Rain 21 1009 93 10000 1 60 19:38 06.08.2019
4111 Rain 22 1009 93 10000 1 0 19:19 06.08.2019
4112 Rain 23 1010 88 2500 6.2 190 18:43 06.08.2019
4113 Rain 24 1010 82 4000 3.6 260 18:25 06.08.2019
4114 Clear 24 1009 44 10000 2.1 0 17:58 06.08.2019
4115 Clear 24 1009 44 10000 2.1 0 17:38 06.08.2019
4116 Clear 24 1009 44 10000 2.1 0 17:38 06.08.2019
4117 Clear 25 1009 44 10000 2.1 230 17:20 06.08.2019
4118 Clear 24 1010 44 10000 1 0 16:55 06.08.2019
4119 Clear 24 1010 44 10000 1 0 16:37 06.08.2019
4120 Clear 24 1010 41 10000 1.5 0 16:19 06.08.2019
4121 Clear 24 1010 44 10000 1.5 0 15:56 06.08.2019
4122 Clear 24 1010 44 10000 1.5 0 15:38 06.08.2019
4123 Clear 24 1011 44 10000 3.1 260 15:18 06.08.2019
4124 Clear 24 1011 44 10000 3.6 240 14:41 06.08.2019
4125 Clear 24 1011 44 10000 3.1 0 14:22 06.08.2019
4126 Clear 23 1011 47 10000 3.6 280 13:57 06.08.2019
4127 Clear 23 1011 47 10000 3.6 280 13:38 06.08.2019
4128 Clear 23 1011 47 10000 3.6 280 13:19 06.08.2019
4129 Clouds 23 1012 44 10000 3.1 260 12:56 06.08.2019
4130 Clouds 22 1012 49 10000 2.1 0 12:38 06.08.2019
4131 Clouds 22 1012 49 10000 2.1 0 12:19 06.08.2019
4132 Clouds 22 1012 49 10000 3.1 0 11:41 06.08.2019
4133 Clouds 21 1012 49 10000 3.1 290 11:18 06.08.2019
4134 Clouds 21 1012 49 10000 3.1 290 11:18 06.08.2019
4135 Clouds 20 1012 49 10000 2.6 290 10:41 06.08.2019
4136 Clouds 20 1012 46 10000 3.6 270 10:22 06.08.2019
4137 Clouds 20 1012 56 10000 4.1 260 09:57 06.08.2019
4138 Clouds 19 1012 56 10000 4.1 260 09:37 06.08.2019
4139 Clouds 19 1012 68 10000 4.1 280 09:19 06.08.2019
4140 Clouds 18 1012 72 10000 4.1 280 08:41 06.08.2019
4141 Clouds 18 1012 72 10000 4.1 270 08:23 06.08.2019
4142 Clouds 18 1011 72 10000 4.6 270 07:36 06.08.2019
4143 Rain 18 1011 72 10000 2.6 220 06:53 06.08.2019
4144 Drizzle 18 1011 72 10000 2.6 190 06:35 06.08.2019
4145 Clear 18 1011 72 10000 1.5 160 05:52 06.08.2019
4146 Clear 19 1011 68 10000 2.6 150 04:32 06.08.2019
4147 Clear 19 1011 64 10000 1.5 120 01:54 06.08.2019
4148 Clear 20 1011 64 10000 1 0 01:24 06.08.2019
4149 Clear 20 1011 56 10000 1 0 00:30 06.08.2019
4150 Clear 21 1011 60 10000 1 0 23:47 05.08.2019
4151 Clouds 21 1011 56 10000 2.6 190 23:19 05.08.2019
4152 Clear 21 1011 53 10000 2.1 210 22:41 05.08.2019
4153 Clear 22 1011 53 10000 2.1 250 22:23 05.08.2019
4154 Clear 22 1011 44 10000 3.6 280 21:55 05.08.2019
4155 Clear 23 1011 44 10000 3.6 280 21:36 05.08.2019
4156 Clear 24 1011 44 10000 4.1 270 21:18 05.08.2019
4157 Clear 24 1011 44 10000 5.1 250 20:55 05.08.2019
4158 Clear 25 1011 44 10000 4.1 280 20:37 05.08.2019
4159 Clear 25 1011 44 10000 4.1 280 20:18 05.08.2019
4160 Clear 25 1011 44 10000 5.1 280 19:43 05.08.2019
4161 Clear 25 1011 41 10000 5.1 290 19:24 05.08.2019
4162 Clear 25 1011 41 10000 5.1 290 18:57 05.08.2019
4163 Clear 26 1011 41 10000 5.1 290 18:39 05.08.2019
4164 Clear 26 1011 41 10000 5.7 300 18:19 05.08.2019
4165 Clear 26 1011 41 10000 6.2 270 17:45 05.08.2019
4166 Clear 26 1011 41 10000 6.2 270 17:45 05.08.2019
4167 Clear 26 1011 39 10000 5.7 270 17:26 05.08.2019
4168 Clear 27 1011 36 10000 6.2 280 16:47 05.08.2019
4169 Clouds 26 1011 39 10000 5.7 290 16:26 05.08.2019
4170 Clear 27 1011 36 10000 5.1 270 15:57 05.08.2019
4171 Clear 26 1011 36 10000 5.1 270 15:39 05.08.2019
4172 Clear 26 1011 36 10000 5.1 270 15:39 05.08.2019
4173 Clouds 27 1011 39 10000 6.7 260 15:20 05.08.2019
4174 Clouds 26 1011 39 10000 6.7 260 14:39 05.08.2019
4175 Clouds 26 1011 44 10000 6.2 270 14:19 05.08.2019
4176 Clouds 26 1011 50 10000 6.2 270 13:45 05.08.2019
4177 Clouds 25 1011 54 10000 4.6 270 13:23 05.08.2019
4178 Clouds 25 1011 57 10000 1.5 0 12:49 05.08.2019
4179 Clouds 24 1011 60 10000 3.6 220 12:21 05.08.2019
4180 Clear 24 1011 69 10000 2.1 200 11:55 05.08.2019
4181 Clear 23 1011 69 10000 2.1 200 11:37 05.08.2019
4182 Clear 23 1011 69 10000 3.1 170 11:18 05.08.2019
4183 Clear 22 1011 77 10000 3.6 160 10:43 05.08.2019
4184 Clear 21 1011 82 10000 3.6 150 10:25 05.08.2019
4185 Clear 20 1011 82 10000 2.6 140 09:54 05.08.2019
4186 Clear 20 1011 82 10000 2.6 140 09:36 05.08.2019
4187 Rain 20 1011 88 10000 3.1 130 09:18 05.08.2019
4188 Rain 19 1011 88 10000 3.6 130 08:41 05.08.2019
4189 Rain 19 1012 88 10000 3.1 160 08:20 05.08.2019
4190 Rain 19 1012 77 10000 3.6 150 07:45 05.08.2019
4191 Rain 20 1012 56 10000 7.2 220 07:27 05.08.2019
4192 Rain 20 1011 53 10000 3.6 180 06:39 05.08.2019
4193 Clear 20 1011 60 10000 3.6 170 05:53 05.08.2019
4194 Rain 20 1011 64 10000 4.6 160 05:20 05.08.2019
4195 Clear 20 1011 60 10000 2.1 120 04:32 05.08.2019
4196 Clear 20 1011 60 10000 1.5 100 03:42 05.08.2019
4197 Clear 20 1011 60 10000 1.5 110 02:37 05.08.2019
4198 Clear 20 1012 56 10000 2.6 110 01:40 05.08.2019
4199 Clear 20 1012 56 10000 2.6 110 01:40 05.08.2019
4200 Clear 20 1012 56 10000 2.6 110 01:40 05.08.2019
4201 Clear 21 1012 56 10000 2.1 100 00:56 05.08.2019
4202 Clear 21 1012 56 10000 3.6 90 00:37 05.08.2019
4203 Clear 21 1012 56 10000 3.6 90 00:18 05.08.2019
4204 Clear 21 1012 49 10000 2.6 80 23:41 04.08.2019
4205 Clear 21 1012 49 10000 3.1 70 23:21 04.08.2019
4206 Clear 22 1012 49 10000 2.6 80 22:57 04.08.2019
4207 Clear 22 1012 49 10000 2.6 80 22:37 04.08.2019
4208 Clear 22 1013 49 10000 2.6 70 22:19 04.08.2019
4209 Clear 23 1012 50 10000 2.6 70 21:45 04.08.2019
4210 Clear 24 1012 44 10000 2.6 60 21:24 04.08.2019
4211 Clear 25 1013 41 10000 2.1 60 20:58 04.08.2019
4212 Clear 26 1013 41 10000 2.1 60 20:40 04.08.2019
4213 Clear 26 1013 39 10000 1.5 60 20:18 04.08.2019
4214 Clear 27 1013 39 10000 2.1 50 19:48 04.08.2019
4215 Clear 27 1013 36 10000 3.1 50 19:27 04.08.2019
4216 Clear 28 1013 34 10000 3.1 40 18:57 04.08.2019
4217 Clear 27 1013 34 10000 3.1 40 18:39 04.08.2019
4218 Clear 28 1013 32 10000 1.5 0 18:19 04.08.2019
4219 Clear 28 1014 32 10000 2.6 40 17:42 04.08.2019
4220 Clear 28 1014 34 10000 2.1 0 17:21 04.08.2019
4221 Clear 28 1014 34 10000 2.1 40 16:45 04.08.2019
4222 Clear 28 1014 34 10000 2.1 10 16:26 04.08.2019
4223 Clear 28 1014 34 10000 2.1 10 16:26 04.08.2019
4224 Clear 27 1015 36 10000 2.6 0 15:55 04.08.2019
4225 Clear 27 1015 36 10000 2.6 290 15:37 04.08.2019
4226 Clear 27 1015 36 10000 2.6 0 15:37 04.08.2019
4227 Clear 27 1015 36 10000 2.6 0 15:37 04.08.2019
4228 Clear 27 1015 36 10000 2.6 290 15:18 04.08.2019
4229 Clear 26 1015 39 10000 2.1 0 14:42 04.08.2019
4230 Clear 26 1016 41 10000 1.5 0 14:21 04.08.2019
4231 Clear 25 1016 41 10000 2.6 0 13:43 04.08.2019
4232 Clear 25 1016 47 10000 2.1 0 13:24 04.08.2019
4233 Clouds 24 1016 47 10000 2.1 0 12:55 04.08.2019
4234 Clouds 24 1016 47 10000 2.1 0 12:37 04.08.2019
4235 Clouds 24 1016 47 10000 2.1 0 12:37 04.08.2019
4236 Clouds 23 1017 49 10000 2.1 0 12:19 04.08.2019
4237 Clouds 22 1017 49 10000 1.5 180 11:41 04.08.2019
4238 Clouds 22 1017 56 10000 1.5 0 11:22 04.08.2019
4239 Clear 21 1017 60 10000 1.5 0 10:47 04.08.2019
4240 Clear 20 1017 68 10000 1.5 120 10:22 04.08.2019
4241 Clear 19 1018 72 10000 1.5 110 09:46 04.08.2019
4242 Clear 18 1018 77 10000 1 0 09:26 04.08.2019
4243 Clear 17 1018 82 10000 1.5 130 08:58 04.08.2019
4244 Clear 16 1018 82 10000 1.5 130 08:34 04.08.2019
4245 Clear 14 1018 93 10000 2.6 150 07:55 04.08.2019
4246 Clear 13 1017 100 10000 1.5 60 07:28 04.08.2019
4247 Clear 13 1017 100 10000 0.5 0 06:40 04.08.2019
4248 Clear 13 1017 100 10000 0.5 0 06:18 04.08.2019
4249 Clear 14 1018 93 10000 1.5 70 03:37 04.08.2019
4250 Clear 14 1018 93 10000 1 0 01:52 04.08.2019
4251 Clear 15 1018 93 10000 1 0 01:32 04.08.2019
4252 Clear 15 1018 93 10000 1 50 00:42 04.08.2019
4253 Clear 16 1018 93 10000 0.5 0 00:24 04.08.2019
4254 Clear 16 1018 87 10000 1 0 23:55 03.08.2019
4255 Clear 17 1018 87 10000 1 0 23:36 03.08.2019
4256 Clear 17 1018 82 10000 0.5 40 23:18 03.08.2019
4257 Clear 18 1018 77 10000 2.1 350 22:39 03.08.2019
4258 Clear 18 1018 77 10000 2.1 350 22:19 03.08.2019
4259 Clouds 19 1017 63 10000 3.6 340 21:39 03.08.2019
4260 Clouds 19 1017 63 10000 3.6 340 21:21 03.08.2019
4261 Clouds 19 1017 63 10000 3.6 340 21:21 03.08.2019
4262 Clouds 20 1017 60 10000 4.1 340 20:45 03.08.2019
4263 Clouds 20 1017 56 10000 4.6 340 20:24 03.08.2019
4264 Clouds 21 1017 53 10000 4.6 350 19:56 03.08.2019
4265 Clouds 21 1017 53 10000 4.6 350 19:38 03.08.2019
4266 Clouds 21 1017 53 10000 5.1 10 19:20 03.08.2019
4267 Clouds 22 1017 53 10000 4.1 330 18:45 03.08.2019
4268 Clouds 22 1017 53 10000 6.7 310 18:24 03.08.2019
4269 Clouds 22 1017 49 10000 6.2 290 17:43 03.08.2019
4270 Clouds 22 1018 56 10000 5.7 300 17:20 03.08.2019
4271 Clouds 23 1018 49 10000 5.7 320 16:39 03.08.2019
4272 Clouds 22 1018 49 10000 5.7 320 16:39 03.08.2019
4273 Clouds 22 1018 56 10000 5.1 300 16:21 03.08.2019
4274 Clouds 22 1018 53 10000 5.1 320 15:59 03.08.2019
4275 Clouds 22 1018 53 10000 5.1 320 15:39 03.08.2019
4276 Clouds 21 1018 56 10000 6.2 310 15:20 03.08.2019
4277 Clouds 21 1018 60 10000 5.1 330 14:37 03.08.2019
4278 Clouds 21 1018 60 10000 4.6 330 14:18 03.08.2019
4279 Clouds 21 1018 60 10000 4.6 330 14:18 03.08.2019
4280 Clouds 20 1018 56 10000 4.1 300 13:47 03.08.2019
4281 Clouds 20 1018 56 10000 3.6 360 13:23 03.08.2019
4282 Clouds 20 1018 64 10000 4.1 10 12:56 03.08.2019
4283 Clouds 20 1018 64 10000 4.1 10 12:37 03.08.2019
4284 Clouds 19 1018 72 10000 4.6 340 12:19 03.08.2019
4285 Clouds 19 1018 72 10000 4.1 350 11:40 03.08.2019
4286 Clouds 19 1017 72 10000 3.1 340 11:22 03.08.2019
4287 Clouds 19 1017 72 10000 2.1 10 10:39 03.08.2019
4288 Clouds 18 1017 82 10000 2.1 360 10:20 03.08.2019
4289 Clouds 18 1017 82 8000 2.1 340 09:38 03.08.2019
4290 Rain 17 1017 88 8000 2.1 340 09:19 03.08.2019
4291 Clouds 17 1017 88 8000 1 0 08:46 03.08.2019
4292 Mist 16 1016 93 4500 1 0 07:41 03.08.2019
4293 Mist 16 1016 93 4500 1.5 360 07:22 03.08.2019
4294 Clouds 17 1016 93 8000 2.6 340 06:22 03.08.2019
4295 Clouds 17 1015 93 10000 3.1 330 03:58 03.08.2019
4296 Rain 17 1015 93 10000 4.1 330 02:28 03.08.2019
4297 Rain 17 1014 93 10000 6.7 320 01:34 03.08.2019
4298 Rain 17 1013 93 10000 6.7 290 00:33 03.08.2019
4299 Rain 17 1013 93 10000 7.2 270 23:57 02.08.2019
4300 Rain 17 1013 93 10000 7.2 270 23:38 02.08.2019
4301 Rain 17 1013 93 10000 7.7 250 23:18 02.08.2019
4302 Rain 17 1014 88 6000 8.2 280 22:56 02.08.2019
4303 Rain 17 1013 82 10000 6.2 240 22:37 02.08.2019
4304 Rain 18 1014 88 10000 6.2 260 22:18 02.08.2019
4305 Rain 18 1014 88 10000 6.7 250 21:42 02.08.2019
4306 Rain 18 1014 88 10000 3.6 270 21:22 02.08.2019
4307 Thunderstorm 19 1014 82 10000 4.6 290 20:46 02.08.2019
4308 Thunderstorm 19 1014 56 10000 6.7 260 20:28 02.08.2019
4309 Thunderstorm 20 1014 72 6000 9.8 270 19:56 02.08.2019
4310 Thunderstorm 21 1014 56 10000 7.7 270 19:35 02.08.2019
4311 Rain 21 1014 53 10000 6.2 270 18:57 02.08.2019
4312 Rain 21 1014 53 10000 6.2 270 18:39 02.08.2019
4313 Thunderstorm 22 1014 60 10000 4.1 300 18:20 02.08.2019
4314 Rain 23 1014 49 10000 9.3 290 17:42 02.08.2019
4315 Rain 23 1014 49 10000 9.3 290 17:24 02.08.2019
4316 Rain 23 1014 50 10000 9.3 280 16:56 02.08.2019
4317 Rain 24 1014 39 10000 6.7 270 16:37 02.08.2019
4318 Rain 24 1014 39 10000 6.7 270 16:18 02.08.2019
4319 Rain 23 1014 39 10000 6.2 270 15:39 02.08.2019
4320 Rain 25 1014 41 10000 5.1 280 15:19 02.08.2019
4321 Clear 25 1014 41 10000 4.6 270 14:45 02.08.2019
4322 Clear 24 1014 41 10000 4.1 280 14:18 02.08.2019
4323 Clouds 24 1015 47 10000 4.6 300 13:48 02.08.2019
4324 Clouds 24 1015 44 10000 4.1 280 13:25 02.08.2019
4325 Clouds 23 1015 49 10000 3.1 270 12:45 02.08.2019
4326 Clouds 23 1016 56 10000 3.6 250 12:21 02.08.2019
4327 Rain 22 1016 56 10000 3.1 270 11:53 02.08.2019
4328 Clouds 22 1016 60 10000 3.1 240 11:34 02.08.2019
4329 Clouds 21 1016 64 10000 1.5 0 10:57 02.08.2019
4330 Clouds 21 1016 64 10000 1.5 0 10:39 02.08.2019
4331 Clouds 21 1016 64 10000 1 0 10:20 02.08.2019
4332 Clouds 20 1016 72 10000 1 0 09:52 02.08.2019
4333 Clouds 19 1016 82 10000 1 0 09:25 02.08.2019
4334 Clouds 18 1016 82 10000 1 0 08:49 02.08.2019
4335 Clouds 17 1016 82 10000 1 0 08:49 02.08.2019
4336 Clouds 17 1016 87 10000 1 0 08:22 02.08.2019
4337 Clouds 16 1016 93 10000 1 0 07:50 02.08.2019
4338 Clouds 15 1016 87 10000 1.5 90 07:31 02.08.2019
4339 Fog 15 1016 93 10000 1 140 06:51 02.08.2019
4340 Fog 15 1016 93 10000 1 0 06:24 02.08.2019
4341 Clear 15 1016 93 10000 0.5 0 05:26 02.08.2019
4342 Clear 16 1016 87 10000 2.6 60 03:29 02.08.2019
4343 Clear 16 1016 82 10000 1.5 60 02:33 02.08.2019
4344 Clear 18 1017 77 10000 1.6 278.449 00:41 02.08.2019
4345 Clear 18 1017 72 10000 1 60 00:18 02.08.2019
4346 Clear 19 1017 68 10000 0.5 0 23:43 01.08.2019
4347 Clear 19 1017 68 10000 0.5 60 23:19 01.08.2019
4348 Clear 19 1017 68 10000 0.5 0 22:40 01.08.2019
4349 Clouds 20 1016 64 10000 2.1 340 22:21 01.08.2019
4350 Clouds 21 1016 60 10000 2.1 340 21:54 01.08.2019
4351 Clouds 21 1016 60 10000 2.1 340 21:36 01.08.2019
4352 Clouds 22 1016 56 10000 2.6 330 21:18 01.08.2019
4353 Clear 22 1016 53 10000 3.1 330 20:41 01.08.2019
4354 Clear 23 1016 53 10000 4.1 330 20:22 01.08.2019
4355 Clear 23 1015 47 10000 3.1 340 19:44 01.08.2019
4356 Clear 23 1015 47 10000 5.1 260 19:23 01.08.2019
4357 Clouds 23 1016 38 10000 6.2 250 18:55 01.08.2019
4358 Clouds 23 1016 38 10000 6.2 250 18:36 01.08.2019
4359 Clouds 24 1016 44 10000 3.6 290 18:18 01.08.2019
4360 Clouds 24 1016 36 10000 4.6 250 17:44 01.08.2019
4361 Clouds 24 1016 49 10000 5.1 250 17:26 01.08.2019
4362 Clouds 24 1016 41 10000 5.1 240 16:44 01.08.2019
4363 Clouds 24 1016 47 10000 4.6 250 16:22 01.08.2019
4364 Clouds 24 1016 47 10000 4.6 250 16:22 01.08.2019
4365 Clouds 24 1017 44 10000 2.6 300 15:45 01.08.2019
4366 Clouds 23 1017 44 10000 4.1 280 15:20 01.08.2019
4367 Clouds 24 1017 44 10000 5.1 240 14:55 01.08.2019
4368 Clouds 24 1017 44 10000 5.1 240 14:37 01.08.2019
4369 Clouds 24 1017 50 10000 4.6 210 14:18 01.08.2019
4370 Clouds 24 1017 49 10000 3.1 270 13:41 01.08.2019
4371 Clouds 23 1017 47 10000 4.6 200 13:22 01.08.2019
4372 Clouds 23 1017 49 10000 4.1 180 12:59 01.08.2019
4373 Clouds 23 1017 49 10000 4.1 180 12:59 01.08.2019
4374 Clouds 23 1017 49 10000 4.1 180 12:41 01.08.2019
4375 Clouds 22 1017 53 10000 3.6 220 12:21 01.08.2019
4376 Clouds 21 1017 56 10000 3.6 240 11:42 01.08.2019
4377 Clouds 21 1017 56 10000 3.6 240 11:42 01.08.2019
4378 Clouds 21 1018 53 10000 2.1 0 11:22 01.08.2019
4379 Clouds 21 1018 56 10000 2.6 0 10:46 01.08.2019
4380 Clouds 20 1018 60 10000 2.6 0 10:28 01.08.2019
4381 Clouds 20 1018 63 10000 2.6 180 09:59 01.08.2019
4382 Clouds 19 1018 63 10000 2.6 180 09:40 01.08.2019
4383 Clear 18 1018 68 10000 2.1 160 09:22 01.08.2019
4384 Clouds 17 1018 72 10000 2.6 160 08:43 01.08.2019
4385 Clouds 16 1018 82 10000 2.1 150 08:20 01.08.2019
4386 Clouds 15 1018 82 10000 2.1 130 07:47 01.08.2019
4387 Clouds 15 1018 82 10000 2.6 140 07:24 01.08.2019
4388 Clouds 14 1018 82 10000 2.1 140 06:48 01.08.2019
4389 Clouds 14 1018 82 10000 1.5 0 05:51 01.08.2019
4390 Clear 14 1018 93 10000 0.5 0 04:24 01.08.2019
4391 Clear 15 1018 82 10000 0.5 0 02:33 01.08.2019
4392 Clear 16 1018 87 10000 1 0 00:43 01.08.2019
4393 Clear 17 1018 82 10000 0.5 0 00:24 01.08.2019
4394 Clear 17 1018 82 10000 0.5 0 00:24 01.08.2019
4395 Clear 17 1018 82 10000 2.1 140 23:43 31.07.2019
4396 Clear 18 1017 77 10000 1.5 130 23:21 31.07.2019
4397 Clouds 18 1017 77 10000 1 0 22:58 31.07.2019
4398 Clouds 18 1017 77 10000 1 0 22:39 31.07.2019
4399 Clouds 19 1017 72 10000 1.5 0 22:21 31.07.2019
4400 Clouds 20 1017 68 10000 1 0 21:38 31.07.2019
4401 Clouds 20 1017 72 10000 1.5 0 21:19 31.07.2019
4402 Rain 21 1016 64 10000 2.1 190 20:43 31.07.2019
4403 Clouds 21 1016 56 10000 1 0 20:22 31.07.2019
4404 Clouds 22 1016 52 10000 1.5 120 19:43 31.07.2019
4405 Clouds 22 1016 56 10000 2.6 140 19:24 31.07.2019
4406 Clouds 22 1016 56 10000 3.1 140 18:53 31.07.2019
4407 Clouds 22 1016 56 10000 2.1 210 18:29 31.07.2019
4408 Rain 22 1016 59 10000 5.1 190 17:59 31.07.2019
4409 Rain 22 1016 59 10000 5.1 190 17:40 31.07.2019
4410 Rain 23 1016 46 10000 7.2 260 17:20 31.07.2019
4411 Rain 22 1016 56 10000 3.1 0 16:46 31.07.2019
4412 Rain 22 1016 56 10000 2.6 150 16:20 31.07.2019
4413 Rain 23 1016 49 10000 2.1 270 15:45 31.07.2019
4414 Rain 23 1016 49 10000 4.6 260 15:26 31.07.2019
4415 Rain 23 1016 49 10000 4.6 270 14:59 31.07.2019
4416 Rain 23 1016 49 10000 4.6 270 14:40 31.07.2019
4417 Rain 23 1016 49 10000 5.7 270 14:18 31.07.2019
4418 Clouds 23 1016 47 10000 5.1 230 13:45 31.07.2019
4419 Rain 22 1016 46 10000 5.7 250 13:26 31.07.2019
4420 Clouds 22 1016 46 10000 6.2 240 12:57 31.07.2019
4421 Clouds 22 1016 46 10000 6.2 240 12:38 31.07.2019
4422 Clouds 22 1016 46 10000 5.7 230 12:18 31.07.2019
4423 Clouds 21 1016 46 10000 4.1 230 11:39 31.07.2019
4424 Clouds 21 1016 49 10000 4.1 240 11:20 31.07.2019
4425 Clouds 21 1016 56 10000 4.6 250 10:45 31.07.2019
4426 Clouds 21 1016 56 10000 2.1 0 10:21 31.07.2019
4427 Clear 21 1016 56 10000 3.1 210 09:58 31.07.2019
4428 Clouds 20 1016 56 10000 3.6 230 09:39 31.07.2019
4429 Clouds 20 1016 56 10000 3.6 230 09:39 31.07.2019
4430 Clouds 19 1016 56 10000 3.6 230 09:21 31.07.2019
4431 Clear 18 1016 60 10000 2.6 190 08:42 31.07.2019
4432 Clear 18 1016 63 10000 1.5 220 08:22 31.07.2019
4433 Clear 18 1015 68 10000 2.6 0 07:42 31.07.2019
4434 Clear 18 1015 77 10000 2.6 180 07:22 31.07.2019
4435 Clear 18 1014 68 10000 1 0 04:56 31.07.2019
4436 Clear 19 1014 63 10000 2.1 230 03:55 31.07.2019
4437 Clear 20 1014 68 10000 1 0 00:37 31.07.2019
4438 Rain 21 1013 64 10000 2.1 180 23:47 30.07.2019
4439 Rain 21 1013 64 10000 2.1 180 23:47 30.07.2019
4440 Rain 21 1013 56 10000 2.6 190 23:25 30.07.2019
4441 Clear 22 1013 56 10000 3.1 200 22:49 30.07.2019
4442 Clear 22 1013 53 10000 3.1 210 22:26 30.07.2019
4443 Rain 23 1012 53 10000 3.1 220 21:59 30.07.2019
4444 Rain 23 1012 53 10000 3.1 220 21:37 30.07.2019
4445 Rain 24 1012 50 10000 3.1 240 21:19 30.07.2019
4446 Clear 25 1012 50 10000 6.2 240 20:56 30.07.2019
4447 Clear 25 1012 50 10000 6.2 240 20:37 30.07.2019
4448 Clear 25 1012 41 10000 3.1 230 20:18 30.07.2019
4449 Clear 26 1012 41 10000 3.6 230 19:44 30.07.2019
4450 Rain 26 1012 42 10000 5.1 250 19:26 30.07.2019
4451 Rain 26 1012 41 10000 6.2 270 18:48 30.07.2019
4452 Clear 27 1012 42 10000 6.2 280 18:23 30.07.2019
4453 Clear 27 1011 39 10000 6.7 280 17:58 30.07.2019
4454 Clouds 27 1012 42 10000 5.1 270 17:40 30.07.2019
4455 Clouds 28 1012 42 10000 5.1 270 17:18 30.07.2019
4456 Rain 28 1011 30 10000 4.1 200 16:44 30.07.2019
4457 Rain 28 1011 30 10000 4.1 200 16:19 30.07.2019
4458 Clear 29 1011 28 10000 4.1 220 15:40 30.07.2019
4459 Clear 29 1011 28 10000 4.1 240 15:22 30.07.2019
4460 Clear 29 1011 28 10000 2.1 230 14:44 30.07.2019
4461 Clear 29 1011 30 10000 3.6 230 14:23 30.07.2019
4462 Clear 29 1011 28 10000 5.1 250 13:56 30.07.2019
4463 Clear 29 1011 28 10000 5.1 250 13:37 30.07.2019
4464 Clear 29 1011 30 10000 4.6 220 13:19 30.07.2019
4465 Clear 28 1011 30 10000 4.1 230 12:44 30.07.2019
4466 Clear 28 1011 39 10000 2.6 0 12:25 30.07.2019
4467 Clear 27 1011 44 10000 3.1 0 11:47 30.07.2019
4468 Clear 26 1011 47 10000 4.6 170 11:29 30.07.2019
4469 Clear 25 1012 53 10000 3.6 160 10:59 30.07.2019
4470 Clear 24 1012 60 10000 2.6 140 10:39 30.07.2019
4471 Clear 24 1012 60 10000 2.6 140 10:20 30.07.2019
4472 Clear 23 1012 68 10000 3.1 140 09:48 30.07.2019
4473 Clear 21 1012 77 10000 3.1 140 09:28 30.07.2019
4474 Clear 19 1012 88 10000 1 0 08:42 30.07.2019
4475 Clear 18 1012 93 10000 1.5 150 08:19 30.07.2019
4476 Clear 17 1012 87 10000 0.5 0 07:44 30.07.2019
4477 Clear 16 1012 93 10000 0.5 0 07:23 30.07.2019
4478 Clear 15 1012 93 10000 0.5 0 06:46 30.07.2019
4479 Clear 15 1012 93 10000 0.5 0 06:46 30.07.2019
4480 Clear 15 1012 93 10000 2.1 130 05:47 30.07.2019
4481 Clear 15 1012 93 10000 0.5 0 05:25 30.07.2019
4482 Clear 17 1012 93 10000 1 70 01:38 30.07.2019
4483 Clear 17 1012 82 10000 0.5 0 00:40 30.07.2019
4484 Clear 17 1012 82 10000 1.5 70 00:20 30.07.2019
4485 Clear 18 1012 72 10000 1.5 70 23:44 29.07.2019
4486 Clear 19 1012 68 10000 1.5 60 23:25 29.07.2019
4487 Clear 19 1012 68 10000 2.1 60 22:57 29.07.2019
4488 Clear 20 1012 68 10000 2.1 60 22:38 29.07.2019
4489 Clear 20 1012 68 10000 2.1 60 22:38 29.07.2019
4490 Clear 20 1011 64 10000 1.5 50 22:19 29.07.2019
4491 Clear 21 1011 64 10000 1 50 21:55 29.07.2019
4492 Clear 22 1011 64 10000 1 50 21:37 29.07.2019
4493 Clear 23 1011 47 10000 1.5 20 21:18 29.07.2019
4494 Clear 24 1011 44 10000 2.1 350 20:43 29.07.2019
4495 Clear 25 1011 36 10000 2.1 350 20:22 29.07.2019
4496 Clear 25 1011 36 10000 1.5 20 19:55 29.07.2019
4497 Clear 26 1011 36 10000 1.5 20 19:36 29.07.2019
4498 Clear 26 1011 36 10000 1 0 19:18 29.07.2019
4499 Clear 26 1011 36 10000 2.1 0 18:42 29.07.2019
4500 Clear 26 1011 34 10000 3.1 280 18:22 29.07.2019
4501 Clear 26 1011 36 10000 3.1 0 17:51 29.07.2019
4502 Clouds 26 1011 38 10000 2.1 300 17:33 29.07.2019
4503 Clear 26 1011 34 10000 2.6 0 16:58 29.07.2019
4504 Clear 25 1011 34 10000 2.6 0 16:39 29.07.2019
4505 Clear 26 1011 36 10000 2.6 310 16:21 29.07.2019
4506 Clear 26 1011 39 10000 3.1 240 15:51 29.07.2019
4507 Clear 26 1011 38 10000 3.1 0 15:32 29.07.2019
4508 Clouds 25 1011 41 10000 2.6 0 14:56 29.07.2019
4509 Clouds 25 1011 41 10000 2.6 0 14:37 29.07.2019
4510 Clouds 24 1011 44 10000 2.6 290 14:18 29.07.2019
4511 Clouds 24 1011 44 10000 2.6 0 13:41 29.07.2019
4512 Clouds 24 1012 53 10000 3.1 300 13:23 29.07.2019
4513 Clouds 23 1012 56 10000 3.1 260 12:42 29.07.2019
4514 Clouds 22 1012 64 10000 3.1 290 12:23 29.07.2019
4515 Clouds 21 1012 60 10000 2.6 300 11:44 29.07.2019
4516 Clouds 21 1012 60 10000 1.5 300 11:22 29.07.2019
4517 Clouds 20 1012 64 10000 1.5 340 10:46 29.07.2019
4518 Clouds 19 1012 68 10000 1.5 310 10:25 29.07.2019
4519 Clouds 19 1012 77 10000 1 0 09:51 29.07.2019
4520 Clouds 17 1012 82 10000 1 0 09:28 29.07.2019
4521 Clouds 17 1012 88 10000 1 0 08:57 29.07.2019
4522 Clouds 17 1012 88 10000 1 0 08:32 29.07.2019
4523 Clouds 16 1011 93 10000 1.5 250 07:59 29.07.2019
4524 Clouds 16 1011 93 10000 1.5 250 07:36 29.07.2019
4525 Fog 15 1011 93 10000 1.5 250 06:53 29.07.2019
4526 Clouds 16 1011 88 10000 2.1 320 05:46 29.07.2019
4527 Clouds 16 1010 93 10000 1 0 04:51 29.07.2019
4528 Clouds 17 1010 93 8000 1.5 20 02:26 29.07.2019
4529 Clouds 17 1010 88 10000 2.6 330 01:43 29.07.2019
4530 Clouds 17 1010 93 10000 3.1 290 01:22 29.07.2019
4531 Clouds 17 1010 93 10000 3.1 280 00:43 29.07.2019
4532 Drizzle 17 1010 93 10000 3.1 270 00:20 29.07.2019
4533 Drizzle 17 1009 93 8000 3.6 270 23:41 28.07.2019
4534 Drizzle 17 1009 93 8000 3.6 300 23:19 28.07.2019
4535 Drizzle 17 1008 93 5000 5.1 270 22:41 28.07.2019
4536 Drizzle 17 1008 93 5000 5.1 270 22:22 28.07.2019
4537 Drizzle 17 1008 93 7000 3.6 280 21:49 28.07.2019
4538 Drizzle 18 1008 93 7000 5.7 280 21:19 28.07.2019
4539 Drizzle 18 1007 100 5000 4.1 270 20:48 28.07.2019
4540 Drizzle 18 1006 82 10000 5.1 260 20:29 28.07.2019
4541 Drizzle 18 1006 93 10000 5.1 280 19:56 28.07.2019
4542 Drizzle 18 1006 93 10000 5.1 280 19:38 28.07.2019
4543 Rain 18 1006 93 10000 5.7 280 19:19 28.07.2019
4544 Drizzle 18 1005 93 10000 5.7 280 18:43 28.07.2019
4545 Rain 18 1005 93 10000 6.2 280 18:24 28.07.2019
4546 Rain 18 1005 93 10000 5.7 280 17:43 28.07.2019
4547 Rain 19 1005 93 10000 6.7 280 17:22 28.07.2019
4548 Rain 19 1005 93 10000 6.2 270 16:59 28.07.2019
4549 Rain 18 1005 93 10000 6.2 270 16:40 28.07.2019
4550 Drizzle 19 1004 93 7000 6.7 270 16:22 28.07.2019
4551 Rain 19 1004 93 9000 6.7 280 15:44 28.07.2019
4552 Rain 19 1004 93 6000 6.7 280 15:24 28.07.2019
4553 Drizzle 19 1003 93 7000 5.7 280 14:39 28.07.2019
4554 Mist 19 1003 93 7000 5.1 280 14:20 28.07.2019
4555 Mist 19 1003 93 8000 5.1 270 13:56 28.07.2019
4556 Mist 19 1003 93 8000 5.1 270 13:56 28.07.2019
4557 Mist 19 1003 93 8000 5.1 270 13:37 28.07.2019
4558 Mist 19 1003 100 10000 5.1 270 13:19 28.07.2019
4559 Mist 19 1002 94 4200 4.1 290 12:42 28.07.2019
4560 Mist 19 1002 94 4000 3.1 300 12:23 28.07.2019
4561 Rain 19 1002 94 3200 4.1 310 11:50 28.07.2019
4562 Rain 19 1002 100 2800 3.1 310 11:29 28.07.2019
4563 Rain 19 1001 100 2800 2.6 330 10:56 28.07.2019
4564 Rain 19 1001 100 2800 2.1 340 10:37 28.07.2019
4565 Rain 19 1001 100 2800 2.1 340 10:18 28.07.2019
4566 Rain 19 1001 93 3700 3.1 330 09:40 28.07.2019
4567 Rain 19 1001 93 3700 3.6 320 09:20 28.07.2019
4568 Rain 19 1001 93 3000 4.1 310 08:42 28.07.2019
4569 Rain 19 1001 93 2700 3.1 310 08:21 28.07.2019
4570 Rain 19 1000 93 2500 4.6 310 07:42 28.07.2019
4571 Mist 19 1000 93 2500 4.6 300 07:24 28.07.2019
4572 Mist 19 1000 93 2500 3.6 330 06:35 28.07.2019
4573 Mist 19 1000 100 3000 3.6 310 05:21 28.07.2019
4574 Rain 19 1001 94 3000 2.6 330 02:39 28.07.2019
4575 Rain 19 1001 94 3000 2.6 320 01:43 28.07.2019
4576 Rain 19 1001 94 3000 3.1 280 01:18 28.07.2019
4577 Rain 19 1002 94 3000 1.5 240 00:42 28.07.2019
4578 Rain 20 1002 94 4500 2.6 270 23:54 27.07.2019
4579 Mist 20 1002 94 5000 2.6 290 23:29 27.07.2019
4580 Clouds 20 1002 94 6000 2.6 250 22:56 27.07.2019
4581 Clouds 20 1002 94 6000 2.6 250 22:37 27.07.2019
4582 Clouds 20 1002 94 10000 1 0 22:18 27.07.2019
4583 Rain 20 1002 94 10000 2.1 330 21:38 27.07.2019
4584 Rain 20 1002 94 10000 1.5 330 21:19 27.07.2019
4585 Mist 20 1001 94 10000 1.5 340 20:49 27.07.2019
4586 Mist 20 1001 94 10000 2.1 340 20:23 27.07.2019
4587 Rain 20 1001 94 10000 1 0 19:43 27.07.2019
4588 Rain 21 1001 94 10000 2.1 340 19:25 27.07.2019
4589 Rain 21 1002 88 10000 2.1 350 18:50 27.07.2019
4590 Rain 21 1002 88 10000 2.1 350 18:32 27.07.2019
4591 Rain 22 1002 88 10000 2.6 260 17:52 27.07.2019
4592 Rain 22 1002 88 10000 2.6 210 17:32 27.07.2019
4593 Rain 22 1002 78 10000 4.6 180 16:58 27.07.2019
4594 Rain 23 1002 78 10000 4.6 180 16:39 27.07.2019
4595 Rain 23 1002 61 10000 1.5 140 16:20 27.07.2019
4596 Clouds 24 1002 61 10000 2.1 210 15:46 27.07.2019
4597 Mist 25 1002 61 10000 1.5 230 15:20 27.07.2019
4598 Clouds 26 1002 61 10000 1.5 0 14:49 27.07.2019
4599 Clouds 26 1002 61 10000 1 0 14:31 27.07.2019
4600 Clouds 26 1002 57 10000 2.1 200 13:52 27.07.2019
4601 Clear 25 1003 69 10000 1 0 13:25 27.07.2019
4602 Clear 25 1003 73 10000 1.5 340 12:59 27.07.2019
4603 Clear 25 1003 73 10000 1.5 340 12:41 27.07.2019
4604 Clear 25 1003 78 10000 1.5 330 12:21 27.07.2019
4605 Rain 24 1003 73 10000 3.1 300 11:41 27.07.2019
4606 Rain 24 1003 69 10000 4.1 280 11:23 27.07.2019
4607 Rain 23 1004 73 10000 2.6 270 10:42 27.07.2019
4608 Clear 23 1004 78 10000 2.1 230 10:23 27.07.2019
4609 Clear 23 1004 78 10000 3.1 180 09:43 27.07.2019
4610 Clear 22 1004 73 10000 1.5 150 09:24 27.07.2019
4611 Clear 22 1003 78 10000 0.5 0 08:53 27.07.2019
4612 Clear 22 1003 73 10000 1 70 08:34 27.07.2019
4613 Clear 22 1003 73 10000 1.5 40 07:58 27.07.2019
4614 Clear 21 1003 73 10000 1.5 40 07:40 27.07.2019
4615 Clear 21 1003 73 10000 1 0 07:20 27.07.2019
4616 Clear 21 1003 73 10000 1 0 07:20 27.07.2019
4617 Rain 21 1003 77 10000 3.1 100 06:49 27.07.2019
4618 Rain 21 1003 88 10000 2.1 190 06:21 27.07.2019
4619 Rain 21 1003 77 10000 0.5 0 05:35 27.07.2019
4620 Thunderstorm 21 1005 77 10000 2.6 110 04:46 27.07.2019
4621 Rain 22 1004 82 10000 1.5 170 03:46 27.07.2019
4622 Clear 22 1005 78 10000 1 0 02:43 27.07.2019
4623 Clear 23 1005 83 10000 1 0 01:59 27.07.2019
4624 Clear 23 1005 83 10000 1 0 01:36 27.07.2019
4625 Clear 24 1005 78 10000 1 0 00:49 27.07.2019
4626 Clear 24 1006 73 10000 1.5 210 00:31 27.07.2019
4627 Clear 25 1006 69 10000 1 0 23:44 26.07.2019
4628 Clear 25 1006 69 10000 0.5 0 23:26 26.07.2019
4629 Clear 24 1006 57 10000 1.5 240 22:44 26.07.2019
4630 Clear 25 1007 54 10000 1.5 180 22:26 26.07.2019
4631 Rain 25 1006 51 10000 1.5 80 21:56 26.07.2019
4632 Rain 25 1006 51 10000 1.5 80 21:37 26.07.2019
4633 Rain 27 1006 48 10000 1.5 360 21:18 26.07.2019
4634 Rain 28 1006 45 10000 2.6 340 20:40 26.07.2019
4635 Rain 28 1006 42 10000 3.6 10 20:21 26.07.2019
4636 Thunderstorm 28 1006 42 10000 3.6 30 19:41 26.07.2019
4637 Thunderstorm 28 1007 42 10000 2.6 250 19:22 26.07.2019
4638 Thunderstorm 28 1006 39 10000 3.6 280 18:45 26.07.2019
4639 Thunderstorm 31 1007 42 10000 5.1 250 18:22 26.07.2019
4640 Thunderstorm 31 1007 42 10000 5.1 250 18:22 26.07.2019
4641 Thunderstorm 32 1006 35 10000 8.7 240 17:58 26.07.2019
4642 Thunderstorm 33 1006 35 10000 8.7 240 17:39 26.07.2019
4643 Thunderstorm 33 1006 20 10000 2.1 120 17:18 26.07.2019
4644 Thunderstorm 36 1006 19 10000 2.6 90 16:55 26.07.2019
4645 Thunderstorm 37 1006 18 10000 3.6 80 16:37 26.07.2019
4646 Thunderstorm 37 1006 18 10000 3.6 80 16:18 26.07.2019
4647 Thunderstorm 37 1006 17 10000 4.6 150 15:45 26.07.2019
4648 Thunderstorm 37 1006 17 10000 4.6 150 15:45 26.07.2019
4649 Thunderstorm 38 1007 18 10000 2.6 120 15:23 26.07.2019
4650 Thunderstorm 38 1007 21 10000 2.1 0 14:58 26.07.2019
4651 Clouds 38 1007 21 10000 2.1 0 14:40 26.07.2019
4652 Clouds 37 1008 21 10000 3.1 120 14:21 26.07.2019
4653 Clear 37 1008 22 10000 3.1 0 13:40 26.07.2019
4654 Clear 37 1009 23 10000 3.6 120 13:21 26.07.2019
4655 Clear 36 1009 25 10000 3.6 80 12:47 26.07.2019
4656 Clear 35 1009 26 10000 3.6 100 12:20 26.07.2019
4657 Clear 34 1009 26 10000 3.6 100 11:40 26.07.2019
4658 Clear 34 1010 27 10000 3.6 90 11:20 26.07.2019
4659 Clear 33 1010 29 10000 3.1 100 10:56 26.07.2019
4660 Clear 32 1010 29 10000 3.1 100 10:38 26.07.2019
4661 Clear 30 1010 35 10000 3.1 110 09:55 26.07.2019
4662 Clear 30 1010 35 10000 3.1 110 09:37 26.07.2019
4663 Clear 27 1010 42 10000 2.1 120 08:57 26.07.2019
4664 Clear 28 1010 42 10000 2.1 120 08:57 26.07.2019
4665 Clear 27 1010 42 10000 2.1 120 08:39 26.07.2019
4666 Clear 27 1010 44 10000 1.5 130 08:20 26.07.2019
4667 Clear 25 1011 60 10000 1 40 07:33 26.07.2019
4668 Clear 24 1011 64 10000 2.1 150 06:58 26.07.2019
4669 Clear 24 1011 68 10000 1.5 130 05:23 26.07.2019
4670 Clear 24 1011 72 10000 1.5 130 04:29 26.07.2019
4671 Clear 24 1012 68 10000 1.5 150 03:44 26.07.2019
4672 Clear 27 1012 64 10000 1 0 01:45 26.07.2019
4673 Clear 27 1012 42 10000 1.5 100 01:18 26.07.2019
4674 Clear 29 1012 39 10000 2.6 90 00:28 26.07.2019
4675 Clear 29 1012 42 10000 2.1 90 23:44 25.07.2019
4676 Clear 30 1012 45 10000 3.1 80 23:20 25.07.2019
4677 Clear 29 1012 38 10000 2.1 90 22:41 25.07.2019
4678 Clear 31 1012 35 10000 2.6 90 22:21 25.07.2019
4679 Clear 32 1012 33 10000 2.1 90 21:48 25.07.2019
4680 Clear 33 1012 30 10000 2.1 100 21:23 25.07.2019
4681 Clear 34 1012 28 10000 1.5 120 20:58 25.07.2019
4682 Clear 35 1012 28 10000 1.5 120 20:38 25.07.2019
4683 Clear 36 1012 27 10000 1.5 130 20:18 25.07.2019
4684 Clear 37 1012 22 10000 1.5 120 19:40 25.07.2019
4685 Clear 38 1012 20 10000 2.6 120 19:22 25.07.2019
4686 Clear 39 1012 20 10000 3.1 150 18:42 25.07.2019
4687 Clear 39 1012 19 10000 1.5 0 18:23 25.07.2019
4688 Clear 39 1013 17 10000 2.6 110 17:50 25.07.2019
4689 Clear 39 1013 19 10000 4.1 70 17:32 25.07.2019
4690 Clear 40 1013 20 10000 3.1 110 16:57 25.07.2019
4691 Clear 39 1013 17 10000 2.6 110 16:38 25.07.2019
4692 Clear 40 1013 17 10000 2.6 110 16:20 25.07.2019
4693 Clear 39 1014 18 10000 4.1 0 15:48 25.07.2019
4694 Clear 39 1014 20 10000 3.1 0 15:20 25.07.2019
4695 Clear 39 1014 20 10000 4.1 160 14:43 25.07.2019
4696 Clear 39 1014 21 10000 2.6 150 14:23 25.07.2019
4697 Clear 39 1014 21 10000 3.1 120 13:56 25.07.2019
4698 Clear 38 1015 22 10000 4.6 140 13:36 25.07.2019
4699 Clear 37 1015 22 10000 4.6 140 13:18 25.07.2019
4700 Clear 36 1015 28 10000 3.1 150 12:34 25.07.2019
4701 Clear 35 1015 32 10000 3.1 140 11:56 25.07.2019
4702 Clear 34 1015 32 10000 3.1 140 11:38 25.07.2019
4703 Clear 33 1015 36 10000 3.6 140 11:19 25.07.2019
4704 Clear 31 1015 38 10000 2.6 130 10:42 25.07.2019
4705 Clear 30 1016 48 10000 2.6 100 10:23 25.07.2019
4706 Clear 29 1016 54 10000 2.6 140 09:45 25.07.2019
4707 Clear 29 1016 54 10000 2.6 140 09:45 25.07.2019
4708 Clear 28 1016 54 10000 1.5 120 09:27 25.07.2019
4709 Clear 26 1016 57 10000 2.1 130 08:48 25.07.2019
4710 Clear 25 1016 61 10000 1 70 08:26 25.07.2019
4711 Clear 24 1016 73 10000 1.5 140 07:39 25.07.2019
4712 Clear 22 1016 77 10000 1 0 06:45 25.07.2019
4713 Clear 22 1015 68 10000 0.5 0 06:19 25.07.2019
4714 Clear 22 1015 73 10000 1 0 05:34 25.07.2019
4715 Clear 23 1015 64 10000 1.5 120 04:45 25.07.2019
4716 Clear 24 1015 73 10000 2.1 130 02:24 25.07.2019
4717 Clear 26 1015 57 10000 1 0 01:21 25.07.2019
4718 Clear 27 1014 39 10000 2.1 70 00:23 25.07.2019
4719 Clear 28 1014 37 10000 2.6 80 23:56 24.07.2019
4720 Clear 28 1014 37 10000 2.6 80 23:38 24.07.2019
4721 Clear 29 1014 33 10000 1.5 90 23:19 24.07.2019
4722 Clear 29 1014 33 10000 2.1 90 22:44 24.07.2019
4723 Clear 31 1014 35 10000 2.1 90 22:22 24.07.2019
4724 Clear 31 1013 33 10000 2.6 80 21:55 24.07.2019
4725 Clear 32 1013 33 10000 2.6 80 21:37 24.07.2019
4726 Clear 34 1013 30 10000 2.6 80 21:18 24.07.2019
4727 Clear 35 1013 25 10000 2.1 70 20:40 24.07.2019
4728 Clear 36 1013 23 10000 3.1 80 20:22 24.07.2019
4729 Clear 37 1013 21 10000 3.1 80 19:57 24.07.2019
4730 Clear 37 1013 21 10000 3.1 80 19:39 24.07.2019
4731 Clear 37 1013 19 10000 3.6 80 19:19 24.07.2019
4732 Clear 37 1013 19 10000 3.1 80 18:42 24.07.2019
4733 Clear 39 1013 20 10000 4.1 30 18:23 24.07.2019
4734 Clear 39 1013 18 10000 1.5 0 17:46 24.07.2019
4735 Clouds 39 1013 16 10000 2.6 10 17:20 24.07.2019
4736 Clear 38 1013 18 10000 2.1 0 16:44 24.07.2019
4737 Clear 38 1013 19 10000 3.1 200 16:23 24.07.2019
4738 Clear 38 1013 21 10000 3.1 200 15:59 24.07.2019
4739 Clear 38 1013 21 10000 3.1 200 15:37 24.07.2019
4740 Clear 37 1014 19 10000 3.1 150 15:19 24.07.2019
4741 Clear 37 1014 18 10000 3.1 200 14:44 24.07.2019
4742 Clear 37 1014 18 10000 3.1 0 14:20 24.07.2019
4743 Clear 36 1014 25 10000 4.6 160 13:40 24.07.2019
4744 Clear 36 1014 25 10000 4.6 160 13:19 24.07.2019
4745 Clear 35 1015 28 10000 3.1 150 12:53 24.07.2019
4746 Clear 34 1015 30 10000 2.6 0 12:34 24.07.2019
4747 Clear 33 1015 35 10000 3.6 140 11:55 24.07.2019
4748 Clear 32 1015 38 10000 3.6 140 11:37 24.07.2019
4749 Clear 32 1015 38 10000 3.6 140 11:18 24.07.2019
4750 Clear 30 1015 37 10000 3.6 140 10:41 24.07.2019
4751 Clear 29 1015 42 10000 3.6 140 10:23 24.07.2019
4752 Clear 28 1015 45 10000 3.1 130 09:44 24.07.2019
4753 Clear 27 1015 47 10000 2.1 110 09:22 24.07.2019
4754 Clear 26 1015 53 10000 2.1 110 08:44 24.07.2019
4755 Clear 25 1015 57 10000 1 0 08:26 24.07.2019
4756 Clear 24 1015 68 10000 1 0 07:46 24.07.2019
4757 Clear 22 1015 77 10000 2.1 170 07:20 24.07.2019
4758 Clear 21 1015 68 10000 1 0 06:28 24.07.2019
4759 Clear 21 1015 77 10000 2.1 120 05:24 24.07.2019
4760 Clear 23 1017 50 10000 2.1 100 01:55 24.07.2019
4761 Clear 24 1017 50 10000 3.1 90 01:22 24.07.2019
4762 Clear 24 1017 50 10000 2.1 90 00:50 24.07.2019
4763 Clear 25 1017 50 10000 1.5 110 00:19 24.07.2019
4764 Clear 26 1017 47 10000 2.6 100 23:37 23.07.2019
4765 Clear 26 1017 44 10000 2.6 90 23:19 23.07.2019
4766 Clear 27 1017 47 10000 2.6 90 22:39 23.07.2019
4767 Clear 27 1017 47 10000 2.6 70 22:19 23.07.2019
4768 Clear 29 1017 48 10000 2.1 80 21:54 23.07.2019
4769 Clear 30 1017 48 10000 2.1 80 21:36 23.07.2019
4770 Clear 31 1017 40 10000 1.5 70 21:18 23.07.2019
4771 Clear 32 1017 29 10000 2.6 80 20:41 23.07.2019
4772 Clear 33 1017 29 10000 2.6 80 20:21 23.07.2019
4773 Clear 33 1017 28 10000 3.6 80 19:40 23.07.2019
4774 Clear 34 1017 28 10000 3.6 50 19:19 23.07.2019
4775 Clear 34 1017 30 10000 2.1 40 18:43 23.07.2019
4776 Clear 34 1018 26 10000 3.1 80 18:43 23.07.2019
4777 Clear 35 1018 26 10000 3.1 80 18:23 23.07.2019
4778 Clear 35 1018 24 10000 3.6 50 17:44 23.07.2019
4779 Clouds 34 1018 24 10000 4.6 60 17:25 23.07.2019
4780 Clear 34 1018 28 10000 2.1 0 16:57 23.07.2019
4781 Clear 34 1018 28 10000 2.1 0 16:39 23.07.2019
4782 Clear 34 1019 28 10000 2.1 0 16:18 23.07.2019
4783 Clear 33 1019 27 10000 3.6 100 15:43 23.07.2019
4784 Clear 33 1019 29 10000 3.1 90 15:23 23.07.2019
4785 Clear 32 1020 29 10000 3.1 120 14:39 23.07.2019
4786 Clear 32 1020 29 10000 3.1 120 14:20 23.07.2019
4787 Clear 32 1020 31 10000 2.6 0 13:58 23.07.2019
4788 Clear 31 1020 31 10000 2.6 0 13:39 23.07.2019
4789 Clear 31 1021 33 10000 3.1 160 13:20 23.07.2019
4790 Clear 30 1021 35 10000 2.6 0 12:48 23.07.2019
4791 Clear 30 1021 37 10000 2.6 0 12:25 23.07.2019
4792 Clear 29 1021 37 10000 3.1 120 11:49 23.07.2019
4793 Clear 28 1022 45 10000 2.6 110 11:31 23.07.2019
4794 Clear 27 1022 47 10000 2.6 130 10:59 23.07.2019
4795 Clear 27 1022 47 10000 2.6 130 10:40 23.07.2019
4796 Clear 26 1022 50 10000 1.5 150 10:20 23.07.2019
4797 Clear 25 1022 57 10000 1.5 110 09:41 23.07.2019
4798 Clear 24 1022 64 10000 1.5 130 09:19 23.07.2019
4799 Clear 22 1022 68 10000 1 0 08:43 23.07.2019
4800 Clear 20 1022 77 10000 1.5 130 08:19 23.07.2019
4801 Clear 20 1022 82 10000 1.5 130 07:55 23.07.2019
4802 Clear 19 1022 82 10000 1.5 130 07:34 23.07.2019
4803 Clear 17 1022 93 10000 1 0 06:46 23.07.2019
4804 Clear 16 1022 93 10000 2.6 50 06:28 23.07.2019
4805 Clear 18 1023 88 10000 0.5 0 02:57 23.07.2019
4806 Clear 20 1023 82 10000 0.5 0 01:33 23.07.2019
4807 Clear 20 1023 77 10000 0.5 0 00:31 23.07.2019
4808 Clear 21 1023 77 10000 2.1 70 23:56 22.07.2019
4809 Clear 21 1023 77 10000 2.1 70 23:36 22.07.2019
4810 Clear 22 1023 64 10000 1 0 23:18 22.07.2019
4811 Clear 23 1022 60 10000 1.5 50 22:42 22.07.2019
4812 Clear 24 1022 60 10000 1.5 50 22:21 22.07.2019
4813 Clear 26 1022 53 10000 1.5 20 21:43 22.07.2019
4814 Clear 27 1022 44 10000 2.1 360 21:23 22.07.2019
4815 Clear 28 1022 39 10000 2.6 330 20:51 22.07.2019
4816 Clear 28 1022 39 10000 2.6 330 20:33 22.07.2019
4817 Clear 28 1022 37 10000 3.1 290 19:58 22.07.2019
4818 Clear 28 1022 35 10000 3.1 320 19:38 22.07.2019
4819 Clear 28 1022 35 10000 3.1 320 19:20 22.07.2019
4820 Clear 28 1022 35 10000 3.6 290 18:47 22.07.2019
4821 Clear 28 1022 35 10000 3.6 290 18:28 22.07.2019
4822 Clear 28 1022 35 10000 3.6 290 17:57 22.07.2019
4823 Clear 28 1022 35 10000 3.6 290 17:38 22.07.2019
4824 Clear 28 1023 37 10000 3.1 0 17:19 22.07.2019
4825 Clear 29 1023 37 10000 4.6 280 16:40 22.07.2019
4826 Clear 28 1023 37 10000 3.1 300 16:21 22.07.2019
4827 Clear 28 1023 37 10000 3.1 300 16:21 22.07.2019
4828 Clear 28 1023 37 10000 4.1 290 15:44 22.07.2019
4829 Clear 27 1023 39 10000 4.1 310 15:21 22.07.2019
4830 Clear 27 1024 42 10000 5.1 300 14:59 22.07.2019
4831 Clear 27 1024 42 10000 5.1 300 14:40 22.07.2019
4832 Clear 26 1024 42 10000 5.7 310 14:18 22.07.2019
4833 Clear 26 1024 39 10000 5.7 280 13:40 22.07.2019
4834 Clear 26 1024 42 10000 5.7 290 13:22 22.07.2019
4835 Clear 26 1024 41 10000 6.2 280 12:43 22.07.2019
4836 Clouds 25 1024 41 10000 5.7 290 12:23 22.07.2019
4837 Clouds 24 1024 44 10000 5.7 270 11:44 22.07.2019
4838 Clouds 24 1024 44 10000 6.2 280 11:20 22.07.2019
4839 Clear 23 1024 50 10000 4.1 250 10:43 22.07.2019
4840 Clear 22 1024 53 10000 2.6 200 10:25 22.07.2019
4841 Clear 21 1024 60 10000 2.1 190 09:43 22.07.2019
4842 Clear 20 1024 72 10000 2.6 160 09:24 22.07.2019
4843 Clear 19 1024 82 10000 2.6 150 08:44 22.07.2019
4844 Clear 18 1024 82 10000 1.5 140 08:25 22.07.2019
4845 Clear 18 1023 87 10000 2.1 140 07:55 22.07.2019
4846 Clear 16 1023 93 10000 0.5 0 07:33 22.07.2019
4847 Clear 16 1023 93 10000 1.5 150 06:51 22.07.2019
4848 Clear 15 1023 87 10000 0.5 0 03:57 22.07.2019
4849 Clear 16 1023 82 10000 0.5 0 02:42 22.07.2019
4850 Clear 17 1023 82 10000 1 0 00:57 22.07.2019
4851 Clear 17 1023 77 10000 1.5 60 00:28 22.07.2019
4852 Clear 18 1023 72 10000 0.5 100 23:56 21.07.2019
4853 Clear 18 1023 72 10000 0.5 100 23:36 21.07.2019
4854 Clear 19 1023 68 10000 1 0 22:54 21.07.2019
4855 Clear 20 1023 68 10000 1 0 22:36 21.07.2019
4856 Clear 20 1022 68 10000 0.5 0 22:18 21.07.2019
4857 Clear 22 1022 60 10000 1.5 20 21:44 21.07.2019
4858 Clear 23 1022 49 10000 2.6 320 21:24 21.07.2019
4859 Clear 23 1022 47 10000 3.6 310 20:55 21.07.2019
4860 Clear 24 1022 47 10000 3.6 310 20:37 21.07.2019
4861 Clear 24 1021 47 10000 3.6 320 20:19 21.07.2019
4862 Clear 24 1021 47 10000 4.1 330 19:47 21.07.2019
4863 Clear 24 1021 44 10000 4.1 320 19:24 21.07.2019
4864 Clear 25 1022 44 10000 4.1 320 18:48 21.07.2019
4865 Clear 25 1022 44 10000 4.6 320 18:26 21.07.2019
4866 Clear 25 1021 41 10000 4.1 280 17:44 21.07.2019
4867 Clear 25 1022 44 10000 3.6 320 17:20 21.07.2019
4868 Clouds 25 1022 47 10000 3.1 290 16:59 21.07.2019
4869 Clouds 25 1022 47 10000 3.1 290 16:40 21.07.2019
4870 Clouds 25 1022 47 10000 4.1 310 16:20 21.07.2019
4871 Clouds 25 1022 53 10000 4.1 350 15:39 21.07.2019
4872 Clouds 25 1022 53 10000 4.1 350 15:19 21.07.2019
4873 Clouds 24 1021 50 10000 4.1 300 14:42 21.07.2019
4874 Clouds 24 1022 53 10000 3.6 270 14:23 21.07.2019
4875 Clouds 23 1022 60 10000 2.1 300 13:53 21.07.2019
4876 Clouds 23 1022 64 10000 2.6 0 13:32 21.07.2019
4877 Clouds 22 1022 64 10000 1.5 0 12:46 21.07.2019
4878 Clouds 21 1021 68 10000 1 0 12:28 21.07.2019
4879 Clouds 21 1021 68 10000 2.1 280 11:56 21.07.2019
4880 Clouds 20 1021 68 10000 2.1 280 11:38 21.07.2019
4881 Clouds 20 1021 68 10000 2.6 280 11:19 21.07.2019
4882 Clouds 19 1021 72 10000 2.1 260 10:41 21.07.2019
4883 Clouds 19 1020 72 10000 2.6 270 10:23 21.07.2019
4884 Clouds 18 1020 77 10000 4.1 270 09:49 21.07.2019
4885 Clouds 18 1020 77 10000 4.6 260 09:30 21.07.2019
4886 Clouds 17 1019 77 10000 4.1 250 08:47 21.07.2019
4887 Clouds 17 1019 77 10000 2.6 230 08:27 21.07.2019
4888 Clouds 17 1019 93 10000 0.5 0 07:40 21.07.2019
4889 Clear 16 1018 93 10000 0.5 0 06:59 21.07.2019
4890 Clear 16 1017 87 10000 0.5 0 05:54 21.07.2019
4891 Clear 17 1016 88 10000 1.5 0 02:59 21.07.2019
4892 Clear 18 1016 88 10000 0.5 0 01:50 21.07.2019
4893 Clear 18 1015 93 10000 1 0 00:42 21.07.2019
4894 Clear 18 1015 93 10000 0.5 0 00:20 21.07.2019
4895 Rain 19 1015 93 10000 0.5 0 23:44 20.07.2019
4896 Rain 19 1014 88 10000 2.1 130 23:22 20.07.2019
4897 Clouds 19 1014 88 10000 2.1 140 22:49 20.07.2019
4898 Clouds 20 1014 93 10000 1.5 60 22:23 20.07.2019
4899 Clouds 20 1013 88 10000 2.6 130 21:59 20.07.2019
4900 Clouds 20 1013 88 10000 2.6 130 21:39 20.07.2019
4901 Clouds 20 1013 93 10000 3.1 140 21:21 20.07.2019
4902 Clouds 21 1013 93 10000 2.6 140 20:42 20.07.2019
4903 Clouds 21 1013 88 10000 2.6 140 20:21 20.07.2019
4904 Rain 20 1013 93 10000 1 0 19:48 20.07.2019
4905 Rain 20 1013 82 10000 3.6 330 19:26 20.07.2019
4906 Rain 21 1012 73 10000 9.3 320 18:45 20.07.2019
4907 Thunderstorm 22 1012 88 7000 10.3 290 18:24 20.07.2019
4908 Thunderstorm 23 1010 78 10000 2.1 130 17:56 20.07.2019
4909 Thunderstorm 24 1010 78 10000 2.1 130 17:37 20.07.2019
4910 Rain 25 1010 78 10000 1.5 0 17:19 20.07.2019
4911 Thunderstorm 25 1010 61 10000 3.6 0 16:39 20.07.2019
4912 Rain 25 1010 69 10000 3.1 40 16:21 20.07.2019
4913 Thunderstorm 27 1010 48 10000 3.6 0 15:41 20.07.2019
4914 Thunderstorm 27 1010 61 10000 3.6 240 15:21 20.07.2019
4915 Rain 28 1010 37 10000 4.6 200 14:49 20.07.2019
4916 Rain 28 1011 42 10000 5.7 180 14:29 20.07.2019
4917 Rain 27 1011 39 10000 5.1 170 13:58 20.07.2019
4918 Rain 27 1011 39 10000 5.1 170 13:38 20.07.2019
4919 Clear 28 1011 45 10000 4.1 160 13:19 20.07.2019
4920 Clear 27 1011 47 10000 4.6 170 12:49 20.07.2019
4921 Clear 27 1011 47 10000 4.6 170 12:19 20.07.2019
4922 Clear 27 1011 44 10000 4.6 180 11:49 20.07.2019
4923 Clear 27 1011 47 10000 6.2 180 11:22 20.07.2019
4924 Clear 25 1011 50 10000 5.7 190 10:45 20.07.2019
4925 Clear 25 1011 53 10000 6.7 190 10:25 20.07.2019
4926 Clear 24 1011 57 10000 4.6 160 09:52 20.07.2019
4927 Clear 22 1011 64 10000 5.1 150 09:27 20.07.2019
4928 Clear 21 1011 68 10000 3.1 130 08:55 20.07.2019
4929 Clear 20 1012 68 10000 3.6 130 08:24 20.07.2019
4930 Clear 19 1012 72 10000 2.6 130 07:48 20.07.2019
4931 Clear 17 1012 77 10000 2.1 120 06:47 20.07.2019
4932 Clear 16 1012 77 10000 2.6 110 06:21 20.07.2019
4933 Clear 17 1013 77 10000 1.5 110 04:31 20.07.2019
4934 Clear 18 1013 72 10000 2.1 60 02:34 20.07.2019
4935 Clear 18 1014 63 10000 1 0 01:20 20.07.2019
4936 Clear 18 1014 63 10000 0.5 0 00:45 20.07.2019
4937 Clear 19 1014 72 10000 0.5 0 00:18 20.07.2019
4938 Clear 19 1014 77 10000 1 0 23:43 19.07.2019
4939 Clear 20 1014 72 10000 0.5 0 23:22 19.07.2019
4940 Clear 20 1014 63 10000 0.5 130 22:44 19.07.2019
4941 Clear 21 1014 72 10000 1 0 22:25 19.07.2019
4942 Clear 22 1014 56 10000 1 0 21:47 19.07.2019
4943 Clear 23 1013 46 10000 2.1 210 21:29 19.07.2019
4944 Clear 24 1013 41 10000 2.6 230 20:50 19.07.2019
4945 Clear 25 1013 38 10000 2.6 220 20:31 19.07.2019
4946 Clear 25 1013 36 10000 2.6 210 19:55 19.07.2019
4947 Clear 25 1013 36 10000 1.5 0 19:34 19.07.2019
4948 Clear 25 1014 38 10000 2.1 220 18:43 19.07.2019
4949 Clear 25 1014 38 10000 2.1 220 18:43 19.07.2019
4950 Clear 25 1014 41 10000 3.1 230 18:23 19.07.2019
4951 Clear 25 1014 41 10000 2.6 250 17:55 19.07.2019
4952 Clear 25 1014 41 10000 3.1 260 17:29 19.07.2019
4953 Clear 25 1014 39 10000 3.1 240 16:57 19.07.2019
4954 Clear 25 1014 44 10000 2.6 0 16:39 19.07.2019
4955 Clear 25 1014 44 10000 2.6 0 16:18 19.07.2019
4956 Clouds 25 1014 41 10000 2.6 310 15:43 19.07.2019
4957 Clouds 25 1014 44 10000 3.1 270 15:24 19.07.2019
4958 Clouds 25 1014 47 10000 3.6 300 14:45 19.07.2019
4959 Clouds 25 1014 47 10000 4.6 270 14:25 19.07.2019
4960 Clouds 24 1014 49 10000 5.1 270 13:57 19.07.2019
4961 Clouds 23 1014 49 10000 5.1 270 13:38 19.07.2019
4962 Clouds 23 1014 56 10000 5.7 280 13:20 19.07.2019
4963 Clouds 22 1014 60 10000 3.1 260 12:44 19.07.2019
4964 Clouds 21 1014 68 10000 2.6 230 12:25 19.07.2019
4965 Clouds 21 1014 64 10000 2.6 230 11:46 19.07.2019
4966 Clouds 20 1014 77 10000 2.6 0 11:19 19.07.2019
4967 Clouds 20 1014 82 10000 2.1 170 10:56 19.07.2019
4968 Clouds 20 1015 82 10000 2.1 190 10:37 19.07.2019
4969 Clouds 19 1015 82 10000 2.1 190 10:18 19.07.2019
4970 Clouds 18 1014 93 10000 2.1 160 09:43 19.07.2019
4971 Rain 18 1014 93 10000 2.1 130 09:22 19.07.2019
4972 Rain 18 1014 93 10000 2.1 130 08:50 19.07.2019
4973 Clouds 17 1014 93 10000 2.6 130 08:27 19.07.2019
4974 Rain 17 1014 93 10000 2.1 140 07:32 19.07.2019
4975 Rain 17 1014 93 10000 2.6 170 06:33 19.07.2019
4976 Rain 17 1014 93 9000 2.1 200 03:53 19.07.2019
4977 Rain 18 1013 88 10000 0.5 0 01:44 19.07.2019
4978 Rain 19 1013 77 10000 2.6 290 00:54 19.07.2019
4979 Rain 19 1013 77 10000 0.5 0 00:21 19.07.2019
4980 Rain 20 1013 77 10000 1.5 30 23:41 18.07.2019
4981 Rain 20 1013 72 10000 2.1 20 23:23 18.07.2019
4982 Rain 20 1012 64 10000 2.1 310 22:55 18.07.2019
4983 Rain 21 1012 49 10000 2.6 320 22:36 18.07.2019
4984 Rain 21 1012 49 10000 2.6 320 22:18 18.07.2019
4985 Rain 22 1012 56 10000 4.6 310 21:39 18.07.2019
4986 Rain 22 1012 56 10000 4.6 310 21:19 18.07.2019
4987 Clear 23 1011 53 10000 2.6 330 20:46 18.07.2019
4988 Rain 23 1011 53 10000 1 0 20:25 18.07.2019
4989 Clear 23 1011 50 10000 1 0 19:49 18.07.2019
4990 Clear 24 1011 50 10000 2.1 110 19:27 18.07.2019
4991 Clear 24 1011 44 10000 1 0 18:52 18.07.2019
4992 Rain 24 1011 38 10000 3.6 240 18:23 18.07.2019
4993 Rain 24 1011 47 10000 2.1 10 17:57 18.07.2019
4994 Rain 25 1011 47 10000 2.1 10 17:38 18.07.2019
4995 Rain 24 1011 50 10000 3.1 360 17:19 18.07.2019
4996 Rain 25 1011 50 10000 2.6 340 16:53 18.07.2019
4997 Clear 24 1011 50 10000 3.1 310 16:26 18.07.2019
4998 Rain 24 1011 64 10000 7.7 280 15:58 18.07.2019
4999 Rain 25 1011 36 10000 2.6 300 15:36 18.07.2019
5000 Rain 25 1011 36 10000 2.1 0 14:56 18.07.2019
5001 Clear 26 1011 36 10000 4.1 260 14:38 18.07.2019
5002 Clear 26 1011 36 10000 4.1 260 14:20 18.07.2019
5003 Rain 26 1011 38 10000 1.5 0 13:43 18.07.2019
5004 Clear 26 1011 39 10000 3.1 280 13:22 18.07.2019
5005 Clear 25 1011 38 10000 2.1 310 12:48 18.07.2019
5006 Clouds 24 1012 41 10000 2.1 0 12:21 18.07.2019
5007 Clouds 24 1012 41 10000 2.1 0 12:21 18.07.2019
5008 Clouds 24 1012 41 10000 2.1 150 11:52 18.07.2019
5009 Clouds 23 1012 49 10000 2.6 150 11:34 18.07.2019
5010 Clouds 23 1012 49 10000 2.6 150 11:34 18.07.2019
5011 Clear 22 1012 56 10000 1.5 0 10:58 18.07.2019
5012 Clear 21 1012 56 10000 1.5 0 10:38 18.07.2019
5013 Clear 19 1012 72 10000 2.1 90 09:48 18.07.2019
5014 Clear 18 1012 77 10000 1.5 100 09:25 18.07.2019
5015 Clear 17 1012 77 10000 1.5 100 08:50 18.07.2019
5016 Clear 16 1012 82 10000 1.5 100 08:21 18.07.2019
5017 Clear 15 1012 87 10000 1 0 07:48 18.07.2019
5018 Clear 14 1012 87 10000 1 0 07:27 18.07.2019
5019 Clear 14 1012 87 10000 1 0 06:43 18.07.2019
5020 Clear 13 1012 87 10000 0.5 0 05:57 18.07.2019
5021 Clear 14 1013 93 10000 1 80 03:24 18.07.2019
5022 Clear 14 1013 87 10000 1.5 150 01:52 18.07.2019
5023 Clear 14 1013 87 10000 1 0 01:32 18.07.2019
5024 Clear 16 1014 82 10000 2.1 80 23:57 17.07.2019
5025 Clear 17 1014 82 10000 2.1 70 23:21 17.07.2019
5026 Clear 17 1014 82 10000 2.1 90 22:58 17.07.2019
5027 Clear 18 1014 77 10000 1.5 90 22:40 17.07.2019
5028 Clear 18 1014 77 10000 1.5 90 22:21 17.07.2019
5029 Clear 19 1014 77 10000 1.5 80 21:56 17.07.2019
5030 Clear 19 1014 68 10000 1.5 80 21:36 17.07.2019
5031 Clear 20 1014 68 10000 1.5 80 21:18 17.07.2019
5032 Clouds 21 1014 56 10000 1.5 20 20:41 17.07.2019
5033 Clouds 21 1014 56 10000 1.5 20 20:21 17.07.2019
5034 Clouds 22 1014 56 10000 1.5 0 19:59 17.07.2019
5035 Clouds 22 1014 56 10000 1.5 0 19:40 17.07.2019
5036 Clouds 22 1014 56 10000 2.6 60 19:19 17.07.2019
5037 Clouds 22 1014 56 10000 2.6 70 18:43 17.07.2019
5038 Clouds 23 1014 56 10000 2.1 0 18:21 17.07.2019
5039 Clouds 22 1015 52 9000 2.6 350 17:56 17.07.2019
5040 Clouds 22 1015 52 9000 2.6 350 17:56 17.07.2019
5041 Clouds 23 1015 49 9000 1.5 60 17:38 17.07.2019
5042 Clouds 22 1015 60 10000 2.6 50 17:19 17.07.2019
5043 Clouds 22 1015 60 10000 1.5 0 16:40 17.07.2019
5044 Clouds 22 1015 60 10000 2.1 0 16:19 17.07.2019
5045 Clouds 22 1015 60 10000 2.1 0 15:51 17.07.2019
5046 Clouds 21 1016 63 10000 2.1 310 15:29 17.07.2019
5047 Clouds 21 1016 59 10000 1.5 10 14:56 17.07.2019
5048 Clouds 20 1016 63 10000 2.6 350 14:38 17.07.2019
5049 Clouds 20 1016 63 10000 2.6 360 14:19 17.07.2019
5050 Clouds 20 1016 63 10000 2.6 360 13:48 17.07.2019
5051 Clouds 20 1016 63 10000 2.1 360 13:30 17.07.2019
5052 Clouds 20 1016 63 7000 1.5 360 12:55 17.07.2019
5053 Clouds 19 1016 67 10000 1.5 70 12:36 17.07.2019
5054 Clouds 18 1016 77 10000 1 0 12:18 17.07.2019
5055 Clouds 17 1016 72 10000 0.5 0 11:39 17.07.2019
5056 Mist 17 1016 82 8000 0.5 0 11:19 17.07.2019
5057 Mist 17 1016 82 8000 0.5 0 10:43 17.07.2019
5058 Mist 16 1016 82 8000 0.5 0 10:20 17.07.2019
5059 Mist 15 1016 87 8000 1 0 09:45 17.07.2019
5060 Mist 15 1016 87 8000 1 0 09:27 17.07.2019
5061 Mist 15 1016 87 7000 1 0 09:27 17.07.2019
5062 Mist 14 1016 87 5000 0.5 0 08:45 17.07.2019
5063 Mist 13 1016 87 7000 0.5 140 08:24 17.07.2019
5064 Mist 13 1016 93 7000 0.5 80 07:58 17.07.2019
5065 Mist 13 1016 93 7000 0.5 0 07:38 17.07.2019
5066 Mist 12 1016 100 7000 0.5 0 07:19 17.07.2019
5067 Mist 12 1016 93 3000 1 0 06:45 17.07.2019
5068 Fog 12 1017 100 10000 0.5 0 06:45 17.07.2019
5069 Mist 11 1017 100 10000 0.5 0 06:24 17.07.2019
5070 Fog 11 1016 100 10000 1 0 05:38 17.07.2019
5071 Fog 10 1017 100 10000 1 0 04:58 17.07.2019
5072 Clear 11 1017 93 10000 2.1 70 03:57 17.07.2019
5073 Clear 12 1017 93 10000 1 0 02:44 17.07.2019
5074 Clouds 12 1017 87 10000 2.1 250 01:43 17.07.2019
5075 Clear 12 1017 93 10000 1.5 60 01:23 17.07.2019
5076 Clear 13 1017 82 10000 1 0 00:43 17.07.2019
5077 Clear 13 1017 82 10000 1.5 40 00:23 17.07.2019
5078 Clouds 14 1017 76 10000 2.1 250 23:49 16.07.2019
5079 Clear 14 1017 82 10000 1.5 50 23:28 16.07.2019
5080 Clear 15 1017 77 10000 1.5 50 22:57 16.07.2019
5081 Clear 15 1017 72 10000 1.5 350 22:39 16.07.2019
5082 Clear 16 1017 67 10000 2.1 340 22:19 16.07.2019
5083 Clear 16 1017 67 10000 2.1 340 22:19 16.07.2019
5084 Clear 17 1017 63 10000 2.1 340 21:45 16.07.2019
5085 Clear 18 1017 63 10000 2.1 340 21:21 16.07.2019
5086 Clear 19 1017 63 10000 2.1 340 20:57 16.07.2019
5087 Clear 19 1017 59 10000 2.6 330 20:38 16.07.2019
5088 Clouds 19 1017 52 10000 3.1 360 20:20 16.07.2019
5089 Clouds 19 1018 55 10000 3.1 340 19:46 16.07.2019
5090 Clouds 19 1018 52 10000 2.6 350 19:27 16.07.2019
5091 Clouds 20 1018 52 10000 2.6 330 18:46 16.07.2019
5092 Clouds 20 1018 52 10000 2.6 330 18:21 16.07.2019
5093 Clouds 20 1018 52 10000 2.6 340 17:58 16.07.2019
5094 Clouds 20 1018 55 10000 2.6 300 17:39 16.07.2019
5095 Clouds 20 1018 55 10000 2.6 300 17:20 16.07.2019
5096 Clouds 20 1019 55 10000 3.1 280 16:42 16.07.2019
5097 Clouds 19 1019 55 10000 2.6 0 16:20 16.07.2019
5098 Clouds 19 1019 59 10000 2.1 320 15:41 16.07.2019
5099 Clouds 18 1019 59 10000 2.1 320 15:21 16.07.2019
5100 Clouds 18 1019 63 10000 3.1 0 14:59 16.07.2019
5101 Clouds 17 1019 59 10000 3.1 330 14:41 16.07.2019
5102 Clouds 17 1019 59 10000 3.1 330 14:23 16.07.2019
5103 Clouds 17 1019 63 10000 3.1 300 13:45 16.07.2019
5104 Clouds 17 1019 63 10000 3.1 300 13:26 16.07.2019
5105 Clouds 16 1019 67 10000 3.6 280 12:55 16.07.2019
5106 Clouds 16 1019 67 10000 3.6 310 12:37 16.07.2019
5107 Clouds 15 1019 72 10000 3.6 330 12:19 16.07.2019
5108 Clouds 15 1019 72 10000 3.6 320 11:43 16.07.2019
5109 Clouds 15 1019 72 10000 3.6 320 11:23 16.07.2019
5110 Clouds 15 1019 72 10000 2.1 330 10:57 16.07.2019
5111 Clouds 15 1019 76 10000 0.5 0 10:38 16.07.2019
5112 Clouds 15 1019 76 10000 0.5 0 10:18 16.07.2019
5113 Clouds 15 1019 76 10000 0.5 0 10:18 16.07.2019
5114 Clouds 14 1020 82 10000 0.5 0 09:42 16.07.2019
5115 Rain 14 1020 82 10000 0.5 0 09:19 16.07.2019
5116 Clouds 13 1019 87 10000 1 0 08:46 16.07.2019
5117 Clouds 13 1019 87 10000 1 0 08:22 16.07.2019
5118 Clouds 12 1019 87 10000 0.5 210 07:49 16.07.2019
5119 Clouds 12 1019 87 10000 0.5 210 07:31 16.07.2019
5120 Clouds 12 1019 93 10000 1.5 50 06:57 16.07.2019
5121 Fog 11 1019 93 10000 1.5 40 06:35 16.07.2019
5122 Clouds 11 1019 93 10000 0.5 290 05:45 16.07.2019
5123 Clouds 11 1019 93 10000 0.5 290 05:24 16.07.2019
5124 Clouds 11 1019 87 10000 1 30 04:26 16.07.2019
5125 Clouds 12 1019 82 10000 2.6 340 03:34 16.07.2019
5126 Clouds 13 1019 82 10000 1 0 02:42 16.07.2019
5127 Clouds 13 1019 82 10000 1 0 02:19 16.07.2019
5128 Clouds 14 1019 76 10000 0.5 0 01:24 16.07.2019
5129 Clouds 15 1019 77 10000 0.5 0 00:23 16.07.2019
5130 Clouds 15 1019 77 10000 1.5 0 23:58 15.07.2019
5131 Clouds 15 1019 77 10000 1.5 0 23:38 15.07.2019
5132 Clouds 15 1019 77 10000 1.5 0 23:18 15.07.2019
5133 Clouds 15 1019 67 10000 1.5 280 22:43 15.07.2019
5134 Clouds 16 1019 77 10000 1 60 22:20 15.07.2019
5135 Clouds 16 1019 77 10000 1 60 22:20 15.07.2019
5136 Clouds 16 1019 72 10000 1 0 21:57 15.07.2019
5137 Clouds 16 1019 67 10000 1 0 21:38 15.07.2019
5138 Clouds 16 1019 67 10000 1 0 21:19 15.07.2019
5139 Clouds 17 1019 63 10000 3.1 310 20:44 15.07.2019
5140 Clouds 17 1019 67 10000 1.5 350 20:23 15.07.2019
5141 Clouds 17 1019 67 10000 2.6 350 19:56 15.07.2019
5142 Clouds 17 1019 67 10000 3.1 360 19:38 15.07.2019
5143 Clouds 17 1019 67 10000 3.1 360 19:18 15.07.2019
5144 Clouds 17 1019 63 10000 3.6 340 18:44 15.07.2019
5145 Clouds 17 1019 63 10000 3.6 340 18:21 15.07.2019
5146 Clouds 17 1019 63 10000 3.1 340 17:56 15.07.2019
5147 Clouds 17 1020 67 10000 2.6 350 17:38 15.07.2019
5148 Clouds 17 1020 67 10000 2.6 350 17:20 15.07.2019
5149 Clouds 17 1020 67 10000 3.6 350 16:57 15.07.2019
5150 Clouds 17 1020 67 10000 2.6 340 16:36 15.07.2019
5151 Clouds 17 1020 67 10000 3.6 320 16:18 15.07.2019
5152 Clouds 17 1020 67 10000 3.6 310 15:39 15.07.2019
5153 Clouds 17 1020 67 10000 3.6 310 15:39 15.07.2019
5154 Clouds 17 1020 67 10000 3.6 320 15:21 15.07.2019
5155 Clouds 17 1020 67 10000 3.6 320 14:58 15.07.2019
5156 Clouds 16 1020 67 10000 3.1 350 14:37 15.07.2019
5157 Clouds 16 1020 72 10000 3.6 330 14:19 15.07.2019
5158 Clouds 16 1020 67 10000 3.6 340 13:46 15.07.2019
5159 Clouds 16 1020 63 10000 2.6 350 13:18 15.07.2019
5160 Clouds 16 1020 63 10000 3.6 360 12:44 15.07.2019
5161 Clouds 16 1020 63 10000 3.6 360 12:25 15.07.2019
5162 Clouds 16 1020 63 10000 3.6 330 11:57 15.07.2019
5163 Clouds 15 1019 63 10000 3.6 360 11:38 15.07.2019
5164 Clouds 15 1019 63 10000 4.1 320 11:18 15.07.2019
5165 Clouds 14 1019 63 10000 4.1 340 10:40 15.07.2019
5166 Clouds 15 1019 67 10000 3.1 20 10:22 15.07.2019
5167 Clouds 14 1019 72 10000 2.1 360 09:42 15.07.2019
5168 Clouds 14 1019 72 10000 2.1 360 09:20 15.07.2019
5169 Clouds 13 1019 76 10000 3.1 340 08:46 15.07.2019
5170 Clouds 13 1019 76 10000 3.1 340 08:25 15.07.2019
5171 Clouds 13 1020 87 10000 2.6 310 07:52 15.07.2019
5172 Clouds 13 1019 82 10000 2.6 330 07:32 15.07.2019
5173 Fog 12 1018 82 10000 2.1 340 06:41 15.07.2019
5174 Fog 12 1018 82 10000 2.1 340 06:20 15.07.2019
5175 Fog 12 1019 81 10000 2.6 310 05:42 15.07.2019
5176 Clouds 12 1019 77 10000 1.5 350 04:48 15.07.2019
5177 Clouds 13 1019 77 10000 3.1 320 04:29 15.07.2019
5178 Clouds 14 1019 77 10000 2.6 30 03:29 15.07.2019
5179 Clouds 14 1019 82 10000 1.5 60 02:23 15.07.2019
5180 Clouds 15 1019 77 10000 1 50 01:35 15.07.2019
5181 Clouds 15 1019 77 10000 1 50 01:35 15.07.2019
5182 Clouds 15 1019 77 10000 1 50 00:54 15.07.2019
5183 Clouds 16 1019 82 10000 1 40 00:28 15.07.2019
5184 Clouds 16 1019 77 10000 1 0 23:59 14.07.2019
5185 Clouds 16 1019 77 10000 1 50 23:40 14.07.2019
5186 Clouds 16 1019 77 10000 1 60 23:20 14.07.2019
5187 Clouds 16 1019 77 10000 1 60 23:20 14.07.2019
5188 Clouds 16 1019 77 10000 1 60 22:57 14.07.2019
5189 Clouds 16 1019 72 10000 1 40 22:38 14.07.2019
5190 Clouds 17 1019 63 10000 1 10 22:20 14.07.2019
5191 Clouds 17 1019 67 10000 1.5 330 21:46 14.07.2019
5192 Clouds 17 1019 63 10000 1.5 360 21:19 14.07.2019
5193 Clouds 17 1019 63 10000 1.5 360 20:59 14.07.2019
5194 Clouds 17 1019 59 10000 2.6 360 20:39 14.07.2019
5195 Clouds 17 1019 55 10000 2.6 360 20:20 14.07.2019
5196 Clouds 18 1019 55 10000 2.6 360 19:56 14.07.2019
5197 Clouds 18 1019 55 10000 3.1 360 19:38 14.07.2019
5198 Clouds 18 1019 55 10000 3.1 20 19:19 14.07.2019
5199 Clouds 18 1019 59 10000 3.6 350 18:41 14.07.2019
5200 Clouds 18 1019 59 10000 3.6 350 18:41 14.07.2019
5201 Clouds 18 1019 59 10000 3.6 350 18:22 14.07.2019
5202 Clouds 18 1019 59 10000 4.1 330 17:58 14.07.2019
5203 Clouds 18 1019 59 10000 3.1 360 17:36 14.07.2019
5204 Clouds 18 1019 59 10000 4.1 340 17:18 14.07.2019
5205 Clouds 18 1019 55 10000 3.1 350 16:42 14.07.2019
5206 Clouds 18 1019 55 10000 3.1 350 16:21 14.07.2019
5207 Clouds 18 1019 55 10000 3.6 0 15:43 14.07.2019
5208 Clouds 18 1019 55 10000 3.6 0 15:23 14.07.2019
5209 Clouds 17 1020 59 10000 3.6 340 14:47 14.07.2019
5210 Clouds 17 1019 59 10000 3.1 340 14:20 14.07.2019
5211 Clouds 17 1019 59 10000 3.1 340 14:20 14.07.2019
5212 Clouds 17 1019 59 10000 3.1 340 13:47 14.07.2019
5213 Clouds 17 1019 59 10000 3.1 340 13:47 14.07.2019
5214 Clouds 17 1020 55 10000 3.1 350 13:25 14.07.2019
5215 Clouds 17 1020 59 10000 3.6 330 12:58 14.07.2019
5216 Clouds 16 1020 55 10000 3.1 360 12:40 14.07.2019
5217 Clouds 16 1019 59 10000 3.6 340 12:19 14.07.2019
5218 Clouds 16 1019 59 10000 3.6 340 11:50 14.07.2019
5219 Clouds 16 1020 63 10000 4.1 330 11:20 14.07.2019
5220 Clouds 15 1019 63 10000 4.1 350 10:46 14.07.2019
5221 Clouds 15 1019 63 10000 4.1 350 10:21 14.07.2019
5222 Clouds 15 1020 67 10000 4.1 330 09:50 14.07.2019
5223 Clouds 14 1019 67 10000 3.6 340 09:30 14.07.2019
5224 Clouds 14 1019 67 10000 4.6 340 08:57 14.07.2019
5225 Clouds 14 1019 76 10000 3.6 350 08:39 14.07.2019
5226 Clouds 14 1019 67 10000 3.1 320 07:46 14.07.2019
5227 Clouds 14 1019 76 10000 3.1 350 07:21 14.07.2019
5228 Clouds 14 1019 82 10000 2.6 310 05:47 14.07.2019
5229 Clouds 14 1019 77 10000 2.6 320 05:25 14.07.2019
5230 Clouds 15 1019 82 10000 2.1 330 03:44 14.07.2019
5231 Clouds 15 1019 82 10000 2.1 330 03:25 14.07.2019
5232 Clouds 15 1019 77 10000 3.1 340 02:25 14.07.2019
5233 Clouds 15 1020 82 10000 2.1 320 01:57 14.07.2019
5234 Clouds 15 1019 72 10000 4.6 330 01:30 14.07.2019
5235 Drizzle 16 1019 72 10000 4.6 330 00:55 14.07.2019
5236 Clear 16 1019 72 10000 4.1 330 00:36 14.07.2019
5237 Clouds 16 1019 77 10000 4.6 320 00:18 14.07.2019
5238 Clear 16 1019 87 10000 2.1 310 23:41 13.07.2019
5239 Clouds 17 1018 72 10000 3.6 330 23:22 13.07.2019
5240 Clouds 17 1018 72 10000 3.6 330 22:42 13.07.2019
5241 Clouds 17 1018 72 10000 3.1 340 22:22 13.07.2019
5242 Clouds 18 1019 77 10000 2.1 310 21:49 13.07.2019
5243 Clouds 18 1018 77 10000 3.1 350 21:22 13.07.2019
5244 Clouds 18 1017 77 10000 3.1 350 20:53 13.07.2019
5245 Rain 19 1017 72 10000 4.1 270 20:34 13.07.2019
5246 Rain 19 1017 68 10000 4.6 250 19:59 13.07.2019
5247 Clouds 19 1017 68 10000 4.6 270 19:37 13.07.2019
5248 Rain 20 1017 68 10000 6.7 280 19:19 13.07.2019
5249 Rain 20 1017 64 10000 3.6 290 18:39 13.07.2019
5250 Clouds 21 1017 60 10000 4.6 250 18:19 13.07.2019
5251 Rain 21 1018 77 2500 5.1 310 17:38 13.07.2019
5252 Rain 21 1018 77 2500 5.1 310 17:19 13.07.2019
5253 Rain 20 1018 64 10000 3.1 280 16:44 13.07.2019
5254 Rain 20 1018 64 10000 3.1 280 16:26 13.07.2019
5255 Rain 20 1018 64 10000 3.1 280 16:26 13.07.2019
5256 Clouds 20 1018 68 10000 3.6 280 15:48 13.07.2019
5257 Clouds 19 1018 68 10000 3.6 280 15:25 13.07.2019
5258 Clouds 19 1018 72 10000 3.1 330 14:59 13.07.2019
5259 Rain 19 1018 68 10000 5.1 310 14:41 13.07.2019
5260 Rain 19 1018 68 10000 5.1 310 14:20 13.07.2019
5261 Clouds 19 1018 72 10000 4.6 340 13:44 13.07.2019
5262 Clouds 18 1018 82 10000 4.1 350 13:19 13.07.2019
5263 Clouds 17 1017 77 10000 5.1 310 12:42 13.07.2019
5264 Clouds 17 1017 77 10000 5.1 310 12:23 13.07.2019
5265 Rain 17 1017 77 10000 6.2 300 11:57 13.07.2019
5266 Rain 17 1017 82 10000 5.7 300 11:37 13.07.2019
5267 Rain 17 1017 88 10000 4.1 310 11:18 13.07.2019
5268 Rain 17 1017 93 10000 3.6 290 10:41 13.07.2019
5269 Rain 17 1017 93 10000 3.6 290 10:23 13.07.2019
5270 Drizzle 16 1017 82 10000 4.1 290 09:48 13.07.2019
5271 Drizzle 16 1017 93 7000 4.6 300 09:28 13.07.2019
5272 Rain 16 1016 93 9000 4.6 280 08:56 13.07.2019
5273 Rain 15 1016 93 9000 3.6 280 08:28 13.07.2019
5274 Rain 15 1016 93 9000 3.6 280 08:28 13.07.2019
5275 Rain 15 1016 93 9000 4.1 280 07:55 13.07.2019
5276 Rain 15 1016 93 9000 3.1 270 07:28 13.07.2019
5277 Rain 15 1016 87 10000 3.6 280 06:31 13.07.2019
5278 Clouds 15 1015 93 10000 3.6 300 05:48 13.07.2019
5279 Clouds 15 1015 93 10000 3.1 330 04:41 13.07.2019
5280 Clouds 15 1015 87 10000 3.6 320 04:21 13.07.2019
5281 Clouds 15 1015 87 10000 3.6 320 03:42 13.07.2019
5282 Clouds 15 1015 87 10000 5.1 310 03:18 13.07.2019
5283 Clouds 15 1015 93 10000 4.1 280 01:54 13.07.2019
5284 Clouds 15 1014 93 10000 2.1 260 01:36 13.07.2019
5285 Clouds 15 1014 93 10000 2.1 320 01:18 13.07.2019
5286 Rain 15 1014 93 10000 2.6 310 00:42 13.07.2019
5287 Clouds 16 1014 93 10000 3.1 320 00:18 13.07.2019
5288 Rain 16 1014 93 10000 4.1 300 23:37 12.07.2019
5289 Thunderstorm 16 1014 93 4000 6.2 300 22:59 12.07.2019
5290 Rain 16 1013 88 10000 5.7 290 22:41 12.07.2019
5291 Rain 16 1013 88 10000 5.7 290 22:22 12.07.2019
5292 Rain 17 1012 68 10000 7.7 290 21:42 12.07.2019
5293 Rain 17 1012 68 10000 7.7 290 21:21 12.07.2019
5294 Rain 18 1012 88 10000 6.2 270 20:53 12.07.2019
5295 Rain 18 1011 68 10000 5.1 280 20:24 12.07.2019
5296 Thunderstorm 18 1012 82 10000 6.2 280 19:45 12.07.2019
5297 Rain 19 1011 68 10000 7.2 300 19:27 12.07.2019
5298 Rain 19 1011 64 10000 7.7 300 18:59 12.07.2019
5299 Thunderstorm 19 1011 56 10000 6.7 280 18:38 12.07.2019
5300 Rain 19 1011 56 10000 6.7 280 18:19 12.07.2019
5301 Rain 19 1012 82 10000 7.2 260 17:47 12.07.2019
5302 Rain 20 1010 60 10000 8.2 300 17:27 12.07.2019
5303 Rain 21 1010 47 10000 10.8 310 16:44 12.07.2019
5304 Rain 21 1009 44 10000 8.2 320 16:21 12.07.2019
5305 Rain 22 1010 36 10000 5.1 290 15:41 12.07.2019
5306 Rain 23 1010 41 10000 4.6 280 15:21 12.07.2019
5307 Rain 23 1010 41 10000 4.6 280 14:56 12.07.2019
5308 Clouds 23 1010 41 10000 4.6 300 14:38 12.07.2019
5309 Rain 23 1010 41 10000 4.1 350 14:20 12.07.2019
5310 Clouds 24 1010 41 10000 3.1 0 13:39 12.07.2019
5311 Clouds 24 1010 47 10000 2.1 20 13:20 12.07.2019
5312 Clouds 23 1011 44 10000 2.6 240 12:40 12.07.2019
5313 Clouds 23 1011 47 10000 2.1 0 12:20 12.07.2019
5314 Clouds 22 1011 47 10000 2.6 0 11:45 12.07.2019
5315 Clouds 22 1011 53 10000 1.5 200 11:23 12.07.2019
5316 Clear 22 1011 60 10000 1 0 10:44 12.07.2019
5317 Clear 22 1011 60 10000 1 0 10:25 12.07.2019
5318 Clouds 21 1011 60 10000 1.5 10 09:55 12.07.2019
5319 Clear 20 1011 72 10000 2.1 140 09:36 12.07.2019
5320 Clear 19 1011 77 10000 2.6 140 09:18 12.07.2019
5321 Clouds 18 1011 82 10000 2.1 0 08:42 12.07.2019
5322 Clouds 17 1011 87 10000 1.5 130 08:20 12.07.2019
5323 Clouds 16 1011 93 10000 1 0 07:47 12.07.2019
5324 Clouds 16 1011 93 10000 1 0 07:27 12.07.2019
5325 Clear 15 1012 93 10000 1.5 80 06:29 12.07.2019
5326 Clear 15 1012 93 10000 1 0 05:50 12.07.2019
5327 Clear 16 1012 93 10000 1 0 03:24 12.07.2019
5328 Clear 16 1012 87 10000 1 0 01:48 12.07.2019
5329 Clear 17 1012 82 10000 1.5 140 01:26 12.07.2019
5330 Clear 17 1012 77 10000 1.5 120 00:34 12.07.2019
5331 Clouds 18 1013 63 10000 1.5 240 23:54 11.07.2019
5332 Clear 18 1012 77 10000 3.1 160 23:36 11.07.2019
5333 Clear 19 1012 77 10000 3.6 140 23:18 11.07.2019
5334 Clear 19 1012 77 10000 2.1 130 22:41 11.07.2019
5335 Clouds 19 1012 72 10000 2.6 140 22:22 11.07.2019
5336 Rain 20 1012 49 10000 2.6 270 21:43 11.07.2019
5337 Rain 21 1012 73 10000 3.1 150 21:20 11.07.2019
5338 Rain 21 1012 73 10000 3.1 150 21:20 11.07.2019
5339 Rain 21 1012 73 10000 3.1 150 21:20 11.07.2019
5340 Rain 21 1012 73 10000 3.1 150 20:58 11.07.2019
5341 Rain 22 1012 73 10000 4.1 160 20:40 11.07.2019
5342 Clouds 22 1012 68 10000 6.2 170 20:22 11.07.2019
5343 Clouds 22 1012 38 10000 5.7 280 19:54 11.07.2019
5344 Clouds 22 1012 68 10000 4.6 170 19:36 11.07.2019
5345 Clouds 23 1011 68 10000 5.7 150 19:18 11.07.2019
5346 Clouds 23 1012 64 10000 5.1 150 18:39 11.07.2019
5347 Clouds 23 1012 73 10000 4.6 160 18:21 11.07.2019
5348 Rain 23 1011 41 10000 6.7 280 17:46 11.07.2019
5349 Rain 23 1012 68 10000 5.1 150 17:28 11.07.2019
5350 Rain 23 1012 68 10000 5.1 150 16:52 11.07.2019
5351 Clouds 23 1013 68 10000 3.6 150 16:24 11.07.2019
5352 Clouds 23 1013 68 10000 3.6 150 15:57 11.07.2019
5353 Rain 23 1013 72 10000 4.1 160 15:38 11.07.2019
5354 Clouds 21 1013 77 10000 4.1 160 15:19 11.07.2019
5355 Rain 21 1013 77 10000 3.6 160 14:44 11.07.2019
5356 Rain 20 1013 77 10000 4.1 190 14:23 11.07.2019
5357 Rain 20 1013 68 10000 2.1 190 13:47 11.07.2019
5358 Rain 19 1014 77 10000 3.1 200 13:29 11.07.2019
5359 Rain 19 1014 77 10000 1 0 12:57 11.07.2019
5360 Rain 19 1014 72 10000 1.5 130 12:37 11.07.2019
5361 Rain 19 1014 68 10000 2.6 170 12:18 11.07.2019
5362 Clear 19 1014 68 10000 3.6 150 11:41 11.07.2019
5363 Clear 19 1014 68 10000 3.6 150 11:23 11.07.2019
5364 Clear 19 1014 77 10000 2.6 120 10:51 11.07.2019
5365 Clear 18 1014 77 10000 2.6 120 10:19 11.07.2019
5366 Clouds 17 1014 87 10000 1.5 110 09:49 11.07.2019
5367 Clouds 17 1014 87 10000 1.5 110 09:31 11.07.2019
5368 Clouds 17 1014 72 10000 1.5 150 08:57 11.07.2019
5369 Clouds 16 1014 93 10000 2.6 100 08:37 11.07.2019
5370 Clouds 16 1014 93 10000 2.6 100 08:19 11.07.2019
5371 Rain 16 1014 87 10000 2.6 90 07:42 11.07.2019
5372 Rain 16 1014 67 10000 1 0 06:49 11.07.2019
5373 Rain 15 1015 87 10000 2.1 90 06:18 11.07.2019
5374 Rain 16 1015 82 10000 2.1 110 05:31 11.07.2019
5375 Rain 16 1015 82 10000 1.5 120 04:56 11.07.2019
5376 Clouds 16 1016 87 10000 1.5 100 03:19 11.07.2019
5377 Clouds 16 1017 82 10000 1.5 50 02:18 11.07.2019
5378 Rain 16 1017 72 10000 1 0 00:32 11.07.2019
5379 Rain 16 1017 72 10000 2.1 60 23:50 10.07.2019
5380 Rain 17 1017 72 10000 3.1 60 23:24 10.07.2019
5381 Rain 16 1017 63 10000 3.6 30 22:56 10.07.2019
5382 Rain 17 1017 59 10000 2.6 20 22:25 10.07.2019
5383 Rain 18 1017 42 10000 4.6 20 21:56 10.07.2019
5384 Rain 17 1017 48 10000 4.1 30 21:56 10.07.2019
5385 Rain 19 1017 45 10000 3.6 10 21:38 10.07.2019
5386 Rain 19 1017 37 10000 3.1 340 21:19 10.07.2019
5387 Rain 21 1017 35 10000 4.1 340 20:44 10.07.2019
5388 Rain 21 1017 35 10000 4.1 340 20:26 10.07.2019
5389 Rain 22 1017 31 10000 3.6 340 19:57 10.07.2019
5390 Rain 22 1017 31 10000 3.6 340 19:38 10.07.2019
5391 Rain 22 1017 27 10000 3.1 310 19:20 10.07.2019
5392 Rain 22 1018 33 10000 3.6 360 18:46 10.07.2019
5393 Rain 23 1017 25 10000 3.6 340 18:23 10.07.2019
5394 Rain 23 1018 22 10000 4.1 350 17:47 10.07.2019
5395 Rain 24 1018 22 10000 4.1 350 17:29 10.07.2019
5396 Clear 24 1018 22 10000 4.1 0 16:47 10.07.2019
5397 Clear 24 1018 22 10000 4.1 0 16:47 10.07.2019
5398 Clear 24 1018 50 10000 4.6 280 16:21 10.07.2019
5399 Clouds 24 1019 50 10000 2.6 320 15:47 10.07.2019
5400 Clear 23 1019 23 10000 2.1 0 15:26 10.07.2019
5401 Clouds 23 1019 24 10000 2.1 10 14:55 10.07.2019
5402 Clear 23 1019 28 10000 2.1 0 14:37 10.07.2019
5403 Clear 23 1019 28 10000 2.1 0 14:18 10.07.2019
5404 Clear 22 1020 33 10000 2.6 0 13:37 10.07.2019
5405 Clear 22 1020 32 10000 1.5 0 13:18 10.07.2019
5406 Clear 21 1020 37 10000 2.6 290 12:41 10.07.2019
5407 Clear 20 1020 37 10000 2.6 290 12:21 10.07.2019
5408 Clouds 20 1020 42 10000 0.5 240 11:50 10.07.2019
5409 Clear 19 1020 55 10000 1.5 0 11:22 10.07.2019
5410 Clear 19 1020 55 10000 1.5 0 10:58 10.07.2019
5411 Clear 19 1020 55 10000 1.5 0 10:58 10.07.2019
5412 Clear 18 1020 55 10000 1 0 10:36 10.07.2019
5413 Clear 17 1021 58 10000 2.1 190 10:18 10.07.2019
5414 Clear 16 1021 66 10000 2.1 170 09:41 10.07.2019
5415 Clear 15 1021 66 10000 2.1 170 09:20 10.07.2019
5416 Clear 13 1021 76 10000 1 0 08:49 10.07.2019
5417 Clear 13 1021 76 10000 1 0 08:27 10.07.2019
5418 Clear 12 1020 87 10000 0.5 0 07:53 10.07.2019
5419 Clear 10 1021 87 10000 0.5 0 07:24 10.07.2019
5420 Clear 9 1021 93 10000 0.5 60 06:41 10.07.2019
5421 Clear 9 1020 87 10000 1 0 05:42 10.07.2019
5422 Clear 10 1020 81 10000 0.5 180 04:34 10.07.2019
5423 Clear 11 1020 76 10000 0.5 70 02:40 10.07.2019
5424 Clear 13 1020 62 10000 2.1 60 00:44 10.07.2019
5425 Clear 14 1020 62 10000 2.1 50 23:58 09.07.2019
5426 Clear 14 1020 58 10000 2.1 50 23:39 09.07.2019
5427 Clear 15 1020 58 10000 2.1 50 23:20 09.07.2019
5428 Clear 16 1020 48 10000 1 30 22:40 09.07.2019
5429 Clear 17 1019 45 10000 2.1 30 22:22 09.07.2019
5430 Clear 17 1019 45 10000 2.1 30 21:54 09.07.2019
5431 Clear 17 1019 45 10000 2.1 30 21:54 09.07.2019
5432 Clear 18 1019 42 10000 3.1 10 21:36 09.07.2019
5433 Clear 19 1019 40 10000 3.1 10 21:18 09.07.2019
5434 Clear 19 1019 35 10000 3.1 360 20:42 09.07.2019
5435 Clear 20 1019 35 10000 3.1 360 20:24 09.07.2019
5436 Clear 20 1019 34 10000 3.1 340 19:39 09.07.2019
5437 Clear 20 1019 32 10000 6.2 320 19:20 09.07.2019
5438 Clear 20 1019 35 10000 2.6 330 18:44 09.07.2019
5439 Clear 20 1019 35 10000 2.6 330 18:23 09.07.2019
5440 Clear 20 1020 39 10000 3.6 360 17:55 09.07.2019
5441 Clouds 20 1020 32 10000 5.1 320 17:37 09.07.2019
5442 Clouds 20 1020 32 10000 5.1 320 17:18 09.07.2019
5443 Clear 20 1020 37 10000 2.6 0 16:46 09.07.2019
5444 Clear 20 1020 37 10000 2.6 0 16:24 09.07.2019
5445 Clouds 20 1020 39 10000 3.1 360 15:49 09.07.2019
5446 Clouds 19 1020 39 10000 3.1 360 15:29 09.07.2019
5447 Clouds 19 1021 42 10000 3.1 10 14:47 09.07.2019
5448 Clouds 19 1021 42 10000 3.6 40 14:25 09.07.2019
5449 Clouds 19 1021 42 10000 3.1 10 13:59 09.07.2019
5450 Clouds 19 1021 42 10000 3.6 350 13:40 09.07.2019
5451 Clouds 19 1021 42 10000 3.6 350 13:21 09.07.2019
5452 Clouds 17 1021 45 10000 4.1 350 12:40 09.07.2019
5453 Clouds 17 1021 45 10000 4.1 350 12:40 09.07.2019
5454 Clouds 17 1021 48 10000 2.6 360 12:19 09.07.2019
5455 Clouds 16 1021 48 10000 2.6 360 11:57 09.07.2019
5456 Clouds 16 1021 48 10000 3.6 350 11:38 09.07.2019
5457 Clouds 16 1021 55 10000 4.1 340 11:20 09.07.2019
5458 Clouds 16 1021 48 10000 3.6 20 10:49 09.07.2019
5459 Clouds 16 1021 58 10000 3.6 330 10:30 09.07.2019
5460 Clouds 14 1021 62 10000 3.1 340 09:41 09.07.2019
5461 Clouds 14 1021 62 10000 3.1 340 09:21 09.07.2019
5462 Clouds 13 1021 81 10000 2.1 340 08:45 09.07.2019
5463 Clouds 12 1021 81 10000 2.1 340 08:23 09.07.2019
5464 Clear 16 1019 62 10000 1 0 03:58 05.07.2019
5465 Clear 16 1019 67 10000 0.5 0 03:38 05.07.2019
5466 Clear 16 1019 67 10000 0.5 0 03:19 05.07.2019
5467 Clear 15 1019 62 10000 1 70 02:44 05.07.2019
5468 Clear 16 1020 58 10000 1 0 01:39 05.07.2019
5469 Clear 16 1020 58 10000 1 0 01:19 05.07.2019
5470 Clouds 16 1020 48 10000 2.6 260 00:46 05.07.2019
5471 Clear 17 1020 48 10000 0.5 0 23:53 04.07.2019
5472 Clear 18 1020 45 10000 1.5 30 23:21 04.07.2019
5473 Clear 18 1020 45 10000 1.5 30 22:57 04.07.2019
5474 Clear 19 1020 42 10000 2.1 360 22:39 04.07.2019
5475 Clear 19 1020 42 10000 2.1 360 22:18 04.07.2019
5476 Clear 21 1019 37 10000 2.6 340 21:40 04.07.2019
5477 Clear 21 1019 37 10000 2.6 340 21:22 04.07.2019
5478 Clear 22 1020 33 10000 2.1 330 20:55 04.07.2019
5479 Clear 23 1020 27 10000 2.6 340 20:37 04.07.2019
5480 Clear 23 1020 27 10000 2.6 340 20:18 04.07.2019
5481 Clear 24 1020 25 10000 3.1 320 19:41 04.07.2019
5482 Clear 24 1020 25 10000 3.1 320 19:20 04.07.2019
5483 Clear 24 1021 27 10000 2.1 0 18:44 04.07.2019
5484 Clear 24 1021 27 10000 2.1 0 18:26 04.07.2019
5485 Clouds 24 1021 28 10000 2.6 330 17:47 04.07.2019
5486 Clear 24 1022 27 10000 3.1 280 17:19 04.07.2019
5487 Clear 24 1022 31 10000 2.1 270 16:36 04.07.2019
5488 Clear 24 1023 31 10000 4.1 0 15:42 04.07.2019
5489 Clear 24 1023 31 10000 4.1 0 15:24 04.07.2019
5490 Clear 23 1023 31 10000 2.1 0 14:58 04.07.2019
5491 Clear 23 1023 33 10000 2.6 0 14:38 04.07.2019
5492 Clear 22 1024 30 10000 2.1 0 14:19 04.07.2019
5493 Clouds 22 1024 37 10000 1.5 130 13:56 04.07.2019
5494 Clear 22 1024 35 10000 2.1 0 13:38 04.07.2019
5495 Clear 21 1024 35 10000 2.1 0 13:18 04.07.2019
5496 Clear 20 1025 37 10000 3.1 190 12:38 04.07.2019
5497 Clear 20 1025 37 10000 3.1 190 12:19 04.07.2019
5498 Clear 19 1025 42 10000 2.1 280 11:43 04.07.2019
5499 Clouds 19 1025 42 10000 1 0 11:20 04.07.2019
5500 Clouds 18 1025 51 10000 1.5 0 10:46 04.07.2019
5501 Clouds 17 1025 45 10000 1.5 270 10:27 04.07.2019
5502 Clear 17 1025 48 10000 1.5 260 09:57 04.07.2019
5503 Clear 16 1025 51 10000 1 0 09:38 04.07.2019
5504 Clear 15 1025 54 10000 1 0 09:19 04.07.2019
5505 Clear 14 1025 58 10000 0.5 0 08:44 04.07.2019
5506 Clear 13 1025 76 10000 0.5 0 08:18 04.07.2019
5507 Clear 12 1025 81 10000 0.5 0 07:39 04.07.2019
5508 Clear 11 1025 81 10000 0.5 0 07:19 04.07.2019
5509 Clear 10 1025 81 10000 1 0 06:32 04.07.2019
5510 Clear 10 1024 81 10000 1 0 05:43 04.07.2019
5511 Clear 10 1025 81 10000 0.5 0 04:28 04.07.2019
5512 Clear 12 1025 76 10000 1 0 02:23 04.07.2019
5513 Clear 13 1025 66 10000 0.5 0 01:27 04.07.2019
5514 Clear 13 1025 66 10000 0.5 30 00:52 04.07.2019
5515 Clear 14 1024 54 10000 1.5 20 23:53 03.07.2019
5516 Clear 16 1024 51 10000 2.6 30 23:21 03.07.2019
5517 Clear 16 1024 45 10000 3.1 20 22:57 03.07.2019
5518 Clear 16 1023 42 10000 3.1 20 22:39 03.07.2019
5519 Clear 17 1023 42 10000 3.1 20 22:21 03.07.2019
5520 Clouds 18 1024 42 10000 3.6 360 21:56 03.07.2019
5521 Clear 19 1023 37 10000 4.1 20 21:37 03.07.2019
5522 Clear 20 1023 35 10000 5.1 20 20:57 03.07.2019
5523 Clear 20 1023 33 10000 3.6 30 20:39 03.07.2019
5524 Clear 21 1023 33 10000 4.1 50 20:19 03.07.2019
5525 Clouds 21 1024 32 10000 3.6 10 19:48 03.07.2019
5526 Clear 21 1023 35 10000 5.1 340 19:29 03.07.2019
5527 Clouds 22 1024 35 10000 4.6 30 18:46 03.07.2019
5528 Clouds 22 1024 35 10000 4.6 10 18:24 03.07.2019
5529 Clouds 22 1024 35 10000 4.6 10 17:55 03.07.2019
5530 Clear 22 1023 37 10000 5.1 10 17:36 03.07.2019
5531 Clear 22 1023 37 10000 4.6 350 17:18 03.07.2019
5532 Clouds 22 1024 35 10000 3.6 350 16:43 03.07.2019
5533 Clear 22 1024 33 10000 4.1 360 16:20 03.07.2019
5534 Clear 21 1024 40 10000 3.6 320 15:47 03.07.2019
5535 Clear 22 1024 40 10000 3.6 320 15:29 03.07.2019
5536 Clear 21 1024 40 10000 4.6 10 14:52 03.07.2019
5537 Clear 21 1024 40 10000 3.1 10 14:24 03.07.2019
5538 Clear 21 1024 37 10000 3.1 10 13:57 03.07.2019
5539 Clouds 21 1024 37 10000 4.6 360 13:32 03.07.2019
5540 Clouds 20 1025 48 10000 4.1 360 12:54 03.07.2019
5541 Clouds 19 1024 48 10000 2.6 0 12:21 03.07.2019
5542 Clouds 19 1024 48 10000 2.6 0 11:58 03.07.2019
5543 Clouds 19 1024 48 10000 2.6 0 11:40 03.07.2019
5544 Clouds 19 1024 48 10000 2.6 0 11:21 03.07.2019
5545 Clouds 19 1024 52 10000 3.1 360 10:42 03.07.2019
5546 Clear 18 1024 55 10000 1 0 10:23 03.07.2019
5547 Clear 17 1024 59 10000 1 0 09:43 03.07.2019
5548 Clear 16 1024 59 10000 1 0 09:21 03.07.2019
5549 Clear 16 1024 67 10000 0.5 0 08:57 03.07.2019
5550 Clear 15 1024 71 10000 1.5 160 08:38 03.07.2019
5551 Clear 14 1024 81 10000 1.5 160 08:18 03.07.2019
5552 Clear 13 1024 82 10000 1.5 340 07:37 03.07.2019
5553 Clear 13 1024 87 10000 1 320 06:55 03.07.2019
5554 Clouds 12 1023 81 10000 2.1 310 05:57 03.07.2019
5555 Clear 12 1023 81 10000 1 0 05:27 03.07.2019
5556 Clear 13 1023 71 10000 1 50 03:58 03.07.2019
5557 Clear 14 1023 71 10000 2.05 15.903 02:55 03.07.2019
5558 Clear 14 1023 62 10000 2.1 60 01:40 03.07.2019
5559 Clear 15 1023 58 10000 2.6 50 01:21 03.07.2019
5560 Clear 15 1022 54 10000 2.6 50 00:40 03.07.2019
5561 Clear 16 1022 58 10000 2.1 60 23:57 02.07.2019
5562 Clear 16 1022 58 10000 2.1 60 23:37 02.07.2019
5563 Clear 17 1022 55 10000 1.5 60 23:19 02.07.2019
5564 Clear 17 1022 55 10000 1.5 60 22:54 02.07.2019
5565 Clear 17 1022 51 10000 2.1 40 22:36 02.07.2019
5566 Clear 18 1021 45 10000 1.5 20 22:18 02.07.2019
5567 Clear 20 1021 40 10000 2.1 360 21:41 02.07.2019
5568 Clear 21 1021 37 10000 3.1 350 21:20 02.07.2019
5569 Clear 21 1021 35 10000 3.6 340 20:57 02.07.2019
5570 Clear 22 1021 35 10000 3.6 340 20:39 02.07.2019
5571 Clear 22 1021 35 10000 4.6 340 20:20 02.07.2019
5572 Clear 22 1021 33 10000 5.1 340 19:42 02.07.2019
5573 Clear 22 1021 33 10000 5.1 340 19:23 02.07.2019
5574 Clear 23 1021 35 10000 4.6 10 18:48 02.07.2019
5575 Clear 23 1021 33 10000 5.1 20 18:19 02.07.2019
5576 Clouds 23 1022 33 10000 4.1 360 17:44 02.07.2019
5577 Clouds 23 1022 33 10000 4.1 360 17:24 02.07.2019
5578 Clouds 23 1022 35 10000 4.6 350 16:54 02.07.2019
5579 Clear 23 1022 31 10000 4.1 0 16:35 02.07.2019
5580 Clear 22 1022 37 10000 3.1 350 15:59 02.07.2019
5581 Clear 22 1022 40 10000 4.1 340 15:38 02.07.2019
5582 Clear 22 1022 43 10000 3.6 330 15:18 02.07.2019
5583 Clear 22 1022 43 10000 5.1 310 14:40 02.07.2019
5584 Clear 22 1022 35 10000 3.1 330 14:21 02.07.2019
5585 Clear 21 1022 35 10000 3.1 330 13:42 02.07.2019
5586 Clouds 21 1023 52 10000 3.6 330 13:19 02.07.2019
5587 Clouds 20 1022 49 10000 4.1 350 12:44 02.07.2019
5588 Clouds 20 1022 52 10000 3.6 320 12:23 02.07.2019
5589 Clouds 19 1022 56 10000 3.6 320 11:44 02.07.2019
5590 Clouds 19 1022 56 10000 3.6 320 11:44 02.07.2019
5591 Clouds 19 1023 55 10000 4.1 300 11:24 02.07.2019
5592 Clouds 19 1023 55 10000 4.1 300 10:59 02.07.2019
5593 Clouds 19 1023 59 10000 4.1 330 10:37 02.07.2019
5594 Clouds 19 1023 59 10000 3.6 350 10:19 02.07.2019
5595 Clouds 18 1023 59 10000 3.1 310 09:37 02.07.2019
5596 Clouds 17 1023 59 10000 1 0 09:19 02.07.2019
5597 Clear 17 1023 63 10000 1 0 08:40 02.07.2019
5598 Clear 16 1023 63 10000 1 0 08:20 02.07.2019
5599 Clear 15 1022 76 10000 0.5 0 07:50 02.07.2019
5600 Clear 14 1022 82 10000 0.5 0 07:20 02.07.2019
5601 Clear 13 1022 87 10000 1.5 60 06:42 02.07.2019
5602 Fog 12 1022 76 10000 4.1 260 05:58 02.07.2019
5603 Clear 14 1021 71 10000 2.1 360 03:26 02.07.2019
5604 Clear 16 1021 63 10000 2.1 360 00:48 02.07.2019
5605 Clouds 17 1021 55 10000 2.1 320 23:46 01.07.2019
5606 Clear 18 1020 55 10000 3.6 350 23:20 01.07.2019
5607 Clear 18 1019 49 10000 4.6 340 22:45 01.07.2019
5608 Clear 19 1019 49 10000 4.6 340 22:26 01.07.2019
5609 Clear 20 1018 43 10000 6.7 320 21:47 01.07.2019
5610 Clear 21 1018 43 10000 6.7 320 21:26 01.07.2019
5611 Clear 22 1018 41 10000 4.6 330 20:51 01.07.2019
5612 Clear 23 1018 41 10000 4.6 330 20:22 01.07.2019
5613 Clear 23 1018 41 10000 4.6 330 19:58 01.07.2019
5614 Clear 23 1017 38 10000 6.2 310 19:40 01.07.2019
5615 Clear 23 1017 36 10000 7.2 290 19:21 01.07.2019
5616 Clouds 24 1018 40 10000 6.7 290 18:52 01.07.2019
5617 Clear 25 1017 36 10000 6.7 280 18:31 01.07.2019
5618 Clouds 25 1018 38 10000 6.7 280 17:58 01.07.2019
5619 Clear 25 1018 41 10000 5.7 250 17:40 01.07.2019
5620 Clear 25 1018 41 10000 5.7 250 17:21 01.07.2019
5621 Clear 25 1018 41 10000 6.7 270 16:46 01.07.2019
5622 Clear 25 1018 41 10000 6.7 280 16:25 01.07.2019
5623 Clear 25 1018 38 10000 6.2 300 15:47 01.07.2019
5624 Clear 25 1018 38 10000 7.2 280 15:28 01.07.2019
5625 Clear 25 1018 41 10000 6.2 280 14:59 01.07.2019
5626 Clouds 24 1018 41 10000 6.2 290 14:39 01.07.2019
5627 Clouds 25 1018 41 10000 6.2 290 14:19 01.07.2019
5628 Clouds 25 1018 41 10000 6.2 280 13:40 01.07.2019
5629 Clouds 24 1018 44 10000 6.2 280 13:21 01.07.2019
5630 Clouds 24 1018 47 10000 6.7 290 12:44 01.07.2019
5631 Clouds 23 1018 47 10000 6.2 280 12:23 01.07.2019
5632 Clouds 22 1018 53 10000 5.7 280 11:58 01.07.2019
5633 Clouds 22 1018 49 10000 3.6 270 11:38 01.07.2019
5634 Clouds 22 1018 49 10000 3.6 270 11:18 01.07.2019
5635 Clouds 21 1018 56 10000 4.6 290 10:46 01.07.2019
5636 Clouds 21 1018 60 10000 4.1 280 10:22 01.07.2019
5637 Clouds 20 1018 60 10000 3.6 250 09:45 01.07.2019
5638 Clouds 19 1018 64 10000 4.1 270 09:27 01.07.2019
5639 Clouds 18 1018 64 10000 4.1 250 08:59 01.07.2019
5640 Clouds 18 1018 64 10000 4.1 250 08:37 01.07.2019
5641 Clouds 18 1017 68 10000 1.5 20 07:39 01.07.2019
5642 Rain 18 1017 72 10000 2.6 350 06:52 01.07.2019
5643 Clouds 18 1016 77 10000 1.5 350 05:39 01.07.2019
5644 Clear 19 1016 68 10000 1 0 01:28 01.07.2019
5645 Clear 20 1016 68 10000 0.5 30 00:46 01.07.2019
5646 Clear 21 1016 64 10000 1 0 00:24 01.07.2019
5647 Clear 22 1016 60 10000 1.5 10 23:40 30.06.2019
5648 Clear 23 1016 56 10000 2.6 340 23:20 30.06.2019
5649 Clear 23 1016 53 10000 3.6 330 22:43 30.06.2019
5650 Clear 24 1015 57 10000 4.6 320 22:20 30.06.2019
5651 Rain 25 1015 57 10000 4.6 320 21:42 30.06.2019
5652 Clear 26 1015 54 10000 3.6 330 21:20 30.06.2019
5653 Clear 26 1015 51 10000 5.1 330 20:55 30.06.2019
5654 Clear 27 1015 51 10000 5.1 330 20:37 30.06.2019
5655 Clear 27 1015 51 10000 5.1 330 20:18 30.06.2019
5656 Clear 27 1014 51 10000 5.7 320 19:44 30.06.2019
5657 Clear 28 1014 51 10000 7.2 320 19:24 30.06.2019
5658 Clear 29 1014 45 10000 4.6 330 18:26 30.06.2019
5659 Clear 30 1014 48 10000 5.7 330 17:59 30.06.2019
5660 Clear 30 1014 48 10000 5.7 330 17:39 30.06.2019
5661 Clear 30 1014 45 10000 4.1 320 17:18 30.06.2019
5662 Clear 30 1014 46 10000 6.2 310 16:49 30.06.2019
5663 Clear 30 1015 46 10000 6.2 300 16:27 30.06.2019
5664 Clear 31 1015 46 10000 6.7 290 15:38 30.06.2019
5665 Clear 31 1015 46 10000 7.7 310 15:19 30.06.2019
5666 Clear 31 1015 48 10000 7.7 310 14:55 30.06.2019
5667 Clear 31 1015 48 10000 7.7 310 14:36 30.06.2019
5668 Clear 32 1014 43 10000 7.7 290 13:57 30.06.2019
5669 Clear 32 1014 43 10000 7.7 290 13:38 30.06.2019
5670 Clear 32 1014 43 10000 5.7 290 13:18 30.06.2019
5671 Clear 32 1014 38 10000 4.6 300 12:44 30.06.2019
5672 Clear 31 1014 33 10000 2.6 260 12:21 30.06.2019
5673 Clear 31 1014 33 10000 3.6 290 11:47 30.06.2019
5674 Clear 30 1013 35 10000 4.1 280 11:22 30.06.2019
5675 Clear 30 1013 37 10000 1.5 0 10:56 30.06.2019
5676 Clear 29 1013 37 10000 1.5 0 10:37 30.06.2019
5677 Clear 28 1013 39 10000 1.5 0 10:18 30.06.2019
5678 Clear 27 1013 44 10000 2.6 140 09:43 30.06.2019
5679 Clear 26 1013 44 10000 3.1 140 09:22 30.06.2019
5680 Clear 25 1013 47 10000 3.1 140 08:47 30.06.2019
5681 Clear 24 1013 49 10000 2.1 130 08:27 30.06.2019
5682 Clear 23 1013 49 10000 2.1 130 07:56 30.06.2019
5683 Clear 22 1013 52 10000 2.1 120 07:28 30.06.2019
5684 Clear 21 1013 52 10000 2.1 110 06:40 30.06.2019
5685 Clear 20 1013 49 10000 2.1 90 05:33 30.06.2019
5686 Clear 22 1014 43 10000 1.5 120 02:52 30.06.2019
5687 Clear 22 1014 44 10000 3.1 120 01:30 30.06.2019
5688 Clear 23 1015 49 10000 2.6 130 00:32 30.06.2019
5689 Clear 25 1015 36 10000 3.1 110 23:55 29.06.2019
5690 Clear 25 1015 34 10000 3.1 110 23:25 29.06.2019
5691 Clear 25 1015 34 10000 2.6 110 22:58 29.06.2019
5692 Clear 26 1015 34 10000 2.6 110 22:40 29.06.2019
5693 Clear 27 1015 32 10000 2.1 100 22:20 29.06.2019
5694 Clear 29 1015 32 10000 2.1 90 21:49 29.06.2019
5695 Clear 31 1015 27 10000 2.1 110 21:23 29.06.2019
5696 Clear 32 1015 21 10000 3.1 120 20:42 29.06.2019
5697 Clear 32 1015 21 10000 3.1 120 20:24 29.06.2019
5698 Clear 32 1015 22 10000 2.6 110 19:48 29.06.2019
5699 Clear 33 1016 20 10000 3.1 120 19:24 29.06.2019
5700 Clear 33 1016 20 10000 3.6 160 18:51 29.06.2019
5701 Clear 34 1016 18 10000 4.6 150 18:26 29.06.2019
5702 Clear 33 1016 18 10000 4.1 150 17:55 29.06.2019
5703 Clear 34 1016 18 10000 4.1 150 17:36 29.06.2019
5704 Clear 34 1017 18 10000 4.1 150 17:18 29.06.2019
5705 Clear 33 1017 19 10000 3.6 170 16:42 29.06.2019
5706 -273 0 0 0 0 0 15:56 29.06.2019
5707 Clear 32 1018 24 10000 3.6 160 15:31 29.06.2019
5708 Clear 31 1018 25 10000 3.6 140 14:45 29.06.2019
5709 Clear 31 1018 27 10000 3.1 120 14:26 29.06.2019
5710 Clear 31 1019 27 10000 3.1 0 13:51 29.06.2019
5711 Clear 30 1019 27 10000 4.1 160 13:27 29.06.2019
5712 Clear 29 1019 28 10000 3.6 100 12:57 29.06.2019
5713 Clear 29 1019 30 10000 2.1 0 12:38 29.06.2019
5714 Clear 28 1019 30 10000 2.1 0 12:20 29.06.2019
5715 Clear 27 1020 34 10000 2.6 140 11:42 29.06.2019
5716 Clear 26 1020 39 10000 3.1 160 11:23 29.06.2019
5717 Clear 25 1020 41 10000 3.1 150 10:49 29.06.2019
5718 Clear 24 1020 44 10000 2.6 140 10:21 29.06.2019
5719 Clear 23 1020 46 10000 3.1 130 09:55 29.06.2019
5720 Clear 21 1021 56 10000 2.1 140 08:55 29.06.2019
5721 Clear 19 1021 68 10000 1.5 140 08:31 29.06.2019
5722 Clear 18 1021 72 10000 0.5 0 07:45 29.06.2019
5723 Clear 15 1021 82 10000 1 60 06:49 29.06.2019
5724 Clear 14 1021 82 10000 1.5 70 06:26 29.06.2019
5725 Clear 14 1021 82 10000 0.5 0 05:18 29.06.2019
5726 Clear 17 1022 55 10000 1 0 01:42 29.06.2019
5727 Clear 17 1022 52 10000 3.1 80 00:49 29.06.2019
5728 Clear 19 1022 52 10000 3.6 50 23:53 28.06.2019
5729 Clear 20 1022 52 10000 3.1 50 23:21 28.06.2019
5730 Clear 20 1022 59 10000 0.5 0 22:47 28.06.2019
5731 Clear 21 1022 49 10000 1 0 22:21 28.06.2019
5732 Clear 25 1021 38 10000 2.6 20 21:45 28.06.2019
5733 Clear 25 1021 34 10000 4.1 20 21:20 28.06.2019
5734 Clear 26 1021 34 10000 3.6 20 20:43 28.06.2019
5735 Clear 26 1021 34 10000 3.6 20 20:20 28.06.2019
5736 Clear 27 1021 32 10000 3.6 40 19:42 28.06.2019
5737 Clear 27 1022 32 10000 3.1 10 19:24 28.06.2019
5738 Clear 27 1022 30 10000 4.1 360 18:42 28.06.2019
5739 Clear 27 1022 30 10000 2.6 320 18:22 28.06.2019
5740 Clear 27 1022 28 10000 2.6 40 17:54 28.06.2019
5741 Clear 27 1022 28 10000 3.1 30 17:29 28.06.2019
5742 Clear 27 1023 26 10000 2.1 330 16:47 28.06.2019
5743 Clear 27 1023 28 10000 2.6 0 16:23 28.06.2019
5744 Clear 27 1023 28 10000 3.1 310 15:48 28.06.2019
5745 Clear 26 1023 30 10000 2.6 290 15:19 28.06.2019
5746 Clear 25 1023 34 10000 3.1 320 14:42 28.06.2019
5747 Clear 25 1024 36 10000 2.1 0 14:22 28.06.2019
5748 Clear 25 1024 38 10000 3.1 320 13:50 28.06.2019
5749 Clear 24 1024 44 10000 2.1 0 13:30 28.06.2019
5750 Clear 23 1025 46 10000 3.1 30 12:54 28.06.2019
5751 Clear 22 1024 49 10000 2.6 310 12:36 28.06.2019
5752 Clear 21 1025 49 10000 2.1 320 11:50 28.06.2019
5753 Clear 20 1025 53 10000 2.1 0 11:19 28.06.2019
5754 Clear 19 1025 56 10000 1.5 0 10:44 28.06.2019
5755 Clear 19 1025 56 10000 1.5 0 10:44 28.06.2019
5756 Clear 18 1025 59 10000 2.1 290 10:21 28.06.2019
5757 Clear 18 1025 59 10000 1 0 09:47 28.06.2019
5758 Clear 17 1025 63 10000 1 0 09:29 28.06.2019
5759 Clear 16 1025 67 10000 1.5 40 08:45 28.06.2019
5760 Clear 15 1025 72 10000 1.5 50 08:25 28.06.2019
5761 Clear 15 1025 77 10000 1 0 07:46 28.06.2019
5762 Clear 13 1025 87 10000 1.5 10 06:58 28.06.2019
5763 Clear 12 1025 87 10000 1 0 05:55 28.06.2019
5764 Clear 16 1025 67 10000 3.1 30 01:23 28.06.2019
5765 Clear 17 1025 63 10000 4.1 30 00:39 28.06.2019
5766 Clear 18 1025 56 10000 3.6 20 23:51 27.06.2019
5767 Clear 19 1025 56 10000 3.1 20 23:26 27.06.2019
5768 Clear 19 1025 49 10000 2.6 20 22:56 27.06.2019
5769 Clear 20 1025 49 10000 2.6 20 22:37 27.06.2019
5770 Clear 21 1025 46 10000 2.6 20 22:18 27.06.2019
5771 Clear 23 1025 43 10000 2.6 20 21:48 27.06.2019
5772 Clear 23 1025 38 10000 3.1 20 21:29 27.06.2019
5773 Clear 24 1025 36 10000 4.1 360 20:57 27.06.2019
5774 Clear 24 1025 36 10000 4.1 360 20:39 27.06.2019
5775 Clear 25 1025 36 10000 4.6 20 20:19 27.06.2019
5776 Clear 26 1025 34 10000 4.1 20 19:44 27.06.2019
5777 Clear 26 1025 30 10000 3.1 10 19:25 27.06.2019
5778 Clear 26 1025 28 10000 4.6 360 18:43 27.06.2019
5779 Clear 27 1025 24 10000 4.1 10 18:21 27.06.2019
5780 Clear 27 1026 29 10000 4.6 350 17:45 27.06.2019
5781 Clear 27 1025 26 10000 4.6 360 17:22 27.06.2019
5782 Clear 26 1025 24 10000 5.1 350 16:41 27.06.2019
5783 Clear 27 1025 26 10000 4.6 350 16:20 27.06.2019
5784 Clear 27 1025 30 10000 3.6 350 15:59 27.06.2019
5785 Clear 26 1026 32 10000 4.1 330 15:40 27.06.2019
5786 Clear 26 1026 32 10000 4.1 330 15:18 27.06.2019
5787 Clear 26 1026 32 10000 3.6 0 14:42 27.06.2019
5788 Clear 26 1026 30 10000 4.1 340 14:23 27.06.2019
5789 Clear 25 1026 29 10000 2.6 0 13:46 27.06.2019
5790 Clear 25 1027 31 10000 3.6 360 13:27 27.06.2019
5791 Clear 24 1027 38 10000 3.6 350 12:51 27.06.2019
5792 Clear 23 1027 46 10000 2.6 0 12:33 27.06.2019
5793 Clear 22 1027 49 10000 3.6 330 11:56 27.06.2019
5794 Clear 22 1027 49 10000 3.6 330 11:38 27.06.2019
5795 Clear 21 1027 52 10000 2.6 340 11:20 27.06.2019
5796 Clouds 21 1027 56 10000 2.6 350 10:42 27.06.2019
5797 Clouds 19 1027 64 10000 3.6 330 10:20 27.06.2019
5798 Clouds 19 1027 68 10000 3.6 330 09:50 27.06.2019
5799 Clouds 18 1027 68 10000 3.1 340 09:22 27.06.2019
5800 Clouds 17 1027 72 10000 3.1 350 08:52 27.06.2019
5801 Clouds 17 1027 72 10000 2.6 10 08:31 27.06.2019
5802 Clouds 16 1027 77 10000 5.1 360 07:53 27.06.2019
5803 Clear 16 1027 77 10000 4.1 360 07:29 27.06.2019
5804 Clear 16 1026 82 10000 3.6 10 06:43 27.06.2019
5805 Clear 17 1026 72 10000 2.1 40 04:27 27.06.2019
5806 Clear 19 1026 68 10000 2.6 350 02:44 27.06.2019
5807 Clear 20 1025 68 10000 3.1 360 01:48 27.06.2019
5808 Clear 21 1025 64 10000 3.1 340 00:58 27.06.2019
5809 Clear 21 1025 64 10000 3.1 340 00:39 27.06.2019
5810 Clear 22 1025 64 10000 4.1 360 00:18 27.06.2019
5811 Clear 23 1024 64 10000 4.6 10 23:40 26.06.2019
5812 Clear 24 1024 61 10000 5.1 20 23:20 26.06.2019
5813 Clear 24 1024 61 10000 4.6 10 22:45 26.06.2019
5814 Clear 24 1023 65 10000 3.6 340 22:26 26.06.2019
5815 Clear 25 1023 61 10000 3.1 330 21:59 26.06.2019
5816 Clear 26 1023 58 10000 3.6 330 21:38 26.06.2019
5817 Clear 27 1023 58 10000 3.6 330 21:19 26.06.2019
5818 Clear 27 1023 54 10000 4.1 340 20:49 26.06.2019
5819 Clear 28 1023 48 10000 4.6 330 20:30 26.06.2019
5820 Clear 29 1023 45 10000 4.6 330 19:50 26.06.2019
5821 Clear 29 1023 43 10000 4.1 340 19:31 26.06.2019
5822 -273 0 0 0 0 0 18:58 26.06.2019
5823 -273 0 0 0 0 0 18:58 26.06.2019
5824 Clear 30 1022 43 10000 4.6 330 18:39 26.06.2019
5825 Clear 31 1023 43 10000 5.7 320 18:19 26.06.2019
5826 Clear 31 1023 40 10000 4.6 320 17:46 26.06.2019
5827 Clear 31 1023 40 10000 4.6 320 17:46 26.06.2019
5828 Clear 31 1023 38 10000 5.1 320 17:27 26.06.2019
5829 Clear 31 1023 38 10000 5.1 320 17:27 26.06.2019
5830 Clear 31 1023 38 10000 5.1 320 17:27 26.06.2019
5831 Clear 31 1023 38 10000 5.1 320 17:27 26.06.2019
5832 Clear 31 1023 38 10000 4.6 320 16:52 26.06.2019
5833 Haze 31 1023 40 10000 4.6 330 16:30 26.06.2019
5834 Haze 31 1023 43 10000 4.6 330 15:58 26.06.2019
5835 Haze 31 1023 43 10000 4.6 330 15:58 26.06.2019
5836 Haze 31 1023 40 10000 5.1 340 15:28 26.06.2019
5837 -273 0 0 0 0 0 14:57 26.06.2019
5838 Haze 31 1023 40 10000 4.1 290 14:57 26.06.2019
5839 Haze 30 1024 40 10000 4.1 290 14:37 26.06.2019
5840 Haze 30 1024 40 10000 4.1 290 14:18 26.06.2019
5841 Haze 30 1024 43 10000 3.6 280 13:39 26.06.2019
5842 Haze 30 1024 48 10000 3.6 300 13:18 26.06.2019
5843 Haze 29 1024 51 10000 2.6 0 12:40 26.06.2019
5844 Clear 29 1024 51 10000 2.6 0 12:20 26.06.2019
5845 Clear 29 1024 51 10000 2.6 0 12:20 26.06.2019
5846 Haze 28 1024 54 10000 3.6 310 11:42 26.06.2019
5847 Haze 28 1024 58 10000 2.1 320 11:19 26.06.2019
5848 Haze 27 1024 58 10000 2.6 280 10:39 26.06.2019
5849 Haze 27 1024 61 10000 3.1 280 10:21 26.06.2019
5850 Haze 26 1023 69 10000 3.1 330 09:36 26.06.2019
5851 Mist 25 1023 69 10000 3.1 330 09:18 26.06.2019
5852 Mist 24 1023 73 10000 2.1 340 08:39 26.06.2019
5853 Mist 23 1023 78 10000 2.6 340 08:19 26.06.2019
5854 Mist 22 1022 83 10000 1.5 50 07:43 26.06.2019
5855 Clear 22 1022 88 10000 0.5 0 06:34 26.06.2019
5856 Clear 22 1021 78 10000 1 0 03:52 26.06.2019
5857 Clear 25 1020 65 10000 0.5 0 00:45 26.06.2019
5858 Clear 26 1020 65 10000 0.5 0 00:19 26.06.2019
5859 Clear 27 1019 61 10000 1 0 23:41 25.06.2019
5860 Clear 27 1019 54 10000 2.37 258.709 23:23 25.06.2019
5861 Clear 28 1019 54 10000 0.5 0 22:55 25.06.2019
5862 Clear 28 1019 54 10000 0.5 0 22:37 25.06.2019
5863 Clear 29 1018 54 10000 1 0 22:18 25.06.2019
5864 Clear 31 1018 48 10000 0.5 0 21:37 25.06.2019
5865 Clear 32 1018 40 10000 1 0 21:19 25.06.2019
5866 Clear 33 1017 34 10000 3.6 260 20:43 25.06.2019
5867 Clear 33 1017 32 10000 4.6 250 20:20 25.06.2019
5868 Clear 33 1017 32 10000 4.6 250 20:20 25.06.2019
5869 Clear 34 1017 30 10000 4.1 240 19:45 25.06.2019
5870 Clear 34 1017 30 10000 3.6 220 19:23 25.06.2019
5871 Clear 35 1017 28 10000 5.1 220 18:44 25.06.2019
5872 Clear 35 1017 28 10000 5.1 220 18:26 25.06.2019
5873 -273 0 0 0 0 0 17:55 25.06.2019
5874 -273 0 0 0 0 0 17:29 25.06.2019
5875 Clear 35 1017 30 10000 4.6 210 17:29 25.06.2019
5876 Clear 35 1017 30 10000 4.6 210 17:29 25.06.2019
5877 Clear 35 1017 30 10000 4.6 210 17:29 25.06.2019
5878 Clear 35 1017 30 10000 4.6 170 16:57 25.06.2019
5879 Clear 35 1017 30 10000 4.6 170 16:38 25.06.2019
5880 Clear 35 1017 34 10000 4.6 140 16:19 25.06.2019
5881 Clear 35 1017 34 10000 5.1 140 15:40 25.06.2019
5882 Clear 35 1017 34 10000 5.1 140 15:21 25.06.2019
5883 Clear 34 1017 36 10000 5.7 140 14:54 25.06.2019
5884 Clear 34 1017 34 10000 5.1 140 14:35 25.06.2019
5885 -273 0 0 0 0 0 13:46 25.06.2019
5886 Clear 32 1017 40 10000 5.7 150 13:27 25.06.2019
5887 Clear 32 1018 43 10000 4.6 130 12:44 25.06.2019
5888 Clear 31 1018 45 10000 5.7 140 12:25 25.06.2019
5889 Clear 30 1018 45 10000 5.1 130 11:55 25.06.2019
5890 Clear 30 1018 45 10000 5.1 130 11:37 25.06.2019
5891 -273 0 0 0 0 0 11:18 25.06.2019
5892 Clear 28 1018 51 10000 5.7 140 10:42 25.06.2019
5893 Clear 27 1017 51 10000 5.7 130 10:22 25.06.2019
5894 Clear 26 1018 54 10000 4.6 140 09:55 25.06.2019
5895 Clear 26 1018 54 10000 5.7 140 09:37 25.06.2019
5896 Clear 25 1018 54 10000 5.7 140 09:18 25.06.2019
5897 Clear 24 1018 57 10000 5.1 140 08:42 25.06.2019
5898 Clear 24 1018 57 10000 3.6 130 08:23 25.06.2019
5899 Clear 23 1017 60 10000 3.1 110 07:39 25.06.2019
5900 Clear 21 1017 64 10000 1.5 90 06:57 25.06.2019
5901 Clear 21 1017 64 10000 1.5 90 06:39 25.06.2019
5902 Clear 23 1018 60 10000 3.1 80 02:47 25.06.2019
5903 Clear 24 1018 57 10000 2.6 80 01:50 25.06.2019
5904 Clear 24 1018 57 10000 2.6 90 00:37 25.06.2019
5905 Clear 25 1018 54 10000 2.1 100 23:59 24.06.2019
5906 Clear 26 1018 54 10000 2.1 100 23:40 24.06.2019
5907 Clear 26 1018 54 10000 2.6 100 23:22 24.06.2019
5908 Clear 26 1018 51 10000 3.1 100 22:41 24.06.2019
5909 Clear 27 1018 51 10000 2.1 100 22:19 24.06.2019
5910 Clear 28 1017 48 10000 2.6 120 21:41 24.06.2019
5911 Clear 29 1017 45 10000 3.1 120 21:19 24.06.2019
5912 Clear 29 1017 42 10000 2.6 120 20:58 24.06.2019
5913 Clear 30 1017 42 10000 2.6 120 20:40 24.06.2019
5914 Clear 31 1017 40 10000 4.1 120 20:21 24.06.2019
5915 Clear 30 1018 40 10000 4.1 130 19:46 24.06.2019
5916 Clear 31 1018 35 10000 3.6 120 19:24 24.06.2019
5917 Clear 32 1017 38 10000 4.6 100 18:48 24.06.2019
5918 Clear 32 1017 38 10000 4.6 140 18:30 24.06.2019
5919 Clear 31 1018 38 10000 5.7 140 17:57 24.06.2019
5920 Clear 32 1018 35 10000 4.6 140 17:36 24.06.2019
5921 Clear 32 1018 35 10000 4.6 140 17:36 24.06.2019
5922 Clear 32 1018 38 10000 5.1 160 16:55 24.06.2019
5923 Clear 32 1018 38 10000 6.2 140 16:36 24.06.2019
5924 Clear 32 1018 38 10000 6.2 140 16:18 24.06.2019
5925 Clear 31 1018 40 10000 5.1 130 15:39 24.06.2019
5926 Clear 31 1018 38 10000 5.7 120 15:20 24.06.2019
5927 Clear 30 1018 40 10000 7.7 150 14:34 24.06.2019
5928 Clear 30 1018 42 10000 6.7 150 13:54 24.06.2019
5929 Clear 30 1018 42 10000 6.7 150 13:54 24.06.2019
5930 Clear 30 1018 45 10000 6.7 140 13:31 24.06.2019
5931 Clear 29 1019 45 10000 5.7 140 12:45 24.06.2019
5932 Clear 29 1019 48 10000 7.2 140 12:26 24.06.2019
5933 Clear 28 1019 48 10000 7.7 150 11:59 24.06.2019
5934 Clear 28 1019 48 10000 7.7 150 11:59 24.06.2019
5935 Clear 28 1019 48 10000 7.7 150 11:40 24.06.2019
5936 Clear 27 1019 51 10000 5.7 130 11:20 24.06.2019
5937 Clear 26 1019 51 10000 7.7 140 10:47 24.06.2019
5938 Clear 26 1019 57 10000 6.2 150 10:27 24.06.2019
5939 Clear 25 1019 57 10000 4.1 120 09:49 24.06.2019
5940 Clear 25 1019 57 10000 4.1 120 09:49 24.06.2019
5941 Clear 24 1019 57 10000 4.1 120 09:23 24.06.2019
5942 Clear 23 1019 60 10000 4.6 120 08:52 24.06.2019
5943 Clear 22 1019 64 10000 3.1 110 08:26 24.06.2019
5944 Clear 22 1019 64 10000 3.1 110 08:26 24.06.2019
5945 Clear 21 1019 60 10000 3.1 110 07:47 24.06.2019
5946 Clear 21 1019 64 10000 2.1 140 07:26 24.06.2019
5947 Clear 20 1019 64 10000 3.1 110 06:49 24.06.2019
5948 Clear 20 1019 64 10000 3.6 100 06:21 24.06.2019
5949 Clear 19 1019 60 10000 3.1 90 05:28 24.06.2019
5950 Clear 20 1019 60 10000 3.1 90 04:28 24.06.2019
5951 Clear 20 1019 56 10000 2.6 90 03:30 24.06.2019
5952 Clear 20 1019 49 10000 2.6 80 02:33 24.06.2019
5953 Clear 21 1019 49 10000 2.6 80 01:54 24.06.2019
5954 Clear 21 1019 49 10000 1.5 110 01:27 24.06.2019
5955 Clear 21 1018 46 10000 3.1 80 00:42 24.06.2019
5956 Clear 22 1018 49 10000 3.6 80 00:19 24.06.2019
5957 Clear 22 1018 49 10000 3.1 70 23:46 23.06.2019
5958 Clear 23 1018 50 10000 3.6 80 23:27 23.06.2019
5959 Clear 23 1018 50 10000 3.6 80 23:27 23.06.2019
5960 Clear 23 1018 53 10000 2.6 70 22:55 23.06.2019
5961 Clear 23 1018 53 10000 2.6 70 22:37 23.06.2019
5962 Clear 24 1017 53 10000 2.1 80 22:19 23.06.2019
5963 Clear 25 1017 47 10000 1.5 100 21:40 23.06.2019
5964 Clear 26 1017 44 10000 1.5 90 21:21 23.06.2019
5965 Clear 27 1017 39 10000 2.1 110 20:45 23.06.2019
5966 Clear 28 1017 39 10000 2.6 130 20:26 23.06.2019
5967 Clear 28 1017 39 10000 3.1 130 19:46 23.06.2019
5968 Clear 28 1017 39 10000 3.1 130 19:46 23.06.2019
5969 Clear 29 1017 37 10000 4.6 140 19:22 23.06.2019
5970 Clear 29 1017 35 10000 5.7 150 18:54 23.06.2019
5971 Clear 29 1017 33 10000 4.1 140 18:25 23.06.2019
5972 Clear 29 1017 35 10000 4.6 140 17:59 23.06.2019
5973 Clear 30 1017 35 10000 4.6 140 17:38 23.06.2019
5974 Clear 29 1017 33 10000 4.6 130 17:19 23.06.2019
5975 Clear 29 1017 33 10000 4.1 120 16:43 23.06.2019
5976 Clear 29 1017 30 10000 3.6 110 16:23 23.06.2019
5977 Clear 29 1017 33 10000 6.7 130 15:41 23.06.2019
5978 Clear 29 1018 32 10000 5.1 90 15:22 23.06.2019
5979 Clear 29 1018 37 10000 6.7 140 14:56 23.06.2019
5980 Clear 28 1018 37 10000 6.7 110 14:37 23.06.2019
5981 Clear 28 1018 37 10000 6.7 110 14:18 23.06.2019
5982 Clear 28 1018 42 10000 5.7 100 13:42 23.06.2019
5983 Clear 27 1018 44 10000 6.7 130 13:20 23.06.2019
5984 Clear 27 1018 44 10000 3.6 120 12:56 23.06.2019
5985 Clear 27 1018 44 10000 3.6 120 12:37 23.06.2019
5986 Clear 26 1019 47 10000 4.1 110 12:18 23.06.2019
5987 Clouds 25 1019 47 10000 4.6 80 11:44 23.06.2019
5988 Clouds 25 1019 50 10000 3.6 120 11:24 23.06.2019
5989 Clouds 24 1019 53 10000 4.6 140 10:47 23.06.2019
5990 Clear 23 1019 53 10000 3.6 120 10:21 23.06.2019
5991 Clear 23 1019 56 10000 2.1 100 09:57 23.06.2019
5992 Clear 21 1019 64 10000 0.5 0 09:22 23.06.2019
5993 Clear 21 1019 64 10000 0.5 0 08:46 23.06.2019
5994 Clear 19 1019 64 10000 0.5 0 08:27 23.06.2019
5995 Clear 18 1019 72 10000 1 0 07:55 23.06.2019
5996 Clear 17 1019 82 10000 1 160 07:25 23.06.2019
5997 Clear 16 1019 82 10000 1.5 190 06:59 23.06.2019
5998 Clear 15 1018 87 10000 2.6 150 06:40 23.06.2019
5999 Clear 15 1019 93 10000 0.5 0 04:53 23.06.2019
6000 Clear 17 1018 82 10000 2.1 60 02:32 23.06.2019
6001 Clear 18 1018 77 10000 2.6 70 01:39 23.06.2019
6002 Clear 18 1018 72 10000 2.6 70 00:58 23.06.2019
6003 Clear 19 1018 68 10000 3.1 80 00:27 23.06.2019
6004 Clear 19 1018 64 10000 4.1 70 23:43 22.06.2019
6005 Clear 20 1018 68 10000 4.1 60 23:25 22.06.2019
6006 Clear 21 1018 64 10000 3.1 50 22:46 22.06.2019
6007 Clear 21 1017 64 10000 2.6 50 22:25 22.06.2019
6008 Clear 22 1017 56 10000 2.6 40 21:43 22.06.2019
6009 Clear 23 1017 53 10000 3.6 40 21:20 22.06.2019
6010 Clear 24 1017 56 10000 3.6 30 20:57 22.06.2019
6011 Clear 24 1017 56 10000 3.6 30 20:38 22.06.2019
6012 Clear 24 1017 53 10000 5.7 20 20:20 22.06.2019
6013 Clear 25 1017 50 10000 4.1 20 19:40 22.06.2019
6014 Clear 25 1017 50 10000 5.7 20 19:20 22.06.2019
6015 Clear 25 1017 50 10000 5.7 360 18:42 22.06.2019
6016 Clear 25 1017 50 10000 5.1 10 18:22 22.06.2019
6017 Clear 25 1017 50 10000 4.1 350 17:46 22.06.2019
6018 Clear 25 1017 50 10000 3.6 20 17:25 22.06.2019
6019 Clear 26 1018 44 10000 3.1 10 16:43 22.06.2019
6020 Clear 25 1018 47 10000 2.6 40 16:24 22.06.2019
6021 Clear 25 1018 41 10000 2.6 60 15:45 22.06.2019
6022 Clear 25 1018 44 10000 2.1 0 15:27 22.06.2019
6023 Clear 25 1019 44 10000 3.6 50 14:52 22.06.2019
6024 Clear 25 1019 44 10000 2.6 0 14:32 22.06.2019
6025 Clear 24 1019 47 10000 3.6 10 13:58 22.06.2019
6026 Clear 24 1019 47 10000 3.6 10 13:39 22.06.2019
6027 Clear 24 1019 47 10000 3.1 360 13:19 22.06.2019
6028 Clear 23 1020 46 10000 2.6 0 12:45 22.06.2019
6029 Clear 23 1020 49 10000 2.6 50 12:26 22.06.2019
6030 Clear 22 1020 49 10000 3.6 10 11:45 22.06.2019
6031 Clear 21 1020 52 10000 1.5 0 11:27 22.06.2019
6032 Clear 20 1020 63 10000 0.5 0 10:23 22.06.2019
6033 Clear 18 1021 68 10000 1 0 09:58 22.06.2019
6034 Clear 18 1021 68 10000 1 0 09:37 22.06.2019
6035 Clear 16 1021 72 10000 0.5 0 08:56 22.06.2019
6036 Clear 15 1021 82 10000 0.5 0 08:37 22.06.2019
6037 Clear 14 1021 82 10000 1 0 07:53 22.06.2019
6038 Clear 13 1021 93 10000 1 0 07:30 22.06.2019
6039 Clear 12 1021 87 10000 1 0 06:46 22.06.2019
6040 Clear 11 1021 87 10000 2.1 150 04:38 22.06.2019
6041 Clear 13 1022 87 10000 2.28 12.981 02:31 22.06.2019
6042 Clear 14 1021 76 10000 2.1 10 00:57 22.06.2019
6043 Clear 14 1021 72 10000 2.1 20 00:35 22.06.2019
6044 Clear 15 1021 72 10000 1.5 20 23:59 21.06.2019
6045 Clear 15 1021 72 10000 1.5 20 23:37 21.06.2019
6046 Clear 16 1021 77 10000 1.5 30 23:19 21.06.2019
6047 Clear 16 1021 67 10000 2.6 350 22:41 21.06.2019
6048 Clear 17 1020 63 10000 2.1 360 22:22 21.06.2019
6049 Clear 18 1020 59 10000 3.1 340 21:40 21.06.2019
6050 Clear 19 1020 52 10000 1.5 340 21:22 21.06.2019
6051 Clear 20 1020 45 10000 3.6 350 20:53 21.06.2019
6052 Clear 20 1020 45 10000 3.6 350 20:53 21.06.2019
6053 Clear 20 1019 43 10000 3.6 330 20:27 21.06.2019
6054 Clear 21 1019 43 10000 3.6 330 19:58 21.06.2019
6055 Clear 21 1019 40 10000 3.6 340 19:30 21.06.2019
6056 Clear 20 1019 40 10000 3.1 330 18:46 21.06.2019
6057 Clear 21 1019 43 10000 3.6 310 18:28 21.06.2019
6058 Clear 21 1019 43 10000 4.1 270 17:46 21.06.2019
6059 Clear 21 1019 43 10000 3.1 0 17:27 21.06.2019
6060 Clear 22 1019 40 10000 2.1 290 16:40 21.06.2019
6061 Clear 21 1019 40 10000 3.6 320 16:21 21.06.2019
6062 Clear 21 1019 40 10000 4.1 340 15:39 21.06.2019
6063 Clear 21 1019 40 10000 4.6 320 15:20 21.06.2019
6064 Clear 21 1019 40 10000 2.6 320 14:49 21.06.2019
6065 Clear 20 1019 43 10000 3.1 300 14:30 21.06.2019
6066 Clear 20 1019 43 10000 2.6 0 13:53 21.06.2019
6067 Clear 20 1019 43 10000 2.6 0 13:33 21.06.2019
6068 Clouds 20 1020 52 10000 3.6 270 12:59 21.06.2019
6069 Clouds 20 1020 52 10000 3.6 270 12:39 21.06.2019
6070 Clouds 19 1020 52 10000 2.6 0 12:18 21.06.2019
6071 Clouds 19 1020 52 10000 2.6 0 12:18 21.06.2019
6072 Clouds 19 1019 55 10000 3.6 260 11:46 21.06.2019
6073 Clouds 18 1019 52 10000 3.6 260 11:24 21.06.2019
6074 Clouds 18 1019 55 10000 3.6 240 10:51 21.06.2019
6075 Clouds 17 1019 59 10000 2.6 280 10:22 21.06.2019
6076 Clouds 17 1019 59 10000 3.1 280 09:59 21.06.2019
6077 Clouds 17 1019 59 10000 3.1 280 09:40 21.06.2019
6078 Clouds 15 1019 67 10000 2.6 310 09:19 21.06.2019
6079 Clouds 15 1019 67 10000 3.6 280 08:43 21.06.2019
6080 Clouds 14 1019 72 10000 3.1 290 08:23 21.06.2019
6081 Clouds 14 1018 76 10000 2.1 240 07:51 21.06.2019
6082 Clouds 13 1018 76 10000 3.1 280 07:29 21.06.2019
6083 Clouds 13 1018 82 10000 3.1 270 06:54 21.06.2019
6084 Clouds 13 1018 82 10000 3.1 260 06:21 21.06.2019
6085 Clouds 13 1017 93 10000 2.1 230 05:25 21.06.2019
6086 Clouds 13 1017 93 10000 1 0 04:29 21.06.2019
6087 Rain 14 1017 93 10000 1.5 40 03:34 21.06.2019
6088 Rain 14 1017 93 10000 1 0 02:52 21.06.2019
6089 Clouds 15 1016 93 10000 0.5 0 01:53 21.06.2019
6090 Clouds 15 1016 82 10000 1.5 40 00:56 21.06.2019
6091 Clouds 15 1016 82 10000 1.5 40 00:23 21.06.2019
6092 Clouds 16 1016 87 10000 1 0 23:49 20.06.2019
6093 Clouds 16 1015 87 10000 2.1 20 23:23 20.06.2019
6094 Rain 16 1015 82 10000 2.6 360 22:58 20.06.2019
6095 Rain 17 1015 82 10000 2.1 0 22:39 20.06.2019
6096 Rain 17 1015 82 10000 2.1 0 22:21 20.06.2019
6097 Clouds 17 1014 82 10000 2.1 150 21:49 20.06.2019
6098 Rain 18 1014 82 10000 1.5 150 21:19 20.06.2019
6099 Rain 18 1014 77 10000 1.5 130 20:59 20.06.2019
6100 Rain 18 1014 77 10000 1.5 130 20:40 20.06.2019
6101 Rain 18 1014 77 10000 2.1 190 20:19 20.06.2019
6102 Rain 19 1014 72 10000 2.6 230 19:40 20.06.2019
6103 Rain 19 1013 68 10000 2.6 260 19:19 20.06.2019
6104 Clouds 19 1013 77 10000 3.1 270 18:55 20.06.2019
6105 Clouds 19 1013 82 10000 2.1 330 18:37 20.06.2019
6106 Clouds 19 1013 82 10000 2.1 330 18:18 20.06.2019
6107 Rain 19 1013 88 10000 5.7 290 17:43 20.06.2019
6108 Rain 19 1013 82 10000 5.1 300 17:22 20.06.2019
6109 Rain 19 1013 88 10000 4.6 290 16:42 20.06.2019
6110 Rain 19 1013 93 10000 5.7 290 16:19 20.06.2019
6111 Rain 19 1012 82 2000 6.2 260 15:44 20.06.2019
6112 Rain 20 1013 82 6000 2.6 300 15:24 20.06.2019
6113 Rain 21 1012 60 10000 2.6 280 14:58 20.06.2019
6114 Rain 21 1012 53 10000 3.1 290 14:39 20.06.2019
6115 Rain 22 1012 53 10000 3.1 290 14:19 20.06.2019
6116 Clouds 21 1012 53 10000 3.1 0 13:39 20.06.2019
6117 Clouds 21 1012 53 10000 3.1 0 13:19 20.06.2019
6118 Clouds 21 1012 56 10000 4.6 300 12:43 20.06.2019
6119 Clouds 21 1012 53 10000 4.6 240 12:22 20.06.2019
6120 Clouds 21 1012 53 10000 4.6 230 11:43 20.06.2019
6121 Clouds 20 1012 56 10000 4.6 210 11:23 20.06.2019
6122 Clouds 20 1012 60 10000 4.6 250 10:45 20.06.2019
6123 Clouds 20 1012 60 10000 4.6 250 10:45 20.06.2019
6124 Clouds 20 1012 60 10000 4.6 250 10:45 20.06.2019
6125 Clouds 19 1012 60 10000 4.6 230 10:25 20.06.2019
6126 Clouds 18 1012 68 10000 3.6 250 09:58 20.06.2019
6127 Clouds 18 1012 68 10000 3.6 250 09:38 20.06.2019
6128 Clouds 18 1012 72 10000 4.1 230 09:20 20.06.2019
6129 Clouds 17 1012 82 10000 3.1 260 08:45 20.06.2019
6130 Clouds 17 1012 82 10000 3.1 260 08:26 20.06.2019
6131 Clouds 17 1011 77 10000 3.1 260 07:51 20.06.2019
6132 Clouds 17 1011 82 10000 1.5 210 07:27 20.06.2019
6133 Clouds 16 1011 82 10000 4.1 250 06:27 20.06.2019
6134 Clear 16 1010 77 10000 4.1 280 04:53 20.06.2019
6135 Clear 17 1009 88 10000 1 0 02:29 20.06.2019
6136 Rain 18 1009 88 10000 1.5 110 00:34 20.06.2019
6137 Clouds 18 1009 93 10000 3.1 130 23:56 19.06.2019
6138 Rain 18 1009 93 10000 3.1 130 23:37 19.06.2019
6139 Rain 18 1009 88 10000 1.5 120 23:19 19.06.2019
6140 Rain 18 1009 88 10000 1 0 22:40 19.06.2019
6141 Rain 18 1009 88 10000 1 0 22:18 19.06.2019
6142 Rain 18 1009 88 10000 1 0 22:18 19.06.2019
6143 Thunderstorm 18 1009 72 10000 4.1 320 21:42 19.06.2019
6144 Thunderstorm 19 1009 72 10000 4.1 320 21:23 19.06.2019
6145 Thunderstorm 21 1009 60 10000 8.2 290 20:43 19.06.2019
6146 Rain 23 1009 77 10000 8.7 290 20:22 19.06.2019
6147 Thunderstorm 22 1007 44 10000 5.1 170 19:58 19.06.2019
6148 Thunderstorm 23 1007 44 10000 5.1 170 19:39 19.06.2019
6149 Thunderstorm 24 1007 45 10000 5.1 170 19:20 19.06.2019
6150 Thunderstorm 25 1007 45 10000 5.1 190 18:47 19.06.2019
6151 Clouds 27 1007 47 10000 4.1 160 18:20 19.06.2019
6152 Clouds 28 1007 51 10000 3.1 160 17:37 19.06.2019
6153 Rain 27 1008 64 10000 2.6 110 16:59 19.06.2019
6154 -273 0 0 0 0 0 16:39 19.06.2019
6155 Rain 27 1008 50 10000 3.1 220 16:21 19.06.2019
6156 Rain 27 1008 44 10000 3.1 200 15:53 19.06.2019
6157 Clouds 27 1008 44 10000 3.6 210 15:27 19.06.2019
6158 Rain 27 1009 44 10000 3.1 220 14:57 19.06.2019
6159 Rain 27 1009 44 10000 3.1 220 14:57 19.06.2019
6160 Rain 27 1009 44 10000 3.1 220 14:38 19.06.2019
6161 Rain 27 1008 54 10000 1 0 14:20 19.06.2019
6162 Rain 26 1008 57 10000 2.1 120 13:43 19.06.2019
6163 Thunderstorm 27 1009 44 10000 6.7 240 13:24 19.06.2019
6164 Thunderstorm 28 1008 42 10000 9.8 240 12:44 19.06.2019
6165 Thunderstorm 27 1009 50 10000 7.2 240 12:22 19.06.2019
6166 Clear 28 1008 42 10000 5.7 160 11:56 19.06.2019
6167 Rain 28 1007 45 10000 6.2 170 11:38 19.06.2019
6168 Rain 28 1007 45 10000 6.2 170 11:19 19.06.2019
6169 Rain 27 1008 45 10000 5.1 160 10:45 19.06.2019
6170 Rain 26 1008 54 10000 4.6 140 10:26 19.06.2019
6171 Clouds 25 1007 53 10000 4.6 140 09:50 19.06.2019
6172 Clouds 24 1008 57 10000 3.6 130 09:22 19.06.2019
6173 Clear 23 1008 60 10000 3.6 130 08:55 19.06.2019
6174 Clear 22 1008 64 10000 3.1 130 08:37 19.06.2019
6175 Clear 21 1008 64 10000 3.1 130 08:19 19.06.2019
6176 Clear 20 1008 68 10000 3.1 110 07:42 19.06.2019
6177 Clear 18 1009 82 10000 1 0 06:59 19.06.2019
6178 Clear 18 1009 82 10000 1 0 06:35 19.06.2019
6179 Clear 17 1009 93 10000 2.1 140 05:58 19.06.2019
6180 Clear 18 1009 82 10000 1 0 05:20 19.06.2019
6181 Clear 18 1010 82 10000 1 0 03:51 19.06.2019
6182 Clear 19 1010 77 10000 1 0 02:35 19.06.2019
6183 Clear 19 1011 72 10000 0.5 0 01:37 19.06.2019
6184 Clear 20 1011 77 10000 1.5 60 00:53 19.06.2019
6185 Clear 20 1011 64 10000 0.5 0 00:35 19.06.2019
6186 Clear 21 1011 68 10000 1 0 23:58 18.06.2019
6187 Clear 21 1011 68 10000 1 0 23:37 18.06.2019
6188 Clear 21 1011 60 10000 1 0 23:19 18.06.2019
6189 Clear 23 1011 60 10000 1 0 22:41 18.06.2019
6190 Clear 23 1011 60 10000 1 0 22:21 18.06.2019
6191 Clear 25 1011 53 10000 1 0 21:44 18.06.2019
6192 Clear 26 1011 51 10000 2.6 200 21:22 18.06.2019
6193 Clear 26 1011 45 10000 2.6 130 20:58 18.06.2019
6194 Clear 27 1011 45 10000 2.6 130 20:38 18.06.2019
6195 Clear 27 1011 47 10000 2.6 150 20:19 18.06.2019
6196 Clear 27 1011 42 10000 3.6 160 19:39 18.06.2019
6197 Clear 28 1012 44 10000 3.6 160 19:21 18.06.2019
6198 Clear 27 1012 39 10000 4.1 160 18:51 18.06.2019
6199 Clear 28 1012 42 10000 4.6 160 18:25 18.06.2019
6200 Clear 28 1012 35 10000 4.1 140 17:48 18.06.2019
6201 Clear 28 1012 37 10000 4.1 140 17:22 18.06.2019
6202 Clear 28 1012 39 10000 3.6 170 16:58 18.06.2019
6203 Clear 28 1012 39 10000 3.6 170 16:40 18.06.2019
6204 Clouds 28 1013 39 10000 2.1 140 16:21 18.06.2019
6205 Clear 29 1013 37 10000 4.1 130 15:41 18.06.2019
6206 Clear 28 1013 37 10000 4.6 150 15:23 18.06.2019
6207 Clear 28 1013 37 10000 4.6 190 14:56 18.06.2019
6208 Clear 28 1013 37 10000 4.6 190 14:37 18.06.2019
6209 Clear 28 1013 39 10000 3.1 0 14:19 18.06.2019
6210 Clear 28 1014 42 10000 3.6 100 13:50 18.06.2019
6211 Clear 28 1014 42 10000 2.6 100 13:30 18.06.2019
6212 Clouds 27 1014 47 10000 1 0 12:46 18.06.2019
6213 Clear 27 1014 39 10000 1.5 0 12:28 18.06.2019
6214 Clouds 26 1015 47 10000 1 0 11:56 18.06.2019
6215 Clouds 26 1015 47 10000 1 0 11:38 18.06.2019
6216 Clouds 26 1015 50 10000 1.5 0 11:18 18.06.2019
6217 Clouds 24 1015 60 10000 2.1 160 10:43 18.06.2019
6218 Clouds 24 1015 60 10000 2.1 160 10:22 18.06.2019
6219 Clouds 23 1015 60 10000 1.5 150 09:52 18.06.2019
6220 Clouds 22 1016 64 10000 0.5 0 09:25 18.06.2019
6221 Clear 21 1016 77 10000 1.5 170 08:58 18.06.2019
6222 Clear 20 1016 77 10000 1.5 170 08:39 18.06.2019
6223 Clear 19 1016 82 10000 1.5 160 08:20 18.06.2019
6224 Clear 17 1015 87 10000 1 0 07:27 18.06.2019
6225 Clear 17 1015 87 10000 1 0 07:27 18.06.2019
6226 Clear 16 1016 87 10000 2.1 150 06:59 18.06.2019
6227 Clear 15 1016 93 10000 1 0 05:28 18.06.2019
6228 Clear 15 1016 87 10000 0.5 0 04:23 18.06.2019
6229 Clear 17 1016 82 10000 2.1 150 02:51 18.06.2019
6230 Clear 18 1016 82 10000 0.5 0 01:49 18.06.2019
6231 Clear 17 1017 82 10000 0.5 270 01:24 18.06.2019
6232 Clear 18 1017 77 10000 0.5 0 00:41 18.06.2019
6233 Clear 18 1017 77 10000 0.5 0 00:23 18.06.2019
6234 Clear 19 1017 77 10000 1 80 23:39 17.06.2019
6235 Clear 19 1017 77 10000 2.1 60 23:19 17.06.2019
6236 Clear 20 1017 77 10000 2.1 60 23:19 17.06.2019
6237 Clear 20 1017 72 10000 1.5 60 22:42 17.06.2019
6238 Clear 21 1017 60 10000 1.5 120 22:22 17.06.2019
6239 Clear 23 1017 64 10000 1 110 21:58 17.06.2019
6240 Clear 23 1017 64 10000 1 110 21:40 17.06.2019
6241 Clear 24 1017 57 10000 1 150 21:20 17.06.2019
6242 Clear 26 1017 47 10000 2.1 160 20:37 17.06.2019
6243 Clear 26 1017 47 10000 2.1 160 20:18 17.06.2019
6244 Clear 25 1017 41 10000 3.6 170 19:42 17.06.2019
6245 Clear 25 1017 41 10000 3.6 170 19:42 17.06.2019
6246 Clear 26 1017 41 10000 3.6 170 19:23 17.06.2019
6247 Clear 26 1017 44 10000 2.6 130 18:57 17.06.2019
6248 Clear 26 1017 39 10000 2.6 190 18:37 17.06.2019
6249 Clear 26 1017 39 10000 2.6 190 18:18 17.06.2019
6250 Clear 26 1017 39 10000 2.6 190 18:18 17.06.2019
6251 Clear 26 1018 34 10000 3.6 140 17:44 17.06.2019
6252 Clear 27 1018 34 10000 3.6 140 17:26 17.06.2019
6253 Clouds 26 1018 36 10000 1.5 100 16:48 17.06.2019
6254 Clear 26 1018 36 10000 2.6 130 16:29 17.06.2019
6255 Clear 26 1019 44 10000 2.6 150 15:58 17.06.2019
6256 Clear 26 1019 41 10000 2.6 150 15:38 17.06.2019
6257 Clear 26 1019 41 10000 2.1 0 15:19 17.06.2019
6258 Clear 25 1019 41 10000 2.1 0 14:51 17.06.2019
6259 Clear 26 1019 39 10000 2.6 0 14:32 17.06.2019
6260 Clear 25 1020 41 10000 3.1 130 13:56 17.06.2019
6261 Clear 25 1020 44 10000 3.1 0 13:38 17.06.2019
6262 Clouds 25 1020 47 10000 1.5 0 13:19 17.06.2019
6263 Clouds 24 1020 50 10000 2.1 170 12:33 17.06.2019
6264 Clouds 23 1020 49 10000 3.1 90 11:58 17.06.2019
6265 Clouds 23 1021 53 10000 2.6 160 11:39 17.06.2019
6266 Clear 23 1021 56 10000 2.1 170 11:18 17.06.2019
6267 Clouds 22 1021 60 10000 2.6 110 10:46 17.06.2019
6268 Clear 21 1021 60 10000 2.1 140 10:28 17.06.2019
6269 Clouds 20 1021 63 10000 2.1 120 09:56 17.06.2019
6270 Clear 19 1021 68 10000 2.1 150 09:33 17.06.2019
6271 Clear 17 1022 77 10000 1.5 160 08:48 17.06.2019
6272 Clear 16 1022 87 10000 1.5 150 08:25 17.06.2019
6273 Clear 16 1022 87 10000 1.5 150 07:57 17.06.2019
6274 Clear 15 1022 87 10000 2.1 150 07:32 17.06.2019
6275 Clear 14 1022 93 10000 1 0 06:59 17.06.2019
6276 Clear 12 1022 93 10000 0.5 0 06:18 17.06.2019
6277 Clear 13 1022 93 10000 1 0 05:29 17.06.2019
6278 Clear 13 1022 93 10000 1 0 04:30 17.06.2019
6279 Clear 13 1022 93 10000 1 0 03:31 17.06.2019
6280 Clear 14 1022 93 10000 1 0 02:46 17.06.2019
6281 Clear 14 1022 93 10000 1 0 02:28 17.06.2019
6282 Clear 14 1022 87 10000 1 0 01:36 17.06.2019
6283 Clear 15 1022 87 10000 2.1 140 00:58 17.06.2019
6284 Clear 15 1021 87 10000 0.5 0 00:38 17.06.2019
6285 Clear 16 1021 82 10000 0.5 0 00:20 17.06.2019
6286 Clear 16 1021 82 10000 1.5 90 23:40 16.06.2019
6287 Clear 17 1021 82 10000 1 0 23:20 16.06.2019
6288 Clouds 17 1021 67 10000 0.5 290 22:47 16.06.2019
6289 Clear 19 1021 72 10000 1 60 22:21 16.06.2019
6290 Clear 19 1021 72 10000 1 60 21:59 16.06.2019
6291 Clear 19 1021 68 10000 1.5 60 21:40 16.06.2019
6292 Clear 20 1021 68 10000 1.5 60 21:21 16.06.2019
6293 Clear 21 1021 52 10000 1.5 120 20:56 16.06.2019
6294 Clear 21 1021 53 10000 1 130 20:37 16.06.2019
6295 Clear 21 1021 56 10000 1.5 200 20:18 16.06.2019
6296 Clear 21 1021 56 10000 1.5 200 20:18 16.06.2019
6297 Rain 22 1021 56 10000 4.1 270 19:41 16.06.2019
6298 Rain 22 1021 56 10000 4.1 270 19:22 16.06.2019
6299 Rain 22 1020 46 10000 3.1 270 18:58 16.06.2019
6300 Rain 22 1020 49 10000 4.6 290 18:39 16.06.2019
6301 Rain 22 1021 49 10000 3.6 270 18:20 16.06.2019
6302 Rain 22 1020 46 10000 3.6 270 17:47 16.06.2019
6303 Clouds 22 1021 49 10000 3.6 260 17:22 16.06.2019
6304 Clouds 22 1021 49 10000 3.6 260 16:57 16.06.2019
6305 Clouds 22 1021 49 10000 3.6 230 16:39 16.06.2019
6306 Clouds 22 1021 49 10000 3.6 230 16:21 16.06.2019
6307 Rain 22 1021 64 10000 3.1 240 15:42 16.06.2019
6308 Rain 22 1020 52 10000 3.1 270 15:24 16.06.2019
6309 Rain 22 1020 56 10000 2.6 280 14:45 16.06.2019
6310 Rain 22 1020 56 10000 2.6 280 14:24 16.06.2019
6311 Clouds 21 1020 56 10000 5.1 280 13:56 16.06.2019
6312 Clouds 21 1021 52 10000 2.6 200 13:38 16.06.2019
6313 Clouds 21 1021 49 10000 3.1 170 13:20 16.06.2019
6314 Clouds 21 1021 52 10000 2.1 0 12:41 16.06.2019
6315 Clouds 21 1020 49 10000 3.1 230 12:20 16.06.2019
6316 Clear 21 1020 56 9000 4.1 300 11:48 16.06.2019
6317 Clouds 20 1020 56 10000 3.1 220 11:21 16.06.2019
6318 Clear 20 1020 56 10000 2.6 300 10:59 16.06.2019
6319 Clouds 20 1020 56 10000 2.1 0 10:41 16.06.2019
6320 Clear 19 1020 56 10000 1.5 0 10:18 16.06.2019
6321 Clear 19 1020 59 10000 2.6 250 09:41 16.06.2019
6322 Clear 18 1020 59 10000 2.6 250 09:23 16.06.2019
6323 Clear 17 1019 72 10000 2.6 240 08:45 16.06.2019
6324 Clear 16 1019 72 10000 2.1 240 08:20 16.06.2019
6325 Clear 16 1019 67 9000 2.6 250 07:44 16.06.2019
6326 Clear 15 1019 72 10000 2.1 250 07:26 16.06.2019
6327 Clear 15 1019 72 6000 2.1 240 06:50 16.06.2019
6328 Clear 15 1018 77 10000 1 0 05:55 16.06.2019
6329 Clear 15 1018 77 10000 1.5 230 05:20 16.06.2019
6330 Clear 15 1018 77 10000 2.1 170 04:21 16.06.2019
6331 Clear 15 1018 77 10000 1 0 03:40 16.06.2019
6332 Clear 16 1018 77 10000 1 0 03:20 16.06.2019
6333 Clouds 17 1018 67 7000 3.1 280 01:48 16.06.2019
6334 Clear 16 1017 68 10000 3.1 230 01:30 16.06.2019
6335 Clear 17 1017 72 10000 1.5 190 00:43 16.06.2019
6336 Clear 17 1017 72 10000 1.5 190 00:25 16.06.2019
6337 Clear 17 1016 77 10000 2.4 264.332 23:58 15.06.2019
6338 Clear 17 1016 72 10000 1 0 23:39 15.06.2019
6339 Clear 17 1016 72 10000 1 0 23:20 15.06.2019
6340 Clear 18 1015 77 10000 0.5 0 22:44 15.06.2019
6341 Clear 18 1015 77 10000 0.5 0 22:25 15.06.2019
6342 Clouds 20 1015 53 10000 1.5 360 21:45 15.06.2019
6343 Clouds 21 1015 53 10000 1.5 360 21:21 15.06.2019
6344 Clouds 22 1015 49 6000 3.1 300 20:46 15.06.2019
6345 Clouds 22 1015 49 10000 2.6 330 20:23 15.06.2019
6346 Clouds 22 1015 49 6000 2.6 330 19:53 15.06.2019
6347 Clear 23 1015 47 10000 4.6 270 19:28 15.06.2019
6348 Clear 23 1015 47 10000 4.6 270 18:59 15.06.2019
6349 Clear 23 1015 47 10000 4.6 280 18:37 15.06.2019
6350 Clouds 23 1015 49 10000 5.7 290 18:18 15.06.2019
6351 Clouds 22 1015 56 10000 6.2 300 17:40 15.06.2019
6352 Clouds 23 1015 56 10000 6.2 300 17:21 15.06.2019
6353 Rain 23 1015 49 7000 6.2 300 16:44 15.06.2019
6354 Rain 23 1015 60 10000 3.6 280 16:18 15.06.2019
6355 Clouds 23 1015 56 10000 3.1 280 15:41 15.06.2019
6356 Clouds 22 1015 56 10000 3.1 280 15:22 15.06.2019
6357 Rain 21 1014 60 10000 5.7 260 14:39 15.06.2019
6358 Clouds 21 1014 60 10000 6.2 270 14:18 15.06.2019
6359 Clouds 21 1014 56 10000 8.7 270 13:44 15.06.2019
6360 Clouds 21 1014 60 10000 7.7 280 13:21 15.06.2019
6361 Clouds 21 1014 60 10000 7.7 280 12:59 15.06.2019
6362 Clouds 20 1014 64 10000 7.7 270 12:41 15.06.2019
6363 Rain 20 1013 64 10000 7.7 260 12:23 15.06.2019
6364 Rain 20 1013 60 10000 9.3 280 11:47 15.06.2019
6365 Rain 19 1012 68 10000 6.7 260 11:28 15.06.2019
6366 Clouds 19 1011 77 10000 2.1 200 10:43 15.06.2019
6367 Clouds 19 1011 77 10000 2.1 200 10:25 15.06.2019
6368 Mist 18 1012 82 10000 3.6 270 09:48 15.06.2019
6369 Rain 17 1010 93 10000 1 0 09:27 15.06.2019
6370 Rain 17 1010 93 10000 1 0 08:55 15.06.2019
6371 Rain 17 1010 88 10000 3.1 300 08:37 15.06.2019
6372 Rain 17 1010 100 8000 3.1 260 08:18 15.06.2019
6373 Rain 17 1010 93 10000 3.6 250 08:18 15.06.2019
6374 Clear 17 1010 93 10000 2.6 300 07:26 15.06.2019
6375 Clear 16 1010 93 10000 2.1 250 07:26 15.06.2019
6376 Rain 16 1010 93 5000 6.2 280 06:48 15.06.2019
6377 Clear 16 1010 100 10000 1.5 230 06:28 15.06.2019
6378 Clear 17 1009 93 10000 2.6 270 05:39 15.06.2019
6379 Clear 17 1009 93 10000 1.5 240 04:52 15.06.2019
6380 Clear 17 1010 100 10000 0.5 0 04:20 15.06.2019
6381 Rain 17 1010 93 10000 1.5 60 03:22 15.06.2019
6382 Rain 17 1011 93 10000 2.1 50 02:34 15.06.2019
6383 Rain 18 1011 88 10000 1 290 01:57 15.06.2019
6384 Rain 18 1011 88 10000 0.5 280 01:24 15.06.2019
6385 Rain 19 1012 88 10000 1 0 00:42 15.06.2019
6386 Rain 19 1012 88 10000 1 0 00:23 15.06.2019
6387 Clouds 20 1012 72 10000 0.5 0 23:49 14.06.2019
6388 Rain 21 1012 82 10000 1 0 23:20 14.06.2019
6389 Clear 21 1012 64 10000 2.1 50 22:41 14.06.2019
6390 Clear 21 1012 64 10000 2.1 50 22:41 14.06.2019
6391 Clear 22 1012 53 10000 1.5 100 22:21 14.06.2019
6392 Clouds 22 1012 56 10000 1.5 140 21:48 14.06.2019
6393 Clear 23 1012 53 10000 2.6 110 21:28 14.06.2019
6394 Clear 24 1012 50 10000 3.1 120 20:57 14.06.2019
6395 Clear 24 1012 47 10000 5.7 140 20:38 14.06.2019
6396 Clear 25 1012 44 10000 5.1 140 20:18 14.06.2019
6397 Clear 25 1012 41 10000 3.1 140 19:42 14.06.2019
6398 Clear 25 1012 39 10000 3.1 150 19:22 14.06.2019
6399 Clouds 25 1012 50 10000 3.1 40 18:55 14.06.2019
6400 Clouds 25 1012 50 10000 3.1 40 18:55 14.06.2019
6401 Clear 25 1012 32 10000 3.1 200 18:37 14.06.2019
6402 Clear 26 1013 39 10000 3.6 250 18:18 14.06.2019
6403 Clear 26 1013 39 10000 4.1 220 17:45 14.06.2019
6404 Clear 26 1013 36 10000 6.2 200 17:24 14.06.2019
6405 Clear 26 1013 36 10000 6.2 200 16:53 14.06.2019
6406 Clear 26 1013 36 10000 5.7 200 16:27 14.06.2019
6407 Clear 26 1013 34 10000 6.2 200 15:59 14.06.2019
6408 Clear 26 1014 34 10000 4.6 0 15:39 14.06.2019
6409 Clear 26 1014 34 10000 4.6 0 15:20 14.06.2019
6410 Clear 26 1014 44 10000 3.1 300 15:20 14.06.2019
6411 Clouds 26 1014 47 10000 1 110 14:50 14.06.2019
6412 Clear 25 1014 44 10000 1.5 0 14:31 14.06.2019
6413 Clear 25 1014 44 10000 1.5 0 13:54 14.06.2019
6414 Clear 24 1014 44 10000 2.1 0 13:36 14.06.2019
6415 Clear 24 1015 46 10000 1.5 50 13:18 14.06.2019
6416 Clouds 23 1015 46 10000 1.5 70 12:41 14.06.2019
6417 Clouds 23 1015 46 10000 1.5 70 12:22 14.06.2019
6418 Clouds 22 1015 49 10000 1.5 230 11:44 14.06.2019
6419 Clouds 21 1015 49 10000 1.5 230 11:24 14.06.2019
6420 Clear 21 1015 56 10000 1.5 0 10:50 14.06.2019
6421 Clear 20 1015 60 10000 2.6 220 10:24 14.06.2019
6422 Clouds 19 1015 63 10000 1.5 230 09:58 14.06.2019
6423 Clear 19 1014 63 10000 2.1 160 09:39 14.06.2019
6424 Clear 18 1014 63 10000 2.1 160 09:20 14.06.2019
6425 Clear 16 1014 72 10000 2.1 90 08:45 14.06.2019
6426 Clear 15 1013 76 10000 3.1 70 08:18 14.06.2019
6427 Clouds 15 1013 82 10000 1 0 07:48 14.06.2019
6428 Clear 13 1014 93 10000 1.5 80 07:20 14.06.2019
6429 Clear 12 1014 87 10000 1 0 06:31 14.06.2019
6430 -273 0 0 0 0 0 05:55 14.06.2019
6431 Clear 12 1014 87 10000 2.1 50 05:00 14.06.2019
6432 Clear 12 1014 93 10000 1.5 90 04:37 14.06.2019
6433 Clouds 12 1014 87 10000 1.5 0 03:51 14.06.2019
6434 Clear 12 1014 93 10000 2.6 70 03:25 14.06.2019
6435 Clear 12 1014 93 10000 2.6 70 03:25 14.06.2019
6436 Clear 12 1014 93 10000 2.6 70 03:25 14.06.2019
6437 Clear 13 1015 87 10000 1.5 60 02:48 14.06.2019
6438 Clear 13 1015 87 10000 1.5 60 02:25 14.06.2019
6439 Rain 14 1014 82 10000 2.6 110 00:51 14.06.2019
6440 Rain 15 1014 72 10000 2.6 130 00:23 14.06.2019
6441 Rain 15 1014 72 10000 2.6 130 23:57 13.06.2019
6442 Rain 15 1014 72 10000 2.6 120 23:39 13.06.2019
6443 Clear 15 1014 72 10000 3.6 130 23:20 13.06.2019
6444 Clear 15 1014 67 10000 4.6 130 22:39 13.06.2019
6445 Clear 16 1014 67 10000 4.6 140 22:21 13.06.2019
6446 Clear 16 1014 67 10000 3.6 120 21:40 13.06.2019
6447 Rain 17 1014 72 10000 4.6 150 21:20 13.06.2019
6448 Rain 17 1014 72 10000 4.6 150 20:57 13.06.2019
6449 Rain 17 1014 63 10000 4.6 190 20:38 13.06.2019
6450 Rain 18 1014 72 10000 10.3 220 20:19 13.06.2019
6451 Rain 18 1013 40 10000 7.2 210 19:41 13.06.2019
6452 Clear 20 1012 40 10000 7.2 220 19:22 13.06.2019
6453 Clear 21 1012 40 10000 7.2 220 18:58 13.06.2019
6454 Rain 21 1012 37 10000 7.2 210 18:40 13.06.2019
6455 Rain 21 1012 37 10000 7.2 210 18:21 13.06.2019
6456 Rain 21 1013 37 10000 8.2 190 17:43 13.06.2019
6457 Rain 21 1013 37 10000 8.2 190 17:20 13.06.2019
6458 Rain 20 1012 40 10000 7.7 220 16:53 13.06.2019
6459 Rain 21 1013 40 10000 6.7 190 16:22 13.06.2019
6460 Rain 21 1013 40 10000 6.7 200 15:59 13.06.2019
6461 Clear 21 1013 43 10000 7.7 220 15:40 13.06.2019
6462 Clear 20 1013 43 10000 7.2 200 15:19 13.06.2019
6463 Clouds 20 1013 40 10000 6.2 220 14:48 13.06.2019
6464 Clear 20 1013 46 10000 7.7 190 14:29 13.06.2019
6465 Clouds 20 1012 42 10000 5.7 210 13:47 13.06.2019
6466 Clear 20 1013 52 10000 6.2 210 13:22 13.06.2019
6467 Clear 19 1013 52 10000 6.2 210 12:58 13.06.2019
6468 Clear 19 1013 55 10000 7.2 220 12:39 13.06.2019
6469 Clouds 19 1014 52 10000 6.2 200 12:20 13.06.2019
6470 Clouds 18 1013 52 10000 6.2 200 11:44 13.06.2019
6471 Clouds 18 1013 52 10000 6.2 200 11:25 13.06.2019
6472 Clouds 17 1013 55 10000 5.7 200 10:48 13.06.2019
6473 Clouds 17 1013 63 10000 5.7 180 10:29 13.06.2019
6474 Clouds 16 1013 63 10000 5.7 180 09:53 13.06.2019
6475 Clouds 16 1013 63 10000 5.7 170 09:31 13.06.2019
6476 Clouds 15 1013 63 10000 5.1 170 08:57 13.06.2019
6477 Clouds 15 1013 63 10000 5.1 170 08:56 13.06.2019
6478 Clouds 15 1013 67 10000 4.6 180 08:38 13.06.2019
6479 Clear 14 1013 71 10000 4.6 160 08:19 13.06.2019
6480 Clear 13 1013 76 10000 4.1 150 07:39 13.06.2019
6481 Clear 13 1013 81 10000 3.1 160 07:21 13.06.2019
6482 Clear 12 1013 87 10000 3.1 150 06:40 13.06.2019
6483 Clear 12 1012 87 10000 3.6 140 06:22 13.06.2019
6484 Clear 12 1012 81 10000 4.1 140 05:52 13.06.2019
6485 Clear 12 1012 81 10000 4.1 140 05:34 13.06.2019
6486 Clear 13 1012 81 10000 3.1 140 03:50 13.06.2019
6487 Clear 13 1012 76 10000 2.6 130 02:22 13.06.2019
6488 Clear 14 1012 71 10000 1.5 170 00:46 13.06.2019
6489 Clouds 14 1011 67 10000 2.6 210 23:47 12.06.2019
6490 Clear 15 1011 67 10000 2.6 200 23:21 12.06.2019
6491 Clear 16 1011 59 10000 3.1 200 22:42 12.06.2019
6492 Clear 16 1011 59 10000 3.1 200 22:24 12.06.2019
6493 Clear 17 1010 52 10000 4.6 210 21:56 12.06.2019
6494 Clear 17 1010 48 10000 5.1 210 21:36 12.06.2019
6495 Clear 18 1010 45 10000 4.1 210 21:18 12.06.2019
6496 Clear 19 1010 45 10000 5.7 200 20:37 12.06.2019
6497 Clear 19 1010 46 10000 5.1 220 20:19 12.06.2019
6498 Clear 20 1010 52 10000 4.1 200 19:42 12.06.2019
6499 Clouds 20 1010 52 10000 3.6 180 19:23 12.06.2019
6500 Clouds 20 1010 52 10000 3.6 180 18:56 12.06.2019
6501 Clouds 20 1010 52 10000 4.6 230 18:38 12.06.2019
6502 Clouds 20 1010 52 10000 4.6 230 18:19 12.06.2019
6503 Clouds 19 1010 55 10000 5.1 230 17:43 12.06.2019
6504 Clouds 19 1010 55 10000 5.1 230 17:20 12.06.2019
6505 Clouds 18 1010 59 10000 4.6 240 16:42 12.06.2019
6506 Clouds 18 1010 68 10000 4.1 190 16:23 12.06.2019
6507 Clouds 18 1010 68 10000 4.1 190 15:53 12.06.2019
6508 Clouds 17 1010 68 10000 4.1 210 15:32 12.06.2019
6509 Rain 16 1010 77 10000 3.6 220 14:49 12.06.2019
6510 Rain 16 1010 82 10000 3.1 180 14:29 12.06.2019
6511 Rain 15 1009 87 10000 1.5 180 13:55 12.06.2019
6512 -273 0 0 0 0 0 13:36 12.06.2019
6513 Rain 14 1009 93 8000 2.6 290 13:18 12.06.2019
6514 Rain 14 1009 93 5000 2.6 260 12:39 12.06.2019
6515 Rain 14 1009 93 5000 2.6 260 12:39 12.06.2019
6516 Rain 14 1009 93 4000 4.1 260 12:19 12.06.2019
6517 Rain 15 1009 93 4000 4.1 260 11:47 12.06.2019
6518 Rain 15 1009 93 4000 4.1 260 11:47 12.06.2019
6519 Rain 15 1008 87 2500 4.6 280 11:29 12.06.2019
6520 Rain 16 1008 82 8000 6.2 280 10:54 12.06.2019
6521 Rain 17 1007 68 10000 3.1 190 10:35 12.06.2019
6522 Clouds 17 1007 77 9000 3.1 260 09:59 12.06.2019
6523 -273 0 0 0 0 0 09:40 12.06.2019
6524 Mist 17 1007 77 10000 1.5 210 09:18 12.06.2019
6525 Mist 16 1007 77 10000 1 0 08:27 12.06.2019
6526 Mist 15 1008 82 10000 2.6 280 07:52 12.06.2019
6527 Mist 15 1008 87 10000 1.5 40 06:57 12.06.2019
6528 Clouds 15 1008 87 10000 1 0 06:33 12.06.2019
6529 Rain 15 1009 87 10000 0.5 0 05:25 12.06.2019
6530 Clear 16 1010 77 10000 1 0 02:21 12.06.2019
6531 Clouds 16 1010 67 10000 2.1 330 00:46 12.06.2019
6532 Clouds 17 1011 59 10000 2.1 320 23:57 11.06.2019
6533 Clouds 17 1010 67 10000 1.5 10 23:39 11.06.2019
6534 Clouds 17 1011 67 10000 1 0 23:20 11.06.2019
6535 Clear 17 1011 63 10000 1.5 350 22:41 11.06.2019
6536 Clear 18 1011 63 10000 1.5 340 22:18 11.06.2019
6537 Clear 18 1011 63 10000 1.5 340 21:55 11.06.2019
6538 Clear 18 1011 59 10000 2.1 360 21:36 11.06.2019
6539 Clear 18 1011 59 10000 2.6 340 21:18 11.06.2019
6540 Clear 19 1011 59 10000 1 0 20:42 11.06.2019
6541 Clear 19 1011 59 10000 2.6 360 20:22 11.06.2019
6542 Clear 19 1011 59 10000 2.6 360 19:51 11.06.2019
6543 Clear 19 1011 59 10000 2.6 360 19:29 11.06.2019
6544 Clear 20 1011 52 10000 2.6 350 18:53 11.06.2019
6545 Clear 20 1011 46 10000 2.1 90 18:20 11.06.2019
6546 Clear 20 1011 46 10000 2.1 90 18:20 11.06.2019
6547 Clear 20 1011 46 10000 2.1 90 18:20 11.06.2019
6548 Clear 20 1011 49 10000 2.6 50 17:41 11.06.2019
6549 Clouds 21 1011 43 10000 1.5 220 17:20 11.06.2019
6550 Clouds 20 1011 46 10000 1.5 0 16:44 11.06.2019
6551 Clouds 21 1011 46 10000 1.5 0 16:24 11.06.2019
6552 Clouds 20 1011 46 10000 2.1 40 15:56 11.06.2019
6553 Clouds 21 1012 49 10000 2.1 30 15:36 11.06.2019
6554 Clouds 21 1012 49 10000 2.1 30 15:18 11.06.2019
6555 Clouds 20 1012 52 10000 1.5 0 14:40 11.06.2019
6556 Clouds 20 1012 55 10000 2.1 190 14:20 11.06.2019
6557 Clouds 19 1012 59 10000 2.6 40 13:43 11.06.2019
6558 Clouds 19 1012 59 10000 2.6 350 13:22 11.06.2019
6559 Clouds 18 1012 63 10000 2.1 0 12:43 11.06.2019
6560 Clouds 18 1012 63 10000 2.1 0 12:22 11.06.2019
6561 Clouds 18 1012 67 10000 2.6 10 11:57 11.06.2019
6562 Clouds 17 1012 67 10000 2.1 0 11:34 11.06.2019
6563 Clouds 16 1012 67 10000 3.1 340 10:58 11.06.2019
6564 Clouds 16 1012 77 10000 3.1 310 10:40 11.06.2019
6565 Clouds 15 1012 77 10000 3.1 310 10:21 11.06.2019
6566 Clouds 14 1012 77 10000 3.6 290 09:45 11.06.2019
6567 Clouds 14 1012 77 10000 3.6 290 09:23 11.06.2019
6568 Clouds 14 1012 77 10000 3.6 290 09:23 11.06.2019
6569 Rain 13 1012 87 10000 1.5 360 08:42 11.06.2019
6570 Rain 13 1012 87 10000 1.5 360 08:23 11.06.2019
6571 Rain 13 1012 87 10000 1.5 250 07:36 11.06.2019
6572 Rain 13 1012 87 10000 2.6 280 06:54 11.06.2019
6573 Rain 13 1011 87 10000 3.1 270 06:24 11.06.2019
6574 Rain 14 1011 87 10000 3.1 270 04:49 11.06.2019
6575 Clouds 15 1011 82 10000 2.6 280 02:44 11.06.2019
6576 Clouds 15 1011 82 10000 1.5 340 01:23 11.06.2019
6577 Clouds 15 1011 82 10000 1.5 340 01:23 11.06.2019
6578 Clouds 15 1010 82 10000 2.6 270 00:44 11.06.2019
6579 Rain 15 1011 77 10000 1.5 270 23:47 10.06.2019
6580 Rain 16 1011 77 10000 4.6 280 23:21 10.06.2019
6581 Rain 16 1011 77 10000 4.6 280 22:49 10.06.2019
6582 Rain 16 1010 72 10000 6.7 280 22:31 10.06.2019
6583 Rain 16 1010 72 10000 7.2 250 21:59 10.06.2019
6584 Rain 17 1010 72 10000 3.1 180 21:39 10.06.2019
6585 Rain 18 1009 64 10000 4.1 130 21:21 10.06.2019
6586 Clouds 19 1010 72 10000 5.1 270 20:45 10.06.2019
6587 Rain 19 1010 56 10000 4.1 160 20:23 10.06.2019
6588 Thunderstorm 19 1010 68 10000 5.7 280 19:53 10.06.2019
6589 Thunderstorm 20 1010 49 10000 5.7 170 19:27 10.06.2019
6590 Thunderstorm 21 1010 49 10000 5.7 170 18:59 10.06.2019
6591 Rain 21 1009 47 10000 4.1 150 18:41 10.06.2019
6592 Rain 23 1010 53 10000 5.1 170 18:21 10.06.2019
6593 Rain 22 1010 53 10000 5.1 170 17:58 10.06.2019
6594 Rain 22 1010 49 10000 4.6 160 17:37 10.06.2019
6595 Clouds 23 1010 53 10000 5.7 170 17:19 10.06.2019
6596 Clear 23 1010 53 10000 4.6 170 16:42 10.06.2019
6597 Clear 23 1010 53 10000 4.6 170 16:24 10.06.2019
6598 Rain 23 1010 53 10000 5.7 170 15:42 10.06.2019
6599 Rain 23 1010 53 10000 5.7 170 15:24 10.06.2019
6600 Rain 23 1011 53 10000 2.1 160 14:58 10.06.2019
6601 Clouds 23 1011 56 10000 3.6 140 14:38 10.06.2019
6602 Clouds 23 1011 50 10000 2.6 0 14:20 10.06.2019
6603 Clouds 23 1012 53 10000 3.6 160 13:43 10.06.2019
6604 Clouds 23 1012 53 10000 2.6 150 13:22 10.06.2019
6605 Clouds 22 1012 53 10000 3.1 170 12:45 10.06.2019
6606 Clouds 22 1012 53 10000 3.1 170 12:26 10.06.2019
6607 Clear 21 1013 60 10000 3.1 150 11:46 10.06.2019
6608 Clouds 21 1012 63 10000 1.5 120 11:46 10.06.2019
6609 Clear 21 1013 60 10000 3.1 150 11:28 10.06.2019
6610 Clear 20 1013 63 10000 3.1 140 10:57 10.06.2019
6611 Clear 19 1014 63 10000 2.6 140 10:38 10.06.2019
6612 Clear 18 1014 67 10000 2.6 150 10:18 10.06.2019
6613 Clear 17 1014 67 10000 2.1 130 09:45 10.06.2019
6614 Clear 17 1014 67 10000 2.1 130 09:26 10.06.2019
6615 Clear 16 1014 72 10000 1.5 170 08:45 10.06.2019
6616 Clear 15 1014 77 10000 2.1 140 08:25 10.06.2019
6617 Clear 15 1014 87 10000 1.5 170 07:26 10.06.2019
6618 Clear 14 1014 82 10000 1 0 04:41 10.06.2019
6619 Clear 15 1016 82 10000 1.5 180 02:18 10.06.2019
6620 Clear 16 1016 77 10000 1.5 140 01:28 10.06.2019
6621 Clear 16 1016 77 10000 1.5 70 00:59 10.06.2019
6622 Clear 17 1017 63 10000 3.1 60 00:31 10.06.2019
6623 Clouds 17 1017 59 10000 2.1 300 23:45 09.06.2019
6624 Clear 17 1017 72 10000 1 0 23:21 09.06.2019
6625 Clear 18 1017 59 10000 0.5 0 22:45 09.06.2019
6626 Clear 18 1017 59 10000 0.5 0 22:26 09.06.2019
6627 Clouds 18 1018 52 10000 2.1 10 21:47 09.06.2019
6628 Clear 19 1017 55 10000 1 40 21:28 09.06.2019
6629 Clear 19 1017 49 10000 1.5 40 20:58 09.06.2019
6630 Clear 20 1018 52 10000 1.5 30 20:40 09.06.2019
6631 Clear 20 1018 52 10000 1.5 30 20:21 09.06.2019
6632 Clear 20 1018 49 10000 2.1 30 19:43 09.06.2019
6633 Clear 20 1018 49 10000 2.1 30 19:43 09.06.2019
6634 Clear 21 1018 46 10000 3.1 40 19:18 09.06.2019
6635 Clear 21 1019 49 10000 2.1 60 18:43 09.06.2019
6636 Clear 21 1019 49 10000 2.1 60 18:25 09.06.2019
6637 Clear 22 1019 46 10000 1 0 17:56 09.06.2019
6638 Clear 21 1020 40 10000 1.5 0 17:30 09.06.2019
6639 Clear 22 1020 43 10000 1.5 320 16:59 09.06.2019
6640 Clear 22 1020 40 10000 2.1 0 16:40 09.06.2019
6641 Clear 22 1020 40 10000 2.1 0 16:40 09.06.2019
6642 Clear 22 1020 40 10000 2.1 0 16:20 09.06.2019
6643 Clouds 22 1021 42 10000 2.1 110 15:50 09.06.2019
6644 Clear 22 1021 40 10000 1.5 0 15:29 09.06.2019
6645 Clear 22 1021 40 10000 1.5 0 14:56 09.06.2019
6646 Clear 22 1022 40 10000 2.1 0 14:38 09.06.2019
6647 Clear 22 1022 40 10000 2.6 110 14:19 09.06.2019
6648 Clouds 21 1022 43 10000 2.6 120 13:48 09.06.2019
6649 Clouds 20 1023 42 10000 1.5 0 12:57 09.06.2019
6650 Clouds 20 1024 45 10000 2.1 0 12:38 09.06.2019
6651 Clouds 20 1024 45 10000 2.1 0 12:19 09.06.2019
6652 Clouds 19 1024 52 10000 1.5 0 11:38 09.06.2019
6653 Clear 18 1024 59 10000 1.5 160 11:19 09.06.2019
6654 Clear 18 1024 59 10000 2.1 0 10:43 09.06.2019
6655 Clear 17 1024 63 10000 2.1 150 10:22 09.06.2019
6656 Clear 16 1024 67 10000 3.6 140 09:40 09.06.2019
6657 Clear 15 1024 71 10000 2.6 130 09:21 09.06.2019
6658 Clouds 14 1024 71 10000 1.5 110 08:46 09.06.2019
6659 Clear 13 1024 76 10000 2.1 70 08:27 09.06.2019
6660 Clear 11 1024 93 10000 1.5 60 07:21 09.06.2019
6661 Clear 10 1024 87 10000 1.5 50 06:30 09.06.2019
6662 Clear 10 1024 76 10000 1.5 110 04:35 09.06.2019
6663 Clear 11 1024 71 10000 3.1 180 01:38 09.06.2019
6664 Clear 12 1024 81 10000 2.6 170 01:20 09.06.2019
6665 Clouds 12 1023 81 7000 3.6 200 00:58 09.06.2019
6666 Clouds 13 1023 76 8000 2.6 190 23:44 08.06.2019
6667 Clear 13 1023 76 10000 3.1 190 23:24 08.06.2019
6668 Clear 13 1023 71 10000 3.1 200 22:58 08.06.2019
6669 Rain 13 1023 71 10000 3.1 200 22:40 08.06.2019
6670 Rain 14 1023 71 10000 3.1 200 22:19 08.06.2019
6671 Rain 14 1023 71 10000 3.1 200 22:19 08.06.2019
6672 Rain 14 1023 71 10000 3.1 200 21:51 08.06.2019
6673 Clouds 15 1022 76 10000 4.6 210 21:27 08.06.2019
6674 Rain 15 1022 76 10000 4.6 180 20:58 08.06.2019
6675 Rain 15 1022 76 10000 7.2 240 20:40 08.06.2019
6676 Rain 16 1021 48 10000 6.2 210 20:19 08.06.2019
6677 Rain 16 1021 45 10000 6.7 200 19:40 08.06.2019
6678 Rain 17 1021 42 10000 6.2 230 19:20 08.06.2019
6679 Rain 17 1021 42 10000 6.2 230 18:56 08.06.2019
6680 Rain 17 1021 45 10000 7.2 210 18:35 08.06.2019
6681 Rain 18 1021 45 10000 8.7 210 17:59 08.06.2019
6682 Rain 18 1020 45 10000 5.7 190 17:39 08.06.2019
6683 Rain 18 1021 52 10000 7.2 200 17:18 08.06.2019
6684 Rain 17 1020 45 10000 7.2 230 16:44 08.06.2019
6685 Clear 18 1020 42 10000 8.7 210 16:18 08.06.2019
6686 Clear 18 1020 45 10000 8.2 220 15:38 08.06.2019
6687 Clear 17 1020 48 10000 10.3 210 14:54 08.06.2019
6688 Clear 17 1020 48 10000 9.8 210 14:32 08.06.2019
6689 Clouds 17 1020 51 10000 9.3 230 13:59 08.06.2019
6690 Clear 17 1019 48 10000 9.8 210 13:37 08.06.2019
6691 Clear 16 1019 45 10000 8.7 210 12:47 08.06.2019
6692 Clear 16 1019 45 10000 8.7 210 12:24 08.06.2019
6693 Clear 15 1018 48 10000 10.3 210 11:44 08.06.2019
6694 Clear 15 1018 48 10000 10.3 210 11:23 08.06.2019
6695 Clouds 15 1017 47 10000 8.2 220 10:45 08.06.2019
6696 Clouds 15 1018 51 10000 8.7 210 10:23 08.06.2019
6697 Clear 14 1017 51 10000 9.8 210 09:50 08.06.2019
6698 Clear 14 1017 51 10000 8.7 210 09:24 08.06.2019
6699 Clear 13 1017